| 1 | <?xml version='1.0' encoding='UTF-8'?>
|
|---|
| 2 | <gpx version="1.1" creator="JOSM GPX export" xmlns="http://www.topografix.com/GPX/1/1"
|
|---|
| 3 | xmlns:josm="http://josm.openstreetmap.de/gpx-extensions-1.0"
|
|---|
| 4 | xmlns:xsi="http://www.w3.org/2001/XMLSchema-instance"
|
|---|
| 5 | xsi:schemaLocation="http://www.topografix.com/GPX/1/1 http://www.topografix.com/GPX/1/1/gpx.xsd">
|
|---|
| 6 | <metadata>
|
|---|
| 7 | <bounds minlat="43.601124" minlon="1.4253481" maxlat="43.609008" maxlon="1.43054"/>
|
|---|
| 8 | <extensions>
|
|---|
| 9 | <josm:from-server>true</josm:from-server>
|
|---|
| 10 | </extensions>
|
|---|
| 11 | </metadata>
|
|---|
| 12 | <trk>
|
|---|
| 13 | <trkseg>
|
|---|
| 14 | <trkpt lat="43.6081394" lon="1.428216">
|
|---|
| 15 | <time>2016-12-09T19:05:13Z</time>
|
|---|
| 16 | </trkpt>
|
|---|
| 17 | <trkpt lat="43.60817" lon="1.4282274">
|
|---|
| 18 | <time>2016-12-09T19:05:24Z</time>
|
|---|
| 19 | </trkpt>
|
|---|
| 20 | <trkpt lat="43.608212" lon="1.4283792">
|
|---|
| 21 | <time>2016-12-09T19:05:34Z</time>
|
|---|
| 22 | </trkpt>
|
|---|
| 23 | <trkpt lat="43.6085641" lon="1.4290519">
|
|---|
| 24 | <time>2016-12-09T19:05:45Z</time>
|
|---|
| 25 | </trkpt>
|
|---|
| 26 | <trkpt lat="43.608795" lon="1.4297219">
|
|---|
| 27 | <time>2016-12-09T19:05:56Z</time>
|
|---|
| 28 | </trkpt>
|
|---|
| 29 | <trkpt lat="43.6088853" lon="1.4300795">
|
|---|
| 30 | <time>2016-12-09T19:06:06Z</time>
|
|---|
| 31 | </trkpt>
|
|---|
| 32 | <trkpt lat="43.6088826" lon="1.4301059">
|
|---|
| 33 | <time>2016-12-09T19:06:16Z</time>
|
|---|
| 34 | </trkpt>
|
|---|
| 35 | <trkpt lat="43.6089283" lon="1.430273">
|
|---|
| 36 | <time>2016-12-09T19:06:26Z</time>
|
|---|
| 37 | </trkpt>
|
|---|
| 38 | </trkseg>
|
|---|
| 39 | </trk>
|
|---|
| 40 | <trk>
|
|---|
| 41 | <trkseg>
|
|---|
| 42 | <trkpt lat="43.6076278" lon="1.4264577">
|
|---|
| 43 | <time>2016-11-25T10:41:30Z</time>
|
|---|
| 44 | </trkpt>
|
|---|
| 45 | <trkpt lat="43.6072514" lon="1.427325">
|
|---|
| 46 | <time>2016-11-25T10:41:40Z</time>
|
|---|
| 47 | </trkpt>
|
|---|
| 48 | <trkpt lat="43.6070657" lon="1.4278581">
|
|---|
| 49 | <time>2016-11-25T10:41:51Z</time>
|
|---|
| 50 | </trkpt>
|
|---|
| 51 | <trkpt lat="43.6070499" lon="1.4278461">
|
|---|
| 52 | <time>2016-11-25T10:42:02Z</time>
|
|---|
| 53 | </trkpt>
|
|---|
| 54 | <trkpt lat="43.6070499" lon="1.4278461">
|
|---|
| 55 | <time>2016-11-25T10:42:13Z</time>
|
|---|
| 56 | </trkpt>
|
|---|
| 57 | <trkpt lat="43.6070499" lon="1.4278461">
|
|---|
| 58 | <time>2016-11-25T10:42:23Z</time>
|
|---|
| 59 | </trkpt>
|
|---|
| 60 | <trkpt lat="43.6067941" lon="1.4281075">
|
|---|
| 61 | <time>2016-11-25T10:42:33Z</time>
|
|---|
| 62 | </trkpt>
|
|---|
| 63 | <trkpt lat="43.6059374" lon="1.4280554">
|
|---|
| 64 | <time>2016-11-25T10:42:43Z</time>
|
|---|
| 65 | </trkpt>
|
|---|
| 66 | <trkpt lat="43.6053774" lon="1.4280016">
|
|---|
| 67 | <time>2016-11-25T10:42:53Z</time>
|
|---|
| 68 | </trkpt>
|
|---|
| 69 | <trkpt lat="43.604289" lon="1.4278981">
|
|---|
| 70 | <time>2016-11-25T10:43:04Z</time>
|
|---|
| 71 | </trkpt>
|
|---|
| 72 | <trkpt lat="43.6030083" lon="1.4278439">
|
|---|
| 73 | <time>2016-11-25T10:43:15Z</time>
|
|---|
| 74 | </trkpt>
|
|---|
| 75 | <trkpt lat="43.6017573" lon="1.4278313">
|
|---|
| 76 | <time>2016-11-25T10:43:26Z</time>
|
|---|
| 77 | </trkpt>
|
|---|
| 78 | </trkseg>
|
|---|
| 79 | <trkseg>
|
|---|
| 80 | <trkpt lat="43.601143" lon="1.428548">
|
|---|
| 81 | <time>2016-11-25T11:38:31Z</time>
|
|---|
| 82 | </trkpt>
|
|---|
| 83 | <trkpt lat="43.602318" lon="1.427967">
|
|---|
| 84 | <time>2016-11-25T11:38:42Z</time>
|
|---|
| 85 | </trkpt>
|
|---|
| 86 | <trkpt lat="43.6035127" lon="1.4281222">
|
|---|
| 87 | <time>2016-11-25T11:38:53Z</time>
|
|---|
| 88 | </trkpt>
|
|---|
| 89 | <trkpt lat="43.6045729" lon="1.428205">
|
|---|
| 90 | <time>2016-11-25T11:39:04Z</time>
|
|---|
| 91 | </trkpt>
|
|---|
| 92 | <trkpt lat="43.6054002" lon="1.4282706">
|
|---|
| 93 | <time>2016-11-25T11:39:14Z</time>
|
|---|
| 94 | </trkpt>
|
|---|
| 95 | <trkpt lat="43.6064845" lon="1.4283068">
|
|---|
| 96 | <time>2016-11-25T11:39:25Z</time>
|
|---|
| 97 | </trkpt>
|
|---|
| 98 | <trkpt lat="43.6069334" lon="1.4283483">
|
|---|
| 99 | <time>2016-11-25T11:39:35Z</time>
|
|---|
| 100 | </trkpt>
|
|---|
| 101 | <trkpt lat="43.6070805" lon="1.4283601">
|
|---|
| 102 | <time>2016-11-25T11:39:46Z</time>
|
|---|
| 103 | </trkpt>
|
|---|
| 104 | <trkpt lat="43.6072581" lon="1.4283317">
|
|---|
| 105 | <time>2016-11-25T11:39:56Z</time>
|
|---|
| 106 | </trkpt>
|
|---|
| 107 | <trkpt lat="43.6072528" lon="1.4283322">
|
|---|
| 108 | <time>2016-11-25T11:40:07Z</time>
|
|---|
| 109 | </trkpt>
|
|---|
| 110 | <trkpt lat="43.6072528" lon="1.4283322">
|
|---|
| 111 | <time>2016-11-25T11:40:18Z</time>
|
|---|
| 112 | </trkpt>
|
|---|
| 113 | <trkpt lat="43.6074144" lon="1.4283015">
|
|---|
| 114 | <time>2016-11-25T11:40:28Z</time>
|
|---|
| 115 | </trkpt>
|
|---|
| 116 | <trkpt lat="43.6074442" lon="1.4282812">
|
|---|
| 117 | <time>2016-11-25T11:40:39Z</time>
|
|---|
| 118 | </trkpt>
|
|---|
| 119 | <trkpt lat="43.6077022" lon="1.4276475">
|
|---|
| 120 | <time>2016-11-25T11:40:50Z</time>
|
|---|
| 121 | </trkpt>
|
|---|
| 122 | <trkpt lat="43.6080727" lon="1.4265986">
|
|---|
| 123 | <time>2016-11-25T11:41:01Z</time>
|
|---|
| 124 | </trkpt>
|
|---|
| 125 | <trkpt lat="43.6084119" lon="1.425669">
|
|---|
| 126 | <time>2016-11-25T11:41:12Z</time>
|
|---|
| 127 | </trkpt>
|
|---|
| 128 | </trkseg>
|
|---|
| 129 | </trk>
|
|---|
| 130 | <trk>
|
|---|
| 131 | <trkseg>
|
|---|
| 132 | <trkpt lat="43.6081394" lon="1.428216">
|
|---|
| 133 | <time>2016-12-09T19:05:13Z</time>
|
|---|
| 134 | </trkpt>
|
|---|
| 135 | <trkpt lat="43.60817" lon="1.4282274">
|
|---|
| 136 | <time>2016-12-09T19:05:24Z</time>
|
|---|
| 137 | </trkpt>
|
|---|
| 138 | <trkpt lat="43.608212" lon="1.4283792">
|
|---|
| 139 | <time>2016-12-09T19:05:34Z</time>
|
|---|
| 140 | </trkpt>
|
|---|
| 141 | <trkpt lat="43.6085641" lon="1.4290519">
|
|---|
| 142 | <time>2016-12-09T19:05:45Z</time>
|
|---|
| 143 | </trkpt>
|
|---|
| 144 | <trkpt lat="43.608795" lon="1.4297219">
|
|---|
| 145 | <time>2016-12-09T19:05:56Z</time>
|
|---|
| 146 | </trkpt>
|
|---|
| 147 | <trkpt lat="43.6088853" lon="1.4300795">
|
|---|
| 148 | <time>2016-12-09T19:06:06Z</time>
|
|---|
| 149 | </trkpt>
|
|---|
| 150 | <trkpt lat="43.6088826" lon="1.4301059">
|
|---|
| 151 | <time>2016-12-09T19:06:16Z</time>
|
|---|
| 152 | </trkpt>
|
|---|
| 153 | <trkpt lat="43.6089283" lon="1.430273">
|
|---|
| 154 | <time>2016-12-09T19:06:26Z</time>
|
|---|
| 155 | </trkpt>
|
|---|
| 156 | </trkseg>
|
|---|
| 157 | </trk>
|
|---|
| 158 | <trk>
|
|---|
| 159 | <trkseg>
|
|---|
| 160 | <trkpt lat="43.6076278" lon="1.4264577">
|
|---|
| 161 | <time>2016-11-25T10:41:30Z</time>
|
|---|
| 162 | </trkpt>
|
|---|
| 163 | <trkpt lat="43.6072514" lon="1.427325">
|
|---|
| 164 | <time>2016-11-25T10:41:40Z</time>
|
|---|
| 165 | </trkpt>
|
|---|
| 166 | <trkpt lat="43.6070657" lon="1.4278581">
|
|---|
| 167 | <time>2016-11-25T10:41:51Z</time>
|
|---|
| 168 | </trkpt>
|
|---|
| 169 | <trkpt lat="43.6070499" lon="1.4278461">
|
|---|
| 170 | <time>2016-11-25T10:42:02Z</time>
|
|---|
| 171 | </trkpt>
|
|---|
| 172 | <trkpt lat="43.6070499" lon="1.4278461">
|
|---|
| 173 | <time>2016-11-25T10:42:13Z</time>
|
|---|
| 174 | </trkpt>
|
|---|
| 175 | <trkpt lat="43.6070499" lon="1.4278461">
|
|---|
| 176 | <time>2016-11-25T10:42:23Z</time>
|
|---|
| 177 | </trkpt>
|
|---|
| 178 | <trkpt lat="43.6067941" lon="1.4281075">
|
|---|
| 179 | <time>2016-11-25T10:42:33Z</time>
|
|---|
| 180 | </trkpt>
|
|---|
| 181 | <trkpt lat="43.6059374" lon="1.4280554">
|
|---|
| 182 | <time>2016-11-25T10:42:43Z</time>
|
|---|
| 183 | </trkpt>
|
|---|
| 184 | <trkpt lat="43.6053774" lon="1.4280016">
|
|---|
| 185 | <time>2016-11-25T10:42:53Z</time>
|
|---|
| 186 | </trkpt>
|
|---|
| 187 | <trkpt lat="43.604289" lon="1.4278981">
|
|---|
| 188 | <time>2016-11-25T10:43:04Z</time>
|
|---|
| 189 | </trkpt>
|
|---|
| 190 | <trkpt lat="43.6030083" lon="1.4278439">
|
|---|
| 191 | <time>2016-11-25T10:43:15Z</time>
|
|---|
| 192 | </trkpt>
|
|---|
| 193 | <trkpt lat="43.6017573" lon="1.4278313">
|
|---|
| 194 | <time>2016-11-25T10:43:26Z</time>
|
|---|
| 195 | </trkpt>
|
|---|
| 196 | </trkseg>
|
|---|
| 197 | <trkseg>
|
|---|
| 198 | <trkpt lat="43.601143" lon="1.428548">
|
|---|
| 199 | <time>2016-11-25T11:38:31Z</time>
|
|---|
| 200 | </trkpt>
|
|---|
| 201 | <trkpt lat="43.602318" lon="1.427967">
|
|---|
| 202 | <time>2016-11-25T11:38:42Z</time>
|
|---|
| 203 | </trkpt>
|
|---|
| 204 | <trkpt lat="43.6035127" lon="1.4281222">
|
|---|
| 205 | <time>2016-11-25T11:38:53Z</time>
|
|---|
| 206 | </trkpt>
|
|---|
| 207 | <trkpt lat="43.6045729" lon="1.428205">
|
|---|
| 208 | <time>2016-11-25T11:39:04Z</time>
|
|---|
| 209 | </trkpt>
|
|---|
| 210 | <trkpt lat="43.6054002" lon="1.4282706">
|
|---|
| 211 | <time>2016-11-25T11:39:14Z</time>
|
|---|
| 212 | </trkpt>
|
|---|
| 213 | <trkpt lat="43.6064845" lon="1.4283068">
|
|---|
| 214 | <time>2016-11-25T11:39:25Z</time>
|
|---|
| 215 | </trkpt>
|
|---|
| 216 | <trkpt lat="43.6069334" lon="1.4283483">
|
|---|
| 217 | <time>2016-11-25T11:39:35Z</time>
|
|---|
| 218 | </trkpt>
|
|---|
| 219 | <trkpt lat="43.6070805" lon="1.4283601">
|
|---|
| 220 | <time>2016-11-25T11:39:46Z</time>
|
|---|
| 221 | </trkpt>
|
|---|
| 222 | <trkpt lat="43.6072581" lon="1.4283317">
|
|---|
| 223 | <time>2016-11-25T11:39:56Z</time>
|
|---|
| 224 | </trkpt>
|
|---|
| 225 | <trkpt lat="43.6072528" lon="1.4283322">
|
|---|
| 226 | <time>2016-11-25T11:40:07Z</time>
|
|---|
| 227 | </trkpt>
|
|---|
| 228 | <trkpt lat="43.6072528" lon="1.4283322">
|
|---|
| 229 | <time>2016-11-25T11:40:18Z</time>
|
|---|
| 230 | </trkpt>
|
|---|
| 231 | <trkpt lat="43.6074144" lon="1.4283015">
|
|---|
| 232 | <time>2016-11-25T11:40:28Z</time>
|
|---|
| 233 | </trkpt>
|
|---|
| 234 | <trkpt lat="43.6074442" lon="1.4282812">
|
|---|
| 235 | <time>2016-11-25T11:40:39Z</time>
|
|---|
| 236 | </trkpt>
|
|---|
| 237 | <trkpt lat="43.6077022" lon="1.4276475">
|
|---|
| 238 | <time>2016-11-25T11:40:50Z</time>
|
|---|
| 239 | </trkpt>
|
|---|
| 240 | <trkpt lat="43.6080727" lon="1.4265986">
|
|---|
| 241 | <time>2016-11-25T11:41:01Z</time>
|
|---|
| 242 | </trkpt>
|
|---|
| 243 | <trkpt lat="43.6084119" lon="1.425669">
|
|---|
| 244 | <time>2016-11-25T11:41:12Z</time>
|
|---|
| 245 | </trkpt>
|
|---|
| 246 | </trkseg>
|
|---|
| 247 | </trk>
|
|---|
| 248 | <trk>
|
|---|
| 249 | <trkseg>
|
|---|
| 250 | <trkpt lat="43.6084422" lon="1.4255737">
|
|---|
| 251 | <time>2016-11-25T11:41:13Z</time>
|
|---|
| 252 | </trkpt>
|
|---|
| 253 | </trkseg>
|
|---|
| 254 | </trk>
|
|---|
| 255 | <trk>
|
|---|
| 256 | <trkseg>
|
|---|
| 257 | <trkpt lat="43.6011354" lon="1.4284993"/>
|
|---|
| 258 | <trkpt lat="43.6012912" lon="1.4283915"/>
|
|---|
| 259 | <trkpt lat="43.6014503" lon="1.4282542"/>
|
|---|
| 260 | <trkpt lat="43.6015797" lon="1.4281316"/>
|
|---|
| 261 | <trkpt lat="43.601801" lon="1.4280056"/>
|
|---|
| 262 | <trkpt lat="43.602066" lon="1.4279299"/>
|
|---|
| 263 | <trkpt lat="43.6022112" lon="1.4278899"/>
|
|---|
| 264 | <trkpt lat="43.6023821" lon="1.4279211"/>
|
|---|
| 265 | <trkpt lat="43.6025172" lon="1.4279356"/>
|
|---|
| 266 | <trkpt lat="43.6026497" lon="1.4279623"/>
|
|---|
| 267 | <trkpt lat="43.6028488" lon="1.4279462"/>
|
|---|
| 268 | <trkpt lat="43.603034" lon="1.4279567"/>
|
|---|
| 269 | <trkpt lat="43.6032392" lon="1.4279981"/>
|
|---|
| 270 | <trkpt lat="43.6033981" lon="1.4280303"/>
|
|---|
| 271 | <trkpt lat="43.603619" lon="1.428036"/>
|
|---|
| 272 | <trkpt lat="43.603808" lon="1.4280297"/>
|
|---|
| 273 | <trkpt lat="43.6040321" lon="1.4280524"/>
|
|---|
| 274 | <trkpt lat="43.604247" lon="1.4280736"/>
|
|---|
| 275 | <trkpt lat="43.6044649" lon="1.4281168"/>
|
|---|
| 276 | <trkpt lat="43.604658" lon="1.4281055"/>
|
|---|
| 277 | <trkpt lat="43.6049276" lon="1.428108"/>
|
|---|
| 278 | <trkpt lat="43.6052057" lon="1.4281011"/>
|
|---|
| 279 | <trkpt lat="43.6055186" lon="1.4280423"/>
|
|---|
| 280 | <trkpt lat="43.6057795" lon="1.4280615"/>
|
|---|
| 281 | <trkpt lat="43.6058314" lon="1.4283221"/>
|
|---|
| 282 | <trkpt lat="43.6058262" lon="1.4287282"/>
|
|---|
| 283 | <trkpt lat="43.6058396" lon="1.4289931"/>
|
|---|
| 284 | <trkpt lat="43.6057974" lon="1.4292084"/>
|
|---|
| 285 | <trkpt lat="43.6057752" lon="1.4294911"/>
|
|---|
| 286 | <trkpt lat="43.6057146" lon="1.4296411"/>
|
|---|
| 287 | <trkpt lat="43.6057012" lon="1.4299066"/>
|
|---|
| 288 | <trkpt lat="43.6055897" lon="1.430153"/>
|
|---|
| 289 | <trkpt lat="43.605611" lon="1.4303608"/>
|
|---|
| 290 | <trkpt lat="43.6057207" lon="1.4304988"/>
|
|---|
| 291 | <trkpt lat="43.6011553" lon="1.4284115"/>
|
|---|
| 292 | <trkpt lat="43.6012591" lon="1.4283406"/>
|
|---|
| 293 | <trkpt lat="43.6013623" lon="1.4282794"/>
|
|---|
| 294 | <trkpt lat="43.601467" lon="1.4282202"/>
|
|---|
| 295 | <trkpt lat="43.6015691" lon="1.4281617"/>
|
|---|
| 296 | <trkpt lat="43.6016714" lon="1.428102"/>
|
|---|
| 297 | <trkpt lat="43.6017734" lon="1.4280427"/>
|
|---|
| 298 | <trkpt lat="43.6018757" lon="1.4279898"/>
|
|---|
| 299 | <trkpt lat="43.6019767" lon="1.4279518"/>
|
|---|
| 300 | <trkpt lat="43.6020817" lon="1.4279389"/>
|
|---|
| 301 | <trkpt lat="43.6021851" lon="1.4279368"/>
|
|---|
| 302 | <trkpt lat="43.6022901" lon="1.4279437"/>
|
|---|
| 303 | <trkpt lat="43.6023919" lon="1.4279534"/>
|
|---|
| 304 | <trkpt lat="43.6024938" lon="1.4279608"/>
|
|---|
| 305 | <trkpt lat="43.6025957" lon="1.427968"/>
|
|---|
| 306 | <trkpt lat="43.602701" lon="1.4279753"/>
|
|---|
| 307 | <trkpt lat="43.6028108" lon="1.4279849"/>
|
|---|
| 308 | <trkpt lat="43.6029213" lon="1.4279948"/>
|
|---|
| 309 | <trkpt lat="43.6030342" lon="1.4280043"/>
|
|---|
| 310 | <trkpt lat="43.6031476" lon="1.4280132"/>
|
|---|
| 311 | <trkpt lat="43.6032623" lon="1.4280214"/>
|
|---|
| 312 | <trkpt lat="43.6033771" lon="1.4280289"/>
|
|---|
| 313 | <trkpt lat="43.6034925" lon="1.4280364"/>
|
|---|
| 314 | <trkpt lat="43.6036058" lon="1.4280443"/>
|
|---|
| 315 | <trkpt lat="43.6037215" lon="1.4280536"/>
|
|---|
| 316 | <trkpt lat="43.6038372" lon="1.4280626"/>
|
|---|
| 317 | <trkpt lat="43.6039522" lon="1.4280717"/>
|
|---|
| 318 | <trkpt lat="43.604066" lon="1.4280816"/>
|
|---|
| 319 | <trkpt lat="43.6041751" lon="1.4280907"/>
|
|---|
| 320 | <trkpt lat="43.6042843" lon="1.4280995"/>
|
|---|
| 321 | <trkpt lat="43.604392" lon="1.4281085"/>
|
|---|
| 322 | <trkpt lat="43.6044953" lon="1.4281173"/>
|
|---|
| 323 | <trkpt lat="43.6045903" lon="1.428124"/>
|
|---|
| 324 | <trkpt lat="43.6046779" lon="1.4281341"/>
|
|---|
| 325 | <trkpt lat="43.6047583" lon="1.4281413"/>
|
|---|
| 326 | <trkpt lat="43.6048401" lon="1.4281485"/>
|
|---|
| 327 | <trkpt lat="43.6049202" lon="1.4281561"/>
|
|---|
| 328 | <trkpt lat="43.6049991" lon="1.4281676"/>
|
|---|
| 329 | <trkpt lat="43.6050761" lon="1.4281757"/>
|
|---|
| 330 | <trkpt lat="43.6051517" lon="1.4281829"/>
|
|---|
| 331 | <trkpt lat="43.6052245" lon="1.4281889"/>
|
|---|
| 332 | <trkpt lat="43.6052951" lon="1.4281935"/>
|
|---|
| 333 | <trkpt lat="43.6053661" lon="1.4282006"/>
|
|---|
| 334 | <trkpt lat="43.605438" lon="1.4282069"/>
|
|---|
| 335 | <trkpt lat="43.6055118" lon="1.4282138"/>
|
|---|
| 336 | <trkpt lat="43.6055835" lon="1.4282159"/>
|
|---|
| 337 | <trkpt lat="43.6056586" lon="1.4282199"/>
|
|---|
| 338 | <trkpt lat="43.6057341" lon="1.4282262"/>
|
|---|
| 339 | <trkpt lat="43.6058106" lon="1.4282333"/>
|
|---|
| 340 | <trkpt lat="43.6058869" lon="1.4282414"/>
|
|---|
| 341 | <trkpt lat="43.6059653" lon="1.4282513"/>
|
|---|
| 342 | <trkpt lat="43.6060374" lon="1.4282611"/>
|
|---|
| 343 | <trkpt lat="43.6060978" lon="1.4282659"/>
|
|---|
| 344 | <trkpt lat="43.6061563" lon="1.4282708"/>
|
|---|
| 345 | <trkpt lat="43.606214" lon="1.4282733"/>
|
|---|
| 346 | <trkpt lat="43.6062704" lon="1.4282731"/>
|
|---|
| 347 | <trkpt lat="43.606328" lon="1.4282771"/>
|
|---|
| 348 | <trkpt lat="43.6064014" lon="1.4282836"/>
|
|---|
| 349 | <trkpt lat="43.6064715" lon="1.4282915"/>
|
|---|
| 350 | <trkpt lat="43.60654" lon="1.428294"/>
|
|---|
| 351 | <trkpt lat="43.6066075" lon="1.4282978"/>
|
|---|
| 352 | <trkpt lat="43.6066723" lon="1.4283015"/>
|
|---|
| 353 | <trkpt lat="43.6067433" lon="1.4283065"/>
|
|---|
| 354 | <trkpt lat="43.606815" lon="1.4283171"/>
|
|---|
| 355 | <trkpt lat="43.6068895" lon="1.4283278"/>
|
|---|
| 356 | <trkpt lat="43.6069618" lon="1.4283356"/>
|
|---|
| 357 | <trkpt lat="43.6070297" lon="1.4283407"/>
|
|---|
| 358 | <trkpt lat="43.6070955" lon="1.4283444"/>
|
|---|
| 359 | <trkpt lat="43.6071589" lon="1.4283468"/>
|
|---|
| 360 | <trkpt lat="43.6072184" lon="1.4283484"/>
|
|---|
| 361 | <trkpt lat="43.6072842" lon="1.4283517"/>
|
|---|
| 362 | <trkpt lat="43.6073511" lon="1.4283557"/>
|
|---|
| 363 | <trkpt lat="43.6074237" lon="1.4283535"/>
|
|---|
| 364 | <trkpt lat="43.6075008" lon="1.4283476"/>
|
|---|
| 365 | <trkpt lat="43.6075798" lon="1.4283433"/>
|
|---|
| 366 | <trkpt lat="43.6076586" lon="1.4283417"/>
|
|---|
| 367 | <trkpt lat="43.6077366" lon="1.4283406"/>
|
|---|
| 368 | <trkpt lat="43.6078143" lon="1.4283416"/>
|
|---|
| 369 | <trkpt lat="43.6078943" lon="1.428339"/>
|
|---|
| 370 | <trkpt lat="43.6081186" lon="1.428325"/>
|
|---|
| 371 | <trkpt lat="43.6081747" lon="1.4283049"/>
|
|---|
| 372 | <trkpt lat="43.6082196" lon="1.4282646"/>
|
|---|
| 373 | <trkpt lat="43.6082528" lon="1.4282167"/>
|
|---|
| 374 | <trkpt lat="43.6082656" lon="1.4281663"/>
|
|---|
| 375 | <trkpt lat="43.6082686" lon="1.4281149"/>
|
|---|
| 376 | <trkpt lat="43.6082578" lon="1.4280442"/>
|
|---|
| 377 | <trkpt lat="43.6082382" lon="1.4279755"/>
|
|---|
| 378 | <trkpt lat="43.6082189" lon="1.427904"/>
|
|---|
| 379 | <trkpt lat="43.6081932" lon="1.4278006"/>
|
|---|
| 380 | <trkpt lat="43.6081721" lon="1.4277154"/>
|
|---|
| 381 | <trkpt lat="43.6081052" lon="1.4274551"/>
|
|---|
| 382 | <trkpt lat="43.6080869" lon="1.4273948"/>
|
|---|
| 383 | <trkpt lat="43.608067" lon="1.4273337"/>
|
|---|
| 384 | <trkpt lat="43.6080436" lon="1.4272555"/>
|
|---|
| 385 | <trkpt lat="43.6080269" lon="1.4271927"/>
|
|---|
| 386 | <trkpt lat="43.608007" lon="1.4271336"/>
|
|---|
| 387 | <trkpt lat="43.607989" lon="1.4270707"/>
|
|---|
| 388 | <trkpt lat="43.607984" lon="1.4270028"/>
|
|---|
| 389 | <trkpt lat="43.6079821" lon="1.4269309"/>
|
|---|
| 390 | <trkpt lat="43.6079963" lon="1.426834"/>
|
|---|
| 391 | <trkpt lat="43.6080132" lon="1.4267387"/>
|
|---|
| 392 | <trkpt lat="43.6080528" lon="1.4266181"/>
|
|---|
| 393 | <trkpt lat="43.6080928" lon="1.4265091"/>
|
|---|
| 394 | <trkpt lat="43.6081362" lon="1.4264075"/>
|
|---|
| 395 | <trkpt lat="43.6081764" lon="1.4263095"/>
|
|---|
| 396 | <trkpt lat="43.6082177" lon="1.4262084"/>
|
|---|
| 397 | <trkpt lat="43.6082596" lon="1.4261058"/>
|
|---|
| 398 | <trkpt lat="43.6083034" lon="1.426"/>
|
|---|
| 399 | <trkpt lat="43.6083431" lon="1.4259021"/>
|
|---|
| 400 | <trkpt lat="43.6083796" lon="1.4258075"/>
|
|---|
| 401 | <trkpt lat="43.6084138" lon="1.4257153"/>
|
|---|
| 402 | <trkpt lat="43.6084476" lon="1.4256108"/>
|
|---|
| 403 | <trkpt lat="43.6084762" lon="1.4255215"/>
|
|---|
| 404 | <trkpt lat="43.6085069" lon="1.4254228"/>
|
|---|
| 405 | <trkpt lat="43.6046" lon="1.425435"/>
|
|---|
| 406 | <trkpt lat="43.604585" lon="1.4255816"/>
|
|---|
| 407 | <trkpt lat="43.60457" lon="1.42571"/>
|
|---|
| 408 | <trkpt lat="43.6045516" lon="1.4258266"/>
|
|---|
| 409 | <trkpt lat="43.604545" lon="1.4259466"/>
|
|---|
| 410 | <trkpt lat="43.604535" lon="1.426075"/>
|
|---|
| 411 | <trkpt lat="43.604515" lon="1.4261966"/>
|
|---|
| 412 | <trkpt lat="43.60452" lon="1.4261933"/>
|
|---|
| 413 | <trkpt lat="43.6045066" lon="1.42629"/>
|
|---|
| 414 | <trkpt lat="43.604495" lon="1.42642"/>
|
|---|
| 415 | <trkpt lat="43.604485" lon="1.42652"/>
|
|---|
| 416 | <trkpt lat="43.6044716" lon="1.4266216"/>
|
|---|
| 417 | <trkpt lat="43.6044616" lon="1.4267566"/>
|
|---|
| 418 | <trkpt lat="43.60446" lon="1.42686"/>
|
|---|
| 419 | <trkpt lat="43.60445" lon="1.42696"/>
|
|---|
| 420 | <trkpt lat="43.6044383" lon="1.4270633"/>
|
|---|
| 421 | <trkpt lat="43.6044383" lon="1.42718"/>
|
|---|
| 422 | <trkpt lat="43.6044366" lon="1.427285"/>
|
|---|
| 423 | <trkpt lat="43.60443" lon="1.42742"/>
|
|---|
| 424 | <trkpt lat="43.6044316" lon="1.42755"/>
|
|---|
| 425 | <trkpt lat="43.60441" lon="1.4276416"/>
|
|---|
| 426 | <trkpt lat="43.6044366" lon="1.427735"/>
|
|---|
| 427 | <trkpt lat="43.60452" lon="1.4277549"/>
|
|---|
| 428 | <trkpt lat="43.6046" lon="1.42775"/>
|
|---|
| 429 | <trkpt lat="43.604675" lon="1.42769"/>
|
|---|
| 430 | <trkpt lat="43.604765" lon="1.427665"/>
|
|---|
| 431 | <trkpt lat="43.604855" lon="1.42767"/>
|
|---|
| 432 | <trkpt lat="43.604935" lon="1.4276983"/>
|
|---|
| 433 | <trkpt lat="43.605035" lon="1.4277483"/>
|
|---|
| 434 | <trkpt lat="43.6051216" lon="1.427765"/>
|
|---|
| 435 | <trkpt lat="43.605195" lon="1.427805"/>
|
|---|
| 436 | <trkpt lat="43.6052816" lon="1.427855"/>
|
|---|
| 437 | <trkpt lat="43.6053516" lon="1.4279116"/>
|
|---|
| 438 | <trkpt lat="43.605305" lon="1.427995"/>
|
|---|
| 439 | <trkpt lat="43.6052366" lon="1.4279633"/>
|
|---|
| 440 | <trkpt lat="43.60514" lon="1.42793"/>
|
|---|
| 441 | <trkpt lat="43.60503" lon="1.4279266"/>
|
|---|
| 442 | <trkpt lat="43.604935" lon="1.427915"/>
|
|---|
| 443 | <trkpt lat="43.60485" lon="1.427905"/>
|
|---|
| 444 | <trkpt lat="43.604745" lon="1.42791"/>
|
|---|
| 445 | <trkpt lat="43.604645" lon="1.427905"/>
|
|---|
| 446 | <trkpt lat="43.60457" lon="1.427905"/>
|
|---|
| 447 | <trkpt lat="43.6044866" lon="1.4278916"/>
|
|---|
| 448 | <trkpt lat="43.604405" lon="1.427905"/>
|
|---|
| 449 | <trkpt lat="43.604305" lon="1.42791"/>
|
|---|
| 450 | <trkpt lat="43.6042" lon="1.427905"/>
|
|---|
| 451 | <trkpt lat="43.60409" lon="1.427905"/>
|
|---|
| 452 | <trkpt lat="43.60399" lon="1.42791"/>
|
|---|
| 453 | <trkpt lat="43.6039016" lon="1.42791"/>
|
|---|
| 454 | <trkpt lat="43.60382" lon="1.42791"/>
|
|---|
| 455 | <trkpt lat="43.60373" lon="1.427905"/>
|
|---|
| 456 | <trkpt lat="43.603655" lon="1.4279"/>
|
|---|
| 457 | <trkpt lat="43.60362" lon="1.4279"/>
|
|---|
| 458 | <trkpt lat="43.603535" lon="1.427895"/>
|
|---|
| 459 | <trkpt lat="43.60345" lon="1.427895"/>
|
|---|
| 460 | <trkpt lat="43.603345" lon="1.4278816"/>
|
|---|
| 461 | <trkpt lat="43.603275" lon="1.42788"/>
|
|---|
| 462 | <trkpt lat="43.6032" lon="1.42788"/>
|
|---|
| 463 | <trkpt lat="43.6031" lon="1.4278716"/>
|
|---|
| 464 | <trkpt lat="43.603" lon="1.42787"/>
|
|---|
| 465 | <trkpt lat="43.6029066" lon="1.42786"/>
|
|---|
| 466 | <trkpt lat="43.60281" lon="1.427855"/>
|
|---|
| 467 | <trkpt lat="43.60272" lon="1.42785"/>
|
|---|
| 468 | <trkpt lat="43.602635" lon="1.42784"/>
|
|---|
| 469 | <trkpt lat="43.602615" lon="1.427845"/>
|
|---|
| 470 | <trkpt lat="43.6025216" lon="1.427845"/>
|
|---|
| 471 | <trkpt lat="43.6024316" lon="1.4278366"/>
|
|---|
| 472 | <trkpt lat="43.602355" lon="1.4278283"/>
|
|---|
| 473 | <trkpt lat="43.60228" lon="1.4278166"/>
|
|---|
| 474 | <trkpt lat="43.6021966" lon="1.4278116"/>
|
|---|
| 475 | <trkpt lat="43.60212" lon="1.427805"/>
|
|---|
| 476 | <trkpt lat="43.602045" lon="1.4278"/>
|
|---|
| 477 | <trkpt lat="43.60194" lon="1.42781"/>
|
|---|
| 478 | <trkpt lat="43.6018616" lon="1.42782"/>
|
|---|
| 479 | <trkpt lat="43.6017766" lon="1.42785"/>
|
|---|
| 480 | <trkpt lat="43.60172" lon="1.427915"/>
|
|---|
| 481 | <trkpt lat="43.60163" lon="1.42802"/>
|
|---|
| 482 | <trkpt lat="43.60156" lon="1.42808"/>
|
|---|
| 483 | <trkpt lat="43.60149" lon="1.42813"/>
|
|---|
| 484 | <trkpt lat="43.601415" lon="1.42815"/>
|
|---|
| 485 | <trkpt lat="43.6013266" lon="1.4281916"/>
|
|---|
| 486 | <trkpt lat="43.601145" lon="1.4277116"/>
|
|---|
| 487 | <trkpt lat="43.601205" lon="1.42761"/>
|
|---|
| 488 | <trkpt lat="43.601265" lon="1.4275233"/>
|
|---|
| 489 | <trkpt lat="43.601325" lon="1.42746"/>
|
|---|
| 490 | <trkpt lat="43.6013966" lon="1.4273766"/>
|
|---|
| 491 | <trkpt lat="43.60146" lon="1.427285"/>
|
|---|
| 492 | <trkpt lat="43.601525" lon="1.4272"/>
|
|---|
| 493 | <trkpt lat="43.60161" lon="1.4271533"/>
|
|---|
| 494 | <trkpt lat="43.60168" lon="1.4272"/>
|
|---|
| 495 | <trkpt lat="43.6017766" lon="1.4272483"/>
|
|---|
| 496 | <trkpt lat="43.6018516" lon="1.427285"/>
|
|---|
| 497 | <trkpt lat="43.60193" lon="1.4273416"/>
|
|---|
| 498 | <trkpt lat="43.6019516" lon="1.427465"/>
|
|---|
| 499 | <trkpt lat="43.6019716" lon="1.4275583"/>
|
|---|
| 500 | <trkpt lat="43.602045" lon="1.42761"/>
|
|---|
| 501 | <trkpt lat="43.602125" lon="1.4275966"/>
|
|---|
| 502 | <trkpt lat="43.60219" lon="1.427485"/>
|
|---|
| 503 | <trkpt lat="43.60225" lon="1.42739"/>
|
|---|
| 504 | <trkpt lat="43.6023166" lon="1.427285"/>
|
|---|
| 505 | <trkpt lat="43.6023666" lon="1.427205"/>
|
|---|
| 506 | <trkpt lat="43.602415" lon="1.4271116"/>
|
|---|
| 507 | <trkpt lat="43.6024616" lon="1.42703"/>
|
|---|
| 508 | <trkpt lat="43.6025" lon="1.4269366"/>
|
|---|
| 509 | <trkpt lat="43.6025516" lon="1.426815"/>
|
|---|
| 510 | <trkpt lat="43.6026016" lon="1.426685"/>
|
|---|
| 511 | <trkpt lat="43.6026416" lon="1.4266"/>
|
|---|
| 512 | <trkpt lat="43.6026766" lon="1.42651"/>
|
|---|
| 513 | <trkpt lat="43.602715" lon="1.426415"/>
|
|---|
| 514 | <trkpt lat="43.602745" lon="1.426295"/>
|
|---|
| 515 | <trkpt lat="43.60277" lon="1.4261949"/>
|
|---|
| 516 | <trkpt lat="43.602805" lon="1.426095"/>
|
|---|
| 517 | <trkpt lat="43.602835" lon="1.42597"/>
|
|---|
| 518 | <trkpt lat="43.602875" lon="1.4258466"/>
|
|---|
| 519 | <trkpt lat="43.602905" lon="1.4257266"/>
|
|---|
| 520 | <trkpt lat="43.6029316" lon="1.425605"/>
|
|---|
| 521 | <trkpt lat="43.60295" lon="1.42548"/>
|
|---|
| 522 | <trkpt lat="43.602985" lon="1.425355"/>
|
|---|
| 523 | <trkpt lat="43.6067156" lon="1.4305005"/>
|
|---|
| 524 | <trkpt lat="43.6067162" lon="1.430441"/>
|
|---|
| 525 | <trkpt lat="43.606723" lon="1.430378"/>
|
|---|
| 526 | <trkpt lat="43.6067415" lon="1.4303164"/>
|
|---|
| 527 | <trkpt lat="43.6067636" lon="1.4302561"/>
|
|---|
| 528 | <trkpt lat="43.6067717" lon="1.4301844"/>
|
|---|
| 529 | <trkpt lat="43.6067969" lon="1.4301287"/>
|
|---|
| 530 | <trkpt lat="43.6068185" lon="1.4300783"/>
|
|---|
| 531 | <trkpt lat="43.6068415" lon="1.4300059"/>
|
|---|
| 532 | <trkpt lat="43.6068602" lon="1.4299462"/>
|
|---|
| 533 | <trkpt lat="43.60689" lon="1.4298695"/>
|
|---|
| 534 | <trkpt lat="43.6069206" lon="1.4297897"/>
|
|---|
| 535 | <trkpt lat="43.6069498" lon="1.4297151"/>
|
|---|
| 536 | <trkpt lat="43.6069811" lon="1.4296426"/>
|
|---|
| 537 | <trkpt lat="43.607002" lon="1.4295633"/>
|
|---|
| 538 | <trkpt lat="43.6070319" lon="1.4294895"/>
|
|---|
| 539 | <trkpt lat="43.6070641" lon="1.4294098"/>
|
|---|
| 540 | <trkpt lat="43.6070978" lon="1.4293162"/>
|
|---|
| 541 | <trkpt lat="43.6071259" lon="1.4292266"/>
|
|---|
| 542 | <trkpt lat="43.6071509" lon="1.4291321"/>
|
|---|
| 543 | <trkpt lat="43.6071798" lon="1.429061"/>
|
|---|
| 544 | <trkpt lat="43.6072219" lon="1.4289806"/>
|
|---|
| 545 | <trkpt lat="43.6072512" lon="1.4289354"/>
|
|---|
| 546 | <trkpt lat="43.6072815" lon="1.4288498"/>
|
|---|
| 547 | <trkpt lat="43.6072928" lon="1.4288014"/>
|
|---|
| 548 | <trkpt lat="43.6073146" lon="1.4287377"/>
|
|---|
| 549 | <trkpt lat="43.6073282" lon="1.4287064"/>
|
|---|
| 550 | <trkpt lat="43.6073255" lon="1.4286769"/>
|
|---|
| 551 | <trkpt lat="43.607318" lon="1.4286601"/>
|
|---|
| 552 | <trkpt lat="43.6073111" lon="1.4286357"/>
|
|---|
| 553 | <trkpt lat="43.6073141" lon="1.4286116"/>
|
|---|
| 554 | <trkpt lat="43.6073121" lon="1.4285983"/>
|
|---|
| 555 | <trkpt lat="43.6073259" lon="1.4285663"/>
|
|---|
| 556 | <trkpt lat="43.6073397" lon="1.4285282"/>
|
|---|
| 557 | <trkpt lat="43.6073621" lon="1.4284584"/>
|
|---|
| 558 | <trkpt lat="43.6073678" lon="1.4283934"/>
|
|---|
| 559 | <trkpt lat="43.6073673" lon="1.4283365"/>
|
|---|
| 560 | <trkpt lat="43.6073581" lon="1.4282818"/>
|
|---|
| 561 | <trkpt lat="43.6073361" lon="1.4282339"/>
|
|---|
| 562 | <trkpt lat="43.6073063" lon="1.4281959"/>
|
|---|
| 563 | <trkpt lat="43.607268" lon="1.4281731"/>
|
|---|
| 564 | <trkpt lat="43.607226" lon="1.4281611"/>
|
|---|
| 565 | <trkpt lat="43.6071832" lon="1.4281553"/>
|
|---|
| 566 | <trkpt lat="43.6071417" lon="1.4281515"/>
|
|---|
| 567 | <trkpt lat="43.6071029" lon="1.4281493"/>
|
|---|
| 568 | <trkpt lat="43.6070674" lon="1.4281474"/>
|
|---|
| 569 | <trkpt lat="43.6070392" lon="1.4281464"/>
|
|---|
| 570 | <trkpt lat="43.6070197" lon="1.4281472"/>
|
|---|
| 571 | <trkpt lat="43.6070071" lon="1.4281494"/>
|
|---|
| 572 | <trkpt lat="43.6070009" lon="1.4281515"/>
|
|---|
| 573 | <trkpt lat="43.6069989" lon="1.4281532"/>
|
|---|
| 574 | <trkpt lat="43.6069992" lon="1.4281537"/>
|
|---|
| 575 | <trkpt lat="43.6069999" lon="1.4281366"/>
|
|---|
| 576 | <trkpt lat="43.6069998" lon="1.4281421"/>
|
|---|
| 577 | <trkpt lat="43.6069915" lon="1.4281415"/>
|
|---|
| 578 | <trkpt lat="43.6069776" lon="1.4281415"/>
|
|---|
| 579 | <trkpt lat="43.6069531" lon="1.4281396"/>
|
|---|
| 580 | <trkpt lat="43.606916" lon="1.428137"/>
|
|---|
| 581 | <trkpt lat="43.6068733" lon="1.4281337"/>
|
|---|
| 582 | <trkpt lat="43.6068273" lon="1.4281326"/>
|
|---|
| 583 | <trkpt lat="43.6067587" lon="1.4281304"/>
|
|---|
| 584 | <trkpt lat="43.6067143" lon="1.4281244"/>
|
|---|
| 585 | <trkpt lat="43.6066584" lon="1.4281214"/>
|
|---|
| 586 | <trkpt lat="43.6066017" lon="1.4281242"/>
|
|---|
| 587 | <trkpt lat="43.6065535" lon="1.4281202"/>
|
|---|
| 588 | <trkpt lat="43.6064983" lon="1.4281241"/>
|
|---|
| 589 | <trkpt lat="43.606441" lon="1.4281199"/>
|
|---|
| 590 | <trkpt lat="43.6063999" lon="1.4281308"/>
|
|---|
| 591 | <trkpt lat="43.6063383" lon="1.4281263"/>
|
|---|
| 592 | <trkpt lat="43.6062816" lon="1.4281243"/>
|
|---|
| 593 | <trkpt lat="43.6061846" lon="1.4281091"/>
|
|---|
| 594 | <trkpt lat="43.6061249" lon="1.4281233"/>
|
|---|
| 595 | <trkpt lat="43.6060676" lon="1.4281192"/>
|
|---|
| 596 | <trkpt lat="43.6059945" lon="1.4280978"/>
|
|---|
| 597 | <trkpt lat="43.6059232" lon="1.4280733"/>
|
|---|
| 598 | <trkpt lat="43.6058642" lon="1.4280815"/>
|
|---|
| 599 | <trkpt lat="43.6058279" lon="1.4280892"/>
|
|---|
| 600 | <trkpt lat="43.6057697" lon="1.4280944"/>
|
|---|
| 601 | <trkpt lat="43.6057178" lon="1.4280878"/>
|
|---|
| 602 | <trkpt lat="43.6056624" lon="1.4280778"/>
|
|---|
| 603 | <trkpt lat="43.6056134" lon="1.4280679"/>
|
|---|
| 604 | <trkpt lat="43.6055593" lon="1.428064"/>
|
|---|
| 605 | <trkpt lat="43.605522" lon="1.4280652"/>
|
|---|
| 606 | <trkpt lat="43.6055002" lon="1.4280068"/>
|
|---|
| 607 | <trkpt lat="43.6054715" lon="1.4279624"/>
|
|---|
| 608 | <trkpt lat="43.6054267" lon="1.42789"/>
|
|---|
| 609 | <trkpt lat="43.6053892" lon="1.4278651"/>
|
|---|
| 610 | <trkpt lat="43.6053364" lon="1.4278226"/>
|
|---|
| 611 | <trkpt lat="43.6052911" lon="1.4277959"/>
|
|---|
| 612 | <trkpt lat="43.6052351" lon="1.4277632"/>
|
|---|
| 613 | <trkpt lat="43.6051842" lon="1.4277127"/>
|
|---|
| 614 | <trkpt lat="43.6051284" lon="1.4276782"/>
|
|---|
| 615 | <trkpt lat="43.6050708" lon="1.4276543"/>
|
|---|
| 616 | <trkpt lat="43.6050173" lon="1.4276443"/>
|
|---|
| 617 | <trkpt lat="43.6049597" lon="1.4276378"/>
|
|---|
| 618 | <trkpt lat="43.6048993" lon="1.4276354"/>
|
|---|
| 619 | <trkpt lat="43.604845" lon="1.4276391"/>
|
|---|
| 620 | <trkpt lat="43.6047881" lon="1.4276608"/>
|
|---|
| 621 | <trkpt lat="43.6047394" lon="1.42769"/>
|
|---|
| 622 | <trkpt lat="43.6046902" lon="1.4277306"/>
|
|---|
| 623 | <trkpt lat="43.604652" lon="1.4277766"/>
|
|---|
| 624 | <trkpt lat="43.604616" lon="1.4278143"/>
|
|---|
| 625 | <trkpt lat="43.6045767" lon="1.4277887"/>
|
|---|
| 626 | <trkpt lat="43.6045382" lon="1.4277884"/>
|
|---|
| 627 | <trkpt lat="43.6045035" lon="1.4277754"/>
|
|---|
| 628 | <trkpt lat="43.6044709" lon="1.4277597"/>
|
|---|
| 629 | <trkpt lat="43.6044545" lon="1.4277435"/>
|
|---|
| 630 | <trkpt lat="43.6044466" lon="1.4277197"/>
|
|---|
| 631 | <trkpt lat="43.6044447" lon="1.4277041"/>
|
|---|
| 632 | <trkpt lat="43.6044306" lon="1.4277009"/>
|
|---|
| 633 | <trkpt lat="43.6044235" lon="1.4276689"/>
|
|---|
| 634 | <trkpt lat="43.6044224" lon="1.4276172"/>
|
|---|
| 635 | <trkpt lat="43.6044249" lon="1.4275645"/>
|
|---|
| 636 | <trkpt lat="43.6044289" lon="1.4275086"/>
|
|---|
| 637 | <trkpt lat="43.6044306" lon="1.4274489"/>
|
|---|
| 638 | <trkpt lat="43.6044347" lon="1.4273835"/>
|
|---|
| 639 | <trkpt lat="43.604456" lon="1.4272669"/>
|
|---|
| 640 | <trkpt lat="43.6044539" lon="1.4272042"/>
|
|---|
| 641 | <trkpt lat="43.6044536" lon="1.427148"/>
|
|---|
| 642 | <trkpt lat="43.604451" lon="1.4271005"/>
|
|---|
| 643 | <trkpt lat="43.604451" lon="1.4270257"/>
|
|---|
| 644 | <trkpt lat="43.6044496" lon="1.4269487"/>
|
|---|
| 645 | <trkpt lat="43.6044583" lon="1.4268652"/>
|
|---|
| 646 | <trkpt lat="43.6044646" lon="1.4267838"/>
|
|---|
| 647 | <trkpt lat="43.6044765" lon="1.4267098"/>
|
|---|
| 648 | <trkpt lat="43.6044877" lon="1.4266268"/>
|
|---|
| 649 | <trkpt lat="43.6044859" lon="1.4265438"/>
|
|---|
| 650 | <trkpt lat="43.6044874" lon="1.4264676"/>
|
|---|
| 651 | <trkpt lat="43.6044949" lon="1.4263864"/>
|
|---|
| 652 | <trkpt lat="43.6044975" lon="1.4263054"/>
|
|---|
| 653 | <trkpt lat="43.6045087" lon="1.4262235"/>
|
|---|
| 654 | <trkpt lat="43.6045158" lon="1.4261401"/>
|
|---|
| 655 | <trkpt lat="43.6045355" lon="1.4260678"/>
|
|---|
| 656 | <trkpt lat="43.6045521" lon="1.425993"/>
|
|---|
| 657 | <trkpt lat="43.6045626" lon="1.425914"/>
|
|---|
| 658 | <trkpt lat="43.6045713" lon="1.4258402"/>
|
|---|
| 659 | <trkpt lat="43.6045811" lon="1.4257686"/>
|
|---|
| 660 | <trkpt lat="43.6045906" lon="1.4256915"/>
|
|---|
| 661 | <trkpt lat="43.6046061" lon="1.4256158"/>
|
|---|
| 662 | <trkpt lat="43.6046227" lon="1.4255374"/>
|
|---|
| 663 | <trkpt lat="43.6046394" lon="1.4254602"/>
|
|---|
| 664 | <trkpt lat="43.6046592" lon="1.4253894"/>
|
|---|
| 665 | <trkpt lat="43.6046367" lon="1.4254116"/>
|
|---|
| 666 | <trkpt lat="43.6045423" lon="1.4255583"/>
|
|---|
| 667 | <trkpt lat="43.6046309" lon="1.4256477"/>
|
|---|
| 668 | <trkpt lat="43.6046557" lon="1.4257272"/>
|
|---|
| 669 | <trkpt lat="43.6046591" lon="1.425651"/>
|
|---|
| 670 | <trkpt lat="43.6046289" lon="1.425567"/>
|
|---|
| 671 | <trkpt lat="43.604481" lon="1.4262988"/>
|
|---|
| 672 | <trkpt lat="43.60452" lon="1.4264044"/>
|
|---|
| 673 | <trkpt lat="43.6043803" lon="1.4265504"/>
|
|---|
| 674 | <trkpt lat="43.6043719" lon="1.4266416"/>
|
|---|
| 675 | <trkpt lat="43.6044087" lon="1.4266747"/>
|
|---|
| 676 | <trkpt lat="43.6043682" lon="1.4269855"/>
|
|---|
| 677 | <trkpt lat="43.6043622" lon="1.4272547"/>
|
|---|
| 678 | <trkpt lat="43.6042932" lon="1.4273722"/>
|
|---|
| 679 | <trkpt lat="43.6045135" lon="1.4273994"/>
|
|---|
| 680 | <trkpt lat="43.6038737" lon="1.4280096"/>
|
|---|
| 681 | <trkpt lat="43.6038431" lon="1.4279949"/>
|
|---|
| 682 | <trkpt lat="43.6041522" lon="1.4278238"/>
|
|---|
| 683 | <trkpt lat="43.604003" lon="1.4278888"/>
|
|---|
| 684 | <trkpt lat="43.6038701" lon="1.4279492"/>
|
|---|
| 685 | <trkpt lat="43.6035633" lon="1.4280212"/>
|
|---|
| 686 | <trkpt lat="43.6035103" lon="1.4279965"/>
|
|---|
| 687 | <trkpt lat="43.6035626" lon="1.4278975"/>
|
|---|
| 688 | <trkpt lat="43.603505" lon="1.4278211"/>
|
|---|
| 689 | <trkpt lat="43.6033822" lon="1.4278131"/>
|
|---|
| 690 | <trkpt lat="43.6033743" lon="1.427913"/>
|
|---|
| 691 | <trkpt lat="43.6033548" lon="1.4279489"/>
|
|---|
| 692 | <trkpt lat="43.6032615" lon="1.4279718"/>
|
|---|
| 693 | <trkpt lat="43.6031793" lon="1.427926"/>
|
|---|
| 694 | <trkpt lat="43.6031044" lon="1.4278865"/>
|
|---|
| 695 | <trkpt lat="43.6029693" lon="1.4278782"/>
|
|---|
| 696 | <trkpt lat="43.6028885" lon="1.4278419"/>
|
|---|
| 697 | <trkpt lat="43.6027848" lon="1.427792"/>
|
|---|
| 698 | <trkpt lat="43.6023664" lon="1.4278968"/>
|
|---|
| 699 | <trkpt lat="43.6022871" lon="1.4278683"/>
|
|---|
| 700 | <trkpt lat="43.6021933" lon="1.4277945"/>
|
|---|
| 701 | <trkpt lat="43.6021491" lon="1.4277384"/>
|
|---|
| 702 | <trkpt lat="43.6021691" lon="1.4276928"/>
|
|---|
| 703 | <trkpt lat="43.6021829" lon="1.4276241"/>
|
|---|
| 704 | <trkpt lat="43.6021553" lon="1.427643"/>
|
|---|
| 705 | <trkpt lat="43.6021315" lon="1.4276604"/>
|
|---|
| 706 | <trkpt lat="43.6018492" lon="1.4277243"/>
|
|---|
| 707 | <trkpt lat="43.6019583" lon="1.427742"/>
|
|---|
| 708 | <trkpt lat="43.6020498" lon="1.4278237"/>
|
|---|
| 709 | <trkpt lat="43.602179" lon="1.4281217"/>
|
|---|
| 710 | <trkpt lat="43.6021864" lon="1.4282193"/>
|
|---|
| 711 | <trkpt lat="43.6021025" lon="1.4282484"/>
|
|---|
| 712 | <trkpt lat="43.6020978" lon="1.4283494"/>
|
|---|
| 713 | <trkpt lat="43.6020825" lon="1.4284806"/>
|
|---|
| 714 | <trkpt lat="43.6020432" lon="1.4286227"/>
|
|---|
| 715 | <trkpt lat="43.6020073" lon="1.4287532"/>
|
|---|
| 716 | <trkpt lat="43.6020401" lon="1.4288286"/>
|
|---|
| 717 | <trkpt lat="43.6020484" lon="1.4289037"/>
|
|---|
| 718 | <trkpt lat="43.6020025" lon="1.4289776"/>
|
|---|
| 719 | <trkpt lat="43.6019939" lon="1.4291261"/>
|
|---|
| 720 | <trkpt lat="43.6020384" lon="1.4292841"/>
|
|---|
| 721 | <trkpt lat="43.6019382" lon="1.4293852"/>
|
|---|
| 722 | <trkpt lat="43.601864" lon="1.4294786"/>
|
|---|
| 723 | <trkpt lat="43.6017365" lon="1.4295087"/>
|
|---|
| 724 | <trkpt lat="43.6017327" lon="1.4296116"/>
|
|---|
| 725 | <trkpt lat="43.6017562" lon="1.4297344"/>
|
|---|
| 726 | <trkpt lat="43.6016433" lon="1.429828"/>
|
|---|
| 727 | <trkpt lat="43.601588" lon="1.4298112"/>
|
|---|
| 728 | <trkpt lat="43.6015622" lon="1.4297625"/>
|
|---|
| 729 | <trkpt lat="43.6015737" lon="1.4297177"/>
|
|---|
| 730 | <trkpt lat="43.6015516" lon="1.4297595"/>
|
|---|
| 731 | <trkpt lat="43.6014973" lon="1.4297823"/>
|
|---|
| 732 | <trkpt lat="43.6014586" lon="1.4297767"/>
|
|---|
| 733 | <trkpt lat="43.6014882" lon="1.4298519"/>
|
|---|
| 734 | <trkpt lat="43.6014697" lon="1.4299435"/>
|
|---|
| 735 | <trkpt lat="43.6014972" lon="1.4300717"/>
|
|---|
| 736 | <trkpt lat="43.6015425" lon="1.4301725"/>
|
|---|
| 737 | <trkpt lat="43.6017569" lon="1.4303141"/>
|
|---|
| 738 | <trkpt lat="43.6017" lon="1.430347"/>
|
|---|
| 739 | <trkpt lat="43.6015887" lon="1.430419"/>
|
|---|
| 740 | <trkpt lat="43.6013207" lon="1.4305398"/>
|
|---|
| 741 | <trkpt lat="43.6012458" lon="1.4304181"/>
|
|---|
| 742 | <trkpt lat="43.601186" lon="1.430463"/>
|
|---|
| 743 | <trkpt lat="43.6011621" lon="1.4304847"/>
|
|---|
| 744 | <trkpt lat="43.6012483" lon="1.4304814"/>
|
|---|
| 745 | <trkpt lat="43.6013079" lon="1.4303824"/>
|
|---|
| 746 | <trkpt lat="43.6013842" lon="1.4301304"/>
|
|---|
| 747 | <trkpt lat="43.6012765" lon="1.4302207"/>
|
|---|
| 748 | <trkpt lat="43.6011567" lon="1.430268"/>
|
|---|
| 749 | <trkpt lat="43.6012106" lon="1.4281901"/>
|
|---|
| 750 | <trkpt lat="43.601325" lon="1.4280539"/>
|
|---|
| 751 | <trkpt lat="43.6013705" lon="1.4279969"/>
|
|---|
| 752 | <trkpt lat="43.6014409" lon="1.4279169"/>
|
|---|
| 753 | <trkpt lat="43.6015229" lon="1.4278757"/>
|
|---|
| 754 | <trkpt lat="43.601715" lon="1.4278036"/>
|
|---|
| 755 | <trkpt lat="43.6019622" lon="1.4277265"/>
|
|---|
| 756 | <trkpt lat="43.6020092" lon="1.4277154"/>
|
|---|
| 757 | <trkpt lat="43.6020587" lon="1.4277339"/>
|
|---|
| 758 | <trkpt lat="43.6021319" lon="1.4277581"/>
|
|---|
| 759 | <trkpt lat="43.6024608" lon="1.4278478"/>
|
|---|
| 760 | <trkpt lat="43.6025392" lon="1.4278496"/>
|
|---|
| 761 | <trkpt lat="43.6025873" lon="1.4278918"/>
|
|---|
| 762 | <trkpt lat="43.6029646" lon="1.4279169"/>
|
|---|
| 763 | <trkpt lat="43.6030836" lon="1.42799"/>
|
|---|
| 764 | <trkpt lat="43.6032219" lon="1.4279711"/>
|
|---|
| 765 | <trkpt lat="43.603204" lon="1.427903"/>
|
|---|
| 766 | <trkpt lat="43.6032748" lon="1.4279077"/>
|
|---|
| 767 | <trkpt lat="43.6033843" lon="1.4279364"/>
|
|---|
| 768 | <trkpt lat="43.6034958" lon="1.4279193"/>
|
|---|
| 769 | <trkpt lat="43.6035756" lon="1.4279163"/>
|
|---|
| 770 | <trkpt lat="43.6036429" lon="1.4280265"/>
|
|---|
| 771 | <trkpt lat="43.6037255" lon="1.428022"/>
|
|---|
| 772 | <trkpt lat="43.6037537" lon="1.4279179"/>
|
|---|
| 773 | <trkpt lat="43.6038325" lon="1.4278715"/>
|
|---|
| 774 | <trkpt lat="43.6039513" lon="1.4278661"/>
|
|---|
| 775 | <trkpt lat="43.6040509" lon="1.427888"/>
|
|---|
| 776 | <trkpt lat="43.6041005" lon="1.4278444"/>
|
|---|
| 777 | <trkpt lat="43.6043182" lon="1.4279303"/>
|
|---|
| 778 | <trkpt lat="43.6043932" lon="1.427921"/>
|
|---|
| 779 | <trkpt lat="43.6044823" lon="1.4277904"/>
|
|---|
| 780 | <trkpt lat="43.6045834" lon="1.427796"/>
|
|---|
| 781 | <trkpt lat="43.6045045" lon="1.4277482"/>
|
|---|
| 782 | <trkpt lat="43.6044802" lon="1.4276452"/>
|
|---|
| 783 | <trkpt lat="43.6044907" lon="1.4275088"/>
|
|---|
| 784 | <trkpt lat="43.6045124" lon="1.4273019"/>
|
|---|
| 785 | <trkpt lat="43.6045537" lon="1.4272473"/>
|
|---|
| 786 | <trkpt lat="43.6045351" lon="1.4271015"/>
|
|---|
| 787 | <trkpt lat="43.6045298" lon="1.4269827"/>
|
|---|
| 788 | <trkpt lat="43.6045143" lon="1.4269143"/>
|
|---|
| 789 | <trkpt lat="43.6045036" lon="1.4268637"/>
|
|---|
| 790 | <trkpt lat="43.604486" lon="1.426768"/>
|
|---|
| 791 | <trkpt lat="43.6046612" lon="1.4259759"/>
|
|---|
| 792 | <trkpt lat="43.6047331" lon="1.4259663"/>
|
|---|
| 793 | <trkpt lat="43.6048211" lon="1.42597"/>
|
|---|
| 794 | <trkpt lat="43.6048389" lon="1.4260142"/>
|
|---|
| 795 | <trkpt lat="43.6048686" lon="1.4260016"/>
|
|---|
| 796 | <trkpt lat="43.6048782" lon="1.4259275"/>
|
|---|
| 797 | <trkpt lat="43.604835" lon="1.425846"/>
|
|---|
| 798 | <trkpt lat="43.6048557" lon="1.425808"/>
|
|---|
| 799 | <trkpt lat="43.6048866" lon="1.4258043"/>
|
|---|
| 800 | <trkpt lat="43.6049042" lon="1.4257356"/>
|
|---|
| 801 | <trkpt lat="43.6046752" lon="1.4253692"/>
|
|---|
| 802 | <trkpt lat="43.6045788" lon="1.4258484"/>
|
|---|
| 803 | <trkpt lat="43.604523" lon="1.4259257"/>
|
|---|
| 804 | <trkpt lat="43.6044927" lon="1.4262077"/>
|
|---|
| 805 | <trkpt lat="43.6044766" lon="1.4263448"/>
|
|---|
| 806 | <trkpt lat="43.6045527" lon="1.4262211"/>
|
|---|
| 807 | <trkpt lat="43.6044844" lon="1.4265628"/>
|
|---|
| 808 | <trkpt lat="43.6045132" lon="1.4266989"/>
|
|---|
| 809 | <trkpt lat="43.6044705" lon="1.4267717"/>
|
|---|
| 810 | <trkpt lat="43.6043225" lon="1.4268252"/>
|
|---|
| 811 | <trkpt lat="43.6043846" lon="1.4270298"/>
|
|---|
| 812 | <trkpt lat="43.6044748" lon="1.4271947"/>
|
|---|
| 813 | <trkpt lat="43.6044399" lon="1.4273725"/>
|
|---|
| 814 | <trkpt lat="43.6045231" lon="1.4273899"/>
|
|---|
| 815 | <trkpt lat="43.6045043" lon="1.4276454"/>
|
|---|
| 816 | <trkpt lat="43.6044766" lon="1.4276269"/>
|
|---|
| 817 | <trkpt lat="43.6043993" lon="1.4277985"/>
|
|---|
| 818 | <trkpt lat="43.6042865" lon="1.4280713"/>
|
|---|
| 819 | <trkpt lat="43.6044037" lon="1.4275872"/>
|
|---|
| 820 | <trkpt lat="43.604219" lon="1.4278035"/>
|
|---|
| 821 | <trkpt lat="43.6041771" lon="1.4278187"/>
|
|---|
| 822 | <trkpt lat="43.6039926" lon="1.4278723"/>
|
|---|
| 823 | <trkpt lat="43.6038397" lon="1.4279516"/>
|
|---|
| 824 | <trkpt lat="43.603811" lon="1.4278481"/>
|
|---|
| 825 | <trkpt lat="43.6037387" lon="1.4277983"/>
|
|---|
| 826 | <trkpt lat="43.6036734" lon="1.4278329"/>
|
|---|
| 827 | <trkpt lat="43.6034915" lon="1.4280557"/>
|
|---|
| 828 | <trkpt lat="43.6033111" lon="1.4280798"/>
|
|---|
| 829 | <trkpt lat="43.603285" lon="1.4278738"/>
|
|---|
| 830 | <trkpt lat="43.6031638" lon="1.4278393"/>
|
|---|
| 831 | <trkpt lat="43.6031052" lon="1.4278645"/>
|
|---|
| 832 | <trkpt lat="43.603059" lon="1.4278836"/>
|
|---|
| 833 | <trkpt lat="43.6029971" lon="1.4278949"/>
|
|---|
| 834 | <trkpt lat="43.6028583" lon="1.4277852"/>
|
|---|
| 835 | <trkpt lat="43.6027891" lon="1.4277369"/>
|
|---|
| 836 | <trkpt lat="43.6025919" lon="1.4279185"/>
|
|---|
| 837 | <trkpt lat="43.602545" lon="1.4278748"/>
|
|---|
| 838 | <trkpt lat="43.6024251" lon="1.4278744"/>
|
|---|
| 839 | <trkpt lat="43.6022667" lon="1.4278721"/>
|
|---|
| 840 | <trkpt lat="43.6021593" lon="1.4277728"/>
|
|---|
| 841 | <trkpt lat="43.6019087" lon="1.4279737"/>
|
|---|
| 842 | <trkpt lat="43.6017866" lon="1.4277035"/>
|
|---|
| 843 | <trkpt lat="43.6018248" lon="1.4279842"/>
|
|---|
| 844 | <trkpt lat="43.6016203" lon="1.4279807"/>
|
|---|
| 845 | <trkpt lat="43.6013689" lon="1.4277423"/>
|
|---|
| 846 | <trkpt lat="43.6012762" lon="1.4278816"/>
|
|---|
| 847 | <trkpt lat="43.6048395" lon="1.4303939"/>
|
|---|
| 848 | <trkpt lat="43.605211" lon="1.4302325"/>
|
|---|
| 849 | <trkpt lat="43.6050929" lon="1.4301359"/>
|
|---|
| 850 | <trkpt lat="43.6051208" lon="1.4298963"/>
|
|---|
| 851 | <trkpt lat="43.6052046" lon="1.4297294"/>
|
|---|
| 852 | <trkpt lat="43.6050207" lon="1.429825"/>
|
|---|
| 853 | <trkpt lat="43.6050738" lon="1.4297577"/>
|
|---|
| 854 | <trkpt lat="43.6050502" lon="1.4296561"/>
|
|---|
| 855 | <trkpt lat="43.605156" lon="1.4295745"/>
|
|---|
| 856 | <trkpt lat="43.6054966" lon="1.429187"/>
|
|---|
| 857 | <trkpt lat="43.6054032" lon="1.4291592"/>
|
|---|
| 858 | <trkpt lat="43.6052778" lon="1.4288302"/>
|
|---|
| 859 | <trkpt lat="43.6053916" lon="1.4287979"/>
|
|---|
| 860 | <trkpt lat="43.6055175" lon="1.4286504"/>
|
|---|
| 861 | <trkpt lat="43.6055488" lon="1.4286677"/>
|
|---|
| 862 | <trkpt lat="43.6055598" lon="1.4281503"/>
|
|---|
| 863 | <trkpt lat="43.6057576" lon="1.4278452"/>
|
|---|
| 864 | <trkpt lat="43.6058093" lon="1.4277399"/>
|
|---|
| 865 | <trkpt lat="43.6057814" lon="1.4273532"/>
|
|---|
| 866 | <trkpt lat="43.6057584" lon="1.427144"/>
|
|---|
| 867 | <trkpt lat="43.6057959" lon="1.4270666"/>
|
|---|
| 868 | <trkpt lat="43.6057313" lon="1.4268805"/>
|
|---|
| 869 | <trkpt lat="43.6057546" lon="1.4268498"/>
|
|---|
| 870 | <trkpt lat="43.605774" lon="1.4267049"/>
|
|---|
| 871 | <trkpt lat="43.6057347" lon="1.4265683"/>
|
|---|
| 872 | <trkpt lat="43.6056224" lon="1.4266418"/>
|
|---|
| 873 | <trkpt lat="43.6055342" lon="1.4265422"/>
|
|---|
| 874 | <trkpt lat="43.6055717" lon="1.4263194"/>
|
|---|
| 875 | <trkpt lat="43.6054117" lon="1.4262332"/>
|
|---|
| 876 | <trkpt lat="43.6053174" lon="1.4261422"/>
|
|---|
| 877 | <trkpt lat="43.6052248" lon="1.4260207"/>
|
|---|
| 878 | <trkpt lat="43.6052235" lon="1.4260621"/>
|
|---|
| 879 | <trkpt lat="43.6053981" lon="1.4259867"/>
|
|---|
| 880 | <trkpt lat="43.6053593" lon="1.4260143"/>
|
|---|
| 881 | <trkpt lat="43.6052845" lon="1.4259909"/>
|
|---|
| 882 | <trkpt lat="43.6050297" lon="1.4259519"/>
|
|---|
| 883 | <trkpt lat="43.6050398" lon="1.4257882"/>
|
|---|
| 884 | <trkpt lat="43.6048981" lon="1.4256122"/>
|
|---|
| 885 | <trkpt lat="43.6050752" lon="1.4253567"/>
|
|---|
| 886 | <trkpt lat="43.6051328" lon="1.4255162"/>
|
|---|
| 887 | <trkpt lat="43.6051559" lon="1.4255612"/>
|
|---|
| 888 | <trkpt lat="43.6049027" lon="1.4255747"/>
|
|---|
| 889 | <trkpt lat="43.6049184" lon="1.425737"/>
|
|---|
| 890 | <trkpt lat="43.6049121" lon="1.4255001"/>
|
|---|
| 891 | <trkpt lat="43.6049305" lon="1.4255476"/>
|
|---|
| 892 | <trkpt lat="43.6049189" lon="1.4255858"/>
|
|---|
| 893 | <trkpt lat="43.6049257" lon="1.4256258"/>
|
|---|
| 894 | <trkpt lat="43.6049761" lon="1.4256589"/>
|
|---|
| 895 | <trkpt lat="43.6049394" lon="1.4256639"/>
|
|---|
| 896 | <trkpt lat="43.6049596" lon="1.4256955"/>
|
|---|
| 897 | <trkpt lat="43.6049976" lon="1.425739"/>
|
|---|
| 898 | <trkpt lat="43.6048767" lon="1.4257036"/>
|
|---|
| 899 | <trkpt lat="43.6048819" lon="1.4257436"/>
|
|---|
| 900 | <trkpt lat="43.6049074" lon="1.4257221"/>
|
|---|
| 901 | <trkpt lat="43.6049226" lon="1.4256894"/>
|
|---|
| 902 | <trkpt lat="43.605018" lon="1.425713"/>
|
|---|
| 903 | <trkpt lat="43.6051256" lon="1.425792"/>
|
|---|
| 904 | <trkpt lat="43.6050931" lon="1.425767"/>
|
|---|
| 905 | <trkpt lat="43.6050914" lon="1.4258811"/>
|
|---|
| 906 | <trkpt lat="43.6052358" lon="1.4259221"/>
|
|---|
| 907 | <trkpt lat="43.6052756" lon="1.4259262"/>
|
|---|
| 908 | <trkpt lat="43.6052075" lon="1.425964"/>
|
|---|
| 909 | <trkpt lat="43.6052069" lon="1.426016"/>
|
|---|
| 910 | <trkpt lat="43.6052026" lon="1.4260583"/>
|
|---|
| 911 | <trkpt lat="43.6052208" lon="1.4262127"/>
|
|---|
| 912 | <trkpt lat="43.6052766" lon="1.4263572"/>
|
|---|
| 913 | <trkpt lat="43.6053094" lon="1.4263969"/>
|
|---|
| 914 | <trkpt lat="43.6052991" lon="1.4264499"/>
|
|---|
| 915 | <trkpt lat="43.6052728" lon="1.4265615"/>
|
|---|
| 916 | <trkpt lat="43.6052562" lon="1.4266451"/>
|
|---|
| 917 | <trkpt lat="43.60525" lon="1.4267206"/>
|
|---|
| 918 | <trkpt lat="43.6052495" lon="1.4268216"/>
|
|---|
| 919 | <trkpt lat="43.6052137" lon="1.4269577"/>
|
|---|
| 920 | <trkpt lat="43.6051874" lon="1.4270439"/>
|
|---|
| 921 | <trkpt lat="43.6051745" lon="1.4271135"/>
|
|---|
| 922 | <trkpt lat="43.6051833" lon="1.4271551"/>
|
|---|
| 923 | <trkpt lat="43.6051863" lon="1.4271985"/>
|
|---|
| 924 | <trkpt lat="43.6051841" lon="1.4272566"/>
|
|---|
| 925 | <trkpt lat="43.6051807" lon="1.4272983"/>
|
|---|
| 926 | <trkpt lat="43.6051683" lon="1.4274186"/>
|
|---|
| 927 | <trkpt lat="43.6051279" lon="1.4275352"/>
|
|---|
| 928 | <trkpt lat="43.6050649" lon="1.4275796"/>
|
|---|
| 929 | <trkpt lat="43.6050299" lon="1.4275505"/>
|
|---|
| 930 | <trkpt lat="43.6049785" lon="1.4275353"/>
|
|---|
| 931 | <trkpt lat="43.6049247" lon="1.4275488"/>
|
|---|
| 932 | <trkpt lat="43.6048586" lon="1.4275503"/>
|
|---|
| 933 | <trkpt lat="43.604793" lon="1.4276044"/>
|
|---|
| 934 | <trkpt lat="43.6047265" lon="1.4276439"/>
|
|---|
| 935 | <trkpt lat="43.6046634" lon="1.4277077"/>
|
|---|
| 936 | <trkpt lat="43.604635" lon="1.4277902"/>
|
|---|
| 937 | <trkpt lat="43.6046147" lon="1.4278309"/>
|
|---|
| 938 | <trkpt lat="43.6045657" lon="1.4278634"/>
|
|---|
| 939 | <trkpt lat="43.6045359" lon="1.4278643"/>
|
|---|
| 940 | <trkpt lat="43.6045146" lon="1.4278177"/>
|
|---|
| 941 | <trkpt lat="43.604483" lon="1.4278282"/>
|
|---|
| 942 | <trkpt lat="43.6044331" lon="1.4278364"/>
|
|---|
| 943 | <trkpt lat="43.6044161" lon="1.4278845"/>
|
|---|
| 944 | <trkpt lat="43.6044043" lon="1.4279185"/>
|
|---|
| 945 | <trkpt lat="43.604384" lon="1.4279789"/>
|
|---|
| 946 | <trkpt lat="43.6043583" lon="1.4281395"/>
|
|---|
| 947 | <trkpt lat="43.6043426" lon="1.4281922"/>
|
|---|
| 948 | <trkpt lat="43.6043611" lon="1.428221"/>
|
|---|
| 949 | <trkpt lat="43.6043763" lon="1.428252"/>
|
|---|
| 950 | <trkpt lat="43.6043476" lon="1.4282793"/>
|
|---|
| 951 | <trkpt lat="43.6043297" lon="1.4283135"/>
|
|---|
| 952 | <trkpt lat="43.6043699" lon="1.4283503"/>
|
|---|
| 953 | <trkpt lat="43.6044161" lon="1.4285128"/>
|
|---|
| 954 | <trkpt lat="43.6043831" lon="1.428596"/>
|
|---|
| 955 | <trkpt lat="43.6043378" lon="1.4286615"/>
|
|---|
| 956 | <trkpt lat="43.6042767" lon="1.4287613"/>
|
|---|
| 957 | <trkpt lat="43.6042686" lon="1.4288503"/>
|
|---|
| 958 | <trkpt lat="43.604278" lon="1.4289418"/>
|
|---|
| 959 | <trkpt lat="43.6042389" lon="1.4290031"/>
|
|---|
| 960 | <trkpt lat="43.6042447" lon="1.4290759"/>
|
|---|
| 961 | <trkpt lat="43.6042592" lon="1.4291519"/>
|
|---|
| 962 | <trkpt lat="43.6042163" lon="1.4292261"/>
|
|---|
| 963 | <trkpt lat="43.6041069" lon="1.4293225"/>
|
|---|
| 964 | <trkpt lat="43.6040505" lon="1.4294096"/>
|
|---|
| 965 | <trkpt lat="43.6040233" lon="1.429492"/>
|
|---|
| 966 | <trkpt lat="43.6040133" lon="1.4295868"/>
|
|---|
| 967 | <trkpt lat="43.603984" lon="1.4296859"/>
|
|---|
| 968 | <trkpt lat="43.6039723" lon="1.4297774"/>
|
|---|
| 969 | <trkpt lat="43.6039731" lon="1.4298696"/>
|
|---|
| 970 | <trkpt lat="43.6039613" lon="1.4299742"/>
|
|---|
| 971 | <trkpt lat="43.6039386" lon="1.4300725"/>
|
|---|
| 972 | <trkpt lat="43.603915" lon="1.4301382"/>
|
|---|
| 973 | <trkpt lat="43.6039288" lon="1.4301859"/>
|
|---|
| 974 | <trkpt lat="43.6039384" lon="1.4302477"/>
|
|---|
| 975 | <trkpt lat="43.6039378" lon="1.4303331"/>
|
|---|
| 976 | <trkpt lat="43.6039535" lon="1.4304042"/>
|
|---|
| 977 | <trkpt lat="43.6039337" lon="1.4305245"/>
|
|---|
| 978 | <trkpt lat="43.6051634" lon="1.4304901"/>
|
|---|
| 979 | <trkpt lat="43.6051653" lon="1.4304147"/>
|
|---|
| 980 | <trkpt lat="43.6051923" lon="1.4303366"/>
|
|---|
| 981 | <trkpt lat="43.605215" lon="1.4302496"/>
|
|---|
| 982 | <trkpt lat="43.6052494" lon="1.4301856"/>
|
|---|
| 983 | <trkpt lat="43.6052678" lon="1.4301325"/>
|
|---|
| 984 | <trkpt lat="43.6052586" lon="1.4300578"/>
|
|---|
| 985 | <trkpt lat="43.6052419" lon="1.4299277"/>
|
|---|
| 986 | <trkpt lat="43.6052485" lon="1.4298203"/>
|
|---|
| 987 | <trkpt lat="43.6052688" lon="1.4297453"/>
|
|---|
| 988 | <trkpt lat="43.605305" lon="1.4296643"/>
|
|---|
| 989 | <trkpt lat="43.6053135" lon="1.4295794"/>
|
|---|
| 990 | <trkpt lat="43.6053373" lon="1.4294984"/>
|
|---|
| 991 | <trkpt lat="43.6054056" lon="1.4294231"/>
|
|---|
| 992 | <trkpt lat="43.6054066" lon="1.429359"/>
|
|---|
| 993 | <trkpt lat="43.6054314" lon="1.4293002"/>
|
|---|
| 994 | <trkpt lat="43.6054528" lon="1.4292313"/>
|
|---|
| 995 | <trkpt lat="43.6054937" lon="1.4291344"/>
|
|---|
| 996 | <trkpt lat="43.6055279" lon="1.4290391"/>
|
|---|
| 997 | <trkpt lat="43.6055667" lon="1.4289571"/>
|
|---|
| 998 | <trkpt lat="43.6055967" lon="1.4289048"/>
|
|---|
| 999 | <trkpt lat="43.6056154" lon="1.4288356"/>
|
|---|
| 1000 | <trkpt lat="43.6056283" lon="1.4287775"/>
|
|---|
| 1001 | <trkpt lat="43.605633" lon="1.4287158"/>
|
|---|
| 1002 | <trkpt lat="43.6056432" lon="1.4286636"/>
|
|---|
| 1003 | <trkpt lat="43.6056578" lon="1.4285971"/>
|
|---|
| 1004 | <trkpt lat="43.6056823" lon="1.4285291"/>
|
|---|
| 1005 | <trkpt lat="43.6056808" lon="1.4284405"/>
|
|---|
| 1006 | <trkpt lat="43.6058508" lon="1.4279183"/>
|
|---|
| 1007 | <trkpt lat="43.6058048" lon="1.4278291"/>
|
|---|
| 1008 | <trkpt lat="43.6057682" lon="1.4277129"/>
|
|---|
| 1009 | <trkpt lat="43.6057303" lon="1.4276085"/>
|
|---|
| 1010 | <trkpt lat="43.60572" lon="1.4275375"/>
|
|---|
| 1011 | <trkpt lat="43.6057358" lon="1.4274737"/>
|
|---|
| 1012 | <trkpt lat="43.6057615" lon="1.4274213"/>
|
|---|
| 1013 | <trkpt lat="43.6057762" lon="1.4273455"/>
|
|---|
| 1014 | <trkpt lat="43.6057912" lon="1.4272416"/>
|
|---|
| 1015 | <trkpt lat="43.6058072" lon="1.4271706"/>
|
|---|
| 1016 | <trkpt lat="43.6058315" lon="1.4270694"/>
|
|---|
| 1017 | <trkpt lat="43.605837" lon="1.4269715"/>
|
|---|
| 1018 | <trkpt lat="43.6058548" lon="1.4269079"/>
|
|---|
| 1019 | <trkpt lat="43.6058696" lon="1.4268131"/>
|
|---|
| 1020 | <trkpt lat="43.60588" lon="1.4267366"/>
|
|---|
| 1021 | <trkpt lat="43.6058971" lon="1.4266348"/>
|
|---|
| 1022 | <trkpt lat="43.6059203" lon="1.4265416"/>
|
|---|
| 1023 | <trkpt lat="43.6059482" lon="1.426456"/>
|
|---|
| 1024 | <trkpt lat="43.6059491" lon="1.4263769"/>
|
|---|
| 1025 | <trkpt lat="43.6059346" lon="1.426283"/>
|
|---|
| 1026 | <trkpt lat="43.6059475" lon="1.4261922"/>
|
|---|
| 1027 | <trkpt lat="43.6059636" lon="1.4260934"/>
|
|---|
| 1028 | <trkpt lat="43.6059673" lon="1.4260042"/>
|
|---|
| 1029 | <trkpt lat="43.6059615" lon="1.4259435"/>
|
|---|
| 1030 | <trkpt lat="43.6059607" lon="1.4259"/>
|
|---|
| 1031 | <trkpt lat="43.6059118" lon="1.4258101"/>
|
|---|
| 1032 | <trkpt lat="43.6058389" lon="1.4257847"/>
|
|---|
| 1033 | <trkpt lat="43.6057558" lon="1.4257885"/>
|
|---|
| 1034 | <trkpt lat="43.6057122" lon="1.4258331"/>
|
|---|
| 1035 | <trkpt lat="43.6056572" lon="1.4258936"/>
|
|---|
| 1036 | <trkpt lat="43.6056106" lon="1.4259444"/>
|
|---|
| 1037 | <trkpt lat="43.605579" lon="1.425956"/>
|
|---|
| 1038 | <trkpt lat="43.6054967" lon="1.4259327"/>
|
|---|
| 1039 | <trkpt lat="43.6054233" lon="1.4259127"/>
|
|---|
| 1040 | <trkpt lat="43.6053627" lon="1.4258928"/>
|
|---|
| 1041 | <trkpt lat="43.6053062" lon="1.4259066"/>
|
|---|
| 1042 | <trkpt lat="43.6052703" lon="1.42591"/>
|
|---|
| 1043 | <trkpt lat="43.605286" lon="1.4258639"/>
|
|---|
| 1044 | <trkpt lat="43.6052838" lon="1.4258199"/>
|
|---|
| 1045 | <trkpt lat="43.6054307" lon="1.4256829"/>
|
|---|
| 1046 | <trkpt lat="43.6056456" lon="1.4255666"/>
|
|---|
| 1047 | <trkpt lat="43.6051368" lon="1.4256213"/>
|
|---|
| 1048 | <trkpt lat="43.605111" lon="1.4255656"/>
|
|---|
| 1049 | <trkpt lat="43.6051035" lon="1.4255285"/>
|
|---|
| 1050 | <trkpt lat="43.6050981" lon="1.4254727"/>
|
|---|
| 1051 | <trkpt lat="43.6050498" lon="1.4254131"/>
|
|---|
| 1052 | <trkpt lat="43.605006" lon="1.4253858"/>
|
|---|
| 1053 | <trkpt lat="43.6049193" lon="1.4253686"/>
|
|---|
| 1054 | <trkpt lat="43.6049072" lon="1.4254059"/>
|
|---|
| 1055 | <trkpt lat="43.6049273" lon="1.4254491"/>
|
|---|
| 1056 | <trkpt lat="43.604683" lon="1.4253856"/>
|
|---|
| 1057 | <trkpt lat="43.6046572" lon="1.4254591"/>
|
|---|
| 1058 | <trkpt lat="43.6044077" lon="1.4262147"/>
|
|---|
| 1059 | <trkpt lat="43.6044335" lon="1.4261904"/>
|
|---|
| 1060 | <trkpt lat="43.6044536" lon="1.4262158"/>
|
|---|
| 1061 | <trkpt lat="43.6044274" lon="1.4262369"/>
|
|---|
| 1062 | <trkpt lat="43.6044163" lon="1.4262717"/>
|
|---|
| 1063 | <trkpt lat="43.6043959" lon="1.4267769"/>
|
|---|
| 1064 | <trkpt lat="43.6044037" lon="1.4268524"/>
|
|---|
| 1065 | <trkpt lat="43.6043835" lon="1.4269336"/>
|
|---|
| 1066 | <trkpt lat="43.6043863" lon="1.4270417"/>
|
|---|
| 1067 | <trkpt lat="43.6043858" lon="1.4271056"/>
|
|---|
| 1068 | <trkpt lat="43.6043688" lon="1.4271797"/>
|
|---|
| 1069 | <trkpt lat="43.6043692" lon="1.4272644"/>
|
|---|
| 1070 | <trkpt lat="43.6043843" lon="1.4273773"/>
|
|---|
| 1071 | <trkpt lat="43.6043924" lon="1.4274751"/>
|
|---|
| 1072 | <trkpt lat="43.6044015" lon="1.4275483"/>
|
|---|
| 1073 | <trkpt lat="43.6044054" lon="1.4276122"/>
|
|---|
| 1074 | <trkpt lat="43.6044054" lon="1.4276831"/>
|
|---|
| 1075 | <trkpt lat="43.6044248" lon="1.4277584"/>
|
|---|
| 1076 | <trkpt lat="43.6044576" lon="1.4277273"/>
|
|---|
| 1077 | <trkpt lat="43.6045378" lon="1.4276701"/>
|
|---|
| 1078 | <trkpt lat="43.6045128" lon="1.4276845"/>
|
|---|
| 1079 | <trkpt lat="43.6044456" lon="1.4277258"/>
|
|---|
| 1080 | <trkpt lat="43.604406" lon="1.4277784"/>
|
|---|
| 1081 | <trkpt lat="43.6043761" lon="1.4277947"/>
|
|---|
| 1082 | <trkpt lat="43.6043004" lon="1.4278009"/>
|
|---|
| 1083 | <trkpt lat="43.6042248" lon="1.427785"/>
|
|---|
| 1084 | <trkpt lat="43.6041722" lon="1.4277675"/>
|
|---|
| 1085 | <trkpt lat="43.6041212" lon="1.4277538"/>
|
|---|
| 1086 | <trkpt lat="43.6040495" lon="1.4277432"/>
|
|---|
| 1087 | <trkpt lat="43.6039912" lon="1.4277484"/>
|
|---|
| 1088 | <trkpt lat="43.6039357" lon="1.427752"/>
|
|---|
| 1089 | <trkpt lat="43.6038748" lon="1.4277369"/>
|
|---|
| 1090 | <trkpt lat="43.60383" lon="1.4277234"/>
|
|---|
| 1091 | <trkpt lat="43.6037794" lon="1.4277004"/>
|
|---|
| 1092 | <trkpt lat="43.6037236" lon="1.4277019"/>
|
|---|
| 1093 | <trkpt lat="43.6036501" lon="1.4277233"/>
|
|---|
| 1094 | <trkpt lat="43.6036149" lon="1.4278078"/>
|
|---|
| 1095 | <trkpt lat="43.6035872" lon="1.42781"/>
|
|---|
| 1096 | <trkpt lat="43.6035048" lon="1.427814"/>
|
|---|
| 1097 | <trkpt lat="43.6034287" lon="1.4278204"/>
|
|---|
| 1098 | <trkpt lat="43.6033679" lon="1.4278212"/>
|
|---|
| 1099 | <trkpt lat="43.6032983" lon="1.4278162"/>
|
|---|
| 1100 | <trkpt lat="43.6032377" lon="1.4278097"/>
|
|---|
| 1101 | <trkpt lat="43.6031701" lon="1.4278152"/>
|
|---|
| 1102 | <trkpt lat="43.6031201" lon="1.4277917"/>
|
|---|
| 1103 | <trkpt lat="43.6030682" lon="1.4277927"/>
|
|---|
| 1104 | <trkpt lat="43.6026754" lon="1.4277649"/>
|
|---|
| 1105 | <trkpt lat="43.6025845" lon="1.4277936"/>
|
|---|
| 1106 | <trkpt lat="43.6025112" lon="1.4277942"/>
|
|---|
| 1107 | <trkpt lat="43.6024431" lon="1.4277981"/>
|
|---|
| 1108 | <trkpt lat="43.6023698" lon="1.4278029"/>
|
|---|
| 1109 | <trkpt lat="43.6023172" lon="1.4277774"/>
|
|---|
| 1110 | <trkpt lat="43.6022799" lon="1.4277692"/>
|
|---|
| 1111 | <trkpt lat="43.6022185" lon="1.4277745"/>
|
|---|
| 1112 | <trkpt lat="43.6021295" lon="1.4277606"/>
|
|---|
| 1113 | <trkpt lat="43.6020481" lon="1.4277422"/>
|
|---|
| 1114 | <trkpt lat="43.6020097" lon="1.4277295"/>
|
|---|
| 1115 | <trkpt lat="43.6019283" lon="1.4277241"/>
|
|---|
| 1116 | <trkpt lat="43.601865" lon="1.427727"/>
|
|---|
| 1117 | <trkpt lat="43.6018284" lon="1.427708"/>
|
|---|
| 1118 | <trkpt lat="43.6017805" lon="1.4277339"/>
|
|---|
| 1119 | <trkpt lat="43.6017146" lon="1.4277796"/>
|
|---|
| 1120 | <trkpt lat="43.6016437" lon="1.4278335"/>
|
|---|
| 1121 | <trkpt lat="43.6015952" lon="1.4278653"/>
|
|---|
| 1122 | <trkpt lat="43.6015154" lon="1.4278933"/>
|
|---|
| 1123 | <trkpt lat="43.6014792" lon="1.4279342"/>
|
|---|
| 1124 | <trkpt lat="43.6014338" lon="1.4279758"/>
|
|---|
| 1125 | <trkpt lat="43.6013852" lon="1.4280198"/>
|
|---|
| 1126 | <trkpt lat="43.6013399" lon="1.4280565"/>
|
|---|
| 1127 | <trkpt lat="43.601297" lon="1.4280808"/>
|
|---|
| 1128 | <trkpt lat="43.6012393" lon="1.4281232"/>
|
|---|
| 1129 | <trkpt lat="43.6011677" lon="1.428195"/>
|
|---|
| 1130 | <trkpt lat="43.6039645" lon="1.4305194"/>
|
|---|
| 1131 | <trkpt lat="43.6039451" lon="1.4304524"/>
|
|---|
| 1132 | <trkpt lat="43.6039166" lon="1.4303774"/>
|
|---|
| 1133 | <trkpt lat="43.6039132" lon="1.4303192"/>
|
|---|
| 1134 | <trkpt lat="43.6039092" lon="1.4302349"/>
|
|---|
| 1135 | <trkpt lat="43.6038985" lon="1.4301439"/>
|
|---|
| 1136 | <trkpt lat="43.6038915" lon="1.4300047"/>
|
|---|
| 1137 | <trkpt lat="43.6039004" lon="1.4299074"/>
|
|---|
| 1138 | <trkpt lat="43.6039113" lon="1.4298131"/>
|
|---|
| 1139 | <trkpt lat="43.6039267" lon="1.4297272"/>
|
|---|
| 1140 | <trkpt lat="43.603947" lon="1.4296363"/>
|
|---|
| 1141 | <trkpt lat="43.6039754" lon="1.4295678"/>
|
|---|
| 1142 | <trkpt lat="43.6040008" lon="1.4294806"/>
|
|---|
| 1143 | <trkpt lat="43.6040272" lon="1.4294124"/>
|
|---|
| 1144 | <trkpt lat="43.6040534" lon="1.4293441"/>
|
|---|
| 1145 | <trkpt lat="43.6040825" lon="1.4292663"/>
|
|---|
| 1146 | <trkpt lat="43.6041353" lon="1.4292099"/>
|
|---|
| 1147 | <trkpt lat="43.6041746" lon="1.4291617"/>
|
|---|
| 1148 | <trkpt lat="43.6041956" lon="1.4290803"/>
|
|---|
| 1149 | <trkpt lat="43.6042122" lon="1.4289983"/>
|
|---|
| 1150 | <trkpt lat="43.6042313" lon="1.4289082"/>
|
|---|
| 1151 | <trkpt lat="43.6042445" lon="1.428815"/>
|
|---|
| 1152 | <trkpt lat="43.6042616" lon="1.428726"/>
|
|---|
| 1153 | <trkpt lat="43.604273" lon="1.4286433"/>
|
|---|
| 1154 | <trkpt lat="43.6042881" lon="1.4285439"/>
|
|---|
| 1155 | <trkpt lat="43.6043075" lon="1.428468"/>
|
|---|
| 1156 | <trkpt lat="43.6043282" lon="1.428393"/>
|
|---|
| 1157 | <trkpt lat="43.6043608" lon="1.4283244"/>
|
|---|
| 1158 | <trkpt lat="43.6043989" lon="1.4282598"/>
|
|---|
| 1159 | <trkpt lat="43.6044538" lon="1.4282719"/>
|
|---|
| 1160 | <trkpt lat="43.6045193" lon="1.4283079"/>
|
|---|
| 1161 | <trkpt lat="43.6045847" lon="1.4283469"/>
|
|---|
| 1162 | <trkpt lat="43.6046068" lon="1.4284153"/>
|
|---|
| 1163 | <trkpt lat="43.6045768" lon="1.4275957"/>
|
|---|
| 1164 | <trkpt lat="43.6045513" lon="1.4276234"/>
|
|---|
| 1165 | <trkpt lat="43.6045379" lon="1.4276844"/>
|
|---|
| 1166 | <trkpt lat="43.6044837" lon="1.427697"/>
|
|---|
| 1167 | <trkpt lat="43.6044396" lon="1.4276604"/>
|
|---|
| 1168 | <trkpt lat="43.6044541" lon="1.4274475"/>
|
|---|
| 1169 | <trkpt lat="43.6044295" lon="1.4274319"/>
|
|---|
| 1170 | <trkpt lat="43.6044365" lon="1.4273816"/>
|
|---|
| 1171 | <trkpt lat="43.6044358" lon="1.4273095"/>
|
|---|
| 1172 | <trkpt lat="43.604461" lon="1.4272178"/>
|
|---|
| 1173 | <trkpt lat="43.604468" lon="1.4271214"/>
|
|---|
| 1174 | <trkpt lat="43.6044728" lon="1.4270555"/>
|
|---|
| 1175 | <trkpt lat="43.6044594" lon="1.4269694"/>
|
|---|
| 1176 | <trkpt lat="43.6044527" lon="1.4268701"/>
|
|---|
| 1177 | <trkpt lat="43.6044576" lon="1.4267681"/>
|
|---|
| 1178 | <trkpt lat="43.6044517" lon="1.4266644"/>
|
|---|
| 1179 | <trkpt lat="43.6044561" lon="1.4265735"/>
|
|---|
| 1180 | <trkpt lat="43.6044544" lon="1.4264766"/>
|
|---|
| 1181 | <trkpt lat="43.604455" lon="1.4263779"/>
|
|---|
| 1182 | <trkpt lat="43.6044559" lon="1.4262947"/>
|
|---|
| 1183 | <trkpt lat="43.6044615" lon="1.4262166"/>
|
|---|
| 1184 | <trkpt lat="43.6044649" lon="1.4261216"/>
|
|---|
| 1185 | <trkpt lat="43.6044706" lon="1.4260556"/>
|
|---|
| 1186 | <trkpt lat="43.6044781" lon="1.4259548"/>
|
|---|
| 1187 | <trkpt lat="43.6044892" lon="1.4258847"/>
|
|---|
| 1188 | <trkpt lat="43.6045048" lon="1.4259502"/>
|
|---|
| 1189 | <trkpt lat="43.6045191" lon="1.4259841"/>
|
|---|
| 1190 | <trkpt lat="43.6045413" lon="1.4260136"/>
|
|---|
| 1191 | <trkpt lat="43.6045603" lon="1.4260653"/>
|
|---|
| 1192 | <trkpt lat="43.6045973" lon="1.4260762"/>
|
|---|
| 1193 | <trkpt lat="43.6046486" lon="1.4260202"/>
|
|---|
| 1194 | <trkpt lat="43.6046866" lon="1.4259242"/>
|
|---|
| 1195 | <trkpt lat="43.6047279" lon="1.4257944"/>
|
|---|
| 1196 | <trkpt lat="43.6047551" lon="1.4256622"/>
|
|---|
| 1197 | <trkpt lat="43.6047766" lon="1.4255689"/>
|
|---|
| 1198 | <trkpt lat="43.6047836" lon="1.425502"/>
|
|---|
| 1199 | <trkpt lat="43.6048086" lon="1.4254617"/>
|
|---|
| 1200 | <trkpt lat="43.6048492" lon="1.4254762"/>
|
|---|
| 1201 | <trkpt lat="43.6048645" lon="1.4255274"/>
|
|---|
| 1202 | <trkpt lat="43.608025" lon="1.428522"/>
|
|---|
| 1203 | <trkpt lat="43.6074783" lon="1.428999"/>
|
|---|
| 1204 | <trkpt lat="43.6080968" lon="1.4259018"/>
|
|---|
| 1205 | <trkpt lat="43.6021383" lon="1.4255337"/>
|
|---|
| 1206 | <trkpt lat="43.6018645" lon="1.4264352"/>
|
|---|
| 1207 | <trkpt lat="43.6011955" lon="1.4296076"/>
|
|---|
| 1208 | <trkpt lat="43.6014509" lon="1.4298883"/>
|
|---|
| 1209 | <trkpt lat="43.6015912" lon="1.4287883"/>
|
|---|
| 1210 | <trkpt lat="43.6029018" lon="1.4264692"/>
|
|---|
| 1211 | <trkpt lat="43.6016541" lon="1.4295225"/>
|
|---|
| 1212 | <trkpt lat="43.6026702" lon="1.4270479"/>
|
|---|
| 1213 | <trkpt lat="43.6023039" lon="1.4282575"/>
|
|---|
| 1214 | <trkpt lat="43.6075124" lon="1.4287254"/>
|
|---|
| 1215 | <trkpt lat="43.6072437" lon="1.428447"/>
|
|---|
| 1216 | <trkpt lat="43.6072801" lon="1.4286931"/>
|
|---|
| 1217 | <trkpt lat="43.6028579" lon="1.4278935"/>
|
|---|
| 1218 | <trkpt lat="43.6030532" lon="1.4276275"/>
|
|---|
| 1219 | <trkpt lat="43.6071472" lon="1.4288791"/>
|
|---|
| 1220 | <trkpt lat="43.6067166" lon="1.4297"/>
|
|---|
| 1221 | <trkpt lat="43.6054584" lon="1.4277667"/>
|
|---|
| 1222 | <trkpt lat="43.6055606" lon="1.4294266"/>
|
|---|
| 1223 | <trkpt lat="43.6048419" lon="1.4300355"/>
|
|---|
| 1224 | <trkpt lat="43.6023039" lon="1.4282575"/>
|
|---|
| 1225 | <trkpt lat="43.6080968" lon="1.4259018"/>
|
|---|
| 1226 | <trkpt lat="43.6021383" lon="1.4255337"/>
|
|---|
| 1227 | <trkpt lat="43.6018645" lon="1.4264352"/>
|
|---|
| 1228 | <trkpt lat="43.6011955" lon="1.4296076"/>
|
|---|
| 1229 | <trkpt lat="43.6014509" lon="1.4298883"/>
|
|---|
| 1230 | <trkpt lat="43.6015912" lon="1.4287883"/>
|
|---|
| 1231 | <trkpt lat="43.6029018" lon="1.4264692"/>
|
|---|
| 1232 | <trkpt lat="43.6016541" lon="1.4295225"/>
|
|---|
| 1233 | <trkpt lat="43.6026702" lon="1.4270479"/>
|
|---|
| 1234 | <trkpt lat="43.6048419" lon="1.4300355"/>
|
|---|
| 1235 | <trkpt lat="43.6075124" lon="1.4287254"/>
|
|---|
| 1236 | <trkpt lat="43.6074783" lon="1.428999"/>
|
|---|
| 1237 | <trkpt lat="43.6072437" lon="1.428447"/>
|
|---|
| 1238 | <trkpt lat="43.6072801" lon="1.4286931"/>
|
|---|
| 1239 | <trkpt lat="43.6028579" lon="1.4278935"/>
|
|---|
| 1240 | <trkpt lat="43.6030532" lon="1.4276275"/>
|
|---|
| 1241 | <trkpt lat="43.6071472" lon="1.4288791"/>
|
|---|
| 1242 | <trkpt lat="43.6067166" lon="1.4297"/>
|
|---|
| 1243 | <trkpt lat="43.6054584" lon="1.4277667"/>
|
|---|
| 1244 | <trkpt lat="43.6055606" lon="1.4294266"/>
|
|---|
| 1245 | <trkpt lat="43.608883" lon="1.429684"/>
|
|---|
| 1246 | <trkpt lat="43.608665" lon="1.429049"/>
|
|---|
| 1247 | <trkpt lat="43.608594" lon="1.428874"/>
|
|---|
| 1248 | <trkpt lat="43.608525" lon="1.428692"/>
|
|---|
| 1249 | <trkpt lat="43.60851" lon="1.428672"/>
|
|---|
| 1250 | <trkpt lat="43.608492" lon="1.428636"/>
|
|---|
| 1251 | <trkpt lat="43.608397" lon="1.428378"/>
|
|---|
| 1252 | <trkpt lat="43.608375" lon="1.428359"/>
|
|---|
| 1253 | <trkpt lat="43.608351" lon="1.428338"/>
|
|---|
| 1254 | <trkpt lat="43.60832" lon="1.428316"/>
|
|---|
| 1255 | <trkpt lat="43.608284" lon="1.428302"/>
|
|---|
| 1256 | <trkpt lat="43.607834" lon="1.428221"/>
|
|---|
| 1257 | <trkpt lat="43.607688" lon="1.428249"/>
|
|---|
| 1258 | <trkpt lat="43.607682" lon="1.428246"/>
|
|---|
| 1259 | <trkpt lat="43.607684" lon="1.428238"/>
|
|---|
| 1260 | <trkpt lat="43.60766" lon="1.428234"/>
|
|---|
| 1261 | <trkpt lat="43.607633" lon="1.428237"/>
|
|---|
| 1262 | <trkpt lat="43.607607" lon="1.428235"/>
|
|---|
| 1263 | <trkpt lat="43.607577" lon="1.42823"/>
|
|---|
| 1264 | <trkpt lat="43.607544" lon="1.428224"/>
|
|---|
| 1265 | <trkpt lat="43.607511" lon="1.428222"/>
|
|---|
| 1266 | <trkpt lat="43.607478" lon="1.428224"/>
|
|---|
| 1267 | <trkpt lat="43.607379" lon="1.428222"/>
|
|---|
| 1268 | <trkpt lat="43.606579" lon="1.428147"/>
|
|---|
| 1269 | <trkpt lat="43.606133" lon="1.428102"/>
|
|---|
| 1270 | <trkpt lat="43.605648" lon="1.427963"/>
|
|---|
| 1271 | <trkpt lat="43.605149" lon="1.427954"/>
|
|---|
| 1272 | <trkpt lat="43.604593" lon="1.427965"/>
|
|---|
| 1273 | <trkpt lat="43.604091" lon="1.427946"/>
|
|---|
| 1274 | <trkpt lat="43.603863" lon="1.427933"/>
|
|---|
| 1275 | <trkpt lat="43.603255" lon="1.42789"/>
|
|---|
| 1276 | <trkpt lat="43.602771" lon="1.427849"/>
|
|---|
| 1277 | <trkpt lat="43.601943" lon="1.4278"/>
|
|---|
| 1278 | <trkpt lat="43.601843" lon="1.427811"/>
|
|---|
| 1279 | <trkpt lat="43.601798" lon="1.427827"/>
|
|---|
| 1280 | <trkpt lat="43.601756" lon="1.427848"/>
|
|---|
| 1281 | <trkpt lat="43.601721" lon="1.427876"/>
|
|---|
| 1282 | <trkpt lat="43.60169" lon="1.427913"/>
|
|---|
| 1283 | <trkpt lat="43.601662" lon="1.427956"/>
|
|---|
| 1284 | <trkpt lat="43.601633" lon="1.427999"/>
|
|---|
| 1285 | <trkpt lat="43.601607" lon="1.428033"/>
|
|---|
| 1286 | <trkpt lat="43.601421" lon="1.428153"/>
|
|---|
| 1287 | <trkpt lat="43.607895" lon="1.425375"/>
|
|---|
| 1288 | <trkpt lat="43.6078566" lon="1.4255283"/>
|
|---|
| 1289 | <trkpt lat="43.60781" lon="1.4256733"/>
|
|---|
| 1290 | <trkpt lat="43.6077666" lon="1.425815"/>
|
|---|
| 1291 | <trkpt lat="43.6077366" lon="1.4259283"/>
|
|---|
| 1292 | <trkpt lat="43.6077116" lon="1.4260416"/>
|
|---|
| 1293 | <trkpt lat="43.60767" lon="1.426155"/>
|
|---|
| 1294 | <trkpt lat="43.6076183" lon="1.4262666"/>
|
|---|
| 1295 | <trkpt lat="43.6075783" lon="1.4263766"/>
|
|---|
| 1296 | <trkpt lat="43.60753" lon="1.4264816"/>
|
|---|
| 1297 | <trkpt lat="43.607485" lon="1.4265833"/>
|
|---|
| 1298 | <trkpt lat="43.6074266" lon="1.426665"/>
|
|---|
| 1299 | <trkpt lat="43.6073816" lon="1.42675"/>
|
|---|
| 1300 | <trkpt lat="43.60734" lon="1.426835"/>
|
|---|
| 1301 | <trkpt lat="43.6073133" lon="1.4269616"/>
|
|---|
| 1302 | <trkpt lat="43.6072866" lon="1.4270566"/>
|
|---|
| 1303 | <trkpt lat="43.6072633" lon="1.4271083"/>
|
|---|
| 1304 | <trkpt lat="43.6072316" lon="1.4271333"/>
|
|---|
| 1305 | <trkpt lat="43.6072166" lon="1.42717"/>
|
|---|
| 1306 | <trkpt lat="43.6072116" lon="1.42719"/>
|
|---|
| 1307 | <trkpt lat="43.6072083" lon="1.4272116"/>
|
|---|
| 1308 | <trkpt lat="43.607255" lon="1.42722"/>
|
|---|
| 1309 | <trkpt lat="43.6072933" lon="1.4272283"/>
|
|---|
| 1310 | <trkpt lat="43.607295" lon="1.4272316"/>
|
|---|
| 1311 | <trkpt lat="43.6072983" lon="1.4272283"/>
|
|---|
| 1312 | <trkpt lat="43.6073" lon="1.42718"/>
|
|---|
| 1313 | <trkpt lat="43.6073083" lon="1.4271566"/>
|
|---|
| 1314 | <trkpt lat="43.6072716" lon="1.427115"/>
|
|---|
| 1315 | <trkpt lat="43.60727" lon="1.427115"/>
|
|---|
| 1316 | <trkpt lat="43.6072666" lon="1.4271166"/>
|
|---|
| 1317 | <trkpt lat="43.6072716" lon="1.427125"/>
|
|---|
| 1318 | <trkpt lat="43.6072783" lon="1.4271383"/>
|
|---|
| 1319 | <trkpt lat="43.6072783" lon="1.4271433"/>
|
|---|
| 1320 | <trkpt lat="43.6072733" lon="1.427165"/>
|
|---|
| 1321 | <trkpt lat="43.607265" lon="1.427185"/>
|
|---|
| 1322 | <trkpt lat="43.6072666" lon="1.4272016"/>
|
|---|
| 1323 | <trkpt lat="43.607275" lon="1.4272266"/>
|
|---|
| 1324 | <trkpt lat="43.6072816" lon="1.4272466"/>
|
|---|
| 1325 | <trkpt lat="43.6072816" lon="1.42726"/>
|
|---|
| 1326 | <trkpt lat="43.6072783" lon="1.4272716"/>
|
|---|
| 1327 | <trkpt lat="43.60727" lon="1.4272833"/>
|
|---|
| 1328 | <trkpt lat="43.60726" lon="1.4272933"/>
|
|---|
| 1329 | <trkpt lat="43.6072516" lon="1.427305"/>
|
|---|
| 1330 | <trkpt lat="43.6072433" lon="1.4273216"/>
|
|---|
| 1331 | <trkpt lat="43.6072383" lon="1.4273383"/>
|
|---|
| 1332 | <trkpt lat="43.6072433" lon="1.4273616"/>
|
|---|
| 1333 | <trkpt lat="43.6072466" lon="1.4273816"/>
|
|---|
| 1334 | <trkpt lat="43.60724" lon="1.4273983"/>
|
|---|
| 1335 | <trkpt lat="43.60724" lon="1.42741"/>
|
|---|
| 1336 | <trkpt lat="43.60723" lon="1.42741"/>
|
|---|
| 1337 | <trkpt lat="43.6072316" lon="1.4274033"/>
|
|---|
| 1338 | <trkpt lat="43.607235" lon="1.4274116"/>
|
|---|
| 1339 | <trkpt lat="43.6072366" lon="1.4274216"/>
|
|---|
| 1340 | <trkpt lat="43.6072633" lon="1.4274233"/>
|
|---|
| 1341 | <trkpt lat="43.6072866" lon="1.427415"/>
|
|---|
| 1342 | <trkpt lat="43.607305" lon="1.4274016"/>
|
|---|
| 1343 | <trkpt lat="43.6073183" lon="1.4274066"/>
|
|---|
| 1344 | <trkpt lat="43.6073283" lon="1.427405"/>
|
|---|
| 1345 | <trkpt lat="43.6073366" lon="1.4274016"/>
|
|---|
| 1346 | <trkpt lat="43.607345" lon="1.4273966"/>
|
|---|
| 1347 | <trkpt lat="43.60735" lon="1.427395"/>
|
|---|
| 1348 | <trkpt lat="43.6073516" lon="1.4273883"/>
|
|---|
| 1349 | <trkpt lat="43.6073683" lon="1.4273883"/>
|
|---|
| 1350 | <trkpt lat="43.6073666" lon="1.4273716"/>
|
|---|
| 1351 | <trkpt lat="43.6073716" lon="1.4273416"/>
|
|---|
| 1352 | <trkpt lat="43.6073733" lon="1.4273066"/>
|
|---|
| 1353 | <trkpt lat="43.6073883" lon="1.42727"/>
|
|---|
| 1354 | <trkpt lat="43.6073983" lon="1.427265"/>
|
|---|
| 1355 | <trkpt lat="43.6073983" lon="1.427245"/>
|
|---|
| 1356 | <trkpt lat="43.6073833" lon="1.427265"/>
|
|---|
| 1357 | <trkpt lat="43.6073633" lon="1.427295"/>
|
|---|
| 1358 | <trkpt lat="43.6073366" lon="1.42734"/>
|
|---|
| 1359 | <trkpt lat="43.6073066" lon="1.4273866"/>
|
|---|
| 1360 | <trkpt lat="43.6072833" lon="1.427425"/>
|
|---|
| 1361 | <trkpt lat="43.6072583" lon="1.427455"/>
|
|---|
| 1362 | <trkpt lat="43.6072316" lon="1.4274883"/>
|
|---|
| 1363 | <trkpt lat="43.6072216" lon="1.4275166"/>
|
|---|
| 1364 | <trkpt lat="43.6071983" lon="1.4275316"/>
|
|---|
| 1365 | <trkpt lat="43.6071916" lon="1.4275483"/>
|
|---|
| 1366 | <trkpt lat="43.6071766" lon="1.4275666"/>
|
|---|
| 1367 | <trkpt lat="43.6071733" lon="1.4275866"/>
|
|---|
| 1368 | <trkpt lat="43.6071733" lon="1.4276133"/>
|
|---|
| 1369 | <trkpt lat="43.6071733" lon="1.4276483"/>
|
|---|
| 1370 | <trkpt lat="43.6071566" lon="1.427705"/>
|
|---|
| 1371 | <trkpt lat="43.60713" lon="1.4277566"/>
|
|---|
| 1372 | <trkpt lat="43.60711" lon="1.4277983"/>
|
|---|
| 1373 | <trkpt lat="43.6070916" lon="1.4278333"/>
|
|---|
| 1374 | <trkpt lat="43.6070833" lon="1.4278666"/>
|
|---|
| 1375 | <trkpt lat="43.6070766" lon="1.4278766"/>
|
|---|
| 1376 | <trkpt lat="43.607085" lon="1.4278716"/>
|
|---|
| 1377 | <trkpt lat="43.6070833" lon="1.4278816"/>
|
|---|
| 1378 | <trkpt lat="43.6070916" lon="1.42789"/>
|
|---|
| 1379 | <trkpt lat="43.6071033" lon="1.4278933"/>
|
|---|
| 1380 | <trkpt lat="43.6071066" lon="1.4278966"/>
|
|---|
| 1381 | <trkpt lat="43.60712" lon="1.4278966"/>
|
|---|
| 1382 | <trkpt lat="43.607135" lon="1.4278966"/>
|
|---|
| 1383 | <trkpt lat="43.60715" lon="1.4278983"/>
|
|---|
| 1384 | <trkpt lat="43.6071583" lon="1.4278983"/>
|
|---|
| 1385 | <trkpt lat="43.60715" lon="1.4279"/>
|
|---|
| 1386 | <trkpt lat="43.6071633" lon="1.4279033"/>
|
|---|
| 1387 | <trkpt lat="43.6071666" lon="1.4279083"/>
|
|---|
| 1388 | <trkpt lat="43.607165" lon="1.4279133"/>
|
|---|
| 1389 | <trkpt lat="43.6071683" lon="1.4279183"/>
|
|---|
| 1390 | <trkpt lat="43.60717" lon="1.427925"/>
|
|---|
| 1391 | <trkpt lat="43.6071716" lon="1.42793"/>
|
|---|
| 1392 | <trkpt lat="43.6071783" lon="1.4279316"/>
|
|---|
| 1393 | <trkpt lat="43.6071983" lon="1.42793"/>
|
|---|
| 1394 | <trkpt lat="43.6071966" lon="1.4279333"/>
|
|---|
| 1395 | <trkpt lat="43.60721" lon="1.4279433"/>
|
|---|
| 1396 | <trkpt lat="43.6072166" lon="1.4279583"/>
|
|---|
| 1397 | <trkpt lat="43.6072116" lon="1.4279633"/>
|
|---|
| 1398 | <trkpt lat="43.60721" lon="1.4279716"/>
|
|---|
| 1399 | <trkpt lat="43.6072083" lon="1.4279816"/>
|
|---|
| 1400 | <trkpt lat="43.6071983" lon="1.42798"/>
|
|---|
| 1401 | <trkpt lat="43.6071866" lon="1.4279866"/>
|
|---|
| 1402 | <trkpt lat="43.6071666" lon="1.427995"/>
|
|---|
| 1403 | <trkpt lat="43.6071433" lon="1.4280033"/>
|
|---|
| 1404 | <trkpt lat="43.6071283" lon="1.4280116"/>
|
|---|
| 1405 | <trkpt lat="43.6071183" lon="1.4280216"/>
|
|---|
| 1406 | <trkpt lat="43.60711" lon="1.4280266"/>
|
|---|
| 1407 | <trkpt lat="43.607105" lon="1.42803"/>
|
|---|
| 1408 | <trkpt lat="43.6070966" lon="1.42804"/>
|
|---|
| 1409 | <trkpt lat="43.6070816" lon="1.42805"/>
|
|---|
| 1410 | <trkpt lat="43.60707" lon="1.4280533"/>
|
|---|
| 1411 | <trkpt lat="43.6070533" lon="1.4280566"/>
|
|---|
| 1412 | <trkpt lat="43.6070233" lon="1.4280483"/>
|
|---|
| 1413 | <trkpt lat="43.607" lon="1.4280416"/>
|
|---|
| 1414 | <trkpt lat="43.6069833" lon="1.42805"/>
|
|---|
| 1415 | <trkpt lat="43.606965" lon="1.4280433"/>
|
|---|
| 1416 | <trkpt lat="43.6069466" lon="1.4280366"/>
|
|---|
| 1417 | <trkpt lat="43.6069333" lon="1.428035"/>
|
|---|
| 1418 | <trkpt lat="43.6069166" lon="1.42803"/>
|
|---|
| 1419 | <trkpt lat="43.6069016" lon="1.428025"/>
|
|---|
| 1420 | <trkpt lat="43.6068883" lon="1.4280183"/>
|
|---|
| 1421 | <trkpt lat="43.6068766" lon="1.42801"/>
|
|---|
| 1422 | <trkpt lat="43.6068633" lon="1.4280016"/>
|
|---|
| 1423 | <trkpt lat="43.6068466" lon="1.4279966"/>
|
|---|
| 1424 | <trkpt lat="43.6068283" lon="1.4279916"/>
|
|---|
| 1425 | <trkpt lat="43.606805" lon="1.4279883"/>
|
|---|
| 1426 | <trkpt lat="43.6067916" lon="1.42799"/>
|
|---|
| 1427 | <trkpt lat="43.6068" lon="1.4280033"/>
|
|---|
| 1428 | <trkpt lat="43.6067816" lon="1.4280283"/>
|
|---|
| 1429 | <trkpt lat="43.6067616" lon="1.42805"/>
|
|---|
| 1430 | <trkpt lat="43.6067633" lon="1.4280483"/>
|
|---|
| 1431 | <trkpt lat="43.6067633" lon="1.42806"/>
|
|---|
| 1432 | <trkpt lat="43.6067883" lon="1.428065"/>
|
|---|
| 1433 | <trkpt lat="43.6068033" lon="1.4280766"/>
|
|---|
| 1434 | <trkpt lat="43.606835" lon="1.4280816"/>
|
|---|
| 1435 | <trkpt lat="43.606835" lon="1.428085"/>
|
|---|
| 1436 | <trkpt lat="43.60683" lon="1.4280966"/>
|
|---|
| 1437 | <trkpt lat="43.6068216" lon="1.4281316"/>
|
|---|
| 1438 | <trkpt lat="43.60682" lon="1.4280966"/>
|
|---|
| 1439 | <trkpt lat="43.6067783" lon="1.4281066"/>
|
|---|
| 1440 | <trkpt lat="43.6067183" lon="1.42813"/>
|
|---|
| 1441 | <trkpt lat="43.6066683" lon="1.4281316"/>
|
|---|
| 1442 | <trkpt lat="43.6066266" lon="1.428155"/>
|
|---|
| 1443 | <trkpt lat="43.606575" lon="1.4281683"/>
|
|---|
| 1444 | <trkpt lat="43.6064983" lon="1.428205"/>
|
|---|
| 1445 | <trkpt lat="43.6064383" lon="1.4282316"/>
|
|---|
| 1446 | <trkpt lat="43.606415" lon="1.4281916"/>
|
|---|
| 1447 | <trkpt lat="43.6063483" lon="1.4281616"/>
|
|---|
| 1448 | <trkpt lat="43.6063016" lon="1.42812"/>
|
|---|
| 1449 | <trkpt lat="43.6062533" lon="1.4280666"/>
|
|---|
| 1450 | <trkpt lat="43.606185" lon="1.4280166"/>
|
|---|
| 1451 | <trkpt lat="43.6061066" lon="1.42799"/>
|
|---|
| 1452 | <trkpt lat="43.6060516" lon="1.42796"/>
|
|---|
| 1453 | <trkpt lat="43.6060066" lon="1.4279533"/>
|
|---|
| 1454 | <trkpt lat="43.6059733" lon="1.4279283"/>
|
|---|
| 1455 | <trkpt lat="43.6059133" lon="1.42794"/>
|
|---|
| 1456 | <trkpt lat="43.6058683" lon="1.4279516"/>
|
|---|
| 1457 | <trkpt lat="43.6058183" lon="1.4279833"/>
|
|---|
| 1458 | <trkpt lat="43.6057933" lon="1.42798"/>
|
|---|
| 1459 | <trkpt lat="43.605785" lon="1.4279966"/>
|
|---|
| 1460 | <trkpt lat="43.60577" lon="1.4279883"/>
|
|---|
| 1461 | <trkpt lat="43.6057733" lon="1.428005"/>
|
|---|
| 1462 | <trkpt lat="43.605755" lon="1.4280116"/>
|
|---|
| 1463 | <trkpt lat="43.6057216" lon="1.4280033"/>
|
|---|
| 1464 | <trkpt lat="43.605675" lon="1.4279983"/>
|
|---|
| 1465 | <trkpt lat="43.60562" lon="1.4279733"/>
|
|---|
| 1466 | <trkpt lat="43.6055533" lon="1.4279583"/>
|
|---|
| 1467 | <trkpt lat="43.60551" lon="1.4279416"/>
|
|---|
| 1468 | <trkpt lat="43.6054433" lon="1.42794"/>
|
|---|
| 1469 | <trkpt lat="43.60536" lon="1.42793"/>
|
|---|
| 1470 | <trkpt lat="43.6052666" lon="1.4279366"/>
|
|---|
| 1471 | <trkpt lat="43.6051666" lon="1.4279716"/>
|
|---|
| 1472 | <trkpt lat="43.6050016" lon="1.427965"/>
|
|---|
| 1473 | <trkpt lat="43.6048366" lon="1.427955"/>
|
|---|
| 1474 | <trkpt lat="43.6046683" lon="1.4279383"/>
|
|---|
| 1475 | <trkpt lat="43.6044883" lon="1.427905"/>
|
|---|
| 1476 | <trkpt lat="43.6043266" lon="1.42789"/>
|
|---|
| 1477 | <trkpt lat="43.60417" lon="1.4278666"/>
|
|---|
| 1478 | <trkpt lat="43.60401" lon="1.4278583"/>
|
|---|
| 1479 | <trkpt lat="43.60385" lon="1.4278583"/>
|
|---|
| 1480 | <trkpt lat="43.6036966" lon="1.4278516"/>
|
|---|
| 1481 | <trkpt lat="43.6035433" lon="1.4278433"/>
|
|---|
| 1482 | <trkpt lat="43.6033933" lon="1.4278366"/>
|
|---|
| 1483 | <trkpt lat="43.6032516" lon="1.4278316"/>
|
|---|
| 1484 | <trkpt lat="43.603115" lon="1.4278266"/>
|
|---|
| 1485 | <trkpt lat="43.6029833" lon="1.4278216"/>
|
|---|
| 1486 | <trkpt lat="43.602855" lon="1.4278166"/>
|
|---|
| 1487 | <trkpt lat="43.60273" lon="1.4278083"/>
|
|---|
| 1488 | <trkpt lat="43.6026066" lon="1.4278016"/>
|
|---|
| 1489 | <trkpt lat="43.602485" lon="1.4277933"/>
|
|---|
| 1490 | <trkpt lat="43.602365" lon="1.4277866"/>
|
|---|
| 1491 | <trkpt lat="43.6022466" lon="1.42778"/>
|
|---|
| 1492 | <trkpt lat="43.6021316" lon="1.4277733"/>
|
|---|
| 1493 | <trkpt lat="43.6020233" lon="1.4277716"/>
|
|---|
| 1494 | <trkpt lat="43.6019083" lon="1.4277916"/>
|
|---|
| 1495 | <trkpt lat="43.6017933" lon="1.4278333"/>
|
|---|
| 1496 | <trkpt lat="43.6016783" lon="1.427885"/>
|
|---|
| 1497 | <trkpt lat="43.60157" lon="1.4279433"/>
|
|---|
| 1498 | <trkpt lat="43.601465" lon="1.4279983"/>
|
|---|
| 1499 | <trkpt lat="43.6013416" lon="1.428065"/>
|
|---|
| 1500 | <trkpt lat="43.6012316" lon="1.4281216"/>
|
|---|
| 1501 | <trkpt lat="43.6011316" lon="1.4281916"/>
|
|---|
| 1502 | <trkpt lat="43.606461" lon="1.430515"/>
|
|---|
| 1503 | <trkpt lat="43.606459" lon="1.43034"/>
|
|---|
| 1504 | <trkpt lat="43.606472" lon="1.430275"/>
|
|---|
| 1505 | <trkpt lat="43.606498" lon="1.430219"/>
|
|---|
| 1506 | <trkpt lat="43.606548" lon="1.43016"/>
|
|---|
| 1507 | <trkpt lat="43.606586" lon="1.430092"/>
|
|---|
| 1508 | <trkpt lat="43.606623" lon="1.430026"/>
|
|---|
| 1509 | <trkpt lat="43.606665" lon="1.429978"/>
|
|---|
| 1510 | <trkpt lat="43.606709" lon="1.429905"/>
|
|---|
| 1511 | <trkpt lat="43.606734" lon="1.429833"/>
|
|---|
| 1512 | <trkpt lat="43.606761" lon="1.42975"/>
|
|---|
| 1513 | <trkpt lat="43.60678" lon="1.429675"/>
|
|---|
| 1514 | <trkpt lat="43.606836" lon="1.429595"/>
|
|---|
| 1515 | <trkpt lat="43.606839" lon="1.429519"/>
|
|---|
| 1516 | <trkpt lat="43.60687" lon="1.429456"/>
|
|---|
| 1517 | <trkpt lat="43.606896" lon="1.429382"/>
|
|---|
| 1518 | <trkpt lat="43.606916" lon="1.429311"/>
|
|---|
| 1519 | <trkpt lat="43.606948" lon="1.429223"/>
|
|---|
| 1520 | <trkpt lat="43.606985" lon="1.429119"/>
|
|---|
| 1521 | <trkpt lat="43.607017" lon="1.429031"/>
|
|---|
| 1522 | <trkpt lat="43.607051" lon="1.428929"/>
|
|---|
| 1523 | <trkpt lat="43.607092" lon="1.428855"/>
|
|---|
| 1524 | <trkpt lat="43.607122" lon="1.428776"/>
|
|---|
| 1525 | <trkpt lat="43.607146" lon="1.428683"/>
|
|---|
| 1526 | <trkpt lat="43.607183" lon="1.428604"/>
|
|---|
| 1527 | <trkpt lat="43.607209" lon="1.428536"/>
|
|---|
| 1528 | <trkpt lat="43.60722" lon="1.428462"/>
|
|---|
| 1529 | <trkpt lat="43.607237" lon="1.428373"/>
|
|---|
| 1530 | <trkpt lat="43.607292" lon="1.428088"/>
|
|---|
| 1531 | <trkpt lat="43.607333" lon="1.42805"/>
|
|---|
| 1532 | <trkpt lat="43.607383" lon="1.427979"/>
|
|---|
| 1533 | <trkpt lat="43.607418" lon="1.42791"/>
|
|---|
| 1534 | <trkpt lat="43.607447" lon="1.427835"/>
|
|---|
| 1535 | <trkpt lat="43.607478" lon="1.427767"/>
|
|---|
| 1536 | <trkpt lat="43.607503" lon="1.427691"/>
|
|---|
| 1537 | <trkpt lat="43.607532" lon="1.427629"/>
|
|---|
| 1538 | <trkpt lat="43.607569" lon="1.427547"/>
|
|---|
| 1539 | <trkpt lat="43.607608" lon="1.42749"/>
|
|---|
| 1540 | <trkpt lat="43.607635" lon="1.427432"/>
|
|---|
| 1541 | <trkpt lat="43.60767" lon="1.427364"/>
|
|---|
| 1542 | <trkpt lat="43.607697" lon="1.427302"/>
|
|---|
| 1543 | <trkpt lat="43.607724" lon="1.427241"/>
|
|---|
| 1544 | <trkpt lat="43.607737" lon="1.427129"/>
|
|---|
| 1545 | <trkpt lat="43.607752" lon="1.427044"/>
|
|---|
| 1546 | <trkpt lat="43.607766" lon="1.426974"/>
|
|---|
| 1547 | <trkpt lat="43.607781" lon="1.426888"/>
|
|---|
| 1548 | <trkpt lat="43.607794" lon="1.426813"/>
|
|---|
| 1549 | <trkpt lat="43.607826" lon="1.426734"/>
|
|---|
| 1550 | <trkpt lat="43.607857" lon="1.426664"/>
|
|---|
| 1551 | <trkpt lat="43.607887" lon="1.426576"/>
|
|---|
| 1552 | <trkpt lat="43.607951" lon="1.42652"/>
|
|---|
| 1553 | <trkpt lat="43.607977" lon="1.426445"/>
|
|---|
| 1554 | <trkpt lat="43.608019" lon="1.426382"/>
|
|---|
| 1555 | <trkpt lat="43.608038" lon="1.426322"/>
|
|---|
| 1556 | <trkpt lat="43.60809" lon="1.426244"/>
|
|---|
| 1557 | <trkpt lat="43.608108" lon="1.426163"/>
|
|---|
| 1558 | <trkpt lat="43.608132" lon="1.42608"/>
|
|---|
| 1559 | <trkpt lat="43.608169" lon="1.42601"/>
|
|---|
| 1560 | <trkpt lat="43.608205" lon="1.425952"/>
|
|---|
| 1561 | <trkpt lat="43.608223" lon="1.425872"/>
|
|---|
| 1562 | <trkpt lat="43.60824" lon="1.425796"/>
|
|---|
| 1563 | <trkpt lat="43.608256" lon="1.425729"/>
|
|---|
| 1564 | <trkpt lat="43.608282" lon="1.425631"/>
|
|---|
| 1565 | <trkpt lat="43.608314" lon="1.425537"/>
|
|---|
| 1566 | <trkpt lat="43.608345" lon="1.42544"/>
|
|---|
| 1567 | <trkpt lat="43.608372" lon="1.425377"/>
|
|---|
| 1568 | <trkpt lat="43.608079" lon="1.425374"/>
|
|---|
| 1569 | <trkpt lat="43.608059" lon="1.425445"/>
|
|---|
| 1570 | <trkpt lat="43.608034" lon="1.425558"/>
|
|---|
| 1571 | <trkpt lat="43.607992" lon="1.425655"/>
|
|---|
| 1572 | <trkpt lat="43.607957" lon="1.425754"/>
|
|---|
| 1573 | <trkpt lat="43.607924" lon="1.425871"/>
|
|---|
| 1574 | <trkpt lat="43.607892" lon="1.42596"/>
|
|---|
| 1575 | <trkpt lat="43.607851" lon="1.426057"/>
|
|---|
| 1576 | <trkpt lat="43.607814" lon="1.426107"/>
|
|---|
| 1577 | <trkpt lat="43.607806" lon="1.426211"/>
|
|---|
| 1578 | <trkpt lat="43.607767" lon="1.426305"/>
|
|---|
| 1579 | <trkpt lat="43.607749" lon="1.426363"/>
|
|---|
| 1580 | <trkpt lat="43.607731" lon="1.42647"/>
|
|---|
| 1581 | <trkpt lat="43.607705" lon="1.426532"/>
|
|---|
| 1582 | <trkpt lat="43.607678" lon="1.426583"/>
|
|---|
| 1583 | <trkpt lat="43.607655" lon="1.42668"/>
|
|---|
| 1584 | <trkpt lat="43.607624" lon="1.426746"/>
|
|---|
| 1585 | <trkpt lat="43.607593" lon="1.426854"/>
|
|---|
| 1586 | <trkpt lat="43.607555" lon="1.426954"/>
|
|---|
| 1587 | <trkpt lat="43.607514" lon="1.427071"/>
|
|---|
| 1588 | <trkpt lat="43.607483" lon="1.427172"/>
|
|---|
| 1589 | <trkpt lat="43.607455" lon="1.427276"/>
|
|---|
| 1590 | <trkpt lat="43.607453" lon="1.427338"/>
|
|---|
| 1591 | <trkpt lat="43.607396" lon="1.427489"/>
|
|---|
| 1592 | <trkpt lat="43.607358" lon="1.427566"/>
|
|---|
| 1593 | <trkpt lat="43.607322" lon="1.42761"/>
|
|---|
| 1594 | <trkpt lat="43.607278" lon="1.427709"/>
|
|---|
| 1595 | <trkpt lat="43.607246" lon="1.427753"/>
|
|---|
| 1596 | <trkpt lat="43.607218" lon="1.427817"/>
|
|---|
| 1597 | <trkpt lat="43.607162" lon="1.427891"/>
|
|---|
| 1598 | <trkpt lat="43.607141" lon="1.427971"/>
|
|---|
| 1599 | <trkpt lat="43.607103" lon="1.42806"/>
|
|---|
| 1600 | <trkpt lat="43.607072" lon="1.428128"/>
|
|---|
| 1601 | <trkpt lat="43.607037" lon="1.428179"/>
|
|---|
| 1602 | <trkpt lat="43.607052" lon="1.428243"/>
|
|---|
| 1603 | <trkpt lat="43.607064" lon="1.428357"/>
|
|---|
| 1604 | <trkpt lat="43.607035" lon="1.428426"/>
|
|---|
| 1605 | <trkpt lat="43.606998" lon="1.428487"/>
|
|---|
| 1606 | <trkpt lat="43.606962" lon="1.428545"/>
|
|---|
| 1607 | <trkpt lat="43.606932" lon="1.428603"/>
|
|---|
| 1608 | <trkpt lat="43.606911" lon="1.428682"/>
|
|---|
| 1609 | <trkpt lat="43.606896" lon="1.428761"/>
|
|---|
| 1610 | <trkpt lat="43.6069" lon="1.428857"/>
|
|---|
| 1611 | <trkpt lat="43.606866" lon="1.428928"/>
|
|---|
| 1612 | <trkpt lat="43.606835" lon="1.428983"/>
|
|---|
| 1613 | <trkpt lat="43.606805" lon="1.429059"/>
|
|---|
| 1614 | <trkpt lat="43.606781" lon="1.429135"/>
|
|---|
| 1615 | <trkpt lat="43.606758" lon="1.429195"/>
|
|---|
| 1616 | <trkpt lat="43.606726" lon="1.429293"/>
|
|---|
| 1617 | <trkpt lat="43.606711" lon="1.429368"/>
|
|---|
| 1618 | <trkpt lat="43.606675" lon="1.429464"/>
|
|---|
| 1619 | <trkpt lat="43.606672" lon="1.429529"/>
|
|---|
| 1620 | <trkpt lat="43.60665" lon="1.42961"/>
|
|---|
| 1621 | <trkpt lat="43.606618" lon="1.429669"/>
|
|---|
| 1622 | <trkpt lat="43.606591" lon="1.429742"/>
|
|---|
| 1623 | <trkpt lat="43.606541" lon="1.429811"/>
|
|---|
| 1624 | <trkpt lat="43.606494" lon="1.429892"/>
|
|---|
| 1625 | <trkpt lat="43.606472" lon="1.42997"/>
|
|---|
| 1626 | <trkpt lat="43.606462" lon="1.430039"/>
|
|---|
| 1627 | <trkpt lat="43.606458" lon="1.430104"/>
|
|---|
| 1628 | <trkpt lat="43.606449" lon="1.43018"/>
|
|---|
| 1629 | <trkpt lat="43.606427" lon="1.430237"/>
|
|---|
| 1630 | <trkpt lat="43.60636" lon="1.430288"/>
|
|---|
| 1631 | <trkpt lat="43.606318" lon="1.430355"/>
|
|---|
| 1632 | <trkpt lat="43.606278" lon="1.430435"/>
|
|---|
| 1633 | <trkpt lat="43.606511" lon="1.430504"/>
|
|---|
| 1634 | <trkpt lat="43.606505" lon="1.430434"/>
|
|---|
| 1635 | <trkpt lat="43.60651" lon="1.430365"/>
|
|---|
| 1636 | <trkpt lat="43.606526" lon="1.430301"/>
|
|---|
| 1637 | <trkpt lat="43.606552" lon="1.430224"/>
|
|---|
| 1638 | <trkpt lat="43.606595" lon="1.430121"/>
|
|---|
| 1639 | <trkpt lat="43.606626" lon="1.430024"/>
|
|---|
| 1640 | <trkpt lat="43.606665" lon="1.429953"/>
|
|---|
| 1641 | <trkpt lat="43.606677" lon="1.429885"/>
|
|---|
| 1642 | <trkpt lat="43.606705" lon="1.429828"/>
|
|---|
| 1643 | <trkpt lat="43.606739" lon="1.429752"/>
|
|---|
| 1644 | <trkpt lat="43.606796" lon="1.429689"/>
|
|---|
| 1645 | <trkpt lat="43.606824" lon="1.429639"/>
|
|---|
| 1646 | <trkpt lat="43.606863" lon="1.42958"/>
|
|---|
| 1647 | <trkpt lat="43.606903" lon="1.429526"/>
|
|---|
| 1648 | <trkpt lat="43.60694" lon="1.429454"/>
|
|---|
| 1649 | <trkpt lat="43.606981" lon="1.429368"/>
|
|---|
| 1650 | <trkpt lat="43.606994" lon="1.429289"/>
|
|---|
| 1651 | <trkpt lat="43.607028" lon="1.429148"/>
|
|---|
| 1652 | <trkpt lat="43.607072" lon="1.429067"/>
|
|---|
| 1653 | <trkpt lat="43.607099" lon="1.429003"/>
|
|---|
| 1654 | <trkpt lat="43.60712" lon="1.428934"/>
|
|---|
| 1655 | <trkpt lat="43.607157" lon="1.428835"/>
|
|---|
| 1656 | <trkpt lat="43.607196" lon="1.428742"/>
|
|---|
| 1657 | <trkpt lat="43.607219" lon="1.42866"/>
|
|---|
| 1658 | <trkpt lat="43.607243" lon="1.428573"/>
|
|---|
| 1659 | <trkpt lat="43.607236" lon="1.428503"/>
|
|---|
| 1660 | <trkpt lat="43.60724" lon="1.428398"/>
|
|---|
| 1661 | <trkpt lat="43.607243" lon="1.428332"/>
|
|---|
| 1662 | <trkpt lat="43.607247" lon="1.42826"/>
|
|---|
| 1663 | <trkpt lat="43.607285" lon="1.428193"/>
|
|---|
| 1664 | <trkpt lat="43.607353" lon="1.428131"/>
|
|---|
| 1665 | <trkpt lat="43.607385" lon="1.42806"/>
|
|---|
| 1666 | <trkpt lat="43.607394" lon="1.42799"/>
|
|---|
| 1667 | <trkpt lat="43.607437" lon="1.427955"/>
|
|---|
| 1668 | <trkpt lat="43.607453" lon="1.427892"/>
|
|---|
| 1669 | <trkpt lat="43.607481" lon="1.427808"/>
|
|---|
| 1670 | <trkpt lat="43.60752" lon="1.427722"/>
|
|---|
| 1671 | <trkpt lat="43.607547" lon="1.427655"/>
|
|---|
| 1672 | <trkpt lat="43.607589" lon="1.427605"/>
|
|---|
| 1673 | <trkpt lat="43.607616" lon="1.427516"/>
|
|---|
| 1674 | <trkpt lat="43.60762" lon="1.427438"/>
|
|---|
| 1675 | <trkpt lat="43.607641" lon="1.42737"/>
|
|---|
| 1676 | <trkpt lat="43.607661" lon="1.4273"/>
|
|---|
| 1677 | <trkpt lat="43.607712" lon="1.427176"/>
|
|---|
| 1678 | <trkpt lat="43.607741" lon="1.4271"/>
|
|---|
| 1679 | <trkpt lat="43.607765" lon="1.427039"/>
|
|---|
| 1680 | <trkpt lat="43.607806" lon="1.426963"/>
|
|---|
| 1681 | <trkpt lat="43.607819" lon="1.426883"/>
|
|---|
| 1682 | <trkpt lat="43.607845" lon="1.426783"/>
|
|---|
| 1683 | <trkpt lat="43.607866" lon="1.426726"/>
|
|---|
| 1684 | <trkpt lat="43.607876" lon="1.426653"/>
|
|---|
| 1685 | <trkpt lat="43.607895" lon="1.426596"/>
|
|---|
| 1686 | <trkpt lat="43.607914" lon="1.426502"/>
|
|---|
| 1687 | <trkpt lat="43.607954" lon="1.426405"/>
|
|---|
| 1688 | <trkpt lat="43.607987" lon="1.426347"/>
|
|---|
| 1689 | <trkpt lat="43.608014" lon="1.426287"/>
|
|---|
| 1690 | <trkpt lat="43.608061" lon="1.426242"/>
|
|---|
| 1691 | <trkpt lat="43.608096" lon="1.426164"/>
|
|---|
| 1692 | <trkpt lat="43.608109" lon="1.426099"/>
|
|---|
| 1693 | <trkpt lat="43.608115" lon="1.426015"/>
|
|---|
| 1694 | <trkpt lat="43.608135" lon="1.425959"/>
|
|---|
| 1695 | <trkpt lat="43.608158" lon="1.425888"/>
|
|---|
| 1696 | <trkpt lat="43.60818" lon="1.42582"/>
|
|---|
| 1697 | <trkpt lat="43.608234" lon="1.42568"/>
|
|---|
| 1698 | <trkpt lat="43.608279" lon="1.425592"/>
|
|---|
| 1699 | <trkpt lat="43.608304" lon="1.425535"/>
|
|---|
| 1700 | <trkpt lat="43.608325" lon="1.425445"/>
|
|---|
| 1701 | <trkpt lat="43.608355" lon="1.425397"/>
|
|---|
| 1702 | <trkpt lat="43.608073" lon="1.425385"/>
|
|---|
| 1703 | <trkpt lat="43.608038" lon="1.42547"/>
|
|---|
| 1704 | <trkpt lat="43.607989" lon="1.425558"/>
|
|---|
| 1705 | <trkpt lat="43.607967" lon="1.425631"/>
|
|---|
| 1706 | <trkpt lat="43.607945" lon="1.425698"/>
|
|---|
| 1707 | <trkpt lat="43.60791" lon="1.425752"/>
|
|---|
| 1708 | <trkpt lat="43.607902" lon="1.425877"/>
|
|---|
| 1709 | <trkpt lat="43.607869" lon="1.425981"/>
|
|---|
| 1710 | <trkpt lat="43.607831" lon="1.426034"/>
|
|---|
| 1711 | <trkpt lat="43.607808" lon="1.426103"/>
|
|---|
| 1712 | <trkpt lat="43.607781" lon="1.42618"/>
|
|---|
| 1713 | <trkpt lat="43.607748" lon="1.426257"/>
|
|---|
| 1714 | <trkpt lat="43.60772" lon="1.426338"/>
|
|---|
| 1715 | <trkpt lat="43.607701" lon="1.426421"/>
|
|---|
| 1716 | <trkpt lat="43.607691" lon="1.426503"/>
|
|---|
| 1717 | <trkpt lat="43.607678" lon="1.426602"/>
|
|---|
| 1718 | <trkpt lat="43.607659" lon="1.426676"/>
|
|---|
| 1719 | <trkpt lat="43.607647" lon="1.426763"/>
|
|---|
| 1720 | <trkpt lat="43.607619" lon="1.426831"/>
|
|---|
| 1721 | <trkpt lat="43.607581" lon="1.426912"/>
|
|---|
| 1722 | <trkpt lat="43.607558" lon="1.426974"/>
|
|---|
| 1723 | <trkpt lat="43.607534" lon="1.427033"/>
|
|---|
| 1724 | <trkpt lat="43.607511" lon="1.427087"/>
|
|---|
| 1725 | <trkpt lat="43.60747" lon="1.427147"/>
|
|---|
| 1726 | <trkpt lat="43.607453" lon="1.427223"/>
|
|---|
| 1727 | <trkpt lat="43.607441" lon="1.427291"/>
|
|---|
| 1728 | <trkpt lat="43.607425" lon="1.427367"/>
|
|---|
| 1729 | <trkpt lat="43.607384" lon="1.427511"/>
|
|---|
| 1730 | <trkpt lat="43.607342" lon="1.427605"/>
|
|---|
| 1731 | <trkpt lat="43.607291" lon="1.427692"/>
|
|---|
| 1732 | <trkpt lat="43.607234" lon="1.427752"/>
|
|---|
| 1733 | <trkpt lat="43.607233" lon="1.42782"/>
|
|---|
| 1734 | <trkpt lat="43.607209" lon="1.427908"/>
|
|---|
| 1735 | <trkpt lat="43.607185" lon="1.428005"/>
|
|---|
| 1736 | <trkpt lat="43.607169" lon="1.428074"/>
|
|---|
| 1737 | <trkpt lat="43.607152" lon="1.428139"/>
|
|---|
| 1738 | <trkpt lat="43.607137" lon="1.428203"/>
|
|---|
| 1739 | <trkpt lat="43.607081" lon="1.42826"/>
|
|---|
| 1740 | <trkpt lat="43.607069" lon="1.428368"/>
|
|---|
| 1741 | <trkpt lat="43.607045" lon="1.428429"/>
|
|---|
| 1742 | <trkpt lat="43.607024" lon="1.428494"/>
|
|---|
| 1743 | <trkpt lat="43.60701" lon="1.428569"/>
|
|---|
| 1744 | <trkpt lat="43.606977" lon="1.428629"/>
|
|---|
| 1745 | <trkpt lat="43.606944" lon="1.428683"/>
|
|---|
| 1746 | <trkpt lat="43.606927" lon="1.428757"/>
|
|---|
| 1747 | <trkpt lat="43.606907" lon="1.428827"/>
|
|---|
| 1748 | <trkpt lat="43.606872" lon="1.428897"/>
|
|---|
| 1749 | <trkpt lat="43.60684" lon="1.428965"/>
|
|---|
| 1750 | <trkpt lat="43.606819" lon="1.429025"/>
|
|---|
| 1751 | <trkpt lat="43.606789" lon="1.429076"/>
|
|---|
| 1752 | <trkpt lat="43.606775" lon="1.429175"/>
|
|---|
| 1753 | <trkpt lat="43.606747" lon="1.429261"/>
|
|---|
| 1754 | <trkpt lat="43.606722" lon="1.429339"/>
|
|---|
| 1755 | <trkpt lat="43.606683" lon="1.429441"/>
|
|---|
| 1756 | <trkpt lat="43.606666" lon="1.429503"/>
|
|---|
| 1757 | <trkpt lat="43.606631" lon="1.429543"/>
|
|---|
| 1758 | <trkpt lat="43.60659" lon="1.429594"/>
|
|---|
| 1759 | <trkpt lat="43.606512" lon="1.429721"/>
|
|---|
| 1760 | <trkpt lat="43.606493" lon="1.4298"/>
|
|---|
| 1761 | <trkpt lat="43.606467" lon="1.429901"/>
|
|---|
| 1762 | <trkpt lat="43.606448" lon="1.429991"/>
|
|---|
| 1763 | <trkpt lat="43.606445" lon="1.43006"/>
|
|---|
| 1764 | <trkpt lat="43.606425" lon="1.430132"/>
|
|---|
| 1765 | <trkpt lat="43.606381" lon="1.430158"/>
|
|---|
| 1766 | <trkpt lat="43.606334" lon="1.430257"/>
|
|---|
| 1767 | <trkpt lat="43.606293" lon="1.430352"/>
|
|---|
| 1768 | <trkpt lat="43.606261" lon="1.430456"/>
|
|---|
| 1769 | <trkpt lat="43.60851" lon="1.4297283"/>
|
|---|
| 1770 | <trkpt lat="43.6084583" lon="1.42901"/>
|
|---|
| 1771 | <trkpt lat="43.6080983" lon="1.4283783"/>
|
|---|
| 1772 | <trkpt lat="43.6080666" lon="1.4277799"/>
|
|---|
| 1773 | <trkpt lat="43.60792" lon="1.4269433"/>
|
|---|
| 1774 | <trkpt lat="43.6080416" lon="1.4258433"/>
|
|---|
| 1775 | <trkpt lat="43.603916" lon="1.430519"/>
|
|---|
| 1776 | <trkpt lat="43.603904" lon="1.430467"/>
|
|---|
| 1777 | <trkpt lat="43.603895" lon="1.430414"/>
|
|---|
| 1778 | <trkpt lat="43.603884" lon="1.430366"/>
|
|---|
| 1779 | <trkpt lat="43.603877" lon="1.430314"/>
|
|---|
| 1780 | <trkpt lat="43.603874" lon="1.430257"/>
|
|---|
| 1781 | <trkpt lat="43.603875" lon="1.430208"/>
|
|---|
| 1782 | <trkpt lat="43.603877" lon="1.430161"/>
|
|---|
| 1783 | <trkpt lat="43.603876" lon="1.430116"/>
|
|---|
| 1784 | <trkpt lat="43.603884" lon="1.43007"/>
|
|---|
| 1785 | <trkpt lat="43.603891" lon="1.430024"/>
|
|---|
| 1786 | <trkpt lat="43.6039" lon="1.429971"/>
|
|---|
| 1787 | <trkpt lat="43.603913" lon="1.429917"/>
|
|---|
| 1788 | <trkpt lat="43.60393" lon="1.429868"/>
|
|---|
| 1789 | <trkpt lat="43.603944" lon="1.429817"/>
|
|---|
| 1790 | <trkpt lat="43.603952" lon="1.429769"/>
|
|---|
| 1791 | <trkpt lat="43.603965" lon="1.429717"/>
|
|---|
| 1792 | <trkpt lat="43.603977" lon="1.429676"/>
|
|---|
| 1793 | <trkpt lat="43.603989" lon="1.429633"/>
|
|---|
| 1794 | <trkpt lat="43.604002" lon="1.429589"/>
|
|---|
| 1795 | <trkpt lat="43.604013" lon="1.429546"/>
|
|---|
| 1796 | <trkpt lat="43.604029" lon="1.429506"/>
|
|---|
| 1797 | <trkpt lat="43.604037" lon="1.429455"/>
|
|---|
| 1798 | <trkpt lat="43.604048" lon="1.42941"/>
|
|---|
| 1799 | <trkpt lat="43.604062" lon="1.429371"/>
|
|---|
| 1800 | <trkpt lat="43.604078" lon="1.429325"/>
|
|---|
| 1801 | <trkpt lat="43.604091" lon="1.429279"/>
|
|---|
| 1802 | <trkpt lat="43.604099" lon="1.429227"/>
|
|---|
| 1803 | <trkpt lat="43.604108" lon="1.429177"/>
|
|---|
| 1804 | <trkpt lat="43.604118" lon="1.429132"/>
|
|---|
| 1805 | <trkpt lat="43.60413" lon="1.429094"/>
|
|---|
| 1806 | <trkpt lat="43.60414" lon="1.429043"/>
|
|---|
| 1807 | <trkpt lat="43.604145" lon="1.429006"/>
|
|---|
| 1808 | <trkpt lat="43.604157" lon="1.428974"/>
|
|---|
| 1809 | <trkpt lat="43.604176" lon="1.428944"/>
|
|---|
| 1810 | <trkpt lat="43.604182" lon="1.428912"/>
|
|---|
| 1811 | <trkpt lat="43.604181" lon="1.428881"/>
|
|---|
| 1812 | <trkpt lat="43.604178" lon="1.42885"/>
|
|---|
| 1813 | <trkpt lat="43.604183" lon="1.428821"/>
|
|---|
| 1814 | <trkpt lat="43.604191" lon="1.428792"/>
|
|---|
| 1815 | <trkpt lat="43.604203" lon="1.428767"/>
|
|---|
| 1816 | <trkpt lat="43.604213" lon="1.428733"/>
|
|---|
| 1817 | <trkpt lat="43.604219" lon="1.428694"/>
|
|---|
| 1818 | <trkpt lat="43.604234" lon="1.428662"/>
|
|---|
| 1819 | <trkpt lat="43.60425" lon="1.42863"/>
|
|---|
| 1820 | <trkpt lat="43.604261" lon="1.428597"/>
|
|---|
| 1821 | <trkpt lat="43.60427" lon="1.428555"/>
|
|---|
| 1822 | <trkpt lat="43.604286" lon="1.428522"/>
|
|---|
| 1823 | <trkpt lat="43.604302" lon="1.428487"/>
|
|---|
| 1824 | <trkpt lat="43.604312" lon="1.428456"/>
|
|---|
| 1825 | <trkpt lat="43.604322" lon="1.42843"/>
|
|---|
| 1826 | <trkpt lat="43.604332" lon="1.4284"/>
|
|---|
| 1827 | <trkpt lat="43.60435" lon="1.428369"/>
|
|---|
| 1828 | <trkpt lat="43.60436" lon="1.428329"/>
|
|---|
| 1829 | <trkpt lat="43.604374" lon="1.4283"/>
|
|---|
| 1830 | <trkpt lat="43.604391" lon="1.428286"/>
|
|---|
| 1831 | <trkpt lat="43.604406" lon="1.428272"/>
|
|---|
| 1832 | <trkpt lat="43.604423" lon="1.428259"/>
|
|---|
| 1833 | <trkpt lat="43.604442" lon="1.428246"/>
|
|---|
| 1834 | <trkpt lat="43.604521" lon="1.428274"/>
|
|---|
| 1835 | <trkpt lat="43.604567" lon="1.428296"/>
|
|---|
| 1836 | <trkpt lat="43.604569" lon="1.428309"/>
|
|---|
| 1837 | <trkpt lat="43.604569" lon="1.428307"/>
|
|---|
| 1838 | <trkpt lat="43.604569" lon="1.42831"/>
|
|---|
| 1839 | <trkpt lat="43.604568" lon="1.428314"/>
|
|---|
| 1840 | <trkpt lat="43.604566" lon="1.428322"/>
|
|---|
| 1841 | <trkpt lat="43.604563" lon="1.428331"/>
|
|---|
| 1842 | <trkpt lat="43.604548" lon="1.428366"/>
|
|---|
| 1843 | <trkpt lat="43.604544" lon="1.428377"/>
|
|---|
| 1844 | <trkpt lat="43.604539" lon="1.428375"/>
|
|---|
| 1845 | <trkpt lat="43.604535" lon="1.428389"/>
|
|---|
| 1846 | <trkpt lat="43.604527" lon="1.428337"/>
|
|---|
| 1847 | <trkpt lat="43.604522" lon="1.428344"/>
|
|---|
| 1848 | <trkpt lat="43.604522" lon="1.428346"/>
|
|---|
| 1849 | <trkpt lat="43.604508" lon="1.42831"/>
|
|---|
| 1850 | <trkpt lat="43.604494" lon="1.428274"/>
|
|---|
| 1851 | <trkpt lat="43.604489" lon="1.42824"/>
|
|---|
| 1852 | <trkpt lat="43.604469" lon="1.428216"/>
|
|---|
| 1853 | <trkpt lat="43.604469" lon="1.428164"/>
|
|---|
| 1854 | <trkpt lat="43.604461" lon="1.428021"/>
|
|---|
| 1855 | <trkpt lat="43.604436" lon="1.427928"/>
|
|---|
| 1856 | <trkpt lat="43.604416" lon="1.427846"/>
|
|---|
| 1857 | <trkpt lat="43.604404" lon="1.4278"/>
|
|---|
| 1858 | <trkpt lat="43.604408" lon="1.427779"/>
|
|---|
| 1859 | <trkpt lat="43.604398" lon="1.427729"/>
|
|---|
| 1860 | <trkpt lat="43.604401" lon="1.427714"/>
|
|---|
| 1861 | <trkpt lat="43.604401" lon="1.427694"/>
|
|---|
| 1862 | <trkpt lat="43.604394" lon="1.427695"/>
|
|---|
| 1863 | <trkpt lat="43.604396" lon="1.427687"/>
|
|---|
| 1864 | <trkpt lat="43.604393" lon="1.427688"/>
|
|---|
| 1865 | <trkpt lat="43.604394" lon="1.427685"/>
|
|---|
| 1866 | <trkpt lat="43.604389" lon="1.427685"/>
|
|---|
| 1867 | <trkpt lat="43.604391" lon="1.427679"/>
|
|---|
| 1868 | <trkpt lat="43.604391" lon="1.427679"/>
|
|---|
| 1869 | <trkpt lat="43.604391" lon="1.427679"/>
|
|---|
| 1870 | <trkpt lat="43.604391" lon="1.427679"/>
|
|---|
| 1871 | <trkpt lat="43.604392" lon="1.42768"/>
|
|---|
| 1872 | <trkpt lat="43.604391" lon="1.427679"/>
|
|---|
| 1873 | <trkpt lat="43.604392" lon="1.427676"/>
|
|---|
| 1874 | <trkpt lat="43.604392" lon="1.427675"/>
|
|---|
| 1875 | <trkpt lat="43.604392" lon="1.427675"/>
|
|---|
| 1876 | <trkpt lat="43.604393" lon="1.427673"/>
|
|---|
| 1877 | <trkpt lat="43.604393" lon="1.427673"/>
|
|---|
| 1878 | <trkpt lat="43.604393" lon="1.427672"/>
|
|---|
| 1879 | <trkpt lat="43.604393" lon="1.427673"/>
|
|---|
| 1880 | <trkpt lat="43.604393" lon="1.427674"/>
|
|---|
| 1881 | <trkpt lat="43.604393" lon="1.427674"/>
|
|---|
| 1882 | <trkpt lat="43.604394" lon="1.427671"/>
|
|---|
| 1883 | <trkpt lat="43.6044" lon="1.427658"/>
|
|---|
| 1884 | <trkpt lat="43.604407" lon="1.427642"/>
|
|---|
| 1885 | <trkpt lat="43.604415" lon="1.427623"/>
|
|---|
| 1886 | <trkpt lat="43.604419" lon="1.427591"/>
|
|---|
| 1887 | <trkpt lat="43.604425" lon="1.427562"/>
|
|---|
| 1888 | <trkpt lat="43.604427" lon="1.427526"/>
|
|---|
| 1889 | <trkpt lat="43.604426" lon="1.427491"/>
|
|---|
| 1890 | <trkpt lat="43.604424" lon="1.427454"/>
|
|---|
| 1891 | <trkpt lat="43.60443" lon="1.427416"/>
|
|---|
| 1892 | <trkpt lat="43.604428" lon="1.427386"/>
|
|---|
| 1893 | <trkpt lat="43.604428" lon="1.427355"/>
|
|---|
| 1894 | <trkpt lat="43.604429" lon="1.427325"/>
|
|---|
| 1895 | <trkpt lat="43.604429" lon="1.427293"/>
|
|---|
| 1896 | <trkpt lat="43.604431" lon="1.427256"/>
|
|---|
| 1897 | <trkpt lat="43.604431" lon="1.427218"/>
|
|---|
| 1898 | <trkpt lat="43.60443" lon="1.427185"/>
|
|---|
| 1899 | <trkpt lat="43.604431" lon="1.427141"/>
|
|---|
| 1900 | <trkpt lat="43.604434" lon="1.427091"/>
|
|---|
| 1901 | <trkpt lat="43.604435" lon="1.427041"/>
|
|---|
| 1902 | <trkpt lat="43.604437" lon="1.426991"/>
|
|---|
| 1903 | <trkpt lat="43.604437" lon="1.426944"/>
|
|---|
| 1904 | <trkpt lat="43.604435" lon="1.426901"/>
|
|---|
| 1905 | <trkpt lat="43.604442" lon="1.426857"/>
|
|---|
| 1906 | <trkpt lat="43.604442" lon="1.426808"/>
|
|---|
| 1907 | <trkpt lat="43.604446" lon="1.426766"/>
|
|---|
| 1908 | <trkpt lat="43.604449" lon="1.426715"/>
|
|---|
| 1909 | <trkpt lat="43.604449" lon="1.426666"/>
|
|---|
| 1910 | <trkpt lat="43.604454" lon="1.42661"/>
|
|---|
| 1911 | <trkpt lat="43.60446" lon="1.426555"/>
|
|---|
| 1912 | <trkpt lat="43.604463" lon="1.426502"/>
|
|---|
| 1913 | <trkpt lat="43.604465" lon="1.426448"/>
|
|---|
| 1914 | <trkpt lat="43.604469" lon="1.426395"/>
|
|---|
| 1915 | <trkpt lat="43.604473" lon="1.426341"/>
|
|---|
| 1916 | <trkpt lat="43.604477" lon="1.426292"/>
|
|---|
| 1917 | <trkpt lat="43.604485" lon="1.426239"/>
|
|---|
| 1918 | <trkpt lat="43.604492" lon="1.426189"/>
|
|---|
| 1919 | <trkpt lat="43.604494" lon="1.426141"/>
|
|---|
| 1920 | <trkpt lat="43.604499" lon="1.426094"/>
|
|---|
| 1921 | <trkpt lat="43.604502" lon="1.426052"/>
|
|---|
| 1922 | <trkpt lat="43.604506" lon="1.426003"/>
|
|---|
| 1923 | <trkpt lat="43.604514" lon="1.425957"/>
|
|---|
| 1924 | <trkpt lat="43.604519" lon="1.425909"/>
|
|---|
| 1925 | <trkpt lat="43.604527" lon="1.425858"/>
|
|---|
| 1926 | <trkpt lat="43.604537" lon="1.425808"/>
|
|---|
| 1927 | <trkpt lat="43.604543" lon="1.42576"/>
|
|---|
| 1928 | <trkpt lat="43.604555" lon="1.425711"/>
|
|---|
| 1929 | <trkpt lat="43.604567" lon="1.425663"/>
|
|---|
| 1930 | <trkpt lat="43.604578" lon="1.425616"/>
|
|---|
| 1931 | <trkpt lat="43.604589" lon="1.425568"/>
|
|---|
| 1932 | <trkpt lat="43.604598" lon="1.425514"/>
|
|---|
| 1933 | <trkpt lat="43.604611" lon="1.425467"/>
|
|---|
| 1934 | <trkpt lat="43.604621" lon="1.42542"/>
|
|---|
| 1935 | <trkpt lat="43.60463" lon="1.425369"/>
|
|---|
| 1936 | <trkpt lat="43.601146" lon="1.428546"/>
|
|---|
| 1937 | <trkpt lat="43.601177" lon="1.428522"/>
|
|---|
| 1938 | <trkpt lat="43.601205" lon="1.428496"/>
|
|---|
| 1939 | <trkpt lat="43.601231" lon="1.428471"/>
|
|---|
| 1940 | <trkpt lat="43.601269" lon="1.428451"/>
|
|---|
| 1941 | <trkpt lat="43.601303" lon="1.428419"/>
|
|---|
| 1942 | <trkpt lat="43.601332" lon="1.428393"/>
|
|---|
| 1943 | <trkpt lat="43.601371" lon="1.428368"/>
|
|---|
| 1944 | <trkpt lat="43.601407" lon="1.42834"/>
|
|---|
| 1945 | <trkpt lat="43.601445" lon="1.428316"/>
|
|---|
| 1946 | <trkpt lat="43.601484" lon="1.428287"/>
|
|---|
| 1947 | <trkpt lat="43.601524" lon="1.428256"/>
|
|---|
| 1948 | <trkpt lat="43.601558" lon="1.428222"/>
|
|---|
| 1949 | <trkpt lat="43.601592" lon="1.428193"/>
|
|---|
| 1950 | <trkpt lat="43.601622" lon="1.428167"/>
|
|---|
| 1951 | <trkpt lat="43.601658" lon="1.428131"/>
|
|---|
| 1952 | <trkpt lat="43.601697" lon="1.428105"/>
|
|---|
| 1953 | <trkpt lat="43.601726" lon="1.428081"/>
|
|---|
| 1954 | <trkpt lat="43.601763" lon="1.428053"/>
|
|---|
| 1955 | <trkpt lat="43.601803" lon="1.428032"/>
|
|---|
| 1956 | <trkpt lat="43.60184" lon="1.428013"/>
|
|---|
| 1957 | <trkpt lat="43.601882" lon="1.428"/>
|
|---|
| 1958 | <trkpt lat="43.601918" lon="1.427989"/>
|
|---|
| 1959 | <trkpt lat="43.601953" lon="1.427982"/>
|
|---|
| 1960 | <trkpt lat="43.601989" lon="1.428001"/>
|
|---|
| 1961 | <trkpt lat="43.602023" lon="1.428013"/>
|
|---|
| 1962 | <trkpt lat="43.602045" lon="1.428021"/>
|
|---|
| 1963 | <trkpt lat="43.602071" lon="1.428017"/>
|
|---|
| 1964 | <trkpt lat="43.602097" lon="1.428011"/>
|
|---|
| 1965 | <trkpt lat="43.602125" lon="1.428005"/>
|
|---|
| 1966 | <trkpt lat="43.60215" lon="1.427993"/>
|
|---|
| 1967 | <trkpt lat="43.602181" lon="1.427991"/>
|
|---|
| 1968 | <trkpt lat="43.602211" lon="1.427991"/>
|
|---|
| 1969 | <trkpt lat="43.602243" lon="1.42799"/>
|
|---|
| 1970 | <trkpt lat="43.602276" lon="1.42799"/>
|
|---|
| 1971 | <trkpt lat="43.602311" lon="1.427994"/>
|
|---|
| 1972 | <trkpt lat="43.602351" lon="1.427999"/>
|
|---|
| 1973 | <trkpt lat="43.602394" lon="1.427998"/>
|
|---|
| 1974 | <trkpt lat="43.602442" lon="1.427998"/>
|
|---|
| 1975 | <trkpt lat="43.602494" lon="1.428003"/>
|
|---|
| 1976 | <trkpt lat="43.602542" lon="1.428004"/>
|
|---|
| 1977 | <trkpt lat="43.602594" lon="1.428008"/>
|
|---|
| 1978 | <trkpt lat="43.602645" lon="1.428008"/>
|
|---|
| 1979 | <trkpt lat="43.602692" lon="1.428011"/>
|
|---|
| 1980 | <trkpt lat="43.602739" lon="1.428013"/>
|
|---|
| 1981 | <trkpt lat="43.602782" lon="1.428015"/>
|
|---|
| 1982 | <trkpt lat="43.602821" lon="1.428017"/>
|
|---|
| 1983 | <trkpt lat="43.602856" lon="1.42802"/>
|
|---|
| 1984 | <trkpt lat="43.602895" lon="1.428023"/>
|
|---|
| 1985 | <trkpt lat="43.602938" lon="1.428028"/>
|
|---|
| 1986 | <trkpt lat="43.602983" lon="1.428029"/>
|
|---|
| 1987 | <trkpt lat="43.603029" lon="1.428036"/>
|
|---|
| 1988 | <trkpt lat="43.603075" lon="1.42804"/>
|
|---|
| 1989 | <trkpt lat="43.603123" lon="1.428043"/>
|
|---|
| 1990 | <trkpt lat="43.603171" lon="1.428049"/>
|
|---|
| 1991 | <trkpt lat="43.603217" lon="1.428047"/>
|
|---|
| 1992 | <trkpt lat="43.603263" lon="1.428049"/>
|
|---|
| 1993 | <trkpt lat="43.603312" lon="1.428053"/>
|
|---|
| 1994 | <trkpt lat="43.603359" lon="1.428056"/>
|
|---|
| 1995 | <trkpt lat="43.603404" lon="1.428055"/>
|
|---|
| 1996 | <trkpt lat="43.603441" lon="1.428056"/>
|
|---|
| 1997 | <trkpt lat="43.603479" lon="1.428059"/>
|
|---|
| 1998 | <trkpt lat="43.603518" lon="1.428065"/>
|
|---|
| 1999 | <trkpt lat="43.603553" lon="1.42807"/>
|
|---|
| 2000 | <trkpt lat="43.603583" lon="1.428077"/>
|
|---|
| 2001 | <trkpt lat="43.603608" lon="1.428081"/>
|
|---|
| 2002 | <trkpt lat="43.603631" lon="1.428089"/>
|
|---|
| 2003 | <trkpt lat="43.603643" lon="1.428087"/>
|
|---|
| 2004 | <trkpt lat="43.603656" lon="1.428078"/>
|
|---|
| 2005 | <trkpt lat="43.603666" lon="1.428065"/>
|
|---|
| 2006 | <trkpt lat="43.603678" lon="1.428059"/>
|
|---|
| 2007 | <trkpt lat="43.603683" lon="1.428057"/>
|
|---|
| 2008 | <trkpt lat="43.603696" lon="1.428054"/>
|
|---|
| 2009 | <trkpt lat="43.603714" lon="1.428055"/>
|
|---|
| 2010 | <trkpt lat="43.603744" lon="1.428057"/>
|
|---|
| 2011 | <trkpt lat="43.603784" lon="1.42806"/>
|
|---|
| 2012 | <trkpt lat="43.60383" lon="1.428068"/>
|
|---|
| 2013 | <trkpt lat="43.603884" lon="1.428072"/>
|
|---|
| 2014 | <trkpt lat="43.603941" lon="1.428074"/>
|
|---|
| 2015 | <trkpt lat="43.604" lon="1.428082"/>
|
|---|
| 2016 | <trkpt lat="43.604062" lon="1.428087"/>
|
|---|
| 2017 | <trkpt lat="43.60413" lon="1.42809"/>
|
|---|
| 2018 | <trkpt lat="43.604195" lon="1.428091"/>
|
|---|
| 2019 | <trkpt lat="43.604263" lon="1.428099"/>
|
|---|
| 2020 | <trkpt lat="43.60433" lon="1.428108"/>
|
|---|
| 2021 | <trkpt lat="43.604398" lon="1.428117"/>
|
|---|
| 2022 | <trkpt lat="43.604467" lon="1.428124"/>
|
|---|
| 2023 | <trkpt lat="43.604536" lon="1.428134"/>
|
|---|
| 2024 | <trkpt lat="43.60461" lon="1.428138"/>
|
|---|
| 2025 | <trkpt lat="43.604681" lon="1.428142"/>
|
|---|
| 2026 | <trkpt lat="43.604746" lon="1.428144"/>
|
|---|
| 2027 | <trkpt lat="43.604817" lon="1.428148"/>
|
|---|
| 2028 | <trkpt lat="43.604889" lon="1.428149"/>
|
|---|
| 2029 | <trkpt lat="43.604963" lon="1.428152"/>
|
|---|
| 2030 | <trkpt lat="43.605031" lon="1.428159"/>
|
|---|
| 2031 | <trkpt lat="43.605105" lon="1.428171"/>
|
|---|
| 2032 | <trkpt lat="43.605175" lon="1.42817"/>
|
|---|
| 2033 | <trkpt lat="43.605243" lon="1.428171"/>
|
|---|
| 2034 | <trkpt lat="43.605318" lon="1.428183"/>
|
|---|
| 2035 | <trkpt lat="43.605395" lon="1.428201"/>
|
|---|
| 2036 | <trkpt lat="43.605469" lon="1.428202"/>
|
|---|
| 2037 | <trkpt lat="43.605561" lon="1.42821"/>
|
|---|
| 2038 | <trkpt lat="43.605639" lon="1.428212"/>
|
|---|
| 2039 | <trkpt lat="43.605718" lon="1.428217"/>
|
|---|
| 2040 | <trkpt lat="43.605799" lon="1.428225"/>
|
|---|
| 2041 | <trkpt lat="43.60588" lon="1.428228"/>
|
|---|
| 2042 | <trkpt lat="43.60596" lon="1.428235"/>
|
|---|
| 2043 | <trkpt lat="43.606043" lon="1.428247"/>
|
|---|
| 2044 | <trkpt lat="43.606122" lon="1.428253"/>
|
|---|
| 2045 | <trkpt lat="43.606191" lon="1.428258"/>
|
|---|
| 2046 | <trkpt lat="43.606253" lon="1.428256"/>
|
|---|
| 2047 | <trkpt lat="43.606324" lon="1.428251"/>
|
|---|
| 2048 | <trkpt lat="43.606396" lon="1.428262"/>
|
|---|
| 2049 | <trkpt lat="43.606464" lon="1.428267"/>
|
|---|
| 2050 | <trkpt lat="43.606524" lon="1.428279"/>
|
|---|
| 2051 | <trkpt lat="43.606573" lon="1.428284"/>
|
|---|
| 2052 | <trkpt lat="43.606617" lon="1.428299"/>
|
|---|
| 2053 | <trkpt lat="43.606655" lon="1.428305"/>
|
|---|
| 2054 | <trkpt lat="43.606686" lon="1.428313"/>
|
|---|
| 2055 | <trkpt lat="43.6067" lon="1.428314"/>
|
|---|
| 2056 | <trkpt lat="43.606729" lon="1.428323"/>
|
|---|
| 2057 | <trkpt lat="43.606738" lon="1.428324"/>
|
|---|
| 2058 | <trkpt lat="43.606747" lon="1.428327"/>
|
|---|
| 2059 | <trkpt lat="43.606747" lon="1.428335"/>
|
|---|
| 2060 | <trkpt lat="43.606744" lon="1.428337"/>
|
|---|
| 2061 | <trkpt lat="43.606744" lon="1.428337"/>
|
|---|
| 2062 | <trkpt lat="43.606744" lon="1.428337"/>
|
|---|
| 2063 | <trkpt lat="43.606744" lon="1.428337"/>
|
|---|
| 2064 | <trkpt lat="43.606744" lon="1.428337"/>
|
|---|
| 2065 | <trkpt lat="43.606743" lon="1.428337"/>
|
|---|
| 2066 | <trkpt lat="43.606743" lon="1.428337"/>
|
|---|
| 2067 | <trkpt lat="43.606743" lon="1.428337"/>
|
|---|
| 2068 | <trkpt lat="43.606743" lon="1.428337"/>
|
|---|
| 2069 | <trkpt lat="43.606744" lon="1.428337"/>
|
|---|
| 2070 | <trkpt lat="43.606744" lon="1.428337"/>
|
|---|
| 2071 | <trkpt lat="43.606743" lon="1.428337"/>
|
|---|
| 2072 | <trkpt lat="43.606743" lon="1.428337"/>
|
|---|
| 2073 | <trkpt lat="43.606743" lon="1.428336"/>
|
|---|
| 2074 | <trkpt lat="43.606743" lon="1.428336"/>
|
|---|
| 2075 | <trkpt lat="43.606743" lon="1.428336"/>
|
|---|
| 2076 | <trkpt lat="43.606743" lon="1.428336"/>
|
|---|
| 2077 | <trkpt lat="43.606744" lon="1.428336"/>
|
|---|
| 2078 | <trkpt lat="43.606744" lon="1.428336"/>
|
|---|
| 2079 | <trkpt lat="43.606745" lon="1.428336"/>
|
|---|
| 2080 | <trkpt lat="43.606745" lon="1.428336"/>
|
|---|
| 2081 | <trkpt lat="43.606746" lon="1.428336"/>
|
|---|
| 2082 | <trkpt lat="43.606746" lon="1.428336"/>
|
|---|
| 2083 | <trkpt lat="43.606746" lon="1.428336"/>
|
|---|
| 2084 | <trkpt lat="43.606745" lon="1.428336"/>
|
|---|
| 2085 | <trkpt lat="43.606744" lon="1.428336"/>
|
|---|
| 2086 | <trkpt lat="43.606743" lon="1.428335"/>
|
|---|
| 2087 | <trkpt lat="43.606743" lon="1.428335"/>
|
|---|
| 2088 | <trkpt lat="43.606742" lon="1.428335"/>
|
|---|
| 2089 | <trkpt lat="43.606742" lon="1.428335"/>
|
|---|
| 2090 | <trkpt lat="43.606746" lon="1.428339"/>
|
|---|
| 2091 | <trkpt lat="43.606752" lon="1.428342"/>
|
|---|
| 2092 | <trkpt lat="43.606771" lon="1.428341"/>
|
|---|
| 2093 | <trkpt lat="43.60691" lon="1.428335"/>
|
|---|
| 2094 | <trkpt lat="43.606987" lon="1.428328"/>
|
|---|
| 2095 | <trkpt lat="43.607041" lon="1.428323"/>
|
|---|
| 2096 | <trkpt lat="43.607062" lon="1.428318"/>
|
|---|
| 2097 | <trkpt lat="43.607083" lon="1.428309"/>
|
|---|
| 2098 | <trkpt lat="43.607104" lon="1.428311"/>
|
|---|
| 2099 | <trkpt lat="43.607135" lon="1.428323"/>
|
|---|
| 2100 | <trkpt lat="43.607157" lon="1.428325"/>
|
|---|
| 2101 | <trkpt lat="43.607175" lon="1.428325"/>
|
|---|
| 2102 | <trkpt lat="43.607195" lon="1.428326"/>
|
|---|
| 2103 | <trkpt lat="43.60722" lon="1.428327"/>
|
|---|
| 2104 | <trkpt lat="43.607238" lon="1.428327"/>
|
|---|
| 2105 | <trkpt lat="43.607249" lon="1.428323"/>
|
|---|
| 2106 | <trkpt lat="43.607272" lon="1.428323"/>
|
|---|
| 2107 | <trkpt lat="43.607289" lon="1.428319"/>
|
|---|
| 2108 | <trkpt lat="43.607313" lon="1.428323"/>
|
|---|
| 2109 | <trkpt lat="43.607333" lon="1.428327"/>
|
|---|
| 2110 | <trkpt lat="43.607349" lon="1.428327"/>
|
|---|
| 2111 | <trkpt lat="43.607358" lon="1.428329"/>
|
|---|
| 2112 | <trkpt lat="43.607364" lon="1.428332"/>
|
|---|
| 2113 | <trkpt lat="43.607373" lon="1.428342"/>
|
|---|
| 2114 | <trkpt lat="43.607387" lon="1.428357"/>
|
|---|
| 2115 | <trkpt lat="43.607398" lon="1.428375"/>
|
|---|
| 2116 | <trkpt lat="43.60741" lon="1.428391"/>
|
|---|
| 2117 | <trkpt lat="43.60743" lon="1.428404"/>
|
|---|
| 2118 | <trkpt lat="43.60744" lon="1.428407"/>
|
|---|
| 2119 | <trkpt lat="43.607454" lon="1.428404"/>
|
|---|
| 2120 | <trkpt lat="43.607476" lon="1.428409"/>
|
|---|
| 2121 | <trkpt lat="43.607496" lon="1.428406"/>
|
|---|
| 2122 | <trkpt lat="43.607509" lon="1.428409"/>
|
|---|
| 2123 | <trkpt lat="43.607519" lon="1.428413"/>
|
|---|
| 2124 | <trkpt lat="43.607532" lon="1.42841"/>
|
|---|
| 2125 | <trkpt lat="43.607544" lon="1.428401"/>
|
|---|
| 2126 | <trkpt lat="43.607553" lon="1.428396"/>
|
|---|
| 2127 | <trkpt lat="43.607564" lon="1.42839"/>
|
|---|
| 2128 | <trkpt lat="43.607571" lon="1.428382"/>
|
|---|
| 2129 | <trkpt lat="43.607585" lon="1.428372"/>
|
|---|
| 2130 | <trkpt lat="43.607597" lon="1.428358"/>
|
|---|
| 2131 | <trkpt lat="43.607612" lon="1.428359"/>
|
|---|
| 2132 | <trkpt lat="43.607624" lon="1.428354"/>
|
|---|
| 2133 | <trkpt lat="43.607633" lon="1.428347"/>
|
|---|
| 2134 | <trkpt lat="43.607646" lon="1.428353"/>
|
|---|
| 2135 | <trkpt lat="43.607654" lon="1.428357"/>
|
|---|
| 2136 | <trkpt lat="43.607663" lon="1.42836"/>
|
|---|
| 2137 | <trkpt lat="43.607676" lon="1.428362"/>
|
|---|
| 2138 | <trkpt lat="43.607708" lon="1.428369"/>
|
|---|
| 2139 | <trkpt lat="43.607735" lon="1.428366"/>
|
|---|
| 2140 | <trkpt lat="43.607758" lon="1.428364"/>
|
|---|
| 2141 | <trkpt lat="43.607777" lon="1.42835"/>
|
|---|
| 2142 | <trkpt lat="43.607796" lon="1.428341"/>
|
|---|
| 2143 | <trkpt lat="43.607816" lon="1.428337"/>
|
|---|
| 2144 | <trkpt lat="43.607833" lon="1.428339"/>
|
|---|
| 2145 | <trkpt lat="43.607853" lon="1.428343"/>
|
|---|
| 2146 | <trkpt lat="43.607872" lon="1.428343"/>
|
|---|
| 2147 | <trkpt lat="43.607901" lon="1.428341"/>
|
|---|
| 2148 | <trkpt lat="43.607924" lon="1.42835"/>
|
|---|
| 2149 | <trkpt lat="43.607939" lon="1.428361"/>
|
|---|
| 2150 | <trkpt lat="43.607938" lon="1.428357"/>
|
|---|
| 2151 | <trkpt lat="43.607947" lon="1.42836"/>
|
|---|
| 2152 | <trkpt lat="43.607951" lon="1.428366"/>
|
|---|
| 2153 | <trkpt lat="43.607954" lon="1.428362"/>
|
|---|
| 2154 | <trkpt lat="43.607954" lon="1.428362"/>
|
|---|
| 2155 | <trkpt lat="43.607955" lon="1.428362"/>
|
|---|
| 2156 | <trkpt lat="43.607955" lon="1.428362"/>
|
|---|
| 2157 | <trkpt lat="43.607956" lon="1.428362"/>
|
|---|
| 2158 | <trkpt lat="43.607966" lon="1.428354"/>
|
|---|
| 2159 | <trkpt lat="43.607979" lon="1.428351"/>
|
|---|
| 2160 | <trkpt lat="43.607992" lon="1.428356"/>
|
|---|
| 2161 | <trkpt lat="43.608005" lon="1.428354"/>
|
|---|
| 2162 | <trkpt lat="43.608015" lon="1.42835"/>
|
|---|
| 2163 | <trkpt lat="43.608029" lon="1.428356"/>
|
|---|
| 2164 | <trkpt lat="43.608038" lon="1.428366"/>
|
|---|
| 2165 | <trkpt lat="43.608061" lon="1.428375"/>
|
|---|
| 2166 | <trkpt lat="43.608074" lon="1.428374"/>
|
|---|
| 2167 | <trkpt lat="43.608087" lon="1.428372"/>
|
|---|
| 2168 | <trkpt lat="43.608107" lon="1.428375"/>
|
|---|
| 2169 | <trkpt lat="43.608129" lon="1.428378"/>
|
|---|
| 2170 | <trkpt lat="43.608166" lon="1.42838"/>
|
|---|
| 2171 | <trkpt lat="43.608188" lon="1.428397"/>
|
|---|
| 2172 | <trkpt lat="43.608217" lon="1.428421"/>
|
|---|
| 2173 | <trkpt lat="43.608249" lon="1.428448"/>
|
|---|
| 2174 | <trkpt lat="43.608274" lon="1.428479"/>
|
|---|
| 2175 | <trkpt lat="43.608291" lon="1.428516"/>
|
|---|
| 2176 | <trkpt lat="43.608305" lon="1.428559"/>
|
|---|
| 2177 | <trkpt lat="43.608315" lon="1.4286"/>
|
|---|
| 2178 | <trkpt lat="43.608326" lon="1.428643"/>
|
|---|
| 2179 | <trkpt lat="43.608333" lon="1.428682"/>
|
|---|
| 2180 | <trkpt lat="43.608336" lon="1.428707"/>
|
|---|
| 2181 | <trkpt lat="43.608343" lon="1.428744"/>
|
|---|
| 2182 | <trkpt lat="43.608365" lon="1.428785"/>
|
|---|
| 2183 | <trkpt lat="43.608391" lon="1.428813"/>
|
|---|
| 2184 | <trkpt lat="43.608423" lon="1.428854"/>
|
|---|
| 2185 | <trkpt lat="43.608439" lon="1.428898"/>
|
|---|
| 2186 | <trkpt lat="43.608453" lon="1.428943"/>
|
|---|
| 2187 | <trkpt lat="43.608473" lon="1.428981"/>
|
|---|
| 2188 | <trkpt lat="43.608499" lon="1.429029"/>
|
|---|
| 2189 | <trkpt lat="43.608542" lon="1.429067"/>
|
|---|
| 2190 | <trkpt lat="43.608558" lon="1.4291"/>
|
|---|
| 2191 | <trkpt lat="43.608565" lon="1.429148"/>
|
|---|
| 2192 | <trkpt lat="43.608589" lon="1.429183"/>
|
|---|
| 2193 | <trkpt lat="43.608616" lon="1.429216"/>
|
|---|
| 2194 | <trkpt lat="43.608629" lon="1.429243"/>
|
|---|
| 2195 | <trkpt lat="43.608645" lon="1.429256"/>
|
|---|
| 2196 | <trkpt lat="43.608664" lon="1.429271"/>
|
|---|
| 2197 | <trkpt lat="43.608687" lon="1.429291"/>
|
|---|
| 2198 | <trkpt lat="43.608714" lon="1.42932"/>
|
|---|
| 2199 | <trkpt lat="43.608735" lon="1.429367"/>
|
|---|
| 2200 | <trkpt lat="43.608744" lon="1.429412"/>
|
|---|
| 2201 | <trkpt lat="43.608755" lon="1.429462"/>
|
|---|
| 2202 | <trkpt lat="43.608759" lon="1.429505"/>
|
|---|
| 2203 | <trkpt lat="43.608763" lon="1.429532"/>
|
|---|
| 2204 | <trkpt lat="43.608777" lon="1.429565"/>
|
|---|
| 2205 | <trkpt lat="43.608787" lon="1.429595"/>
|
|---|
| 2206 | <trkpt lat="43.608797" lon="1.429621"/>
|
|---|
| 2207 | <trkpt lat="43.608808" lon="1.429645"/>
|
|---|
| 2208 | <trkpt lat="43.608821" lon="1.429672"/>
|
|---|
| 2209 | <trkpt lat="43.608826" lon="1.429683"/>
|
|---|
| 2210 | <trkpt lat="43.608831" lon="1.429698"/>
|
|---|
| 2211 | <trkpt lat="43.608831" lon="1.429715"/>
|
|---|
| 2212 | <trkpt lat="43.608839" lon="1.429739"/>
|
|---|
| 2213 | <trkpt lat="43.608845" lon="1.429751"/>
|
|---|
| 2214 | <trkpt lat="43.608847" lon="1.429768"/>
|
|---|
| 2215 | <trkpt lat="43.608855" lon="1.429782"/>
|
|---|
| 2216 | <trkpt lat="43.608859" lon="1.429801"/>
|
|---|
| 2217 | <trkpt lat="43.608856" lon="1.42982"/>
|
|---|
| 2218 | <trkpt lat="43.608865" lon="1.429844"/>
|
|---|
| 2219 | <trkpt lat="43.608876" lon="1.429878"/>
|
|---|
| 2220 | <trkpt lat="43.608889" lon="1.429913"/>
|
|---|
| 2221 | <trkpt lat="43.608903" lon="1.429947"/>
|
|---|
| 2222 | <trkpt lat="43.608923" lon="1.429975"/>
|
|---|
| 2223 | <trkpt lat="43.608945" lon="1.430006"/>
|
|---|
| 2224 | <trkpt lat="43.608958" lon="1.430036"/>
|
|---|
| 2225 | <trkpt lat="43.608964" lon="1.430065"/>
|
|---|
| 2226 | <trkpt lat="43.608973" lon="1.430093"/>
|
|---|
| 2227 | <trkpt lat="43.608979" lon="1.43012"/>
|
|---|
| 2228 | <trkpt lat="43.60899" lon="1.430148"/>
|
|---|
| 2229 | <trkpt lat="43.609008" lon="1.430172"/>
|
|---|
| 2230 | <trkpt lat="43.602034" lon="1.427833"/>
|
|---|
| 2231 | <trkpt lat="43.602029" lon="1.427833"/>
|
|---|
| 2232 | <trkpt lat="43.60202" lon="1.427837"/>
|
|---|
| 2233 | <trkpt lat="43.602012" lon="1.427849"/>
|
|---|
| 2234 | <trkpt lat="43.602011" lon="1.427852"/>
|
|---|
| 2235 | <trkpt lat="43.602002" lon="1.427861"/>
|
|---|
| 2236 | <trkpt lat="43.601996" lon="1.42786"/>
|
|---|
| 2237 | <trkpt lat="43.601991" lon="1.427859"/>
|
|---|
| 2238 | <trkpt lat="43.60198" lon="1.427854"/>
|
|---|
| 2239 | <trkpt lat="43.601974" lon="1.427843"/>
|
|---|
| 2240 | <trkpt lat="43.601968" lon="1.427834"/>
|
|---|
| 2241 | <trkpt lat="43.60196" lon="1.427833"/>
|
|---|
| 2242 | <trkpt lat="43.601959" lon="1.427824"/>
|
|---|
| 2243 | <trkpt lat="43.601952" lon="1.427816"/>
|
|---|
| 2244 | <trkpt lat="43.601946" lon="1.427805"/>
|
|---|
| 2245 | <trkpt lat="43.60194" lon="1.427784"/>
|
|---|
| 2246 | <trkpt lat="43.601937" lon="1.427779"/>
|
|---|
| 2247 | <trkpt lat="43.60193" lon="1.427769"/>
|
|---|
| 2248 | <trkpt lat="43.601928" lon="1.427764"/>
|
|---|
| 2249 | <trkpt lat="43.60192" lon="1.427757"/>
|
|---|
| 2250 | <trkpt lat="43.601908" lon="1.427754"/>
|
|---|
| 2251 | <trkpt lat="43.601899" lon="1.42775"/>
|
|---|
| 2252 | <trkpt lat="43.601888" lon="1.427753"/>
|
|---|
| 2253 | <trkpt lat="43.601878" lon="1.427759"/>
|
|---|
| 2254 | <trkpt lat="43.601868" lon="1.427769"/>
|
|---|
| 2255 | <trkpt lat="43.601855" lon="1.427773"/>
|
|---|
| 2256 | <trkpt lat="43.601845" lon="1.427773"/>
|
|---|
| 2257 | <trkpt lat="43.601839" lon="1.427774"/>
|
|---|
| 2258 | <trkpt lat="43.601826" lon="1.42777"/>
|
|---|
| 2259 | <trkpt lat="43.601816" lon="1.427762"/>
|
|---|
| 2260 | <trkpt lat="43.601811" lon="1.427753"/>
|
|---|
| 2261 | <trkpt lat="43.601808" lon="1.42774"/>
|
|---|
| 2262 | <trkpt lat="43.601814" lon="1.427736"/>
|
|---|
| 2263 | <trkpt lat="43.601807" lon="1.427736"/>
|
|---|
| 2264 | <trkpt lat="43.601806" lon="1.427739"/>
|
|---|
| 2265 | <trkpt lat="43.601801" lon="1.427738"/>
|
|---|
| 2266 | <trkpt lat="43.601794" lon="1.427739"/>
|
|---|
| 2267 | <trkpt lat="43.601791" lon="1.427744"/>
|
|---|
| 2268 | <trkpt lat="43.601786" lon="1.427749"/>
|
|---|
| 2269 | <trkpt lat="43.601777" lon="1.427754"/>
|
|---|
| 2270 | <trkpt lat="43.601734" lon="1.427759"/>
|
|---|
| 2271 | <trkpt lat="43.601713" lon="1.427766"/>
|
|---|
| 2272 | <trkpt lat="43.601703" lon="1.427773"/>
|
|---|
| 2273 | <trkpt lat="43.601693" lon="1.427781"/>
|
|---|
| 2274 | <trkpt lat="43.601681" lon="1.427785"/>
|
|---|
| 2275 | <trkpt lat="43.60167" lon="1.42777"/>
|
|---|
| 2276 | <trkpt lat="43.601656" lon="1.427772"/>
|
|---|
| 2277 | <trkpt lat="43.60165" lon="1.427792"/>
|
|---|
| 2278 | <trkpt lat="43.601642" lon="1.427796"/>
|
|---|
| 2279 | <trkpt lat="43.601631" lon="1.427818"/>
|
|---|
| 2280 | <trkpt lat="43.601625" lon="1.427831"/>
|
|---|
| 2281 | <trkpt lat="43.601615" lon="1.42784"/>
|
|---|
| 2282 | <trkpt lat="43.601608" lon="1.427856"/>
|
|---|
| 2283 | <trkpt lat="43.601596" lon="1.427864"/>
|
|---|
| 2284 | <trkpt lat="43.601584" lon="1.427873"/>
|
|---|
| 2285 | <trkpt lat="43.601572" lon="1.427884"/>
|
|---|
| 2286 | <trkpt lat="43.601559" lon="1.427905"/>
|
|---|
| 2287 | <trkpt lat="43.601554" lon="1.427919"/>
|
|---|
| 2288 | <trkpt lat="43.601544" lon="1.427935"/>
|
|---|
| 2289 | <trkpt lat="43.601535" lon="1.427961"/>
|
|---|
| 2290 | <trkpt lat="43.601524" lon="1.427972"/>
|
|---|
| 2291 | <trkpt lat="43.601517" lon="1.427986"/>
|
|---|
| 2292 | <trkpt lat="43.601509" lon="1.427996"/>
|
|---|
| 2293 | <trkpt lat="43.601501" lon="1.427996"/>
|
|---|
| 2294 | <trkpt lat="43.60149" lon="1.428018"/>
|
|---|
| 2295 | <trkpt lat="43.601486" lon="1.428026"/>
|
|---|
| 2296 | <trkpt lat="43.601478" lon="1.42802"/>
|
|---|
| 2297 | <trkpt lat="43.601468" lon="1.428022"/>
|
|---|
| 2298 | <trkpt lat="43.601459" lon="1.428014"/>
|
|---|
| 2299 | <trkpt lat="43.601459" lon="1.428008"/>
|
|---|
| 2300 | <trkpt lat="43.601458" lon="1.428002"/>
|
|---|
| 2301 | <trkpt lat="43.601448" lon="1.428022"/>
|
|---|
| 2302 | <trkpt lat="43.601439" lon="1.428035"/>
|
|---|
| 2303 | <trkpt lat="43.601431" lon="1.428037"/>
|
|---|
| 2304 | <trkpt lat="43.601426" lon="1.42805"/>
|
|---|
| 2305 | <trkpt lat="43.601419" lon="1.428057"/>
|
|---|
| 2306 | <trkpt lat="43.601414" lon="1.42806"/>
|
|---|
| 2307 | <trkpt lat="43.601402" lon="1.428071"/>
|
|---|
| 2308 | <trkpt lat="43.601397" lon="1.428082"/>
|
|---|
| 2309 | <trkpt lat="43.601389" lon="1.428097"/>
|
|---|
| 2310 | <trkpt lat="43.601382" lon="1.428104"/>
|
|---|
| 2311 | <trkpt lat="43.601374" lon="1.428089"/>
|
|---|
| 2312 | <trkpt lat="43.601353" lon="1.428094"/>
|
|---|
| 2313 | <trkpt lat="43.601343" lon="1.42809"/>
|
|---|
| 2314 | <trkpt lat="43.601344" lon="1.42808"/>
|
|---|
| 2315 | <trkpt lat="43.601324" lon="1.428093"/>
|
|---|
| 2316 | <trkpt lat="43.601317" lon="1.428101"/>
|
|---|
| 2317 | <trkpt lat="43.601316" lon="1.428101"/>
|
|---|
| 2318 | <trkpt lat="43.601308" lon="1.42811"/>
|
|---|
| 2319 | <trkpt lat="43.601303" lon="1.428109"/>
|
|---|
| 2320 | <trkpt lat="43.601294" lon="1.428117"/>
|
|---|
| 2321 | <trkpt lat="43.601295" lon="1.428116"/>
|
|---|
| 2322 | <trkpt lat="43.601279" lon="1.428128"/>
|
|---|
| 2323 | <trkpt lat="43.601267" lon="1.428132"/>
|
|---|
| 2324 | <trkpt lat="43.601262" lon="1.428119"/>
|
|---|
| 2325 | <trkpt lat="43.601244" lon="1.428128"/>
|
|---|
| 2326 | <trkpt lat="43.601225" lon="1.428131"/>
|
|---|
| 2327 | <trkpt lat="43.601208" lon="1.428144"/>
|
|---|
| 2328 | <trkpt lat="43.601191" lon="1.428156"/>
|
|---|
| 2329 | <trkpt lat="43.601173" lon="1.428171"/>
|
|---|
| 2330 | <trkpt lat="43.601159" lon="1.428184"/>
|
|---|
| 2331 | <trkpt lat="43.601143" lon="1.428205"/>
|
|---|
| 2332 | <trkpt lat="43.601129" lon="1.428229"/>
|
|---|
| 2333 | <trkpt lat="43.601131" lon="1.426512"/>
|
|---|
| 2334 | <trkpt lat="43.601142" lon="1.426474"/>
|
|---|
| 2335 | <trkpt lat="43.601155" lon="1.426433"/>
|
|---|
| 2336 | <trkpt lat="43.601171" lon="1.426396"/>
|
|---|
| 2337 | <trkpt lat="43.601175" lon="1.426362"/>
|
|---|
| 2338 | <trkpt lat="43.601187" lon="1.426325"/>
|
|---|
| 2339 | <trkpt lat="43.601201" lon="1.426295"/>
|
|---|
| 2340 | <trkpt lat="43.601214" lon="1.426264"/>
|
|---|
| 2341 | <trkpt lat="43.601225" lon="1.42623"/>
|
|---|
| 2342 | <trkpt lat="43.601234" lon="1.426199"/>
|
|---|
| 2343 | <trkpt lat="43.601237" lon="1.426164"/>
|
|---|
| 2344 | <trkpt lat="43.601246" lon="1.426118"/>
|
|---|
| 2345 | <trkpt lat="43.601257" lon="1.426072"/>
|
|---|
| 2346 | <trkpt lat="43.601269" lon="1.426023"/>
|
|---|
| 2347 | <trkpt lat="43.60128" lon="1.425964"/>
|
|---|
| 2348 | <trkpt lat="43.601296" lon="1.425907"/>
|
|---|
| 2349 | <trkpt lat="43.601309" lon="1.425856"/>
|
|---|
| 2350 | <trkpt lat="43.601323" lon="1.425805"/>
|
|---|
| 2351 | <trkpt lat="43.601333" lon="1.425773"/>
|
|---|
| 2352 | <trkpt lat="43.60134" lon="1.425746"/>
|
|---|
| 2353 | <trkpt lat="43.601349" lon="1.42571"/>
|
|---|
| 2354 | <trkpt lat="43.60135" lon="1.425674"/>
|
|---|
| 2355 | <trkpt lat="43.601362" lon="1.425629"/>
|
|---|
| 2356 | <trkpt lat="43.601379" lon="1.425578"/>
|
|---|
| 2357 | <trkpt lat="43.601391" lon="1.425523"/>
|
|---|
| 2358 | <trkpt lat="43.601408" lon="1.425464"/>
|
|---|
| 2359 | <trkpt lat="43.601422" lon="1.425397"/>
|
|---|
| 2360 | <trkpt lat="43.6046266" lon="1.4254016"/>
|
|---|
| 2361 | <trkpt lat="43.6046116" lon="1.4254716"/>
|
|---|
| 2362 | <trkpt lat="43.6045983" lon="1.4255383"/>
|
|---|
| 2363 | <trkpt lat="43.604585" lon="1.4256066"/>
|
|---|
| 2364 | <trkpt lat="43.60457" lon="1.425675"/>
|
|---|
| 2365 | <trkpt lat="43.6045566" lon="1.4257433"/>
|
|---|
| 2366 | <trkpt lat="43.604545" lon="1.4258116"/>
|
|---|
| 2367 | <trkpt lat="43.6045333" lon="1.42588"/>
|
|---|
| 2368 | <trkpt lat="43.6045216" lon="1.42595"/>
|
|---|
| 2369 | <trkpt lat="43.6045133" lon="1.42602"/>
|
|---|
| 2370 | <trkpt lat="43.6045066" lon="1.4260916"/>
|
|---|
| 2371 | <trkpt lat="43.6045016" lon="1.4261633"/>
|
|---|
| 2372 | <trkpt lat="43.6044983" lon="1.4262366"/>
|
|---|
| 2373 | <trkpt lat="43.604495" lon="1.42631"/>
|
|---|
| 2374 | <trkpt lat="43.6044883" lon="1.4263833"/>
|
|---|
| 2375 | <trkpt lat="43.60448" lon="1.4264533"/>
|
|---|
| 2376 | <trkpt lat="43.6044733" lon="1.426525"/>
|
|---|
| 2377 | <trkpt lat="43.604465" lon="1.4265916"/>
|
|---|
| 2378 | <trkpt lat="43.6044583" lon="1.4266583"/>
|
|---|
| 2379 | <trkpt lat="43.604455" lon="1.42673"/>
|
|---|
| 2380 | <trkpt lat="43.6044516" lon="1.4268016"/>
|
|---|
| 2381 | <trkpt lat="43.60445" lon="1.4268733"/>
|
|---|
| 2382 | <trkpt lat="43.6044483" lon="1.426945"/>
|
|---|
| 2383 | <trkpt lat="43.6044466" lon="1.427015"/>
|
|---|
| 2384 | <trkpt lat="43.6044466" lon="1.427085"/>
|
|---|
| 2385 | <trkpt lat="43.604445" lon="1.4271533"/>
|
|---|
| 2386 | <trkpt lat="43.6044466" lon="1.4272216"/>
|
|---|
| 2387 | <trkpt lat="43.60445" lon="1.4272866"/>
|
|---|
| 2388 | <trkpt lat="43.6044533" lon="1.4273516"/>
|
|---|
| 2389 | <trkpt lat="43.604455" lon="1.4274133"/>
|
|---|
| 2390 | <trkpt lat="43.6044566" lon="1.4274716"/>
|
|---|
| 2391 | <trkpt lat="43.6044566" lon="1.4275216"/>
|
|---|
| 2392 | <trkpt lat="43.6044583" lon="1.4275616"/>
|
|---|
| 2393 | <trkpt lat="43.6044583" lon="1.4275966"/>
|
|---|
| 2394 | <trkpt lat="43.60446" lon="1.4276333"/>
|
|---|
| 2395 | <trkpt lat="43.6044566" lon="1.42767"/>
|
|---|
| 2396 | <trkpt lat="43.6044516" lon="1.4277066"/>
|
|---|
| 2397 | <trkpt lat="43.6044483" lon="1.4277416"/>
|
|---|
| 2398 | <trkpt lat="43.6044516" lon="1.4277683"/>
|
|---|
| 2399 | <trkpt lat="43.6044533" lon="1.4277933"/>
|
|---|
| 2400 | <trkpt lat="43.60446" lon="1.42782"/>
|
|---|
| 2401 | <trkpt lat="43.6044633" lon="1.4278333"/>
|
|---|
| 2402 | <trkpt lat="43.604465" lon="1.4278416"/>
|
|---|
| 2403 | <trkpt lat="43.6044716" lon="1.4278466"/>
|
|---|
| 2404 | <trkpt lat="43.6044866" lon="1.427845"/>
|
|---|
| 2405 | <trkpt lat="43.6045083" lon="1.4278433"/>
|
|---|
| 2406 | <trkpt lat="43.6045366" lon="1.42784"/>
|
|---|
| 2407 | <trkpt lat="43.6045583" lon="1.4278366"/>
|
|---|
| 2408 | <trkpt lat="43.60457" lon="1.427835"/>
|
|---|
| 2409 | <trkpt lat="43.60457" lon="1.4278316"/>
|
|---|
| 2410 | <trkpt lat="43.6045683" lon="1.4278266"/>
|
|---|
| 2411 | <trkpt lat="43.6045666" lon="1.42782"/>
|
|---|
| 2412 | <trkpt lat="43.604575" lon="1.4278116"/>
|
|---|
| 2413 | <trkpt lat="43.6045816" lon="1.4278016"/>
|
|---|
| 2414 | <trkpt lat="43.6045916" lon="1.4277916"/>
|
|---|
| 2415 | <trkpt lat="43.6045916" lon="1.4277883"/>
|
|---|
| 2416 | <trkpt lat="43.60459" lon="1.4277733"/>
|
|---|
| 2417 | <trkpt lat="43.6045816" lon="1.4277583"/>
|
|---|
| 2418 | <trkpt lat="43.6045766" lon="1.4277483"/>
|
|---|
| 2419 | <trkpt lat="43.6045933" lon="1.4277483"/>
|
|---|
| 2420 | <trkpt lat="43.6046733" lon="1.427805"/>
|
|---|
| 2421 | <trkpt lat="43.60472" lon="1.4278383"/>
|
|---|
| 2422 | <trkpt lat="43.6047333" lon="1.4278516"/>
|
|---|
| 2423 | <trkpt lat="43.604735" lon="1.427865"/>
|
|---|
| 2424 | <trkpt lat="43.6047266" lon="1.4279233"/>
|
|---|
| 2425 | <trkpt lat="43.6047266" lon="1.4279483"/>
|
|---|
| 2426 | <trkpt lat="43.60474" lon="1.4279583"/>
|
|---|
| 2427 | <trkpt lat="43.6047433" lon="1.42797"/>
|
|---|
| 2428 | <trkpt lat="43.6047433" lon="1.4279833"/>
|
|---|
| 2429 | <trkpt lat="43.604735" lon="1.428"/>
|
|---|
| 2430 | <trkpt lat="43.6047116" lon="1.4280283"/>
|
|---|
| 2431 | <trkpt lat="43.604695" lon="1.4280416"/>
|
|---|
| 2432 | <trkpt lat="43.6046816" lon="1.4280566"/>
|
|---|
| 2433 | <trkpt lat="43.6046433" lon="1.4281066"/>
|
|---|
| 2434 | <trkpt lat="43.6046066" lon="1.42812"/>
|
|---|
| 2435 | <trkpt lat="43.6045566" lon="1.42816"/>
|
|---|
| 2436 | <trkpt lat="43.6045333" lon="1.4282"/>
|
|---|
| 2437 | <trkpt lat="43.6045083" lon="1.42823"/>
|
|---|
| 2438 | <trkpt lat="43.6044766" lon="1.4282566"/>
|
|---|
| 2439 | <trkpt lat="43.6044416" lon="1.4282666"/>
|
|---|
| 2440 | <trkpt lat="43.6044" lon="1.4282766"/>
|
|---|
| 2441 | <trkpt lat="43.60437" lon="1.4282883"/>
|
|---|
| 2442 | <trkpt lat="43.6043466" lon="1.4283016"/>
|
|---|
| 2443 | <trkpt lat="43.60434" lon="1.4283166"/>
|
|---|
| 2444 | <trkpt lat="43.60433" lon="1.4283366"/>
|
|---|
| 2445 | <trkpt lat="43.6043183" lon="1.4283533"/>
|
|---|
| 2446 | <trkpt lat="43.604315" lon="1.4283716"/>
|
|---|
| 2447 | <trkpt lat="43.60431" lon="1.4283966"/>
|
|---|
| 2448 | <trkpt lat="43.6043083" lon="1.4284266"/>
|
|---|
| 2449 | <trkpt lat="43.6043033" lon="1.4284533"/>
|
|---|
| 2450 | <trkpt lat="43.604295" lon="1.4284766"/>
|
|---|
| 2451 | <trkpt lat="43.6042883" lon="1.428505"/>
|
|---|
| 2452 | <trkpt lat="43.6042883" lon="1.42854"/>
|
|---|
| 2453 | <trkpt lat="43.604285" lon="1.4285733"/>
|
|---|
| 2454 | <trkpt lat="43.6042766" lon="1.428605"/>
|
|---|
| 2455 | <trkpt lat="43.6042733" lon="1.4286466"/>
|
|---|
| 2456 | <trkpt lat="43.6042683" lon="1.4286866"/>
|
|---|
| 2457 | <trkpt lat="43.6042616" lon="1.4287216"/>
|
|---|
| 2458 | <trkpt lat="43.6042533" lon="1.4287566"/>
|
|---|
| 2459 | <trkpt lat="43.6042483" lon="1.42879"/>
|
|---|
| 2460 | <trkpt lat="43.6042416" lon="1.4288216"/>
|
|---|
| 2461 | <trkpt lat="43.6042366" lon="1.4288516"/>
|
|---|
| 2462 | <trkpt lat="43.60423" lon="1.4288816"/>
|
|---|
| 2463 | <trkpt lat="43.6042233" lon="1.42891"/>
|
|---|
| 2464 | <trkpt lat="43.6042216" lon="1.42894"/>
|
|---|
| 2465 | <trkpt lat="43.6042233" lon="1.4289683"/>
|
|---|
| 2466 | <trkpt lat="43.6042166" lon="1.4289983"/>
|
|---|
| 2467 | <trkpt lat="43.6042083" lon="1.4290233"/>
|
|---|
| 2468 | <trkpt lat="43.6042" lon="1.4290516"/>
|
|---|
| 2469 | <trkpt lat="43.60419" lon="1.4290816"/>
|
|---|
| 2470 | <trkpt lat="43.604175" lon="1.4291083"/>
|
|---|
| 2471 | <trkpt lat="43.6041616" lon="1.4291366"/>
|
|---|
| 2472 | <trkpt lat="43.60415" lon="1.4291716"/>
|
|---|
| 2473 | <trkpt lat="43.6041433" lon="1.42921"/>
|
|---|
| 2474 | <trkpt lat="43.604135" lon="1.4292516"/>
|
|---|
| 2475 | <trkpt lat="43.604125" lon="1.4292933"/>
|
|---|
| 2476 | <trkpt lat="43.604115" lon="1.4293316"/>
|
|---|
| 2477 | <trkpt lat="43.6041083" lon="1.4293733"/>
|
|---|
| 2478 | <trkpt lat="43.604095" lon="1.4294183"/>
|
|---|
| 2479 | <trkpt lat="43.60408" lon="1.4294633"/>
|
|---|
| 2480 | <trkpt lat="43.6040683" lon="1.4295116"/>
|
|---|
| 2481 | <trkpt lat="43.6040583" lon="1.4295633"/>
|
|---|
| 2482 | <trkpt lat="43.604045" lon="1.4296133"/>
|
|---|
| 2483 | <trkpt lat="43.6040316" lon="1.4296633"/>
|
|---|
| 2484 | <trkpt lat="43.60402" lon="1.4297133"/>
|
|---|
| 2485 | <trkpt lat="43.6040066" lon="1.429765"/>
|
|---|
| 2486 | <trkpt lat="43.603995" lon="1.4298166"/>
|
|---|
| 2487 | <trkpt lat="43.6039816" lon="1.429865"/>
|
|---|
| 2488 | <trkpt lat="43.603965" lon="1.4299133"/>
|
|---|
| 2489 | <trkpt lat="43.60395" lon="1.4299616"/>
|
|---|
| 2490 | <trkpt lat="43.6039383" lon="1.4300116"/>
|
|---|
| 2491 | <trkpt lat="43.6039266" lon="1.43006"/>
|
|---|
| 2492 | <trkpt lat="43.6039183" lon="1.4301116"/>
|
|---|
| 2493 | <trkpt lat="43.6039116" lon="1.43016"/>
|
|---|
| 2494 | <trkpt lat="43.6039066" lon="1.4302083"/>
|
|---|
| 2495 | <trkpt lat="43.603905" lon="1.4302583"/>
|
|---|
| 2496 | <trkpt lat="43.6039066" lon="1.4303033"/>
|
|---|
| 2497 | <trkpt lat="43.6039083" lon="1.4303383"/>
|
|---|
| 2498 | <trkpt lat="43.6039116" lon="1.430365"/>
|
|---|
| 2499 | <trkpt lat="43.6039166" lon="1.4303916"/>
|
|---|
| 2500 | <trkpt lat="43.6039216" lon="1.4304233"/>
|
|---|
| 2501 | <trkpt lat="43.60393" lon="1.4304583"/>
|
|---|
| 2502 | <trkpt lat="43.6039383" lon="1.4304916"/>
|
|---|
| 2503 | <trkpt lat="43.6039483" lon="1.430525"/>
|
|---|
| 2504 | <trkpt lat="43.6041316" lon="1.4305366"/>
|
|---|
| 2505 | <trkpt lat="43.604135" lon="1.4305333"/>
|
|---|
| 2506 | <trkpt lat="43.6041366" lon="1.43053"/>
|
|---|
| 2507 | <trkpt lat="43.60414" lon="1.4305266"/>
|
|---|
| 2508 | <trkpt lat="43.6041416" lon="1.4305233"/>
|
|---|
| 2509 | <trkpt lat="43.604145" lon="1.4305216"/>
|
|---|
| 2510 | <trkpt lat="43.6041466" lon="1.43052"/>
|
|---|
| 2511 | <trkpt lat="43.6041483" lon="1.4305183"/>
|
|---|
| 2512 | <trkpt lat="43.60415" lon="1.4305166"/>
|
|---|
| 2513 | <trkpt lat="43.6041516" lon="1.430515"/>
|
|---|
| 2514 | <trkpt lat="43.6041516" lon="1.430515"/>
|
|---|
| 2515 | <trkpt lat="43.604145" lon="1.4305266"/>
|
|---|
| 2516 | <trkpt lat="43.604145" lon="1.4305266"/>
|
|---|
| 2517 | <trkpt lat="43.604145" lon="1.4305283"/>
|
|---|
| 2518 | <trkpt lat="43.6041433" lon="1.4305316"/>
|
|---|
| 2519 | <trkpt lat="43.6041416" lon="1.4305366"/>
|
|---|
| 2520 | <trkpt lat="43.6041416" lon="1.43053"/>
|
|---|
| 2521 | <trkpt lat="43.60414" lon="1.430525"/>
|
|---|
| 2522 | <trkpt lat="43.60414" lon="1.430525"/>
|
|---|
| 2523 | <trkpt lat="43.60414" lon="1.4305216"/>
|
|---|
| 2524 | <trkpt lat="43.6041383" lon="1.4305183"/>
|
|---|
| 2525 | <trkpt lat="43.6041383" lon="1.4305166"/>
|
|---|
| 2526 | <trkpt lat="43.6041383" lon="1.4305166"/>
|
|---|
| 2527 | <trkpt lat="43.6041366" lon="1.4305183"/>
|
|---|
| 2528 | <trkpt lat="43.6041433" lon="1.4305033"/>
|
|---|
| 2529 | <trkpt lat="43.6041466" lon="1.4304966"/>
|
|---|
| 2530 | <trkpt lat="43.6041516" lon="1.4304866"/>
|
|---|
| 2531 | <trkpt lat="43.6041616" lon="1.4304683"/>
|
|---|
| 2532 | <trkpt lat="43.6041683" lon="1.430455"/>
|
|---|
| 2533 | <trkpt lat="43.6041683" lon="1.4304433"/>
|
|---|
| 2534 | <trkpt lat="43.6041666" lon="1.430435"/>
|
|---|
| 2535 | <trkpt lat="43.6041683" lon="1.4304283"/>
|
|---|
| 2536 | <trkpt lat="43.6041766" lon="1.430415"/>
|
|---|
| 2537 | <trkpt lat="43.6041716" lon="1.4304233"/>
|
|---|
| 2538 | <trkpt lat="43.6041666" lon="1.4304433"/>
|
|---|
| 2539 | <trkpt lat="43.60417" lon="1.43044"/>
|
|---|
| 2540 | <trkpt lat="43.60417" lon="1.43044"/>
|
|---|
| 2541 | <trkpt lat="43.6041716" lon="1.43044"/>
|
|---|
| 2542 | <trkpt lat="43.6041783" lon="1.4304183"/>
|
|---|
| 2543 | <trkpt lat="43.60418" lon="1.4304266"/>
|
|---|
| 2544 | <trkpt lat="43.6041816" lon="1.4304433"/>
|
|---|
| 2545 | <trkpt lat="43.60418" lon="1.4304516"/>
|
|---|
| 2546 | <trkpt lat="43.6041783" lon="1.430465"/>
|
|---|
| 2547 | <trkpt lat="43.6041766" lon="1.4304733"/>
|
|---|
| 2548 | <trkpt lat="43.6041766" lon="1.4304766"/>
|
|---|
| 2549 | <trkpt lat="43.6041733" lon="1.4304883"/>
|
|---|
| 2550 | <trkpt lat="43.6041716" lon="1.4304933"/>
|
|---|
| 2551 | <trkpt lat="43.6041666" lon="1.430505"/>
|
|---|
| 2552 | <trkpt lat="43.6041633" lon="1.4305166"/>
|
|---|
| 2553 | <trkpt lat="43.60416" lon="1.430525"/>
|
|---|
| 2554 | <trkpt lat="43.6041533" lon="1.43054"/>
|
|---|
| 2555 | <trkpt lat="43.6039833" lon="1.4305183"/>
|
|---|
| 2556 | <trkpt lat="43.6039666" lon="1.4304916"/>
|
|---|
| 2557 | <trkpt lat="43.6039516" lon="1.4304633"/>
|
|---|
| 2558 | <trkpt lat="43.6039366" lon="1.430435"/>
|
|---|
| 2559 | <trkpt lat="43.603925" lon="1.4304033"/>
|
|---|
| 2560 | <trkpt lat="43.603915" lon="1.4303683"/>
|
|---|
| 2561 | <trkpt lat="43.6039066" lon="1.4303316"/>
|
|---|
| 2562 | <trkpt lat="43.6038983" lon="1.4302966"/>
|
|---|
| 2563 | <trkpt lat="43.6038933" lon="1.4302583"/>
|
|---|
| 2564 | <trkpt lat="43.6038883" lon="1.4302183"/>
|
|---|
| 2565 | <trkpt lat="43.6038883" lon="1.43018"/>
|
|---|
| 2566 | <trkpt lat="43.6038916" lon="1.4301416"/>
|
|---|
| 2567 | <trkpt lat="43.603895" lon="1.4301016"/>
|
|---|
| 2568 | <trkpt lat="43.6038966" lon="1.4300583"/>
|
|---|
| 2569 | <trkpt lat="43.6039016" lon="1.4300183"/>
|
|---|
| 2570 | <trkpt lat="43.60391" lon="1.4299783"/>
|
|---|
| 2571 | <trkpt lat="43.6039183" lon="1.42994"/>
|
|---|
| 2572 | <trkpt lat="43.6039283" lon="1.4299016"/>
|
|---|
| 2573 | <trkpt lat="43.6039383" lon="1.4298666"/>
|
|---|
| 2574 | <trkpt lat="43.6039466" lon="1.4298333"/>
|
|---|
| 2575 | <trkpt lat="43.603955" lon="1.4298"/>
|
|---|
| 2576 | <trkpt lat="43.603965" lon="1.4297633"/>
|
|---|
| 2577 | <trkpt lat="43.603975" lon="1.429725"/>
|
|---|
| 2578 | <trkpt lat="43.603985" lon="1.429685"/>
|
|---|
| 2579 | <trkpt lat="43.6039966" lon="1.429645"/>
|
|---|
| 2580 | <trkpt lat="43.6040083" lon="1.4296066"/>
|
|---|
| 2581 | <trkpt lat="43.6040216" lon="1.4295666"/>
|
|---|
| 2582 | <trkpt lat="43.604035" lon="1.429525"/>
|
|---|
| 2583 | <trkpt lat="43.604045" lon="1.4294883"/>
|
|---|
| 2584 | <trkpt lat="43.6040566" lon="1.4294533"/>
|
|---|
| 2585 | <trkpt lat="43.6040683" lon="1.4294166"/>
|
|---|
| 2586 | <trkpt lat="43.6040833" lon="1.429385"/>
|
|---|
| 2587 | <trkpt lat="43.6040966" lon="1.429355"/>
|
|---|
| 2588 | <trkpt lat="43.6041066" lon="1.4293266"/>
|
|---|
| 2589 | <trkpt lat="43.6041183" lon="1.4292966"/>
|
|---|
| 2590 | <trkpt lat="43.6041283" lon="1.429265"/>
|
|---|
| 2591 | <trkpt lat="43.6041383" lon="1.42923"/>
|
|---|
| 2592 | <trkpt lat="43.6041516" lon="1.4291983"/>
|
|---|
| 2593 | <trkpt lat="43.6041666" lon="1.429165"/>
|
|---|
| 2594 | <trkpt lat="43.6041766" lon="1.4291333"/>
|
|---|
| 2595 | <trkpt lat="43.6041883" lon="1.4291016"/>
|
|---|
| 2596 | <trkpt lat="43.6042" lon="1.4290733"/>
|
|---|
| 2597 | <trkpt lat="43.604215" lon="1.4290483"/>
|
|---|
| 2598 | <trkpt lat="43.6042266" lon="1.42903"/>
|
|---|
| 2599 | <trkpt lat="43.6042266" lon="1.4290116"/>
|
|---|
| 2600 | <trkpt lat="43.6042283" lon="1.4289866"/>
|
|---|
| 2601 | <trkpt lat="43.604235" lon="1.4289633"/>
|
|---|
| 2602 | <trkpt lat="43.6042416" lon="1.42894"/>
|
|---|
| 2603 | <trkpt lat="43.604255" lon="1.428915"/>
|
|---|
| 2604 | <trkpt lat="43.6042683" lon="1.4288866"/>
|
|---|
| 2605 | <trkpt lat="43.6042816" lon="1.4288566"/>
|
|---|
| 2606 | <trkpt lat="43.6042916" lon="1.4288233"/>
|
|---|
| 2607 | <trkpt lat="43.6043033" lon="1.428785"/>
|
|---|
| 2608 | <trkpt lat="43.6043166" lon="1.4287466"/>
|
|---|
| 2609 | <trkpt lat="43.6043316" lon="1.4287033"/>
|
|---|
| 2610 | <trkpt lat="43.6043516" lon="1.4286583"/>
|
|---|
| 2611 | <trkpt lat="43.604375" lon="1.4286133"/>
|
|---|
| 2612 | <trkpt lat="43.6044016" lon="1.428565"/>
|
|---|
| 2613 | <trkpt lat="43.6044233" lon="1.42852"/>
|
|---|
| 2614 | <trkpt lat="43.604435" lon="1.4284783"/>
|
|---|
| 2615 | <trkpt lat="43.604445" lon="1.428445"/>
|
|---|
| 2616 | <trkpt lat="43.60445" lon="1.4284283"/>
|
|---|
| 2617 | <trkpt lat="43.604445" lon="1.4284133"/>
|
|---|
| 2618 | <trkpt lat="43.6044366" lon="1.4283783"/>
|
|---|
| 2619 | <trkpt lat="43.60443" lon="1.428375"/>
|
|---|
| 2620 | <trkpt lat="43.6044316" lon="1.4283616"/>
|
|---|
| 2621 | <trkpt lat="43.6044316" lon="1.4283483"/>
|
|---|
| 2622 | <trkpt lat="43.604425" lon="1.4283366"/>
|
|---|
| 2623 | <trkpt lat="43.604425" lon="1.428335"/>
|
|---|
| 2624 | <trkpt lat="43.6044283" lon="1.4283383"/>
|
|---|
| 2625 | <trkpt lat="43.6044383" lon="1.428345"/>
|
|---|
| 2626 | <trkpt lat="43.6044416" lon="1.428345"/>
|
|---|
| 2627 | <trkpt lat="43.6044566" lon="1.42834"/>
|
|---|
| 2628 | <trkpt lat="43.6044666" lon="1.42834"/>
|
|---|
| 2629 | <trkpt lat="43.604475" lon="1.42834"/>
|
|---|
| 2630 | <trkpt lat="43.6044766" lon="1.4283316"/>
|
|---|
| 2631 | <trkpt lat="43.6044833" lon="1.42833"/>
|
|---|
| 2632 | <trkpt lat="43.6044866" lon="1.4283233"/>
|
|---|
| 2633 | <trkpt lat="43.6044866" lon="1.4283183"/>
|
|---|
| 2634 | <trkpt lat="43.6044816" lon="1.428315"/>
|
|---|
| 2635 | <trkpt lat="43.604475" lon="1.4283216"/>
|
|---|
| 2636 | <trkpt lat="43.604485" lon="1.4283483"/>
|
|---|
| 2637 | <trkpt lat="43.6044966" lon="1.4283716"/>
|
|---|
| 2638 | <trkpt lat="43.6045033" lon="1.4283866"/>
|
|---|
| 2639 | <trkpt lat="43.604505" lon="1.428395"/>
|
|---|
| 2640 | <trkpt lat="43.6045083" lon="1.4284183"/>
|
|---|
| 2641 | <trkpt lat="43.604505" lon="1.4284433"/>
|
|---|
| 2642 | <trkpt lat="43.6044633" lon="1.4285033"/>
|
|---|
| 2643 | <trkpt lat="43.604435" lon="1.4285083"/>
|
|---|
| 2644 | <trkpt lat="43.6043866" lon="1.4284466"/>
|
|---|
| 2645 | <trkpt lat="43.6043966" lon="1.4284216"/>
|
|---|
| 2646 | <trkpt lat="43.604435" lon="1.4283983"/>
|
|---|
| 2647 | <trkpt lat="43.6044866" lon="1.428365"/>
|
|---|
| 2648 | <trkpt lat="43.60452" lon="1.4283333"/>
|
|---|
| 2649 | <trkpt lat="43.6045283" lon="1.4282866"/>
|
|---|
| 2650 | <trkpt lat="43.6045316" lon="1.42825"/>
|
|---|
| 2651 | <trkpt lat="43.6045316" lon="1.4282233"/>
|
|---|
| 2652 | <trkpt lat="43.6045266" lon="1.4281866"/>
|
|---|
| 2653 | <trkpt lat="43.6045183" lon="1.4281716"/>
|
|---|
| 2654 | <trkpt lat="43.6045083" lon="1.4281716"/>
|
|---|
| 2655 | <trkpt lat="43.6045" lon="1.4281633"/>
|
|---|
| 2656 | <trkpt lat="43.60449" lon="1.4281616"/>
|
|---|
| 2657 | <trkpt lat="43.6044783" lon="1.4281416"/>
|
|---|
| 2658 | <trkpt lat="43.604465" lon="1.428145"/>
|
|---|
| 2659 | <trkpt lat="43.6044533" lon="1.428135"/>
|
|---|
| 2660 | <trkpt lat="43.604435" lon="1.4281383"/>
|
|---|
| 2661 | <trkpt lat="43.6044233" lon="1.4281116"/>
|
|---|
| 2662 | <trkpt lat="43.60441" lon="1.4281083"/>
|
|---|
| 2663 | <trkpt lat="43.6044" lon="1.428085"/>
|
|---|
| 2664 | <trkpt lat="43.6043983" lon="1.4280466"/>
|
|---|
| 2665 | <trkpt lat="43.60439" lon="1.428"/>
|
|---|
| 2666 | <trkpt lat="43.6043783" lon="1.4279866"/>
|
|---|
| 2667 | <trkpt lat="43.6043633" lon="1.4279533"/>
|
|---|
| 2668 | <trkpt lat="43.60435" lon="1.42793"/>
|
|---|
| 2669 | <trkpt lat="43.6043366" lon="1.427905"/>
|
|---|
| 2670 | <trkpt lat="43.60433" lon="1.4278833"/>
|
|---|
| 2671 | <trkpt lat="43.6043366" lon="1.427855"/>
|
|---|
| 2672 | <trkpt lat="43.6043433" lon="1.4278266"/>
|
|---|
| 2673 | <trkpt lat="43.60434" lon="1.4278083"/>
|
|---|
| 2674 | <trkpt lat="43.60434" lon="1.4277933"/>
|
|---|
| 2675 | <trkpt lat="43.6043416" lon="1.4277816"/>
|
|---|
| 2676 | <trkpt lat="43.6043483" lon="1.42777"/>
|
|---|
| 2677 | <trkpt lat="43.60435" lon="1.42776"/>
|
|---|
| 2678 | <trkpt lat="43.6043516" lon="1.4277516"/>
|
|---|
| 2679 | <trkpt lat="43.604355" lon="1.427745"/>
|
|---|
| 2680 | <trkpt lat="43.604355" lon="1.4277383"/>
|
|---|
| 2681 | <trkpt lat="43.6043583" lon="1.4277383"/>
|
|---|
| 2682 | <trkpt lat="43.6043566" lon="1.427745"/>
|
|---|
| 2683 | <trkpt lat="43.6043583" lon="1.4277483"/>
|
|---|
| 2684 | <trkpt lat="43.6043633" lon="1.427755"/>
|
|---|
| 2685 | <trkpt lat="43.6043683" lon="1.42776"/>
|
|---|
| 2686 | <trkpt lat="43.6043716" lon="1.4277633"/>
|
|---|
| 2687 | <trkpt lat="43.604375" lon="1.4277633"/>
|
|---|
| 2688 | <trkpt lat="43.6043833" lon="1.4277516"/>
|
|---|
| 2689 | <trkpt lat="43.60439" lon="1.4277466"/>
|
|---|
| 2690 | <trkpt lat="43.6043966" lon="1.4277483"/>
|
|---|
| 2691 | <trkpt lat="43.604405" lon="1.4277466"/>
|
|---|
| 2692 | <trkpt lat="43.604405" lon="1.4277466"/>
|
|---|
| 2693 | <trkpt lat="43.6044066" lon="1.4277466"/>
|
|---|
| 2694 | <trkpt lat="43.6044116" lon="1.4277433"/>
|
|---|
| 2695 | <trkpt lat="43.6044116" lon="1.4277416"/>
|
|---|
| 2696 | <trkpt lat="43.6044183" lon="1.4277316"/>
|
|---|
| 2697 | <trkpt lat="43.6044266" lon="1.427725"/>
|
|---|
| 2698 | <trkpt lat="43.604435" lon="1.4277216"/>
|
|---|
| 2699 | <trkpt lat="43.6044416" lon="1.4277183"/>
|
|---|
| 2700 | <trkpt lat="43.6044466" lon="1.4277133"/>
|
|---|
| 2701 | <trkpt lat="43.6044533" lon="1.42771"/>
|
|---|
| 2702 | <trkpt lat="43.6044583" lon="1.427705"/>
|
|---|
| 2703 | <trkpt lat="43.6044633" lon="1.4277016"/>
|
|---|
| 2704 | <trkpt lat="43.6044666" lon="1.4277"/>
|
|---|
| 2705 | <trkpt lat="43.6044716" lon="1.4276983"/>
|
|---|
| 2706 | <trkpt lat="43.6044733" lon="1.4276966"/>
|
|---|
| 2707 | <trkpt lat="43.604475" lon="1.4276966"/>
|
|---|
| 2708 | <trkpt lat="43.6044783" lon="1.4276966"/>
|
|---|
| 2709 | <trkpt lat="43.60448" lon="1.427695"/>
|
|---|
| 2710 | <trkpt lat="43.6044816" lon="1.427695"/>
|
|---|
| 2711 | <trkpt lat="43.6044816" lon="1.4276966"/>
|
|---|
| 2712 | <trkpt lat="43.6044816" lon="1.4276966"/>
|
|---|
| 2713 | <trkpt lat="43.60448" lon="1.427695"/>
|
|---|
| 2714 | <trkpt lat="43.60448" lon="1.427695"/>
|
|---|
| 2715 | <trkpt lat="43.6044783" lon="1.4276933"/>
|
|---|
| 2716 | <trkpt lat="43.6044766" lon="1.4276916"/>
|
|---|
| 2717 | <trkpt lat="43.604475" lon="1.4276883"/>
|
|---|
| 2718 | <trkpt lat="43.6044733" lon="1.42769"/>
|
|---|
| 2719 | <trkpt lat="43.6044716" lon="1.4276916"/>
|
|---|
| 2720 | <trkpt lat="43.6044716" lon="1.4276933"/>
|
|---|
| 2721 | <trkpt lat="43.60447" lon="1.4276933"/>
|
|---|
| 2722 | <trkpt lat="43.60447" lon="1.4276866"/>
|
|---|
| 2723 | <trkpt lat="43.6044666" lon="1.42768"/>
|
|---|
| 2724 | <trkpt lat="43.604465" lon="1.42767"/>
|
|---|
| 2725 | <trkpt lat="43.6044666" lon="1.42765"/>
|
|---|
| 2726 | <trkpt lat="43.6044666" lon="1.42763"/>
|
|---|
| 2727 | <trkpt lat="43.60446" lon="1.4276083"/>
|
|---|
| 2728 | <trkpt lat="43.6044566" lon="1.427575"/>
|
|---|
| 2729 | <trkpt lat="43.604455" lon="1.4275416"/>
|
|---|
| 2730 | <trkpt lat="43.6044533" lon="1.427505"/>
|
|---|
| 2731 | <trkpt lat="43.6044533" lon="1.4274683"/>
|
|---|
| 2732 | <trkpt lat="43.6044516" lon="1.4274316"/>
|
|---|
| 2733 | <trkpt lat="43.60445" lon="1.4273933"/>
|
|---|
| 2734 | <trkpt lat="43.6044483" lon="1.427355"/>
|
|---|
| 2735 | <trkpt lat="43.6044483" lon="1.427315"/>
|
|---|
| 2736 | <trkpt lat="43.6044466" lon="1.4272783"/>
|
|---|
| 2737 | <trkpt lat="43.6044466" lon="1.4272383"/>
|
|---|
| 2738 | <trkpt lat="43.6044466" lon="1.4271983"/>
|
|---|
| 2739 | <trkpt lat="43.6044466" lon="1.4271566"/>
|
|---|
| 2740 | <trkpt lat="43.6044483" lon="1.427115"/>
|
|---|
| 2741 | <trkpt lat="43.6044483" lon="1.4270733"/>
|
|---|
| 2742 | <trkpt lat="43.6044483" lon="1.4270316"/>
|
|---|
| 2743 | <trkpt lat="43.6044483" lon="1.4269883"/>
|
|---|
| 2744 | <trkpt lat="43.60445" lon="1.426945"/>
|
|---|
| 2745 | <trkpt lat="43.6044533" lon="1.4268983"/>
|
|---|
| 2746 | <trkpt lat="43.6044566" lon="1.4268533"/>
|
|---|
| 2747 | <trkpt lat="43.6044616" lon="1.4268083"/>
|
|---|
| 2748 | <trkpt lat="43.604465" lon="1.4267616"/>
|
|---|
| 2749 | <trkpt lat="43.604465" lon="1.4267166"/>
|
|---|
| 2750 | <trkpt lat="43.604465" lon="1.42667"/>
|
|---|
| 2751 | <trkpt lat="43.6044666" lon="1.4266266"/>
|
|---|
| 2752 | <trkpt lat="43.60447" lon="1.4265816"/>
|
|---|
| 2753 | <trkpt lat="43.6044716" lon="1.4265366"/>
|
|---|
| 2754 | <trkpt lat="43.604475" lon="1.4264916"/>
|
|---|
| 2755 | <trkpt lat="43.6044783" lon="1.426445"/>
|
|---|
| 2756 | <trkpt lat="43.6044816" lon="1.4264"/>
|
|---|
| 2757 | <trkpt lat="43.6044866" lon="1.4263533"/>
|
|---|
| 2758 | <trkpt lat="43.6044916" lon="1.4263083"/>
|
|---|
| 2759 | <trkpt lat="43.604495" lon="1.4262616"/>
|
|---|
| 2760 | <trkpt lat="43.6045016" lon="1.426215"/>
|
|---|
| 2761 | <trkpt lat="43.6045083" lon="1.4261683"/>
|
|---|
| 2762 | <trkpt lat="43.6045116" lon="1.4261216"/>
|
|---|
| 2763 | <trkpt lat="43.6045166" lon="1.426075"/>
|
|---|
| 2764 | <trkpt lat="43.6045216" lon="1.42603"/>
|
|---|
| 2765 | <trkpt lat="43.6045266" lon="1.4259833"/>
|
|---|
| 2766 | <trkpt lat="43.604535" lon="1.4259383"/>
|
|---|
| 2767 | <trkpt lat="43.6045416" lon="1.4258916"/>
|
|---|
| 2768 | <trkpt lat="43.6045483" lon="1.4258466"/>
|
|---|
| 2769 | <trkpt lat="43.6045566" lon="1.4258016"/>
|
|---|
| 2770 | <trkpt lat="43.604565" lon="1.425755"/>
|
|---|
| 2771 | <trkpt lat="43.604575" lon="1.4257116"/>
|
|---|
| 2772 | <trkpt lat="43.6045833" lon="1.4256683"/>
|
|---|
| 2773 | <trkpt lat="43.6045933" lon="1.425625"/>
|
|---|
| 2774 | <trkpt lat="43.6046033" lon="1.42558"/>
|
|---|
| 2775 | <trkpt lat="43.6046133" lon="1.4255333"/>
|
|---|
| 2776 | <trkpt lat="43.6046216" lon="1.4254866"/>
|
|---|
| 2777 | <trkpt lat="43.6046333" lon="1.42544"/>
|
|---|
| 2778 | <trkpt lat="43.6046416" lon="1.4253933"/>
|
|---|
| 2779 | <trkpt lat="43.60596" lon="1.42545"/>
|
|---|
| 2780 | <trkpt lat="43.60595" lon="1.4256"/>
|
|---|
| 2781 | <trkpt lat="43.60593" lon="1.42573"/>
|
|---|
| 2782 | <trkpt lat="43.6059" lon="1.42591"/>
|
|---|
| 2783 | <trkpt lat="43.60589" lon="1.42604"/>
|
|---|
| 2784 | <trkpt lat="43.60587" lon="1.42618"/>
|
|---|
| 2785 | <trkpt lat="43.60587" lon="1.42632"/>
|
|---|
| 2786 | <trkpt lat="43.60586" lon="1.42646"/>
|
|---|
| 2787 | <trkpt lat="43.60584" lon="1.42659"/>
|
|---|
| 2788 | <trkpt lat="43.60582" lon="1.42673"/>
|
|---|
| 2789 | <trkpt lat="43.6058" lon="1.42687"/>
|
|---|
| 2790 | <trkpt lat="43.60578" lon="1.42704"/>
|
|---|
| 2791 | <trkpt lat="43.60575" lon="1.42717"/>
|
|---|
| 2792 | <trkpt lat="43.60573" lon="1.42729"/>
|
|---|
| 2793 | <trkpt lat="43.60572" lon="1.42743"/>
|
|---|
| 2794 | <trkpt lat="43.60569" lon="1.42757"/>
|
|---|
| 2795 | <trkpt lat="43.6057" lon="1.4277"/>
|
|---|
| 2796 | <trkpt lat="43.60571" lon="1.42789"/>
|
|---|
| 2797 | <trkpt lat="43.60569" lon="1.42821"/>
|
|---|
| 2798 | <trkpt lat="43.60567" lon="1.42839"/>
|
|---|
| 2799 | <trkpt lat="43.60565" lon="1.42855"/>
|
|---|
| 2800 | <trkpt lat="43.60557" lon="1.42876"/>
|
|---|
| 2801 | <trkpt lat="43.60554" lon="1.42893"/>
|
|---|
| 2802 | <trkpt lat="43.60536" lon="1.42961"/>
|
|---|
| 2803 | <trkpt lat="43.60518" lon="1.43028"/>
|
|---|
| 2804 | <trkpt lat="43.60128" lon="1.429392"/>
|
|---|
| 2805 | <trkpt lat="43.60131" lon="1.429422"/>
|
|---|
| 2806 | <trkpt lat="43.60133" lon="1.42939"/>
|
|---|
| 2807 | <trkpt lat="43.60129" lon="1.429298"/>
|
|---|
| 2808 | <trkpt lat="43.60126" lon="1.429217"/>
|
|---|
| 2809 | <trkpt lat="43.60123" lon="1.42913"/>
|
|---|
| 2810 | <trkpt lat="43.6012" lon="1.42905"/>
|
|---|
| 2811 | <trkpt lat="43.60117" lon="1.428967"/>
|
|---|
| 2812 | <trkpt lat="43.60114" lon="1.428885"/>
|
|---|
| 2813 | <trkpt lat="43.60113" lon="1.428812"/>
|
|---|
| 2814 | <trkpt lat="43.60114" lon="1.428758"/>
|
|---|
| 2815 | <trkpt lat="43.60117" lon="1.428715"/>
|
|---|
| 2816 | <trkpt lat="43.60116" lon="1.428732"/>
|
|---|
| 2817 | <trkpt lat="43.60113" lon="1.429053"/>
|
|---|
| 2818 | <trkpt lat="43.60117" lon="1.429138"/>
|
|---|
| 2819 | <trkpt lat="43.60121" lon="1.429225"/>
|
|---|
| 2820 | <trkpt lat="43.60125" lon="1.429313"/>
|
|---|
| 2821 | <trkpt lat="43.60195" lon="1.427338"/>
|
|---|
| 2822 | <trkpt lat="43.60119" lon="1.428702"/>
|
|---|
| 2823 | <trkpt lat="43.60125" lon="1.428662"/>
|
|---|
| 2824 | <trkpt lat="43.60132" lon="1.428618"/>
|
|---|
| 2825 | <trkpt lat="43.60141" lon="1.42857"/>
|
|---|
| 2826 | <trkpt lat="43.60156" lon="1.428483"/>
|
|---|
| 2827 | <trkpt lat="43.60166" lon="1.428393"/>
|
|---|
| 2828 | <trkpt lat="43.60174" lon="1.428262"/>
|
|---|
| 2829 | <trkpt lat="43.6018" lon="1.428142"/>
|
|---|
| 2830 | <trkpt lat="43.60185" lon="1.428043"/>
|
|---|
| 2831 | <trkpt lat="43.6019" lon="1.427943"/>
|
|---|
| 2832 | <trkpt lat="43.60195" lon="1.427798"/>
|
|---|
| 2833 | <trkpt lat="43.60199" lon="1.427643"/>
|
|---|
| 2834 | <trkpt lat="43.602" lon="1.427478"/>
|
|---|
| 2835 | <trkpt lat="43.6019" lon="1.427267"/>
|
|---|
| 2836 | <trkpt lat="43.60172" lon="1.427078"/>
|
|---|
| 2837 | <trkpt lat="43.60184" lon="1.427218"/>
|
|---|
| 2838 | <trkpt lat="43.60178" lon="1.427187"/>
|
|---|
| 2839 | <trkpt lat="43.60173" lon="1.427145"/>
|
|---|
| 2840 | <trkpt lat="43.60172" lon="1.427015"/>
|
|---|
| 2841 | <trkpt lat="43.60171" lon="1.426987"/>
|
|---|
| 2842 | <trkpt lat="43.6017" lon="1.426983"/>
|
|---|
| 2843 | <trkpt lat="43.60168" lon="1.426968"/>
|
|---|
| 2844 | <trkpt lat="43.60163" lon="1.42695"/>
|
|---|
| 2845 | <trkpt lat="43.60153" lon="1.426965"/>
|
|---|
| 2846 | <trkpt lat="43.60148" lon="1.427023"/>
|
|---|
| 2847 | <trkpt lat="43.60186" lon="1.426468"/>
|
|---|
| 2848 | <trkpt lat="43.60147" lon="1.427103"/>
|
|---|
| 2849 | <trkpt lat="43.6015" lon="1.427145"/>
|
|---|
| 2850 | <trkpt lat="43.60155" lon="1.427117"/>
|
|---|
| 2851 | <trkpt lat="43.60159" lon="1.427058"/>
|
|---|
| 2852 | <trkpt lat="43.60159" lon="1.426978"/>
|
|---|
| 2853 | <trkpt lat="43.60155" lon="1.426905"/>
|
|---|
| 2854 | <trkpt lat="43.60148" lon="1.426887"/>
|
|---|
| 2855 | <trkpt lat="43.60143" lon="1.427012"/>
|
|---|
| 2856 | <trkpt lat="43.60144" lon="1.427053"/>
|
|---|
| 2857 | <trkpt lat="43.60149" lon="1.427043"/>
|
|---|
| 2858 | <trkpt lat="43.60153" lon="1.426973"/>
|
|---|
| 2859 | <trkpt lat="43.60155" lon="1.426882"/>
|
|---|
| 2860 | <trkpt lat="43.6016" lon="1.426783"/>
|
|---|
| 2861 | <trkpt lat="43.60165" lon="1.426682"/>
|
|---|
| 2862 | <trkpt lat="43.6017" lon="1.42658"/>
|
|---|
| 2863 | <trkpt lat="43.60175" lon="1.426488"/>
|
|---|
| 2864 | <trkpt lat="43.60183" lon="1.426462"/>
|
|---|
| 2865 | <trkpt lat="43.60244" lon="1.427045"/>
|
|---|
| 2866 | <trkpt lat="43.60188" lon="1.426478"/>
|
|---|
| 2867 | <trkpt lat="43.60192" lon="1.426483"/>
|
|---|
| 2868 | <trkpt lat="43.60196" lon="1.426487"/>
|
|---|
| 2869 | <trkpt lat="43.60203" lon="1.426502"/>
|
|---|
| 2870 | <trkpt lat="43.6021" lon="1.42652"/>
|
|---|
| 2871 | <trkpt lat="43.60219" lon="1.426542"/>
|
|---|
| 2872 | <trkpt lat="43.60228" lon="1.426573"/>
|
|---|
| 2873 | <trkpt lat="43.60237" lon="1.426627"/>
|
|---|
| 2874 | <trkpt lat="43.60246" lon="1.426713"/>
|
|---|
| 2875 | <trkpt lat="43.60236" lon="1.427212"/>
|
|---|
| 2876 | <trkpt lat="43.60253" lon="1.426783"/>
|
|---|
| 2877 | <trkpt lat="43.60254" lon="1.426787"/>
|
|---|
| 2878 | <trkpt lat="43.60253" lon="1.42681"/>
|
|---|
| 2879 | <trkpt lat="43.60251" lon="1.4269"/>
|
|---|
| 2880 | <trkpt lat="43.60248" lon="1.42697"/>
|
|---|
| 2881 | <trkpt lat="43.6024" lon="1.42713"/>
|
|---|
| 2882 | <trkpt lat="43.60185" lon="1.42713"/>
|
|---|
| 2883 | <trkpt lat="43.60233" lon="1.427295"/>
|
|---|
| 2884 | <trkpt lat="43.60228" lon="1.427367"/>
|
|---|
| 2885 | <trkpt lat="43.60223" lon="1.427378"/>
|
|---|
| 2886 | <trkpt lat="43.60217" lon="1.42734"/>
|
|---|
| 2887 | <trkpt lat="43.60212" lon="1.427298"/>
|
|---|
| 2888 | <trkpt lat="43.60203" lon="1.42724"/>
|
|---|
| 2889 | <trkpt lat="43.60197" lon="1.427198"/>
|
|---|
| 2890 | <trkpt lat="43.60191" lon="1.42716"/>
|
|---|
| 2891 | <trkpt lat="43.60187" lon="1.427138"/>
|
|---|
| 2892 | <trkpt lat="43.60187" lon="1.427143"/>
|
|---|
| 2893 | <trkpt lat="43.6019" lon="1.427173"/>
|
|---|
| 2894 | <trkpt lat="43.60194" lon="1.427198"/>
|
|---|
| 2895 | <trkpt lat="43.60194" lon="1.427227"/>
|
|---|
| 2896 | <trkpt lat="43.60194" lon="1.427255"/>
|
|---|
| 2897 | <trkpt lat="43.60192" lon="1.427293"/>
|
|---|
| 2898 | <trkpt lat="43.60191" lon="1.427313"/>
|
|---|
| 2899 | <trkpt lat="43.60191" lon="1.42732"/>
|
|---|
| 2900 | <trkpt lat="43.60189" lon="1.427468"/>
|
|---|
| 2901 | <trkpt lat="43.60193" lon="1.427377"/>
|
|---|
| 2902 | <trkpt lat="43.60193" lon="1.427442"/>
|
|---|
| 2903 | <trkpt lat="43.60193" lon="1.427528"/>
|
|---|
| 2904 | <trkpt lat="43.60193" lon="1.427553"/>
|
|---|
| 2905 | <trkpt lat="43.60192" lon="1.427555"/>
|
|---|
| 2906 | <trkpt lat="43.60188" lon="1.427552"/>
|
|---|
| 2907 | <trkpt lat="43.60183" lon="1.427533"/>
|
|---|
| 2908 | <trkpt lat="43.60178" lon="1.427515"/>
|
|---|
| 2909 | <trkpt lat="43.60175" lon="1.427492"/>
|
|---|
| 2910 | <trkpt lat="43.60175" lon="1.427473"/>
|
|---|
| 2911 | <trkpt lat="43.60178" lon="1.427462"/>
|
|---|
| 2912 | <trkpt lat="43.60183" lon="1.427465"/>
|
|---|
| 2913 | <trkpt lat="43.60199" lon="1.42746"/>
|
|---|
| 2914 | <trkpt lat="43.60195" lon="1.427458"/>
|
|---|
| 2915 | <trkpt lat="43.602" lon="1.427467"/>
|
|---|
| 2916 | <trkpt lat="43.60199" lon="1.427493"/>
|
|---|
| 2917 | <trkpt lat="43.60198" lon="1.427518"/>
|
|---|
| 2918 | <trkpt lat="43.60195" lon="1.427525"/>
|
|---|
| 2919 | <trkpt lat="43.60191" lon="1.427503"/>
|
|---|
| 2920 | <trkpt lat="43.60188" lon="1.427463"/>
|
|---|
| 2921 | <trkpt lat="43.60135" lon="1.427187"/>
|
|---|
| 2922 | <trkpt lat="43.60135" lon="1.4272"/>
|
|---|
| 2923 | <trkpt lat="43.60183" lon="1.427305"/>
|
|---|
| 2924 | <trkpt lat="43.60177" lon="1.427232"/>
|
|---|
| 2925 | <trkpt lat="43.6017" lon="1.427182"/>
|
|---|
| 2926 | <trkpt lat="43.60162" lon="1.427127"/>
|
|---|
| 2927 | <trkpt lat="43.60159" lon="1.427053"/>
|
|---|
| 2928 | <trkpt lat="43.60156" lon="1.426963"/>
|
|---|
| 2929 | <trkpt lat="43.60152" lon="1.426893"/>
|
|---|
| 2930 | <trkpt lat="43.60148" lon="1.426878"/>
|
|---|
| 2931 | <trkpt lat="43.60147" lon="1.426903"/>
|
|---|
| 2932 | <trkpt lat="43.60145" lon="1.426972"/>
|
|---|
| 2933 | <trkpt lat="43.60141" lon="1.427095"/>
|
|---|
| 2934 | <trkpt lat="43.60136" lon="1.427157"/>
|
|---|
| 2935 | <trkpt lat="43.60187" lon="1.427387"/>
|
|---|
| 2936 | <trkpt lat="43.60126" lon="1.427318"/>
|
|---|
| 2937 | <trkpt lat="43.60117" lon="1.427475"/>
|
|---|
| 2938 | <trkpt lat="43.60134" lon="1.42722"/>
|
|---|
| 2939 | <trkpt lat="43.60131" lon="1.42726"/>
|
|---|
| 2940 | <trkpt lat="43.60122" lon="1.427395"/>
|
|---|
| 2941 | <trkpt lat="43.60192" lon="1.427957"/>
|
|---|
| 2942 | <trkpt lat="43.60113" lon="1.42842"/>
|
|---|
| 2943 | <trkpt lat="43.6012" lon="1.428372"/>
|
|---|
| 2944 | <trkpt lat="43.60127" lon="1.428335"/>
|
|---|
| 2945 | <trkpt lat="43.60135" lon="1.428295"/>
|
|---|
| 2946 | <trkpt lat="43.60142" lon="1.428255"/>
|
|---|
| 2947 | <trkpt lat="43.60148" lon="1.42821"/>
|
|---|
| 2948 | <trkpt lat="43.60158" lon="1.428122"/>
|
|---|
| 2949 | <trkpt lat="43.60165" lon="1.428077"/>
|
|---|
| 2950 | <trkpt lat="43.60172" lon="1.428035"/>
|
|---|
| 2951 | <trkpt lat="43.60179" lon="1.427995"/>
|
|---|
| 2952 | <trkpt lat="43.60186" lon="1.427963"/>
|
|---|
| 2953 | <trkpt lat="43.60199" lon="1.427978"/>
|
|---|
| 2954 | <trkpt lat="43.60204" lon="1.427993"/>
|
|---|
| 2955 | <trkpt lat="43.60206" lon="1.42802"/>
|
|---|
| 2956 | <trkpt lat="43.60207" lon="1.428038"/>
|
|---|
| 2957 | <trkpt lat="43.60213" lon="1.427978"/>
|
|---|
| 2958 | <trkpt lat="43.60416" lon="1.428115"/>
|
|---|
| 2959 | <trkpt lat="43.60425" lon="1.428123"/>
|
|---|
| 2960 | <trkpt lat="43.6022" lon="1.427982"/>
|
|---|
| 2961 | <trkpt lat="43.60227" lon="1.427987"/>
|
|---|
| 2962 | <trkpt lat="43.60236" lon="1.427992"/>
|
|---|
| 2963 | <trkpt lat="43.60244" lon="1.427992"/>
|
|---|
| 2964 | <trkpt lat="43.60252" lon="1.427995"/>
|
|---|
| 2965 | <trkpt lat="43.60261" lon="1.428002"/>
|
|---|
| 2966 | <trkpt lat="43.60274" lon="1.428007"/>
|
|---|
| 2967 | <trkpt lat="43.60282" lon="1.428008"/>
|
|---|
| 2968 | <trkpt lat="43.60291" lon="1.428017"/>
|
|---|
| 2969 | <trkpt lat="43.60299" lon="1.428027"/>
|
|---|
| 2970 | <trkpt lat="43.60307" lon="1.428033"/>
|
|---|
| 2971 | <trkpt lat="43.60316" lon="1.428042"/>
|
|---|
| 2972 | <trkpt lat="43.60324" lon="1.428048"/>
|
|---|
| 2973 | <trkpt lat="43.60333" lon="1.428052"/>
|
|---|
| 2974 | <trkpt lat="43.60342" lon="1.42806"/>
|
|---|
| 2975 | <trkpt lat="43.60355" lon="1.42807"/>
|
|---|
| 2976 | <trkpt lat="43.60365" lon="1.42808"/>
|
|---|
| 2977 | <trkpt lat="43.60375" lon="1.428087"/>
|
|---|
| 2978 | <trkpt lat="43.6021" lon="1.427998"/>
|
|---|
| 2979 | <trkpt lat="43.60385" lon="1.428097"/>
|
|---|
| 2980 | <trkpt lat="43.60395" lon="1.428102"/>
|
|---|
| 2981 | <trkpt lat="43.60405" lon="1.428108"/>
|
|---|
| 2982 | <trkpt lat="43.60429" lon="1.428127"/>
|
|---|
| 2983 | <trkpt lat="43.60435" lon="1.428248"/>
|
|---|
| 2984 | <trkpt lat="43.60435" lon="1.428232"/>
|
|---|
| 2985 | <trkpt lat="43.60435" lon="1.428187"/>
|
|---|
| 2986 | <trkpt lat="43.60461" lon="1.428155"/>
|
|---|
| 2987 | <trkpt lat="43.60438" lon="1.428223"/>
|
|---|
| 2988 | <trkpt lat="43.6044" lon="1.428208"/>
|
|---|
| 2989 | <trkpt lat="43.60442" lon="1.428187"/>
|
|---|
| 2990 | <trkpt lat="43.60448" lon="1.428168"/>
|
|---|
| 2991 | <trkpt lat="43.60454" lon="1.428162"/>
|
|---|
| 2992 | <trkpt lat="43.60474" lon="1.428152"/>
|
|---|
| 2993 | <trkpt lat="43.60484" lon="1.428157"/>
|
|---|
| 2994 | <trkpt lat="43.60495" lon="1.42816"/>
|
|---|
| 2995 | <trkpt lat="43.60506" lon="1.428158"/>
|
|---|
| 2996 | <trkpt lat="43.60516" lon="1.428163"/>
|
|---|
| 2997 | <trkpt lat="43.60523" lon="1.428165"/>
|
|---|
| 2998 | <trkpt lat="43.60529" lon="1.428172"/>
|
|---|
| 2999 | <trkpt lat="43.60531" lon="1.428192"/>
|
|---|
| 3000 | <trkpt lat="43.60533" lon="1.428203"/>
|
|---|
| 3001 | <trkpt lat="43.60508" lon="1.428307"/>
|
|---|
| 3002 | <trkpt lat="43.60534" lon="1.428242"/>
|
|---|
| 3003 | <trkpt lat="43.60528" lon="1.42844"/>
|
|---|
| 3004 | <trkpt lat="43.60526" lon="1.428425"/>
|
|---|
| 3005 | <trkpt lat="43.60528" lon="1.428413"/>
|
|---|
| 3006 | <trkpt lat="43.60531" lon="1.428348"/>
|
|---|
| 3007 | <trkpt lat="43.60529" lon="1.428307"/>
|
|---|
| 3008 | <trkpt lat="43.60526" lon="1.428277"/>
|
|---|
| 3009 | <trkpt lat="43.60521" lon="1.428262"/>
|
|---|
| 3010 | <trkpt lat="43.60516" lon="1.428267"/>
|
|---|
| 3011 | <trkpt lat="43.60512" lon="1.428288"/>
|
|---|
| 3012 | <trkpt lat="43.60498" lon="1.428352"/>
|
|---|
| 3013 | <trkpt lat="43.60433" lon="1.42817"/>
|
|---|
| 3014 | <trkpt lat="43.60487" lon="1.428282"/>
|
|---|
| 3015 | <trkpt lat="43.60476" lon="1.428232"/>
|
|---|
| 3016 | <trkpt lat="43.60469" lon="1.428222"/>
|
|---|
| 3017 | <trkpt lat="43.60426" lon="1.428157"/>
|
|---|
| 3018 | <trkpt lat="43.60515" lon="1.427933"/>
|
|---|
| 3019 | <trkpt lat="43.60411" lon="1.428123"/>
|
|---|
| 3020 | <trkpt lat="43.60391" lon="1.428067"/>
|
|---|
| 3021 | <trkpt lat="43.60381" lon="1.428062"/>
|
|---|
| 3022 | <trkpt lat="43.60376" lon="1.428108"/>
|
|---|
| 3023 | <trkpt lat="43.60375" lon="1.428117"/>
|
|---|
| 3024 | <trkpt lat="43.60378" lon="1.427892"/>
|
|---|
| 3025 | <trkpt lat="43.60392" lon="1.427728"/>
|
|---|
| 3026 | <trkpt lat="43.60409" lon="1.427682"/>
|
|---|
| 3027 | <trkpt lat="43.60427" lon="1.427662"/>
|
|---|
| 3028 | <trkpt lat="43.60456" lon="1.42767"/>
|
|---|
| 3029 | <trkpt lat="43.60469" lon="1.427687"/>
|
|---|
| 3030 | <trkpt lat="43.60481" lon="1.427715"/>
|
|---|
| 3031 | <trkpt lat="43.6049" lon="1.42776"/>
|
|---|
| 3032 | <trkpt lat="43.60501" lon="1.427842"/>
|
|---|
| 3033 | <trkpt lat="43.60507" lon="1.427902"/>
|
|---|
| 3034 | <trkpt lat="43.60511" lon="1.427928"/>
|
|---|
| 3035 | <trkpt lat="43.60515" lon="1.427933"/>
|
|---|
| 3036 | <trkpt lat="43.60505" lon="1.42911"/>
|
|---|
| 3037 | <trkpt lat="43.60528" lon="1.42821"/>
|
|---|
| 3038 | <trkpt lat="43.60529" lon="1.42821"/>
|
|---|
| 3039 | <trkpt lat="43.60533" lon="1.428218"/>
|
|---|
| 3040 | <trkpt lat="43.60534" lon="1.428253"/>
|
|---|
| 3041 | <trkpt lat="43.60532" lon="1.4284"/>
|
|---|
| 3042 | <trkpt lat="43.60531" lon="1.428443"/>
|
|---|
| 3043 | <trkpt lat="43.60526" lon="1.428452"/>
|
|---|
| 3044 | <trkpt lat="43.6052" lon="1.428482"/>
|
|---|
| 3045 | <trkpt lat="43.60518" lon="1.428473"/>
|
|---|
| 3046 | <trkpt lat="43.60516" lon="1.42846"/>
|
|---|
| 3047 | <trkpt lat="43.60513" lon="1.428507"/>
|
|---|
| 3048 | <trkpt lat="43.6051" lon="1.42863"/>
|
|---|
| 3049 | <trkpt lat="43.60508" lon="1.428785"/>
|
|---|
| 3050 | <trkpt lat="43.60507" lon="1.428947"/>
|
|---|
| 3051 | <trkpt lat="43.60501" lon="1.429352"/>
|
|---|
| 3052 | <trkpt lat="43.60498" lon="1.429502"/>
|
|---|
| 3053 | <trkpt lat="43.60495" lon="1.429647"/>
|
|---|
| 3054 | <trkpt lat="43.60491" lon="1.429793"/>
|
|---|
| 3055 | <trkpt lat="43.60487" lon="1.429937"/>
|
|---|
| 3056 | <trkpt lat="43.60483" lon="1.430073"/>
|
|---|
| 3057 | <trkpt lat="43.60486" lon="1.430177"/>
|
|---|
| 3058 | <trkpt lat="43.60481" lon="1.430332"/>
|
|---|
| 3059 | <trkpt lat="43.60489" lon="1.430257"/>
|
|---|
| 3060 | <trkpt lat="43.60491" lon="1.430203"/>
|
|---|
| 3061 | <trkpt lat="43.60493" lon="1.430085"/>
|
|---|
| 3062 | <trkpt lat="43.60495" lon="1.430005"/>
|
|---|
| 3063 | <trkpt lat="43.60497" lon="1.429915"/>
|
|---|
| 3064 | <trkpt lat="43.605" lon="1.429817"/>
|
|---|
| 3065 | <trkpt lat="43.60502" lon="1.429712"/>
|
|---|
| 3066 | <trkpt lat="43.60505" lon="1.429602"/>
|
|---|
| 3067 | <trkpt lat="43.60508" lon="1.429488"/>
|
|---|
| 3068 | <trkpt lat="43.6051" lon="1.42937"/>
|
|---|
| 3069 | <trkpt lat="43.60514" lon="1.429197"/>
|
|---|
| 3070 | <trkpt lat="43.60511" lon="1.429112"/>
|
|---|
| 3071 | <trkpt lat="43.60506" lon="1.429192"/>
|
|---|
| 3072 | <trkpt lat="43.60503" lon="1.429292"/>
|
|---|
| 3073 | <trkpt lat="43.605" lon="1.429378"/>
|
|---|
| 3074 | <trkpt lat="43.60498" lon="1.429472"/>
|
|---|
| 3075 | <trkpt lat="43.60479" lon="1.43044"/>
|
|---|
| 3076 | <trkpt lat="43.60497" lon="1.429575"/>
|
|---|
| 3077 | <trkpt lat="43.60495" lon="1.42969"/>
|
|---|
| 3078 | <trkpt lat="43.60493" lon="1.429807"/>
|
|---|
| 3079 | <trkpt lat="43.60489" lon="1.42998"/>
|
|---|
| 3080 | <trkpt lat="43.60486" lon="1.430093"/>
|
|---|
| 3081 | <trkpt lat="43.60482" lon="1.43021"/>
|
|---|
| 3082 | <trkpt lat="43.60417" lon="1.429067"/>
|
|---|
| 3083 | <trkpt lat="43.60387" lon="1.430442"/>
|
|---|
| 3084 | <trkpt lat="43.60386" lon="1.430265"/>
|
|---|
| 3085 | <trkpt lat="43.60386" lon="1.430137"/>
|
|---|
| 3086 | <trkpt lat="43.60388" lon="1.430007"/>
|
|---|
| 3087 | <trkpt lat="43.60391" lon="1.42988"/>
|
|---|
| 3088 | <trkpt lat="43.60395" lon="1.429755"/>
|
|---|
| 3089 | <trkpt lat="43.60399" lon="1.429632"/>
|
|---|
| 3090 | <trkpt lat="43.60403" lon="1.42951"/>
|
|---|
| 3091 | <trkpt lat="43.60408" lon="1.429385"/>
|
|---|
| 3092 | <trkpt lat="43.60411" lon="1.429267"/>
|
|---|
| 3093 | <trkpt lat="43.60421" lon="1.428948"/>
|
|---|
| 3094 | <trkpt lat="43.60425" lon="1.428828"/>
|
|---|
| 3095 | <trkpt lat="43.6046" lon="1.428223"/>
|
|---|
| 3096 | <trkpt lat="43.60429" lon="1.428708"/>
|
|---|
| 3097 | <trkpt lat="43.60435" lon="1.428483"/>
|
|---|
| 3098 | <trkpt lat="43.60439" lon="1.428392"/>
|
|---|
| 3099 | <trkpt lat="43.60445" lon="1.428332"/>
|
|---|
| 3100 | <trkpt lat="43.6045" lon="1.428287"/>
|
|---|
| 3101 | <trkpt lat="43.60454" lon="1.428277"/>
|
|---|
| 3102 | <trkpt lat="43.60455" lon="1.428262"/>
|
|---|
| 3103 | <trkpt lat="43.60457" lon="1.428222"/>
|
|---|
| 3104 | <trkpt lat="43.60461" lon="1.428233"/>
|
|---|
| 3105 | <trkpt lat="43.60445" lon="1.427967"/>
|
|---|
| 3106 | <trkpt lat="43.60458" lon="1.428207"/>
|
|---|
| 3107 | <trkpt lat="43.60452" lon="1.428082"/>
|
|---|
| 3108 | <trkpt lat="43.60449" lon="1.428037"/>
|
|---|
| 3109 | <trkpt lat="43.60446" lon="1.427997"/>
|
|---|
| 3110 | <trkpt lat="43.60445" lon="1.42796"/>
|
|---|
| 3111 | <trkpt lat="43.60445" lon="1.426803"/>
|
|---|
| 3112 | <trkpt lat="43.60445" lon="1.427883"/>
|
|---|
| 3113 | <trkpt lat="43.60444" lon="1.427738"/>
|
|---|
| 3114 | <trkpt lat="43.60444" lon="1.42762"/>
|
|---|
| 3115 | <trkpt lat="43.60444" lon="1.427495"/>
|
|---|
| 3116 | <trkpt lat="43.60443" lon="1.42736"/>
|
|---|
| 3117 | <trkpt lat="43.60444" lon="1.42722"/>
|
|---|
| 3118 | <trkpt lat="43.60444" lon="1.427077"/>
|
|---|
| 3119 | <trkpt lat="43.60444" lon="1.426933"/>
|
|---|
| 3120 | <trkpt lat="43.60449" lon="1.426318"/>
|
|---|
| 3121 | <trkpt lat="43.60449" lon="1.426165"/>
|
|---|
| 3122 | <trkpt lat="43.60451" lon="1.426023"/>
|
|---|
| 3123 | <trkpt lat="43.60453" lon="1.425885"/>
|
|---|
| 3124 | <trkpt lat="43.60455" lon="1.425743"/>
|
|---|
| 3125 | <trkpt lat="43.60457" lon="1.425598"/>
|
|---|
| 3126 | <trkpt lat="43.6046" lon="1.42547"/>
|
|---|
| 3127 | <trkpt lat="43.60446" lon="1.426665"/>
|
|---|
| 3128 | <trkpt lat="43.60448" lon="1.426457"/>
|
|---|
| 3129 | <trkpt lat="43.60592" lon="1.425785"/>
|
|---|
| 3130 | <trkpt lat="43.60595" lon="1.425667"/>
|
|---|
| 3131 | <trkpt lat="43.60593" lon="1.425737"/>
|
|---|
| 3132 | <trkpt lat="43.60592" lon="1.425772"/>
|
|---|
| 3133 | <trkpt lat="43.60597" lon="1.425357"/>
|
|---|
| 3134 | <trkpt lat="43.60597" lon="1.42547"/>
|
|---|
| 3135 | <trkpt lat="43.60596" lon="1.425575"/>
|
|---|
| 3136 | <trkpt lat="43.60603" lon="1.425758"/>
|
|---|
| 3137 | <trkpt lat="43.60594" lon="1.425787"/>
|
|---|
| 3138 | <trkpt lat="43.60597" lon="1.425768"/>
|
|---|
| 3139 | <trkpt lat="43.60601" lon="1.425748"/>
|
|---|
| 3140 | <trkpt lat="43.60607" lon="1.425778"/>
|
|---|
| 3141 | <trkpt lat="43.606" lon="1.425857"/>
|
|---|
| 3142 | <trkpt lat="43.60612" lon="1.425798"/>
|
|---|
| 3143 | <trkpt lat="43.60617" lon="1.425817"/>
|
|---|
| 3144 | <trkpt lat="43.60618" lon="1.425843"/>
|
|---|
| 3145 | <trkpt lat="43.60619" lon="1.42585"/>
|
|---|
| 3146 | <trkpt lat="43.60617" lon="1.425853"/>
|
|---|
| 3147 | <trkpt lat="43.60612" lon="1.42585"/>
|
|---|
| 3148 | <trkpt lat="43.60608" lon="1.42584"/>
|
|---|
| 3149 | <trkpt lat="43.60604" lon="1.42583"/>
|
|---|
| 3150 | <trkpt lat="43.60602" lon="1.425842"/>
|
|---|
| 3151 | <trkpt lat="43.60599" lon="1.425858"/>
|
|---|
| 3152 | <trkpt lat="43.60597" lon="1.425872"/>
|
|---|
| 3153 | <trkpt lat="43.60594" lon="1.42591"/>
|
|---|
| 3154 | <trkpt lat="43.60592" lon="1.425977"/>
|
|---|
| 3155 | <trkpt lat="43.60591" lon="1.426057"/>
|
|---|
| 3156 | <trkpt lat="43.6059" lon="1.426143"/>
|
|---|
| 3157 | <trkpt lat="43.60588" lon="1.426227"/>
|
|---|
| 3158 | <trkpt lat="43.60589" lon="1.426302"/>
|
|---|
| 3159 | <trkpt lat="43.60589" lon="1.42638"/>
|
|---|
| 3160 | <trkpt lat="43.60587" lon="1.426462"/>
|
|---|
| 3161 | <trkpt lat="43.60587" lon="1.426553"/>
|
|---|
| 3162 | <trkpt lat="43.60585" lon="1.426643"/>
|
|---|
| 3163 | <trkpt lat="43.60584" lon="1.426738"/>
|
|---|
| 3164 | <trkpt lat="43.60582" lon="1.42683"/>
|
|---|
| 3165 | <trkpt lat="43.60545" lon="1.428952"/>
|
|---|
| 3166 | <trkpt lat="43.6058" lon="1.426927"/>
|
|---|
| 3167 | <trkpt lat="43.60578" lon="1.42703"/>
|
|---|
| 3168 | <trkpt lat="43.60576" lon="1.427145"/>
|
|---|
| 3169 | <trkpt lat="43.60574" lon="1.427317"/>
|
|---|
| 3170 | <trkpt lat="43.60572" lon="1.427433"/>
|
|---|
| 3171 | <trkpt lat="43.60546" lon="1.428898"/>
|
|---|
| 3172 | <trkpt lat="43.6057" lon="1.427553"/>
|
|---|
| 3173 | <trkpt lat="43.60569" lon="1.427678"/>
|
|---|
| 3174 | <trkpt lat="43.60567" lon="1.427803"/>
|
|---|
| 3175 | <trkpt lat="43.60564" lon="1.427922"/>
|
|---|
| 3176 | <trkpt lat="43.6056" lon="1.427982"/>
|
|---|
| 3177 | <trkpt lat="43.60544" lon="1.42901"/>
|
|---|
| 3178 | <trkpt lat="43.60549" lon="1.42813"/>
|
|---|
| 3179 | <trkpt lat="43.60547" lon="1.428327"/>
|
|---|
| 3180 | <trkpt lat="43.6055" lon="1.428618"/>
|
|---|
| 3181 | <trkpt lat="43.60548" lon="1.428727"/>
|
|---|
| 3182 | <trkpt lat="43.60547" lon="1.428823"/>
|
|---|
| 3183 | <trkpt lat="43.60546" lon="1.42888"/>
|
|---|
| 3184 | <trkpt lat="43.60543" lon="1.428993"/>
|
|---|
| 3185 | <trkpt lat="43.60528" lon="1.429535"/>
|
|---|
| 3186 | <trkpt lat="43.60543" lon="1.429037"/>
|
|---|
| 3187 | <trkpt lat="43.60541" lon="1.429095"/>
|
|---|
| 3188 | <trkpt lat="43.60538" lon="1.429172"/>
|
|---|
| 3189 | <trkpt lat="43.60536" lon="1.429258"/>
|
|---|
| 3190 | <trkpt lat="43.60534" lon="1.429352"/>
|
|---|
| 3191 | <trkpt lat="43.60531" lon="1.429447"/>
|
|---|
| 3192 | <trkpt lat="43.60523" lon="1.429668"/>
|
|---|
| 3193 | <trkpt lat="43.60522" lon="1.429713"/>
|
|---|
| 3194 | <trkpt lat="43.60519" lon="1.429802"/>
|
|---|
| 3195 | <trkpt lat="43.60516" lon="1.42988"/>
|
|---|
| 3196 | <trkpt lat="43.60513" lon="1.42997"/>
|
|---|
| 3197 | <trkpt lat="43.6051" lon="1.430072"/>
|
|---|
| 3198 | <trkpt lat="43.60508" lon="1.430223"/>
|
|---|
| 3199 | <trkpt lat="43.60506" lon="1.43032"/>
|
|---|
| 3200 | <trkpt lat="43.60503" lon="1.430413"/>
|
|---|
| 3201 | <trkpt lat="43.605" lon="1.430495"/>
|
|---|
| 3202 | <trkpt lat="43.60501" lon="1.4305"/>
|
|---|
| 3203 | <trkpt lat="43.60507" lon="1.430338"/>
|
|---|
| 3204 | <trkpt lat="43.60509" lon="1.430208"/>
|
|---|
| 3205 | <trkpt lat="43.60512" lon="1.430082"/>
|
|---|
| 3206 | <trkpt lat="43.60515" lon="1.429978"/>
|
|---|
| 3207 | <trkpt lat="43.60517" lon="1.429898"/>
|
|---|
| 3208 | <trkpt lat="43.6052" lon="1.429807"/>
|
|---|
| 3209 | <trkpt lat="43.60523" lon="1.429703"/>
|
|---|
| 3210 | <trkpt lat="43.60527" lon="1.429595"/>
|
|---|
| 3211 | <trkpt lat="43.60533" lon="1.429437"/>
|
|---|
| 3212 | <trkpt lat="43.60537" lon="1.42933"/>
|
|---|
| 3213 | <trkpt lat="43.6054" lon="1.429233"/>
|
|---|
| 3214 | <trkpt lat="43.60537" lon="1.429153"/>
|
|---|
| 3215 | <trkpt lat="43.60535" lon="1.429088"/>
|
|---|
| 3216 | <trkpt lat="43.60537" lon="1.429008"/>
|
|---|
| 3217 | <trkpt lat="43.6054" lon="1.428922"/>
|
|---|
| 3218 | <trkpt lat="43.60542" lon="1.42885"/>
|
|---|
| 3219 | <trkpt lat="43.60542" lon="1.428805"/>
|
|---|
| 3220 | <trkpt lat="43.60542" lon="1.42879"/>
|
|---|
| 3221 | <trkpt lat="43.60536" lon="1.42871"/>
|
|---|
| 3222 | <trkpt lat="43.60535" lon="1.428668"/>
|
|---|
| 3223 | <trkpt lat="43.60535" lon="1.4287"/>
|
|---|
| 3224 | <trkpt lat="43.60535" lon="1.428462"/>
|
|---|
| 3225 | <trkpt lat="43.60535" lon="1.428623"/>
|
|---|
| 3226 | <trkpt lat="43.60535" lon="1.428607"/>
|
|---|
| 3227 | <trkpt lat="43.60535" lon="1.428595"/>
|
|---|
| 3228 | <trkpt lat="43.60536" lon="1.428555"/>
|
|---|
| 3229 | <trkpt lat="43.60536" lon="1.42851"/>
|
|---|
| 3230 | <trkpt lat="43.60535" lon="1.428443"/>
|
|---|
| 3231 | <trkpt lat="43.60537" lon="1.428487"/>
|
|---|
| 3232 | <trkpt lat="43.60538" lon="1.428523"/>
|
|---|
| 3233 | <trkpt lat="43.60538" lon="1.428567"/>
|
|---|
| 3234 | <trkpt lat="43.60538" lon="1.428607"/>
|
|---|
| 3235 | <trkpt lat="43.60538" lon="1.428655"/>
|
|---|
| 3236 | <trkpt lat="43.60538" lon="1.428703"/>
|
|---|
| 3237 | <trkpt lat="43.6054" lon="1.428658"/>
|
|---|
| 3238 | <trkpt lat="43.60541" lon="1.428662"/>
|
|---|
| 3239 | <trkpt lat="43.60542" lon="1.42865"/>
|
|---|
| 3240 | <trkpt lat="43.60575" lon="1.426597"/>
|
|---|
| 3241 | <trkpt lat="43.60541" lon="1.428687"/>
|
|---|
| 3242 | <trkpt lat="43.60538" lon="1.42878"/>
|
|---|
| 3243 | <trkpt lat="43.60536" lon="1.428893"/>
|
|---|
| 3244 | <trkpt lat="43.60539" lon="1.42904"/>
|
|---|
| 3245 | <trkpt lat="43.60544" lon="1.429015"/>
|
|---|
| 3246 | <trkpt lat="43.60547" lon="1.428935"/>
|
|---|
| 3247 | <trkpt lat="43.6055" lon="1.428842"/>
|
|---|
| 3248 | <trkpt lat="43.60552" lon="1.428737"/>
|
|---|
| 3249 | <trkpt lat="43.60554" lon="1.428618"/>
|
|---|
| 3250 | <trkpt lat="43.60556" lon="1.428492"/>
|
|---|
| 3251 | <trkpt lat="43.60558" lon="1.428357"/>
|
|---|
| 3252 | <trkpt lat="43.60559" lon="1.428225"/>
|
|---|
| 3253 | <trkpt lat="43.60564" lon="1.427902"/>
|
|---|
| 3254 | <trkpt lat="43.6057" lon="1.427475"/>
|
|---|
| 3255 | <trkpt lat="43.60572" lon="1.427358"/>
|
|---|
| 3256 | <trkpt lat="43.60573" lon="1.427247"/>
|
|---|
| 3257 | <trkpt lat="43.60575" lon="1.427133"/>
|
|---|
| 3258 | <trkpt lat="43.60577" lon="1.427023"/>
|
|---|
| 3259 | <trkpt lat="43.6058" lon="1.42692"/>
|
|---|
| 3260 | <trkpt lat="43.60581" lon="1.42681"/>
|
|---|
| 3261 | <trkpt lat="43.60583" lon="1.426708"/>
|
|---|
| 3262 | <trkpt lat="43.60581" lon="1.426605"/>
|
|---|
| 3263 | <trkpt lat="43.60576" lon="1.426595"/>
|
|---|
| 3264 | <trkpt lat="43.60535" lon="1.426507"/>
|
|---|
| 3265 | <trkpt lat="43.60574" lon="1.426592"/>
|
|---|
| 3266 | <trkpt lat="43.60571" lon="1.426548"/>
|
|---|
| 3267 | <trkpt lat="43.60532" lon="1.426553"/>
|
|---|
| 3268 | <trkpt lat="43.60567" lon="1.426495"/>
|
|---|
| 3269 | <trkpt lat="43.60564" lon="1.426447"/>
|
|---|
| 3270 | <trkpt lat="43.60559" lon="1.426397"/>
|
|---|
| 3271 | <trkpt lat="43.60554" lon="1.426375"/>
|
|---|
| 3272 | <trkpt lat="43.60551" lon="1.42637"/>
|
|---|
| 3273 | <trkpt lat="43.60548" lon="1.426397"/>
|
|---|
| 3274 | <trkpt lat="43.60544" lon="1.426437"/>
|
|---|
| 3275 | <trkpt lat="43.60538" lon="1.4265"/>
|
|---|
| 3276 | <trkpt lat="43.60533" lon="1.426527"/>
|
|---|
| 3277 | <trkpt lat="43.60519" lon="1.427705"/>
|
|---|
| 3278 | <trkpt lat="43.60531" lon="1.426552"/>
|
|---|
| 3279 | <trkpt lat="43.60531" lon="1.426595"/>
|
|---|
| 3280 | <trkpt lat="43.6053" lon="1.42667"/>
|
|---|
| 3281 | <trkpt lat="43.60529" lon="1.426758"/>
|
|---|
| 3282 | <trkpt lat="43.60528" lon="1.42686"/>
|
|---|
| 3283 | <trkpt lat="43.60526" lon="1.426962"/>
|
|---|
| 3284 | <trkpt lat="43.60523" lon="1.427118"/>
|
|---|
| 3285 | <trkpt lat="43.60524" lon="1.427225"/>
|
|---|
| 3286 | <trkpt lat="43.60523" lon="1.427333"/>
|
|---|
| 3287 | <trkpt lat="43.60522" lon="1.427438"/>
|
|---|
| 3288 | <trkpt lat="43.6052" lon="1.427527"/>
|
|---|
| 3289 | <trkpt lat="43.60519" lon="1.427615"/>
|
|---|
| 3290 | <trkpt lat="43.60518" lon="1.427668"/>
|
|---|
| 3291 | <trkpt lat="43.60516" lon="1.42768"/>
|
|---|
| 3292 | <trkpt lat="43.60514" lon="1.42769"/>
|
|---|
| 3293 | <trkpt lat="43.60514" lon="1.427727"/>
|
|---|
| 3294 | <trkpt lat="43.6052" lon="1.427647"/>
|
|---|
| 3295 | <trkpt lat="43.6052" lon="1.427598"/>
|
|---|
| 3296 | <trkpt lat="43.60521" lon="1.427575"/>
|
|---|
| 3297 | <trkpt lat="43.6052" lon="1.427577"/>
|
|---|
| 3298 | <trkpt lat="43.6052" lon="1.42752"/>
|
|---|
| 3299 | <trkpt lat="43.60521" lon="1.427435"/>
|
|---|
| 3300 | <trkpt lat="43.60524" lon="1.427177"/>
|
|---|
| 3301 | <trkpt lat="43.60524" lon="1.427018"/>
|
|---|
| 3302 | <trkpt lat="43.60524" lon="1.42692"/>
|
|---|
| 3303 | <trkpt lat="43.60526" lon="1.426822"/>
|
|---|
| 3304 | <trkpt lat="43.60527" lon="1.426722"/>
|
|---|
| 3305 | <trkpt lat="43.60528" lon="1.42663"/>
|
|---|
| 3306 | <trkpt lat="43.6053" lon="1.426535"/>
|
|---|
| 3307 | <trkpt lat="43.60534" lon="1.426437"/>
|
|---|
| 3308 | <trkpt lat="43.60538" lon="1.426342"/>
|
|---|
| 3309 | <trkpt lat="43.60541" lon="1.426238"/>
|
|---|
| 3310 | <trkpt lat="43.60544" lon="1.426058"/>
|
|---|
| 3311 | <trkpt lat="43.60546" lon="1.42594"/>
|
|---|
| 3312 | <trkpt lat="43.60548" lon="1.425823"/>
|
|---|
| 3313 | <trkpt lat="43.60549" lon="1.425707"/>
|
|---|
| 3314 | <trkpt lat="43.60547" lon="1.425607"/>
|
|---|
| 3315 | <trkpt lat="43.60542" lon="1.425583"/>
|
|---|
| 3316 | <trkpt lat="43.60538" lon="1.425638"/>
|
|---|
| 3317 | <trkpt lat="43.60536" lon="1.425717"/>
|
|---|
| 3318 | <trkpt lat="43.60534" lon="1.425805"/>
|
|---|
| 3319 | <trkpt lat="43.60532" lon="1.425953"/>
|
|---|
| 3320 | <trkpt lat="43.60529" lon="1.426042"/>
|
|---|
| 3321 | <trkpt lat="43.60528" lon="1.426133"/>
|
|---|
| 3322 | <trkpt lat="43.60528" lon="1.42623"/>
|
|---|
| 3323 | <trkpt lat="43.6053" lon="1.426315"/>
|
|---|
| 3324 | <trkpt lat="43.60537" lon="1.42628"/>
|
|---|
| 3325 | <trkpt lat="43.60534" lon="1.426338"/>
|
|---|
| 3326 | <trkpt lat="43.60521" lon="1.427337"/>
|
|---|
| 3327 | <trkpt lat="43.60524" lon="1.42723"/>
|
|---|
| 3328 | <trkpt lat="43.60543" lon="1.42601"/>
|
|---|
| 3329 | <trkpt lat="43.6054" lon="1.426197"/>
|
|---|
| 3330 | <trkpt lat="43.60542" lon="1.426102"/>
|
|---|
| 3331 | <trkpt lat="43.60549" lon="1.425963"/>
|
|---|
| 3332 | <trkpt lat="43.60551" lon="1.425968"/>
|
|---|
| 3333 | <trkpt lat="43.60553" lon="1.425963"/>
|
|---|
| 3334 | <trkpt lat="43.6056" lon="1.42591"/>
|
|---|
| 3335 | <trkpt lat="43.60565" lon="1.42587"/>
|
|---|
| 3336 | <trkpt lat="43.6057" lon="1.425833"/>
|
|---|
| 3337 | <trkpt lat="43.60575" lon="1.425803"/>
|
|---|
| 3338 | <trkpt lat="43.60581" lon="1.425797"/>
|
|---|
| 3339 | <trkpt lat="43.60586" lon="1.425808"/>
|
|---|
| 3340 | <trkpt lat="43.60588" lon="1.42581"/>
|
|---|
| 3341 | <trkpt lat="43.60592" lon="1.425805"/>
|
|---|
| 3342 | <trkpt lat="43.60595" lon="1.425743"/>
|
|---|
| 3343 | <trkpt lat="43.60594" lon="1.425768"/>
|
|---|
| 3344 | <trkpt lat="43.60595" lon="1.425738"/>
|
|---|
| 3345 | <trkpt lat="43.60606" lon="1.427627"/>
|
|---|
| 3346 | <trkpt lat="43.60607" lon="1.427572"/>
|
|---|
| 3347 | <trkpt lat="43.60609" lon="1.427537"/>
|
|---|
| 3348 | <trkpt lat="43.6061" lon="1.427538"/>
|
|---|
| 3349 | <trkpt lat="43.60603" lon="1.427928"/>
|
|---|
| 3350 | <trkpt lat="43.60603" lon="1.42798"/>
|
|---|
| 3351 | <trkpt lat="43.60603" lon="1.427833"/>
|
|---|
| 3352 | <trkpt lat="43.60605" lon="1.427727"/>
|
|---|
| 3353 | <trkpt lat="43.60671" lon="1.427702"/>
|
|---|
| 3354 | <trkpt lat="43.60677" lon="1.427722"/>
|
|---|
| 3355 | <trkpt lat="43.60683" lon="1.427742"/>
|
|---|
| 3356 | <trkpt lat="43.60688" lon="1.42776"/>
|
|---|
| 3357 | <trkpt lat="43.6069" lon="1.427777"/>
|
|---|
| 3358 | <trkpt lat="43.60689" lon="1.427727"/>
|
|---|
| 3359 | <trkpt lat="43.60611" lon="1.427525"/>
|
|---|
| 3360 | <trkpt lat="43.60614" lon="1.427517"/>
|
|---|
| 3361 | <trkpt lat="43.60618" lon="1.427523"/>
|
|---|
| 3362 | <trkpt lat="43.60623" lon="1.427538"/>
|
|---|
| 3363 | <trkpt lat="43.60628" lon="1.427553"/>
|
|---|
| 3364 | <trkpt lat="43.60635" lon="1.427577"/>
|
|---|
| 3365 | <trkpt lat="43.60642" lon="1.427603"/>
|
|---|
| 3366 | <trkpt lat="43.60649" lon="1.427633"/>
|
|---|
| 3367 | <trkpt lat="43.60656" lon="1.427663"/>
|
|---|
| 3368 | <trkpt lat="43.60665" lon="1.427692"/>
|
|---|
| 3369 | <trkpt lat="43.60683" lon="1.427707"/>
|
|---|
| 3370 | <trkpt lat="43.60616" lon="1.427037"/>
|
|---|
| 3371 | <trkpt lat="43.60676" lon="1.42768"/>
|
|---|
| 3372 | <trkpt lat="43.60669" lon="1.427647"/>
|
|---|
| 3373 | <trkpt lat="43.60659" lon="1.427633"/>
|
|---|
| 3374 | <trkpt lat="43.60651" lon="1.42762"/>
|
|---|
| 3375 | <trkpt lat="43.60643" lon="1.427602"/>
|
|---|
| 3376 | <trkpt lat="43.60618" lon="1.426905"/>
|
|---|
| 3377 | <trkpt lat="43.60635" lon="1.427578"/>
|
|---|
| 3378 | <trkpt lat="43.60627" lon="1.427548"/>
|
|---|
| 3379 | <trkpt lat="43.60617" lon="1.427508"/>
|
|---|
| 3380 | <trkpt lat="43.60614" lon="1.427473"/>
|
|---|
| 3381 | <trkpt lat="43.60613" lon="1.427433"/>
|
|---|
| 3382 | <trkpt lat="43.60614" lon="1.427345"/>
|
|---|
| 3383 | <trkpt lat="43.60614" lon="1.427247"/>
|
|---|
| 3384 | <trkpt lat="43.60615" lon="1.427142"/>
|
|---|
| 3385 | <trkpt lat="43.60619" lon="1.426885"/>
|
|---|
| 3386 | <trkpt lat="43.60617" lon="1.426947"/>
|
|---|
| 3387 | <trkpt lat="43.60647" lon="1.42699"/>
|
|---|
| 3388 | <trkpt lat="43.60622" lon="1.426903"/>
|
|---|
| 3389 | <trkpt lat="43.60627" lon="1.426927"/>
|
|---|
| 3390 | <trkpt lat="43.60631" lon="1.426943"/>
|
|---|
| 3391 | <trkpt lat="43.60636" lon="1.426953"/>
|
|---|
| 3392 | <trkpt lat="43.60643" lon="1.426972"/>
|
|---|
| 3393 | <trkpt lat="43.60653" lon="1.427017"/>
|
|---|
| 3394 | <trkpt lat="43.6066" lon="1.427053"/>
|
|---|
| 3395 | <trkpt lat="43.60668" lon="1.427085"/>
|
|---|
| 3396 | <trkpt lat="43.60675" lon="1.427118"/>
|
|---|
| 3397 | <trkpt lat="43.60682" lon="1.427145"/>
|
|---|
| 3398 | <trkpt lat="43.60688" lon="1.427165"/>
|
|---|
| 3399 | <trkpt lat="43.60692" lon="1.427165"/>
|
|---|
| 3400 | <trkpt lat="43.60698" lon="1.427177"/>
|
|---|
| 3401 | <trkpt lat="43.60702" lon="1.427195"/>
|
|---|
| 3402 | <trkpt lat="43.60704" lon="1.427195"/>
|
|---|
| 3403 | <trkpt lat="43.60706" lon="1.427202"/>
|
|---|
| 3404 | <trkpt lat="43.60705" lon="1.427193"/>
|
|---|
| 3405 | <trkpt lat="43.60701" lon="1.427173"/>
|
|---|
| 3406 | <trkpt lat="43.60697" lon="1.427135"/>
|
|---|
| 3407 | <trkpt lat="43.60691" lon="1.427085"/>
|
|---|
| 3408 | <trkpt lat="43.6068" lon="1.427025"/>
|
|---|
| 3409 | <trkpt lat="43.60672" lon="1.426993"/>
|
|---|
| 3410 | <trkpt lat="43.60664" lon="1.42696"/>
|
|---|
| 3411 | <trkpt lat="43.60655" lon="1.426925"/>
|
|---|
| 3412 | <trkpt lat="43.60646" lon="1.42689"/>
|
|---|
| 3413 | <trkpt lat="43.60622" lon="1.42679"/>
|
|---|
| 3414 | <trkpt lat="43.60618" lon="1.42675"/>
|
|---|
| 3415 | <trkpt lat="43.60619" lon="1.426617"/>
|
|---|
| 3416 | <trkpt lat="43.6062" lon="1.426517"/>
|
|---|
| 3417 | <trkpt lat="43.60621" lon="1.426413"/>
|
|---|
| 3418 | <trkpt lat="43.60622" lon="1.426308"/>
|
|---|
| 3419 | <trkpt lat="43.60624" lon="1.426205"/>
|
|---|
| 3420 | <trkpt lat="43.60626" lon="1.426138"/>
|
|---|
| 3421 | <trkpt lat="43.60629" lon="1.426128"/>
|
|---|
| 3422 | <trkpt lat="43.6063" lon="1.426125"/>
|
|---|
| 3423 | <trkpt lat="43.60637" lon="1.426852"/>
|
|---|
| 3424 | <trkpt lat="43.60629" lon="1.426817"/>
|
|---|
| 3425 | <trkpt lat="43.60706" lon="1.426522"/>
|
|---|
| 3426 | <trkpt lat="43.60714" lon="1.426565"/>
|
|---|
| 3427 | <trkpt lat="43.60732" lon="1.426668"/>
|
|---|
| 3428 | <trkpt lat="43.60722" lon="1.426603"/>
|
|---|
| 3429 | <trkpt lat="43.60634" lon="1.426128"/>
|
|---|
| 3430 | <trkpt lat="43.60637" lon="1.42614"/>
|
|---|
| 3431 | <trkpt lat="43.6064" lon="1.426155"/>
|
|---|
| 3432 | <trkpt lat="43.60645" lon="1.426188"/>
|
|---|
| 3433 | <trkpt lat="43.6065" lon="1.426225"/>
|
|---|
| 3434 | <trkpt lat="43.6066" lon="1.426282"/>
|
|---|
| 3435 | <trkpt lat="43.60667" lon="1.426313"/>
|
|---|
| 3436 | <trkpt lat="43.60675" lon="1.426347"/>
|
|---|
| 3437 | <trkpt lat="43.60683" lon="1.426392"/>
|
|---|
| 3438 | <trkpt lat="43.6069" lon="1.426433"/>
|
|---|
| 3439 | <trkpt lat="43.60698" lon="1.426478"/>
|
|---|
| 3440 | <trkpt lat="43.60655" lon="1.426215"/>
|
|---|
| 3441 | <trkpt lat="43.60737" lon="1.426717"/>
|
|---|
| 3442 | <trkpt lat="43.60739" lon="1.426727"/>
|
|---|
| 3443 | <trkpt lat="43.60739" lon="1.426698"/>
|
|---|
| 3444 | <trkpt lat="43.60737" lon="1.42667"/>
|
|---|
| 3445 | <trkpt lat="43.60734" lon="1.426627"/>
|
|---|
| 3446 | <trkpt lat="43.60728" lon="1.426577"/>
|
|---|
| 3447 | <trkpt lat="43.6072" lon="1.42653"/>
|
|---|
| 3448 | <trkpt lat="43.60712" lon="1.426482"/>
|
|---|
| 3449 | <trkpt lat="43.60699" lon="1.426412"/>
|
|---|
| 3450 | <trkpt lat="43.6069" lon="1.426367"/>
|
|---|
| 3451 | <trkpt lat="43.60681" lon="1.42632"/>
|
|---|
| 3452 | <trkpt lat="43.60673" lon="1.42628"/>
|
|---|
| 3453 | <trkpt lat="43.60664" lon="1.426242"/>
|
|---|
| 3454 | <trkpt lat="43.60646" lon="1.426173"/>
|
|---|
| 3455 | <trkpt lat="43.60638" lon="1.426128"/>
|
|---|
| 3456 | <trkpt lat="43.60631" lon="1.426085"/>
|
|---|
| 3457 | <trkpt lat="43.60629" lon="1.425947"/>
|
|---|
| 3458 | <trkpt lat="43.6063" lon="1.425843"/>
|
|---|
| 3459 | <trkpt lat="43.60631" lon="1.425733"/>
|
|---|
| 3460 | <trkpt lat="43.60632" lon="1.425623"/>
|
|---|
| 3461 | <trkpt lat="43.60633" lon="1.42553"/>
|
|---|
| 3462 | <trkpt lat="43.60635" lon="1.425492"/>
|
|---|
| 3463 | <trkpt lat="43.60637" lon="1.42549"/>
|
|---|
| 3464 | <trkpt lat="43.60732" lon="1.426107"/>
|
|---|
| 3465 | <trkpt lat="43.60639" lon="1.425495"/>
|
|---|
| 3466 | <trkpt lat="43.60642" lon="1.425515"/>
|
|---|
| 3467 | <trkpt lat="43.60649" lon="1.425553"/>
|
|---|
| 3468 | <trkpt lat="43.60654" lon="1.425588"/>
|
|---|
| 3469 | <trkpt lat="43.6066" lon="1.425627"/>
|
|---|
| 3470 | <trkpt lat="43.60739" lon="1.426153"/>
|
|---|
| 3471 | <trkpt lat="43.60666" lon="1.425667"/>
|
|---|
| 3472 | <trkpt lat="43.60673" lon="1.42571"/>
|
|---|
| 3473 | <trkpt lat="43.60679" lon="1.425753"/>
|
|---|
| 3474 | <trkpt lat="43.60686" lon="1.425795"/>
|
|---|
| 3475 | <trkpt lat="43.60693" lon="1.425838"/>
|
|---|
| 3476 | <trkpt lat="43.60699" lon="1.425883"/>
|
|---|
| 3477 | <trkpt lat="43.6071" lon="1.425957"/>
|
|---|
| 3478 | <trkpt lat="43.60717" lon="1.426005"/>
|
|---|
| 3479 | <trkpt lat="43.60725" lon="1.426055"/>
|
|---|
| 3480 | <trkpt lat="43.60646" lon="1.42556"/>
|
|---|
| 3481 | <trkpt lat="43.60745" lon="1.426198"/>
|
|---|
| 3482 | <trkpt lat="43.6075" lon="1.426237"/>
|
|---|
| 3483 | <trkpt lat="43.60755" lon="1.426267"/>
|
|---|
| 3484 | <trkpt lat="43.60758" lon="1.42628"/>
|
|---|
| 3485 | <trkpt lat="43.60757" lon="1.426248"/>
|
|---|
| 3486 | <trkpt lat="43.60752" lon="1.426237"/>
|
|---|
| 3487 | <trkpt lat="43.60745" lon="1.42623"/>
|
|---|
| 3488 | <trkpt lat="43.60738" lon="1.426188"/>
|
|---|
| 3489 | <trkpt lat="43.6073" lon="1.426143"/>
|
|---|
| 3490 | <trkpt lat="43.60723" lon="1.426082"/>
|
|---|
| 3491 | <trkpt lat="43.60714" lon="1.426028"/>
|
|---|
| 3492 | <trkpt lat="43.60706" lon="1.425972"/>
|
|---|
| 3493 | <trkpt lat="43.60695" lon="1.42589"/>
|
|---|
| 3494 | <trkpt lat="43.60687" lon="1.425847"/>
|
|---|
| 3495 | <trkpt lat="43.6068" lon="1.425795"/>
|
|---|
| 3496 | <trkpt lat="43.60672" lon="1.425738"/>
|
|---|
| 3497 | <trkpt lat="43.60663" lon="1.42568"/>
|
|---|
| 3498 | <trkpt lat="43.60654" lon="1.42562"/>
|
|---|
| 3499 | <trkpt lat="43.60638" lon="1.425505"/>
|
|---|
| 3500 | <trkpt lat="43.60634" lon="1.425435"/>
|
|---|
| 3501 | <trkpt lat="43.60747" lon="1.425353"/>
|
|---|
| 3502 | <trkpt lat="43.60755" lon="1.42535"/>
|
|---|
| 3503 | <trkpt lat="43.60764" lon="1.425382"/>
|
|---|
| 3504 | <trkpt lat="43.60771" lon="1.425412"/>
|
|---|
| 3505 | <trkpt lat="43.60778" lon="1.42543"/>
|
|---|
| 3506 | <trkpt lat="43.60783" lon="1.425458"/>
|
|---|
| 3507 | <trkpt lat="43.60787" lon="1.42548"/>
|
|---|
| 3508 | <trkpt lat="43.60788" lon="1.42545"/>
|
|---|
| 3509 | <trkpt lat="43.6078" lon="1.425428"/>
|
|---|
| 3510 | <trkpt lat="43.60773" lon="1.42543"/>
|
|---|
| 3511 | <trkpt lat="43.60765" lon="1.425422"/>
|
|---|
| 3512 | <trkpt lat="43.60756" lon="1.425388"/>
|
|---|
| 3513 | <trkpt lat="43.60775" lon="1.42598"/>
|
|---|
| 3514 | <trkpt lat="43.60792" lon="1.425373"/>
|
|---|
| 3515 | <trkpt lat="43.60789" lon="1.42549"/>
|
|---|
| 3516 | <trkpt lat="43.60785" lon="1.425612"/>
|
|---|
| 3517 | <trkpt lat="43.60782" lon="1.425732"/>
|
|---|
| 3518 | <trkpt lat="43.60779" lon="1.425855"/>
|
|---|
| 3519 | <trkpt lat="43.60768" lon="1.426157"/>
|
|---|
| 3520 | <trkpt lat="43.60764" lon="1.426263"/>
|
|---|
| 3521 | <trkpt lat="43.6076" lon="1.426365"/>
|
|---|
| 3522 | <trkpt lat="43.60757" lon="1.426485"/>
|
|---|
| 3523 | <trkpt lat="43.60753" lon="1.426592"/>
|
|---|
| 3524 | <trkpt lat="43.60751" lon="1.426692"/>
|
|---|
| 3525 | <trkpt lat="43.60709" lon="1.427977"/>
|
|---|
| 3526 | <trkpt lat="43.60746" lon="1.426795"/>
|
|---|
| 3527 | <trkpt lat="43.60742" lon="1.426913"/>
|
|---|
| 3528 | <trkpt lat="43.60735" lon="1.427095"/>
|
|---|
| 3529 | <trkpt lat="43.60732" lon="1.42723"/>
|
|---|
| 3530 | <trkpt lat="43.6073" lon="1.427377"/>
|
|---|
| 3531 | <trkpt lat="43.60727" lon="1.427517"/>
|
|---|
| 3532 | <trkpt lat="43.60723" lon="1.427642"/>
|
|---|
| 3533 | <trkpt lat="43.6072" lon="1.427753"/>
|
|---|
| 3534 | <trkpt lat="43.60715" lon="1.42786"/>
|
|---|
| 3535 | <trkpt lat="43.60711" lon="1.42794"/>
|
|---|
| 3536 | <trkpt lat="43.6079333" lon="1.4254067"/>
|
|---|
| 3537 | <trkpt lat="43.607875" lon="1.4255783"/>
|
|---|
| 3538 | <trkpt lat="43.6078183" lon="1.4256583"/>
|
|---|
| 3539 | <trkpt lat="43.6077583" lon="1.4257367"/>
|
|---|
| 3540 | <trkpt lat="43.6077083" lon="1.4258883"/>
|
|---|
| 3541 | <trkpt lat="43.6076617" lon="1.4259567"/>
|
|---|
| 3542 | <trkpt lat="43.6076133" lon="1.4260233"/>
|
|---|
| 3543 | <trkpt lat="43.60757" lon="1.42619"/>
|
|---|
| 3544 | <trkpt lat="43.6075167" lon="1.4263033"/>
|
|---|
| 3545 | <trkpt lat="43.6074783" lon="1.4264217"/>
|
|---|
| 3546 | <trkpt lat="43.607445" lon="1.42654"/>
|
|---|
| 3547 | <trkpt lat="43.6074067" lon="1.4266217"/>
|
|---|
| 3548 | <trkpt lat="43.6073683" lon="1.4267033"/>
|
|---|
| 3549 | <trkpt lat="43.6073333" lon="1.4269167"/>
|
|---|
| 3550 | <trkpt lat="43.607285" lon="1.4270017"/>
|
|---|
| 3551 | <trkpt lat="43.6072583" lon="1.4271967"/>
|
|---|
| 3552 | <trkpt lat="43.6072083" lon="1.4273283"/>
|
|---|
| 3553 | <trkpt lat="43.607155" lon="1.42747"/>
|
|---|
| 3554 | <trkpt lat="43.607105" lon="1.4275617"/>
|
|---|
| 3555 | <trkpt lat="43.607055" lon="1.427795"/>
|
|---|
| 3556 | <trkpt lat="43.6069983" lon="1.4278933"/>
|
|---|
| 3557 | <trkpt lat="43.606945" lon="1.4279917"/>
|
|---|
| 3558 | <trkpt lat="43.6068917" lon="1.4280883"/>
|
|---|
| 3559 | <trkpt lat="43.6068567" lon="1.4284083"/>
|
|---|
| 3560 | <trkpt lat="43.6068117" lon="1.42857"/>
|
|---|
| 3561 | <trkpt lat="43.606765" lon="1.4287283"/>
|
|---|
| 3562 | <trkpt lat="43.6067233" lon="1.4288933"/>
|
|---|
| 3563 | <trkpt lat="43.6066783" lon="1.4290417"/>
|
|---|
| 3564 | <trkpt lat="43.6066283" lon="1.4291417"/>
|
|---|
| 3565 | <trkpt lat="43.6065833" lon="1.4292417"/>
|
|---|
| 3566 | <trkpt lat="43.6065333" lon="1.4293433"/>
|
|---|
| 3567 | <trkpt lat="43.6064833" lon="1.4294433"/>
|
|---|
| 3568 | <trkpt lat="43.6064383" lon="1.4295433"/>
|
|---|
| 3569 | <trkpt lat="43.606395" lon="1.4298433"/>
|
|---|
| 3570 | <trkpt lat="43.6063617" lon="1.4299167"/>
|
|---|
| 3571 | <trkpt lat="43.606335" lon="1.4299767"/>
|
|---|
| 3572 | <trkpt lat="43.606315" lon="1.4300133"/>
|
|---|
| 3573 | <trkpt lat="43.606305" lon="1.43004"/>
|
|---|
| 3574 | <trkpt lat="43.6062967" lon="1.4300767"/>
|
|---|
| 3575 | <trkpt lat="43.6063" lon="1.4301183"/>
|
|---|
| 3576 | <trkpt lat="43.6063083" lon="1.4301633"/>
|
|---|
| 3577 | <trkpt lat="43.6063083" lon="1.4302"/>
|
|---|
| 3578 | <trkpt lat="43.606335" lon="1.4302617"/>
|
|---|
| 3579 | <trkpt lat="43.60638" lon="1.4303083"/>
|
|---|
| 3580 | <trkpt lat="43.6064383" lon="1.4303317"/>
|
|---|
| 3581 | <trkpt lat="43.6064917" lon="1.4303533"/>
|
|---|
| 3582 | <trkpt lat="43.6065367" lon="1.4303767"/>
|
|---|
| 3583 | <trkpt lat="43.606575" lon="1.4304"/>
|
|---|
| 3584 | <trkpt lat="43.6066167" lon="1.4304283"/>
|
|---|
| 3585 | <trkpt lat="43.6066667" lon="1.430465"/>
|
|---|
| 3586 | <trkpt lat="43.6067233" lon="1.4305067"/>
|
|---|
| 3587 | <trkpt lat="43.607926" lon="1.425423"/>
|
|---|
| 3588 | <trkpt lat="43.607886" lon="1.425545"/>
|
|---|
| 3589 | <trkpt lat="43.607841" lon="1.425675"/>
|
|---|
| 3590 | <trkpt lat="43.6078" lon="1.4258"/>
|
|---|
| 3591 | <trkpt lat="43.607757" lon="1.425933"/>
|
|---|
| 3592 | <trkpt lat="43.607729" lon="1.426069"/>
|
|---|
| 3593 | <trkpt lat="43.607684" lon="1.426193"/>
|
|---|
| 3594 | <trkpt lat="43.607647" lon="1.426323"/>
|
|---|
| 3595 | <trkpt lat="43.607597" lon="1.426461"/>
|
|---|
| 3596 | <trkpt lat="43.60755" lon="1.426604"/>
|
|---|
| 3597 | <trkpt lat="43.607502" lon="1.426719"/>
|
|---|
| 3598 | <trkpt lat="43.607447" lon="1.426837"/>
|
|---|
| 3599 | <trkpt lat="43.607388" lon="1.426961"/>
|
|---|
| 3600 | <trkpt lat="43.607335" lon="1.427077"/>
|
|---|
| 3601 | <trkpt lat="43.607287" lon="1.427188"/>
|
|---|
| 3602 | <trkpt lat="43.607235" lon="1.427314"/>
|
|---|
| 3603 | <trkpt lat="43.607185" lon="1.42747"/>
|
|---|
| 3604 | <trkpt lat="43.607141" lon="1.427609"/>
|
|---|
| 3605 | <trkpt lat="43.607101" lon="1.427744"/>
|
|---|
| 3606 | <trkpt lat="43.607072" lon="1.427898"/>
|
|---|
| 3607 | <trkpt lat="43.607022" lon="1.428035"/>
|
|---|
| 3608 | <trkpt lat="43.606976" lon="1.428174"/>
|
|---|
| 3609 | <trkpt lat="43.606929" lon="1.428312"/>
|
|---|
| 3610 | <trkpt lat="43.606875" lon="1.428458"/>
|
|---|
| 3611 | <trkpt lat="43.606815" lon="1.428661"/>
|
|---|
| 3612 | <trkpt lat="43.606767" lon="1.428802"/>
|
|---|
| 3613 | <trkpt lat="43.606719" lon="1.428939"/>
|
|---|
| 3614 | <trkpt lat="43.606661" lon="1.429073"/>
|
|---|
| 3615 | <trkpt lat="43.60661" lon="1.429201"/>
|
|---|
| 3616 | <trkpt lat="43.606564" lon="1.429328"/>
|
|---|
| 3617 | <trkpt lat="43.606538" lon="1.429458"/>
|
|---|
| 3618 | <trkpt lat="43.606502" lon="1.429578"/>
|
|---|
| 3619 | <trkpt lat="43.606469" lon="1.429692"/>
|
|---|
| 3620 | <trkpt lat="43.606436" lon="1.429798"/>
|
|---|
| 3621 | <trkpt lat="43.606395" lon="1.42988"/>
|
|---|
| 3622 | <trkpt lat="43.6064" lon="1.429934"/>
|
|---|
| 3623 | <trkpt lat="43.606369" lon="1.429969"/>
|
|---|
| 3624 | <trkpt lat="43.606356" lon="1.430004"/>
|
|---|
| 3625 | <trkpt lat="43.606348" lon="1.430049"/>
|
|---|
| 3626 | <trkpt lat="43.606341" lon="1.430095"/>
|
|---|
| 3627 | <trkpt lat="43.606331" lon="1.430133"/>
|
|---|
| 3628 | <trkpt lat="43.606346" lon="1.430194"/>
|
|---|
| 3629 | <trkpt lat="43.606362" lon="1.430239"/>
|
|---|
| 3630 | <trkpt lat="43.606396" lon="1.430281"/>
|
|---|
| 3631 | <trkpt lat="43.606441" lon="1.43032"/>
|
|---|
| 3632 | <trkpt lat="43.606489" lon="1.430337"/>
|
|---|
| 3633 | <trkpt lat="43.606522" lon="1.430354"/>
|
|---|
| 3634 | <trkpt lat="43.60655" lon="1.430384"/>
|
|---|
| 3635 | <trkpt lat="43.606582" lon="1.430412"/>
|
|---|
| 3636 | <trkpt lat="43.606624" lon="1.430452"/>
|
|---|
| 3637 | <trkpt lat="43.606679" lon="1.430495"/>
|
|---|
| 3638 | <trkpt lat="43.606732" lon="1.430535"/>
|
|---|
| 3639 | <trkpt lat="43.60132" lon="1.42834"/>
|
|---|
| 3640 | <trkpt lat="43.60163" lon="1.428115"/>
|
|---|
| 3641 | <trkpt lat="43.60175" lon="1.428038"/>
|
|---|
| 3642 | <trkpt lat="43.60201" lon="1.427912"/>
|
|---|
| 3643 | <trkpt lat="43.60229" lon="1.42791"/>
|
|---|
| 3644 | <trkpt lat="43.6026" lon="1.427948"/>
|
|---|
| 3645 | <trkpt lat="43.60293" lon="1.427985"/>
|
|---|
| 3646 | <trkpt lat="43.60326" lon="1.428022"/>
|
|---|
| 3647 | <trkpt lat="43.6036" lon="1.428062"/>
|
|---|
| 3648 | <trkpt lat="43.60394" lon="1.428102"/>
|
|---|
| 3649 | <trkpt lat="43.60455" lon="1.428168"/>
|
|---|
| 3650 | <trkpt lat="43.60469" lon="1.428182"/>
|
|---|
| 3651 | <trkpt lat="43.6049" lon="1.428205"/>
|
|---|
| 3652 | <trkpt lat="43.60512" lon="1.42823"/>
|
|---|
| 3653 | <trkpt lat="43.60517" lon="1.428235"/>
|
|---|
| 3654 | <trkpt lat="43.60524" lon="1.428245"/>
|
|---|
| 3655 | <trkpt lat="43.60534" lon="1.428253"/>
|
|---|
| 3656 | <trkpt lat="43.60548" lon="1.42827"/>
|
|---|
| 3657 | <trkpt lat="43.60564" lon="1.428283"/>
|
|---|
| 3658 | <trkpt lat="43.60586" lon="1.4283"/>
|
|---|
| 3659 | <trkpt lat="43.606" lon="1.428297"/>
|
|---|
| 3660 | <trkpt lat="43.60616" lon="1.428297"/>
|
|---|
| 3661 | <trkpt lat="43.60632" lon="1.4283"/>
|
|---|
| 3662 | <trkpt lat="43.60797" lon="1.427128"/>
|
|---|
| 3663 | <trkpt lat="43.60836" lon="1.425617"/>
|
|---|
| 3664 | <trkpt lat="43.60825" lon="1.425883"/>
|
|---|
| 3665 | </trkseg>
|
|---|
| 3666 | </trk>
|
|---|
| 3667 | <trk>
|
|---|
| 3668 | <trkseg>
|
|---|
| 3669 | <trkpt lat="43.6077384" lon="1.4256633">
|
|---|
| 3670 | <time>2016-05-22T16:41:41Z</time>
|
|---|
| 3671 | </trkpt>
|
|---|
| 3672 | <trkpt lat="43.6074752" lon="1.4264136">
|
|---|
| 3673 | <time>2016-05-22T16:41:46Z</time>
|
|---|
| 3674 | </trkpt>
|
|---|
| 3675 | <trkpt lat="43.6071624" lon="1.4271947">
|
|---|
| 3676 | <time>2016-05-22T16:41:51Z</time>
|
|---|
| 3677 | </trkpt>
|
|---|
| 3678 | <trkpt lat="43.6069335" lon="1.4279726">
|
|---|
| 3679 | <time>2016-05-22T16:41:56Z</time>
|
|---|
| 3680 | </trkpt>
|
|---|
| 3681 | <trkpt lat="43.6066513" lon="1.4287877">
|
|---|
| 3682 | <time>2016-05-22T16:42:01Z</time>
|
|---|
| 3683 | </trkpt>
|
|---|
| 3684 | <trkpt lat="43.6064376" lon="1.4294279">
|
|---|
| 3685 | <time>2016-05-22T16:42:06Z</time>
|
|---|
| 3686 | </trkpt>
|
|---|
| 3687 | <trkpt lat="43.606369" lon="1.4299591">
|
|---|
| 3688 | <time>2016-05-22T16:42:11Z</time>
|
|---|
| 3689 | </trkpt>
|
|---|
| 3690 | <trkpt lat="43.6064338" lon="1.4302717">
|
|---|
| 3691 | <time>2016-05-22T16:42:16Z</time>
|
|---|
| 3692 | </trkpt>
|
|---|
| 3693 | <trkpt lat="43.6065101" lon="1.4302865">
|
|---|
| 3694 | <time>2016-05-22T16:42:21Z</time>
|
|---|
| 3695 | </trkpt>
|
|---|
| 3696 | <trkpt lat="43.6065292" lon="1.430288">
|
|---|
| 3697 | <time>2016-05-22T16:42:26Z</time>
|
|---|
| 3698 | </trkpt>
|
|---|
| 3699 | <trkpt lat="43.6065635" lon="1.4303344">
|
|---|
| 3700 | <time>2016-05-22T16:42:31Z</time>
|
|---|
| 3701 | </trkpt>
|
|---|
| 3702 | </trkseg>
|
|---|
| 3703 | </trk>
|
|---|
| 3704 | <trk>
|
|---|
| 3705 | <name>27.gpx</name>
|
|---|
| 3706 | <desc>27gpx</desc>
|
|---|
| 3707 | <link href="https://api.openstreetmap.org/user/didier2020/traces/1594553">
|
|---|
| 3708 | </link>
|
|---|
| 3709 | <trkseg>
|
|---|
| 3710 | <trkpt lat="43.607594" lon="1.426516">
|
|---|
| 3711 | <time>2013-06-18T14:02:55Z</time>
|
|---|
| 3712 | </trkpt>
|
|---|
| 3713 | <trkpt lat="43.607109" lon="1.428321">
|
|---|
| 3714 | <time>2013-06-18T14:03:08Z</time>
|
|---|
| 3715 | </trkpt>
|
|---|
| 3716 | <trkpt lat="43.606841" lon="1.428887">
|
|---|
| 3717 | <time>2013-06-18T14:03:12Z</time>
|
|---|
| 3718 | </trkpt>
|
|---|
| 3719 | <trkpt lat="43.60645" lon="1.429995">
|
|---|
| 3720 | <time>2013-06-18T14:03:22Z</time>
|
|---|
| 3721 | </trkpt>
|
|---|
| 3722 | <trkpt lat="43.606432" lon="1.430119">
|
|---|
| 3723 | <time>2013-06-18T14:03:24Z</time>
|
|---|
| 3724 | </trkpt>
|
|---|
| 3725 | <trkpt lat="43.606415" lon="1.43022">
|
|---|
| 3726 | <time>2013-06-18T14:03:25Z</time>
|
|---|
| 3727 | </trkpt>
|
|---|
| 3728 | <trkpt lat="43.606405" lon="1.430263">
|
|---|
| 3729 | <time>2013-06-18T14:03:26Z</time>
|
|---|
| 3730 | </trkpt>
|
|---|
| 3731 | <trkpt lat="43.606346" lon="1.430175">
|
|---|
| 3732 | <time>2013-06-18T14:03:27Z</time>
|
|---|
| 3733 | </trkpt>
|
|---|
| 3734 | <trkpt lat="43.606346" lon="1.430175">
|
|---|
| 3735 | <time>2013-06-18T14:03:28Z</time>
|
|---|
| 3736 | </trkpt>
|
|---|
| 3737 | <trkpt lat="43.606389" lon="1.430218">
|
|---|
| 3738 | <time>2013-06-18T14:03:29Z</time>
|
|---|
| 3739 | </trkpt>
|
|---|
| 3740 | <trkpt lat="43.606559" lon="1.430331">
|
|---|
| 3741 | <time>2013-06-18T14:03:30Z</time>
|
|---|
| 3742 | </trkpt>
|
|---|
| 3743 | <trkpt lat="43.606576" lon="1.430343">
|
|---|
| 3744 | <time>2013-06-18T14:03:39Z</time>
|
|---|
| 3745 | </trkpt>
|
|---|
| 3746 | <trkpt lat="43.606668" lon="1.43039">
|
|---|
| 3747 | <time>2013-06-18T14:04:12Z</time>
|
|---|
| 3748 | </trkpt>
|
|---|
| 3749 | </trkseg>
|
|---|
| 3750 | </trk>
|
|---|
| 3751 | <trk>
|
|---|
| 3752 | <trkseg>
|
|---|
| 3753 | <trkpt lat="43.6089104" lon="1.4301797">
|
|---|
| 3754 | <time>2013-07-06T06:47:07Z</time>
|
|---|
| 3755 | </trkpt>
|
|---|
| 3756 | <trkpt lat="43.608752" lon="1.4296448">
|
|---|
| 3757 | <time>2013-07-06T06:47:11Z</time>
|
|---|
| 3758 | </trkpt>
|
|---|
| 3759 | <trkpt lat="43.6086106" lon="1.429256">
|
|---|
| 3760 | <time>2013-07-06T06:47:14Z</time>
|
|---|
| 3761 | </trkpt>
|
|---|
| 3762 | <trkpt lat="43.6084505" lon="1.428738">
|
|---|
| 3763 | <time>2013-07-06T06:47:18Z</time>
|
|---|
| 3764 | </trkpt>
|
|---|
| 3765 | <trkpt lat="43.6084103" lon="1.4284748">
|
|---|
| 3766 | <time>2013-07-06T06:47:21Z</time>
|
|---|
| 3767 | </trkpt>
|
|---|
| 3768 | <trkpt lat="43.6083599" lon="1.4286065">
|
|---|
| 3769 | <time>2013-07-06T06:47:24Z</time>
|
|---|
| 3770 | </trkpt>
|
|---|
| 3771 | <trkpt lat="43.6083467" lon="1.4286943">
|
|---|
| 3772 | <time>2013-07-06T06:47:28Z</time>
|
|---|
| 3773 | </trkpt>
|
|---|
| 3774 | <trkpt lat="43.6083467" lon="1.4286943">
|
|---|
| 3775 | <time>2013-07-06T06:47:32Z</time>
|
|---|
| 3776 | </trkpt>
|
|---|
| 3777 | <trkpt lat="43.6084196" lon="1.4287226">
|
|---|
| 3778 | <time>2013-07-06T06:47:35Z</time>
|
|---|
| 3779 | </trkpt>
|
|---|
| 3780 | <trkpt lat="43.608463" lon="1.4287785">
|
|---|
| 3781 | <time>2013-07-06T06:47:38Z</time>
|
|---|
| 3782 | </trkpt>
|
|---|
| 3783 | <trkpt lat="43.6084928" lon="1.428686">
|
|---|
| 3784 | <time>2013-07-06T06:47:42Z</time>
|
|---|
| 3785 | </trkpt>
|
|---|
| 3786 | <trkpt lat="43.6084928" lon="1.428686">
|
|---|
| 3787 | <time>2013-07-06T06:47:45Z</time>
|
|---|
| 3788 | </trkpt>
|
|---|
| 3789 | <trkpt lat="43.6084896" lon="1.4285296">
|
|---|
| 3790 | <time>2013-07-06T06:47:49Z</time>
|
|---|
| 3791 | </trkpt>
|
|---|
| 3792 | <trkpt lat="43.60847" lon="1.4285196">
|
|---|
| 3793 | <time>2013-07-06T06:47:53Z</time>
|
|---|
| 3794 | </trkpt>
|
|---|
| 3795 | <trkpt lat="43.60847" lon="1.4285196">
|
|---|
| 3796 | <time>2013-07-06T06:47:57Z</time>
|
|---|
| 3797 | </trkpt>
|
|---|
| 3798 | <trkpt lat="43.60847" lon="1.4285196">
|
|---|
| 3799 | <time>2013-07-06T06:48:00Z</time>
|
|---|
| 3800 | </trkpt>
|
|---|
| 3801 | <trkpt lat="43.60847" lon="1.4285196">
|
|---|
| 3802 | <time>2013-07-06T06:48:04Z</time>
|
|---|
| 3803 | </trkpt>
|
|---|
| 3804 | <trkpt lat="43.6085256" lon="1.4285226">
|
|---|
| 3805 | <time>2013-07-06T06:48:07Z</time>
|
|---|
| 3806 | </trkpt>
|
|---|
| 3807 | <trkpt lat="43.6084353" lon="1.4286795">
|
|---|
| 3808 | <time>2013-07-06T06:48:11Z</time>
|
|---|
| 3809 | </trkpt>
|
|---|
| 3810 | <trkpt lat="43.6083509" lon="1.4286754">
|
|---|
| 3811 | <time>2013-07-06T06:48:15Z</time>
|
|---|
| 3812 | </trkpt>
|
|---|
| 3813 | <trkpt lat="43.608311" lon="1.4284645">
|
|---|
| 3814 | <time>2013-07-06T06:48:18Z</time>
|
|---|
| 3815 | </trkpt>
|
|---|
| 3816 | <trkpt lat="43.6082179" lon="1.4283348">
|
|---|
| 3817 | <time>2013-07-06T06:48:21Z</time>
|
|---|
| 3818 | </trkpt>
|
|---|
| 3819 | <trkpt lat="43.6080221" lon="1.4286117">
|
|---|
| 3820 | <time>2013-07-06T06:48:25Z</time>
|
|---|
| 3821 | </trkpt>
|
|---|
| 3822 | <trkpt lat="43.6078418" lon="1.4288766">
|
|---|
| 3823 | <time>2013-07-06T06:48:28Z</time>
|
|---|
| 3824 | </trkpt>
|
|---|
| 3825 | <trkpt lat="43.6076585" lon="1.4291476">
|
|---|
| 3826 | <time>2013-07-06T06:48:31Z</time>
|
|---|
| 3827 | </trkpt>
|
|---|
| 3828 | <trkpt lat="43.6074308" lon="1.4295498">
|
|---|
| 3829 | <time>2013-07-06T06:48:35Z</time>
|
|---|
| 3830 | </trkpt>
|
|---|
| 3831 | <trkpt lat="43.6072363" lon="1.4298037">
|
|---|
| 3832 | <time>2013-07-06T06:48:38Z</time>
|
|---|
| 3833 | </trkpt>
|
|---|
| 3834 | <trkpt lat="43.607079" lon="1.4300138">
|
|---|
| 3835 | <time>2013-07-06T06:48:41Z</time>
|
|---|
| 3836 | </trkpt>
|
|---|
| 3837 | <trkpt lat="43.6069148" lon="1.4302272">
|
|---|
| 3838 | <time>2013-07-06T06:48:45Z</time>
|
|---|
| 3839 | </trkpt>
|
|---|
| 3840 | <trkpt lat="43.6068284" lon="1.430288">
|
|---|
| 3841 | <time>2013-07-06T06:48:48Z</time>
|
|---|
| 3842 | </trkpt>
|
|---|
| 3843 | <trkpt lat="43.6067874" lon="1.4302584">
|
|---|
| 3844 | <time>2013-07-06T06:48:51Z</time>
|
|---|
| 3845 | </trkpt>
|
|---|
| 3846 | <trkpt lat="43.6068262" lon="1.4302511">
|
|---|
| 3847 | <time>2013-07-06T06:48:54Z</time>
|
|---|
| 3848 | </trkpt>
|
|---|
| 3849 | <trkpt lat="43.6067914" lon="1.4304344">
|
|---|
| 3850 | <time>2013-07-06T06:48:58Z</time>
|
|---|
| 3851 | </trkpt>
|
|---|
| 3852 | </trkseg>
|
|---|
| 3853 | </trk>
|
|---|
| 3854 | <trk>
|
|---|
| 3855 | <trkseg>
|
|---|
| 3856 | <trkpt lat="43.6013365" lon="1.4282804">
|
|---|
| 3857 | <time>2013-06-08T08:31:46Z</time>
|
|---|
| 3858 | </trkpt>
|
|---|
| 3859 | <trkpt lat="43.6016882" lon="1.4280533">
|
|---|
| 3860 | <time>2013-06-08T08:31:49Z</time>
|
|---|
| 3861 | </trkpt>
|
|---|
| 3862 | <trkpt lat="43.6020392" lon="1.4279169">
|
|---|
| 3863 | <time>2013-06-08T08:31:52Z</time>
|
|---|
| 3864 | </trkpt>
|
|---|
| 3865 | <trkpt lat="43.6024199" lon="1.4279428">
|
|---|
| 3866 | <time>2013-06-08T08:31:55Z</time>
|
|---|
| 3867 | </trkpt>
|
|---|
| 3868 | <trkpt lat="43.6028639" lon="1.4279693">
|
|---|
| 3869 | <time>2013-06-08T08:31:59Z</time>
|
|---|
| 3870 | </trkpt>
|
|---|
| 3871 | <trkpt lat="43.6031858" lon="1.4280028">
|
|---|
| 3872 | <time>2013-06-08T08:32:02Z</time>
|
|---|
| 3873 | </trkpt>
|
|---|
| 3874 | <trkpt lat="43.6036777" lon="1.428045">
|
|---|
| 3875 | <time>2013-06-08T08:32:06Z</time>
|
|---|
| 3876 | </trkpt>
|
|---|
| 3877 | <trkpt lat="43.6040571" lon="1.4280889">
|
|---|
| 3878 | <time>2013-06-08T08:32:09Z</time>
|
|---|
| 3879 | </trkpt>
|
|---|
| 3880 | <trkpt lat="43.6044408" lon="1.4281244">
|
|---|
| 3881 | <time>2013-06-08T08:32:12Z</time>
|
|---|
| 3882 | </trkpt>
|
|---|
| 3883 | <trkpt lat="43.6049327" lon="1.4281629">
|
|---|
| 3884 | <time>2013-06-08T08:32:16Z</time>
|
|---|
| 3885 | </trkpt>
|
|---|
| 3886 | <trkpt lat="43.6052807" lon="1.428195">
|
|---|
| 3887 | <time>2013-06-08T08:32:19Z</time>
|
|---|
| 3888 | </trkpt>
|
|---|
| 3889 | <trkpt lat="43.6056971" lon="1.4282539">
|
|---|
| 3890 | <time>2013-06-08T08:32:23Z</time>
|
|---|
| 3891 | </trkpt>
|
|---|
| 3892 | <trkpt lat="43.6059818" lon="1.428299">
|
|---|
| 3893 | <time>2013-06-08T08:32:26Z</time>
|
|---|
| 3894 | </trkpt>
|
|---|
| 3895 | <trkpt lat="43.6062077" lon="1.428294">
|
|---|
| 3896 | <time>2013-06-08T08:32:29Z</time>
|
|---|
| 3897 | </trkpt>
|
|---|
| 3898 | <trkpt lat="43.6064521" lon="1.428303">
|
|---|
| 3899 | <time>2013-06-08T08:32:33Z</time>
|
|---|
| 3900 | </trkpt>
|
|---|
| 3901 | <trkpt lat="43.6066186" lon="1.4283007">
|
|---|
| 3902 | <time>2013-06-08T08:32:36Z</time>
|
|---|
| 3903 | </trkpt>
|
|---|
| 3904 | <trkpt lat="43.6066855" lon="1.4282873">
|
|---|
| 3905 | <time>2013-06-08T08:32:39Z</time>
|
|---|
| 3906 | </trkpt>
|
|---|
| 3907 | <trkpt lat="43.6067024" lon="1.4282751">
|
|---|
| 3908 | <time>2013-06-08T08:32:42Z</time>
|
|---|
| 3909 | </trkpt>
|
|---|
| 3910 | <trkpt lat="43.6067024" lon="1.4282751">
|
|---|
| 3911 | <time>2013-06-08T08:32:46Z</time>
|
|---|
| 3912 | </trkpt>
|
|---|
| 3913 | <trkpt lat="43.6067024" lon="1.4282751">
|
|---|
| 3914 | <time>2013-06-08T08:32:49Z</time>
|
|---|
| 3915 | </trkpt>
|
|---|
| 3916 | <trkpt lat="43.6067024" lon="1.4282751">
|
|---|
| 3917 | <time>2013-06-08T08:32:53Z</time>
|
|---|
| 3918 | </trkpt>
|
|---|
| 3919 | <trkpt lat="43.6067024" lon="1.4282751">
|
|---|
| 3920 | <time>2013-06-08T08:32:56Z</time>
|
|---|
| 3921 | </trkpt>
|
|---|
| 3922 | <trkpt lat="43.6067833" lon="1.4282491">
|
|---|
| 3923 | <time>2013-06-08T08:33:00Z</time>
|
|---|
| 3924 | </trkpt>
|
|---|
| 3925 | <trkpt lat="43.6068947" lon="1.4282882">
|
|---|
| 3926 | <time>2013-06-08T08:33:03Z</time>
|
|---|
| 3927 | </trkpt>
|
|---|
| 3928 | <trkpt lat="43.6071874" lon="1.4283184">
|
|---|
| 3929 | <time>2013-06-08T08:33:07Z</time>
|
|---|
| 3930 | </trkpt>
|
|---|
| 3931 | <trkpt lat="43.607561" lon="1.4283819">
|
|---|
| 3932 | <time>2013-06-08T08:33:11Z</time>
|
|---|
| 3933 | </trkpt>
|
|---|
| 3934 | <trkpt lat="43.6077685" lon="1.428381">
|
|---|
| 3935 | <time>2013-06-08T08:33:14Z</time>
|
|---|
| 3936 | </trkpt>
|
|---|
| 3937 | <trkpt lat="43.607923" lon="1.4283822">
|
|---|
| 3938 | <time>2013-06-08T08:33:17Z</time>
|
|---|
| 3939 | </trkpt>
|
|---|
| 3940 | <trkpt lat="43.6082179" lon="1.4283727">
|
|---|
| 3941 | <time>2013-06-08T08:33:21Z</time>
|
|---|
| 3942 | </trkpt>
|
|---|
| 3943 | <trkpt lat="43.6084483" lon="1.4282931">
|
|---|
| 3944 | <time>2013-06-08T08:33:24Z</time>
|
|---|
| 3945 | </trkpt>
|
|---|
| 3946 | <trkpt lat="43.608772" lon="1.4279683">
|
|---|
| 3947 | <time>2013-06-08T08:33:28Z</time>
|
|---|
| 3948 | </trkpt>
|
|---|
| 3949 | </trkseg>
|
|---|
| 3950 | </trk>
|
|---|
| 3951 | <trk>
|
|---|
| 3952 | <trkseg>
|
|---|
| 3953 | <trkpt lat="43.6013365" lon="1.4282804">
|
|---|
| 3954 | <time>2013-06-08T08:31:46Z</time>
|
|---|
| 3955 | </trkpt>
|
|---|
| 3956 | <trkpt lat="43.6016882" lon="1.4280533">
|
|---|
| 3957 | <time>2013-06-08T08:31:49Z</time>
|
|---|
| 3958 | </trkpt>
|
|---|
| 3959 | <trkpt lat="43.6020392" lon="1.4279169">
|
|---|
| 3960 | <time>2013-06-08T08:31:52Z</time>
|
|---|
| 3961 | </trkpt>
|
|---|
| 3962 | <trkpt lat="43.6024199" lon="1.4279428">
|
|---|
| 3963 | <time>2013-06-08T08:31:55Z</time>
|
|---|
| 3964 | </trkpt>
|
|---|
| 3965 | <trkpt lat="43.6028639" lon="1.4279693">
|
|---|
| 3966 | <time>2013-06-08T08:31:59Z</time>
|
|---|
| 3967 | </trkpt>
|
|---|
| 3968 | <trkpt lat="43.6031858" lon="1.4280028">
|
|---|
| 3969 | <time>2013-06-08T08:32:02Z</time>
|
|---|
| 3970 | </trkpt>
|
|---|
| 3971 | <trkpt lat="43.6036777" lon="1.428045">
|
|---|
| 3972 | <time>2013-06-08T08:32:06Z</time>
|
|---|
| 3973 | </trkpt>
|
|---|
| 3974 | <trkpt lat="43.6040571" lon="1.4280889">
|
|---|
| 3975 | <time>2013-06-08T08:32:09Z</time>
|
|---|
| 3976 | </trkpt>
|
|---|
| 3977 | <trkpt lat="43.6044408" lon="1.4281244">
|
|---|
| 3978 | <time>2013-06-08T08:32:12Z</time>
|
|---|
| 3979 | </trkpt>
|
|---|
| 3980 | <trkpt lat="43.6049327" lon="1.4281629">
|
|---|
| 3981 | <time>2013-06-08T08:32:16Z</time>
|
|---|
| 3982 | </trkpt>
|
|---|
| 3983 | <trkpt lat="43.6052807" lon="1.428195">
|
|---|
| 3984 | <time>2013-06-08T08:32:19Z</time>
|
|---|
| 3985 | </trkpt>
|
|---|
| 3986 | <trkpt lat="43.6056971" lon="1.4282539">
|
|---|
| 3987 | <time>2013-06-08T08:32:23Z</time>
|
|---|
| 3988 | </trkpt>
|
|---|
| 3989 | <trkpt lat="43.6059818" lon="1.428299">
|
|---|
| 3990 | <time>2013-06-08T08:32:26Z</time>
|
|---|
| 3991 | </trkpt>
|
|---|
| 3992 | <trkpt lat="43.6062077" lon="1.428294">
|
|---|
| 3993 | <time>2013-06-08T08:32:29Z</time>
|
|---|
| 3994 | </trkpt>
|
|---|
| 3995 | <trkpt lat="43.6064521" lon="1.428303">
|
|---|
| 3996 | <time>2013-06-08T08:32:33Z</time>
|
|---|
| 3997 | </trkpt>
|
|---|
| 3998 | <trkpt lat="43.6066186" lon="1.4283007">
|
|---|
| 3999 | <time>2013-06-08T08:32:36Z</time>
|
|---|
| 4000 | </trkpt>
|
|---|
| 4001 | <trkpt lat="43.6066855" lon="1.4282873">
|
|---|
| 4002 | <time>2013-06-08T08:32:39Z</time>
|
|---|
| 4003 | </trkpt>
|
|---|
| 4004 | <trkpt lat="43.6067024" lon="1.4282751">
|
|---|
| 4005 | <time>2013-06-08T08:32:42Z</time>
|
|---|
| 4006 | </trkpt>
|
|---|
| 4007 | <trkpt lat="43.6067024" lon="1.4282751">
|
|---|
| 4008 | <time>2013-06-08T08:32:46Z</time>
|
|---|
| 4009 | </trkpt>
|
|---|
| 4010 | <trkpt lat="43.6067024" lon="1.4282751">
|
|---|
| 4011 | <time>2013-06-08T08:32:49Z</time>
|
|---|
| 4012 | </trkpt>
|
|---|
| 4013 | <trkpt lat="43.6067024" lon="1.4282751">
|
|---|
| 4014 | <time>2013-06-08T08:32:53Z</time>
|
|---|
| 4015 | </trkpt>
|
|---|
| 4016 | <trkpt lat="43.6067024" lon="1.4282751">
|
|---|
| 4017 | <time>2013-06-08T08:32:56Z</time>
|
|---|
| 4018 | </trkpt>
|
|---|
| 4019 | <trkpt lat="43.6067833" lon="1.4282491">
|
|---|
| 4020 | <time>2013-06-08T08:33:00Z</time>
|
|---|
| 4021 | </trkpt>
|
|---|
| 4022 | <trkpt lat="43.6068947" lon="1.4282882">
|
|---|
| 4023 | <time>2013-06-08T08:33:03Z</time>
|
|---|
| 4024 | </trkpt>
|
|---|
| 4025 | <trkpt lat="43.6071874" lon="1.4283184">
|
|---|
| 4026 | <time>2013-06-08T08:33:07Z</time>
|
|---|
| 4027 | </trkpt>
|
|---|
| 4028 | <trkpt lat="43.607561" lon="1.4283819">
|
|---|
| 4029 | <time>2013-06-08T08:33:11Z</time>
|
|---|
| 4030 | </trkpt>
|
|---|
| 4031 | <trkpt lat="43.6077685" lon="1.428381">
|
|---|
| 4032 | <time>2013-06-08T08:33:14Z</time>
|
|---|
| 4033 | </trkpt>
|
|---|
| 4034 | <trkpt lat="43.607923" lon="1.4283822">
|
|---|
| 4035 | <time>2013-06-08T08:33:17Z</time>
|
|---|
| 4036 | </trkpt>
|
|---|
| 4037 | <trkpt lat="43.6082179" lon="1.4283727">
|
|---|
| 4038 | <time>2013-06-08T08:33:21Z</time>
|
|---|
| 4039 | </trkpt>
|
|---|
| 4040 | <trkpt lat="43.6084483" lon="1.4282931">
|
|---|
| 4041 | <time>2013-06-08T08:33:24Z</time>
|
|---|
| 4042 | </trkpt>
|
|---|
| 4043 | <trkpt lat="43.608772" lon="1.4279683">
|
|---|
| 4044 | <time>2013-06-08T08:33:28Z</time>
|
|---|
| 4045 | </trkpt>
|
|---|
| 4046 | </trkseg>
|
|---|
| 4047 | </trk>
|
|---|
| 4048 | <trk>
|
|---|
| 4049 | <trkseg>
|
|---|
| 4050 | <trkpt lat="43.6012197" lon="1.42846">
|
|---|
| 4051 | <time>1970-07-16T00:21:56Z</time>
|
|---|
| 4052 | </trkpt>
|
|---|
| 4053 | <trkpt lat="43.6018149" lon="1.4280131">
|
|---|
| 4054 | <time>1970-07-16T00:22:02Z</time>
|
|---|
| 4055 | </trkpt>
|
|---|
| 4056 | <trkpt lat="43.6023875" lon="1.4279295">
|
|---|
| 4057 | <time>1970-07-16T00:22:07Z</time>
|
|---|
| 4058 | </trkpt>
|
|---|
| 4059 | <trkpt lat="43.6031547" lon="1.4279949">
|
|---|
| 4060 | <time>1970-07-16T00:22:13Z</time>
|
|---|
| 4061 | </trkpt>
|
|---|
| 4062 | <trkpt lat="43.6039981" lon="1.4280675">
|
|---|
| 4063 | <time>1970-07-16T00:22:19Z</time>
|
|---|
| 4064 | </trkpt>
|
|---|
| 4065 | <trkpt lat="43.604649" lon="1.4281232">
|
|---|
| 4066 | <time>1970-07-16T00:22:24Z</time>
|
|---|
| 4067 | </trkpt>
|
|---|
| 4068 | <trkpt lat="43.6053494" lon="1.4282207">
|
|---|
| 4069 | <time>1970-07-16T00:22:30Z</time>
|
|---|
| 4070 | </trkpt>
|
|---|
| 4071 | <trkpt lat="43.6058764" lon="1.4282402">
|
|---|
| 4072 | <time>1970-07-16T00:22:35Z</time>
|
|---|
| 4073 | </trkpt>
|
|---|
| 4074 | <trkpt lat="43.6064562" lon="1.4282756">
|
|---|
| 4075 | <time>1970-07-16T00:22:41Z</time>
|
|---|
| 4076 | </trkpt>
|
|---|
| 4077 | <trkpt lat="43.6070992" lon="1.4283252">
|
|---|
| 4078 | <time>1970-07-16T00:22:47Z</time>
|
|---|
| 4079 | </trkpt>
|
|---|
| 4080 | <trkpt lat="43.6075486" lon="1.4283119">
|
|---|
| 4081 | <time>1970-07-16T00:22:53Z</time>
|
|---|
| 4082 | </trkpt>
|
|---|
| 4083 | <trkpt lat="43.60765" lon="1.4281971">
|
|---|
| 4084 | <time>1970-07-16T00:22:59Z</time>
|
|---|
| 4085 | </trkpt>
|
|---|
| 4086 | <trkpt lat="43.6076741" lon="1.4282164">
|
|---|
| 4087 | <time>1970-07-16T00:23:05Z</time>
|
|---|
| 4088 | </trkpt>
|
|---|
| 4089 | <trkpt lat="43.6077762" lon="1.4282304">
|
|---|
| 4090 | <time>1970-07-16T00:23:10Z</time>
|
|---|
| 4091 | </trkpt>
|
|---|
| 4092 | <trkpt lat="43.6081219" lon="1.4282925">
|
|---|
| 4093 | <time>1970-07-16T00:23:16Z</time>
|
|---|
| 4094 | </trkpt>
|
|---|
| 4095 | <trkpt lat="43.608385" lon="1.4282147">
|
|---|
| 4096 | <time>1970-07-16T00:23:21Z</time>
|
|---|
| 4097 | </trkpt>
|
|---|
| 4098 | <trkpt lat="43.6086244" lon="1.4279456">
|
|---|
| 4099 | <time>1970-07-16T00:23:26Z</time>
|
|---|
| 4100 | </trkpt>
|
|---|
| 4101 | <trkpt lat="43.6089196" lon="1.427708">
|
|---|
| 4102 | <time>1970-07-16T00:23:32Z</time>
|
|---|
| 4103 | </trkpt>
|
|---|
| 4104 | </trkseg>
|
|---|
| 4105 | <trkseg>
|
|---|
| 4106 | <trkpt lat="43.6087847" lon="1.4296644">
|
|---|
| 4107 | <time>1970-05-05T15:45:16Z</time>
|
|---|
| 4108 | </trkpt>
|
|---|
| 4109 | <trkpt lat="43.6085267" lon="1.4289316">
|
|---|
| 4110 | <time>1970-05-05T15:45:23Z</time>
|
|---|
| 4111 | </trkpt>
|
|---|
| 4112 | <trkpt lat="43.6083949" lon="1.4284289">
|
|---|
| 4113 | <time>1970-05-05T15:45:28Z</time>
|
|---|
| 4114 | </trkpt>
|
|---|
| 4115 | <trkpt lat="43.6083853" lon="1.4284722">
|
|---|
| 4116 | <time>1970-05-05T15:45:34Z</time>
|
|---|
| 4117 | </trkpt>
|
|---|
| 4118 | <trkpt lat="43.6083853" lon="1.4284722">
|
|---|
| 4119 | <time>1970-05-05T15:45:39Z</time>
|
|---|
| 4120 | </trkpt>
|
|---|
| 4121 | <trkpt lat="43.6083853" lon="1.4284722">
|
|---|
| 4122 | <time>1970-05-05T15:45:44Z</time>
|
|---|
| 4123 | </trkpt>
|
|---|
| 4124 | <trkpt lat="43.6083853" lon="1.4284722">
|
|---|
| 4125 | <time>1970-05-05T15:45:50Z</time>
|
|---|
| 4126 | </trkpt>
|
|---|
| 4127 | <trkpt lat="43.6083853" lon="1.4284722">
|
|---|
| 4128 | <time>1970-05-05T15:45:55Z</time>
|
|---|
| 4129 | </trkpt>
|
|---|
| 4130 | <trkpt lat="43.6083853" lon="1.4284722">
|
|---|
| 4131 | <time>1970-05-05T15:46:00Z</time>
|
|---|
| 4132 | </trkpt>
|
|---|
| 4133 | <trkpt lat="43.6083853" lon="1.4284722">
|
|---|
| 4134 | <time>1970-05-05T15:46:06Z</time>
|
|---|
| 4135 | </trkpt>
|
|---|
| 4136 | <trkpt lat="43.6083853" lon="1.4284722">
|
|---|
| 4137 | <time>1970-05-05T15:46:11Z</time>
|
|---|
| 4138 | </trkpt>
|
|---|
| 4139 | <trkpt lat="43.6083853" lon="1.4284722">
|
|---|
| 4140 | <time>1970-05-05T15:46:16Z</time>
|
|---|
| 4141 | </trkpt>
|
|---|
| 4142 | <trkpt lat="43.6083853" lon="1.4284722">
|
|---|
| 4143 | <time>1970-05-05T15:46:22Z</time>
|
|---|
| 4144 | </trkpt>
|
|---|
| 4145 | <trkpt lat="43.6083955" lon="1.4284902">
|
|---|
| 4146 | <time>1970-05-05T15:46:27Z</time>
|
|---|
| 4147 | </trkpt>
|
|---|
| 4148 | <trkpt lat="43.6082602" lon="1.428255">
|
|---|
| 4149 | <time>1970-05-05T15:46:33Z</time>
|
|---|
| 4150 | </trkpt>
|
|---|
| 4151 | <trkpt lat="43.6079763" lon="1.4287006">
|
|---|
| 4152 | <time>1970-05-05T15:46:39Z</time>
|
|---|
| 4153 | </trkpt>
|
|---|
| 4154 | <trkpt lat="43.6076474" lon="1.4291829">
|
|---|
| 4155 | <time>1970-05-05T15:46:44Z</time>
|
|---|
| 4156 | </trkpt>
|
|---|
| 4157 | <trkpt lat="43.6072646" lon="1.429718">
|
|---|
| 4158 | <time>1970-05-05T15:46:50Z</time>
|
|---|
| 4159 | </trkpt>
|
|---|
| 4160 | <trkpt lat="43.6070392" lon="1.4299864">
|
|---|
| 4161 | <time>1970-05-05T15:46:55Z</time>
|
|---|
| 4162 | </trkpt>
|
|---|
| 4163 | <trkpt lat="43.6068582" lon="1.4302524">
|
|---|
| 4164 | <time>1970-05-05T15:47:01Z</time>
|
|---|
| 4165 | </trkpt>
|
|---|
| 4166 | </trkseg>
|
|---|
| 4167 | <trkseg>
|
|---|
| 4168 | <trkpt lat="43.6076057" lon="1.4256442">
|
|---|
| 4169 | <time>1970-03-26T18:47:09Z</time>
|
|---|
| 4170 | </trkpt>
|
|---|
| 4171 | <trkpt lat="43.6075508" lon="1.4260805">
|
|---|
| 4172 | <time>1970-03-26T18:47:14Z</time>
|
|---|
| 4173 | </trkpt>
|
|---|
| 4174 | <trkpt lat="43.607485" lon="1.4265325">
|
|---|
| 4175 | <time>1970-03-26T18:47:20Z</time>
|
|---|
| 4176 | </trkpt>
|
|---|
| 4177 | <trkpt lat="43.6074456" lon="1.426992">
|
|---|
| 4178 | <time>1970-03-26T18:47:26Z</time>
|
|---|
| 4179 | </trkpt>
|
|---|
| 4180 | <trkpt lat="43.6073124" lon="1.4276223">
|
|---|
| 4181 | <time>1970-03-26T18:47:31Z</time>
|
|---|
| 4182 | </trkpt>
|
|---|
| 4183 | <trkpt lat="43.6069538" lon="1.4285888">
|
|---|
| 4184 | <time>1970-03-26T18:47:38Z</time>
|
|---|
| 4185 | </trkpt>
|
|---|
| 4186 | <trkpt lat="43.6066165" lon="1.4293733">
|
|---|
| 4187 | <time>1970-03-26T18:47:44Z</time>
|
|---|
| 4188 | </trkpt>
|
|---|
| 4189 | <trkpt lat="43.6064027" lon="1.4300339">
|
|---|
| 4190 | <time>1970-03-26T18:47:49Z</time>
|
|---|
| 4191 | </trkpt>
|
|---|
| 4192 | <trkpt lat="43.6065021" lon="1.4305283">
|
|---|
| 4193 | <time>1970-03-26T18:47:54Z</time>
|
|---|
| 4194 | </trkpt>
|
|---|
| 4195 | </trkseg>
|
|---|
| 4196 | </trk>
|
|---|
| 4197 | <trk>
|
|---|
| 4198 | <trkseg>
|
|---|
| 4199 | <trkpt lat="43.6060627" lon="1.4305093">
|
|---|
| 4200 | <time>2012-07-13T12:35:52Z</time>
|
|---|
| 4201 | </trkpt>
|
|---|
| 4202 | <trkpt lat="43.6060841" lon="1.4304332">
|
|---|
| 4203 | <time>2012-07-13T12:35:54Z</time>
|
|---|
| 4204 | </trkpt>
|
|---|
| 4205 | <trkpt lat="43.6060904" lon="1.4303967">
|
|---|
| 4206 | <time>2012-07-13T12:35:55Z</time>
|
|---|
| 4207 | </trkpt>
|
|---|
| 4208 | <trkpt lat="43.6061098" lon="1.4303535">
|
|---|
| 4209 | <time>2012-07-13T12:35:56Z</time>
|
|---|
| 4210 | </trkpt>
|
|---|
| 4211 | <trkpt lat="43.6061375" lon="1.4303135">
|
|---|
| 4212 | <time>2012-07-13T12:35:58Z</time>
|
|---|
| 4213 | </trkpt>
|
|---|
| 4214 | <trkpt lat="43.6061524" lon="1.4303042">
|
|---|
| 4215 | <time>2012-07-13T12:35:59Z</time>
|
|---|
| 4216 | </trkpt>
|
|---|
| 4217 | <trkpt lat="43.6061697" lon="1.4302967">
|
|---|
| 4218 | <time>2012-07-13T12:36:01Z</time>
|
|---|
| 4219 | </trkpt>
|
|---|
| 4220 | <trkpt lat="43.6061885" lon="1.4302551">
|
|---|
| 4221 | <time>2012-07-13T12:36:03Z</time>
|
|---|
| 4222 | </trkpt>
|
|---|
| 4223 | <trkpt lat="43.6062015" lon="1.4302388">
|
|---|
| 4224 | <time>2012-07-13T12:36:04Z</time>
|
|---|
| 4225 | </trkpt>
|
|---|
| 4226 | <trkpt lat="43.606212" lon="1.4302154">
|
|---|
| 4227 | <time>2012-07-13T12:36:05Z</time>
|
|---|
| 4228 | </trkpt>
|
|---|
| 4229 | <trkpt lat="43.6062413" lon="1.4301465">
|
|---|
| 4230 | <time>2012-07-13T12:36:07Z</time>
|
|---|
| 4231 | </trkpt>
|
|---|
| 4232 | <trkpt lat="43.6062578" lon="1.4301243">
|
|---|
| 4233 | <time>2012-07-13T12:36:08Z</time>
|
|---|
| 4234 | </trkpt>
|
|---|
| 4235 | <trkpt lat="43.6062792" lon="1.4300937">
|
|---|
| 4236 | <time>2012-07-13T12:36:09Z</time>
|
|---|
| 4237 | </trkpt>
|
|---|
| 4238 | <trkpt lat="43.606315" lon="1.4300163">
|
|---|
| 4239 | <time>2012-07-13T12:36:11Z</time>
|
|---|
| 4240 | </trkpt>
|
|---|
| 4241 | <trkpt lat="43.606314" lon="1.4299632">
|
|---|
| 4242 | <time>2012-07-13T12:36:12Z</time>
|
|---|
| 4243 | </trkpt>
|
|---|
| 4244 | <trkpt lat="43.6063453" lon="1.4298736">
|
|---|
| 4245 | <time>2012-07-13T12:36:14Z</time>
|
|---|
| 4246 | </trkpt>
|
|---|
| 4247 | <trkpt lat="43.6063538" lon="1.4298312">
|
|---|
| 4248 | <time>2012-07-13T12:36:15Z</time>
|
|---|
| 4249 | </trkpt>
|
|---|
| 4250 | <trkpt lat="43.606334" lon="1.4297394">
|
|---|
| 4251 | <time>2012-07-13T12:36:17Z</time>
|
|---|
| 4252 | </trkpt>
|
|---|
| 4253 | <trkpt lat="43.606352" lon="1.4296854">
|
|---|
| 4254 | <time>2012-07-13T12:36:18Z</time>
|
|---|
| 4255 | </trkpt>
|
|---|
| 4256 | <trkpt lat="43.606393" lon="1.4295738">
|
|---|
| 4257 | <time>2012-07-13T12:36:20Z</time>
|
|---|
| 4258 | </trkpt>
|
|---|
| 4259 | <trkpt lat="43.606428" lon="1.4295104">
|
|---|
| 4260 | <time>2012-07-13T12:36:22Z</time>
|
|---|
| 4261 | </trkpt>
|
|---|
| 4262 | <trkpt lat="43.6064307" lon="1.4294811">
|
|---|
| 4263 | <time>2012-07-13T12:36:23Z</time>
|
|---|
| 4264 | </trkpt>
|
|---|
| 4265 | <trkpt lat="43.6064434" lon="1.429463">
|
|---|
| 4266 | <time>2012-07-13T12:36:24Z</time>
|
|---|
| 4267 | </trkpt>
|
|---|
| 4268 | <trkpt lat="43.6064779" lon="1.4294206">
|
|---|
| 4269 | <time>2012-07-13T12:36:26Z</time>
|
|---|
| 4270 | </trkpt>
|
|---|
| 4271 | <trkpt lat="43.6065189" lon="1.4293324">
|
|---|
| 4272 | <time>2012-07-13T12:36:28Z</time>
|
|---|
| 4273 | </trkpt>
|
|---|
| 4274 | <trkpt lat="43.6065363" lon="1.4293048">
|
|---|
| 4275 | <time>2012-07-13T12:36:29Z</time>
|
|---|
| 4276 | </trkpt>
|
|---|
| 4277 | <trkpt lat="43.6065655" lon="1.4292251">
|
|---|
| 4278 | <time>2012-07-13T12:36:31Z</time>
|
|---|
| 4279 | </trkpt>
|
|---|
| 4280 | <trkpt lat="43.6066083" lon="1.4291499">
|
|---|
| 4281 | <time>2012-07-13T12:36:34Z</time>
|
|---|
| 4282 | </trkpt>
|
|---|
| 4283 | <trkpt lat="43.6066321" lon="1.429135">
|
|---|
| 4284 | <time>2012-07-13T12:36:38Z</time>
|
|---|
| 4285 | </trkpt>
|
|---|
| 4286 | <trkpt lat="43.6066734" lon="1.4289527">
|
|---|
| 4287 | <time>2012-07-13T12:36:39Z</time>
|
|---|
| 4288 | </trkpt>
|
|---|
| 4289 | <trkpt lat="43.6066667" lon="1.4289023">
|
|---|
| 4290 | <time>2012-07-13T12:36:40Z</time>
|
|---|
| 4291 | </trkpt>
|
|---|
| 4292 | <trkpt lat="43.6066736" lon="1.4288144">
|
|---|
| 4293 | <time>2012-07-13T12:36:42Z</time>
|
|---|
| 4294 | </trkpt>
|
|---|
| 4295 | <trkpt lat="43.606711" lon="1.4287491">
|
|---|
| 4296 | <time>2012-07-13T12:36:44Z</time>
|
|---|
| 4297 | </trkpt>
|
|---|
| 4298 | <trkpt lat="43.6067264" lon="1.4286853">
|
|---|
| 4299 | <time>2012-07-13T12:36:46Z</time>
|
|---|
| 4300 | </trkpt>
|
|---|
| 4301 | <trkpt lat="43.6067314" lon="1.4286679">
|
|---|
| 4302 | <time>2012-07-13T12:36:47Z</time>
|
|---|
| 4303 | </trkpt>
|
|---|
| 4304 | <trkpt lat="43.606766" lon="1.4286276">
|
|---|
| 4305 | <time>2012-07-13T12:36:49Z</time>
|
|---|
| 4306 | </trkpt>
|
|---|
| 4307 | <trkpt lat="43.6067937" lon="1.4285904">
|
|---|
| 4308 | <time>2012-07-13T12:36:50Z</time>
|
|---|
| 4309 | </trkpt>
|
|---|
| 4310 | <trkpt lat="43.6068191" lon="1.4285593">
|
|---|
| 4311 | <time>2012-07-13T12:36:52Z</time>
|
|---|
| 4312 | </trkpt>
|
|---|
| 4313 | <trkpt lat="43.6068185" lon="1.4285166">
|
|---|
| 4314 | <time>2012-07-13T12:36:54Z</time>
|
|---|
| 4315 | </trkpt>
|
|---|
| 4316 | <trkpt lat="43.6068461" lon="1.4285165">
|
|---|
| 4317 | <time>2012-07-13T12:36:55Z</time>
|
|---|
| 4318 | </trkpt>
|
|---|
| 4319 | <trkpt lat="43.6068556" lon="1.4284704">
|
|---|
| 4320 | <time>2012-07-13T12:36:57Z</time>
|
|---|
| 4321 | </trkpt>
|
|---|
| 4322 | <trkpt lat="43.606873" lon="1.4284671">
|
|---|
| 4323 | <time>2012-07-13T12:36:58Z</time>
|
|---|
| 4324 | </trkpt>
|
|---|
| 4325 | <trkpt lat="43.6068943" lon="1.4284455">
|
|---|
| 4326 | <time>2012-07-13T12:37:00Z</time>
|
|---|
| 4327 | </trkpt>
|
|---|
| 4328 | <trkpt lat="43.606871" lon="1.4283976">
|
|---|
| 4329 | <time>2012-07-13T12:37:01Z</time>
|
|---|
| 4330 | </trkpt>
|
|---|
| 4331 | <trkpt lat="43.606907" lon="1.4283888">
|
|---|
| 4332 | <time>2012-07-13T12:37:03Z</time>
|
|---|
| 4333 | </trkpt>
|
|---|
| 4334 | <trkpt lat="43.6069182" lon="1.4283695">
|
|---|
| 4335 | <time>2012-07-13T12:37:05Z</time>
|
|---|
| 4336 | </trkpt>
|
|---|
| 4337 | <trkpt lat="43.6069303" lon="1.4283645">
|
|---|
| 4338 | <time>2012-07-13T12:37:06Z</time>
|
|---|
| 4339 | </trkpt>
|
|---|
| 4340 | <trkpt lat="43.6069494" lon="1.4283538">
|
|---|
| 4341 | <time>2012-07-13T12:37:08Z</time>
|
|---|
| 4342 | </trkpt>
|
|---|
| 4343 | <trkpt lat="43.6069768" lon="1.4283528">
|
|---|
| 4344 | <time>2012-07-13T12:37:10Z</time>
|
|---|
| 4345 | </trkpt>
|
|---|
| 4346 | <trkpt lat="43.6070296" lon="1.4283462">
|
|---|
| 4347 | <time>2012-07-13T12:37:12Z</time>
|
|---|
| 4348 | </trkpt>
|
|---|
| 4349 | <trkpt lat="43.6070449" lon="1.428355">
|
|---|
| 4350 | <time>2012-07-13T12:37:14Z</time>
|
|---|
| 4351 | </trkpt>
|
|---|
| 4352 | <trkpt lat="43.607066" lon="1.4283484">
|
|---|
| 4353 | <time>2012-07-13T12:37:16Z</time>
|
|---|
| 4354 | </trkpt>
|
|---|
| 4355 | <trkpt lat="43.607105" lon="1.4283623">
|
|---|
| 4356 | <time>2012-07-13T12:37:18Z</time>
|
|---|
| 4357 | </trkpt>
|
|---|
| 4358 | <trkpt lat="43.6071333" lon="1.4283694">
|
|---|
| 4359 | <time>2012-07-13T12:37:19Z</time>
|
|---|
| 4360 | </trkpt>
|
|---|
| 4361 | <trkpt lat="43.6071586" lon="1.4283652">
|
|---|
| 4362 | <time>2012-07-13T12:37:20Z</time>
|
|---|
| 4363 | </trkpt>
|
|---|
| 4364 | <trkpt lat="43.6071844" lon="1.4283793">
|
|---|
| 4365 | <time>2012-07-13T12:37:22Z</time>
|
|---|
| 4366 | </trkpt>
|
|---|
| 4367 | <trkpt lat="43.607192" lon="1.428378">
|
|---|
| 4368 | <time>2012-07-13T12:37:24Z</time>
|
|---|
| 4369 | </trkpt>
|
|---|
| 4370 | <trkpt lat="43.6072109" lon="1.4283968">
|
|---|
| 4371 | <time>2012-07-13T12:37:26Z</time>
|
|---|
| 4372 | </trkpt>
|
|---|
| 4373 | <trkpt lat="43.6072194" lon="1.4284012">
|
|---|
| 4374 | <time>2012-07-13T12:37:27Z</time>
|
|---|
| 4375 | </trkpt>
|
|---|
| 4376 | <trkpt lat="43.6072215" lon="1.4284015">
|
|---|
| 4377 | <time>2012-07-13T12:37:28Z</time>
|
|---|
| 4378 | </trkpt>
|
|---|
| 4379 | <trkpt lat="43.6072205" lon="1.4284016">
|
|---|
| 4380 | <time>2012-07-13T12:37:29Z</time>
|
|---|
| 4381 | </trkpt>
|
|---|
| 4382 | <trkpt lat="43.607221" lon="1.4284059">
|
|---|
| 4383 | <time>2012-07-13T12:37:31Z</time>
|
|---|
| 4384 | </trkpt>
|
|---|
| 4385 | <trkpt lat="43.6072217" lon="1.4284076">
|
|---|
| 4386 | <time>2012-07-13T12:37:32Z</time>
|
|---|
| 4387 | </trkpt>
|
|---|
| 4388 | <trkpt lat="43.6072173" lon="1.4284108">
|
|---|
| 4389 | <time>2012-07-13T12:37:34Z</time>
|
|---|
| 4390 | </trkpt>
|
|---|
| 4391 | <trkpt lat="43.6072188" lon="1.4284101">
|
|---|
| 4392 | <time>2012-07-13T12:37:36Z</time>
|
|---|
| 4393 | </trkpt>
|
|---|
| 4394 | <trkpt lat="43.6072372" lon="1.4284033">
|
|---|
| 4395 | <time>2012-07-13T12:37:37Z</time>
|
|---|
| 4396 | </trkpt>
|
|---|
| 4397 | <trkpt lat="43.607251" lon="1.4283998">
|
|---|
| 4398 | <time>2012-07-13T12:37:38Z</time>
|
|---|
| 4399 | </trkpt>
|
|---|
| 4400 | <trkpt lat="43.6072879" lon="1.4283961">
|
|---|
| 4401 | <time>2012-07-13T12:37:40Z</time>
|
|---|
| 4402 | </trkpt>
|
|---|
| 4403 | <trkpt lat="43.6073376" lon="1.4284102">
|
|---|
| 4404 | <time>2012-07-13T12:37:42Z</time>
|
|---|
| 4405 | </trkpt>
|
|---|
| 4406 | <trkpt lat="43.6073526" lon="1.4284116">
|
|---|
| 4407 | <time>2012-07-13T12:37:43Z</time>
|
|---|
| 4408 | </trkpt>
|
|---|
| 4409 | <trkpt lat="43.6073761" lon="1.4284301">
|
|---|
| 4410 | <time>2012-07-13T12:37:45Z</time>
|
|---|
| 4411 | </trkpt>
|
|---|
| 4412 | <trkpt lat="43.6073995" lon="1.4284368">
|
|---|
| 4413 | <time>2012-07-13T12:37:46Z</time>
|
|---|
| 4414 | </trkpt>
|
|---|
| 4415 | <trkpt lat="43.6074361" lon="1.4284332">
|
|---|
| 4416 | <time>2012-07-13T12:37:48Z</time>
|
|---|
| 4417 | </trkpt>
|
|---|
| 4418 | <trkpt lat="43.6074455" lon="1.4284223">
|
|---|
| 4419 | <time>2012-07-13T12:37:50Z</time>
|
|---|
| 4420 | </trkpt>
|
|---|
| 4421 | <trkpt lat="43.607453" lon="1.4284214">
|
|---|
| 4422 | <time>2012-07-13T12:37:51Z</time>
|
|---|
| 4423 | </trkpt>
|
|---|
| 4424 | <trkpt lat="43.6074532" lon="1.4284108">
|
|---|
| 4425 | <time>2012-07-13T12:37:53Z</time>
|
|---|
| 4426 | </trkpt>
|
|---|
| 4427 | <trkpt lat="43.6074659" lon="1.4284079">
|
|---|
| 4428 | <time>2012-07-13T12:37:54Z</time>
|
|---|
| 4429 | </trkpt>
|
|---|
| 4430 | <trkpt lat="43.6074742" lon="1.4284033">
|
|---|
| 4431 | <time>2012-07-13T12:37:55Z</time>
|
|---|
| 4432 | </trkpt>
|
|---|
| 4433 | <trkpt lat="43.6074741" lon="1.4283983">
|
|---|
| 4434 | <time>2012-07-13T12:37:57Z</time>
|
|---|
| 4435 | </trkpt>
|
|---|
| 4436 | <trkpt lat="43.607477" lon="1.4284046">
|
|---|
| 4437 | <time>2012-07-13T12:37:59Z</time>
|
|---|
| 4438 | </trkpt>
|
|---|
| 4439 | <trkpt lat="43.6074764" lon="1.4284082">
|
|---|
| 4440 | <time>2012-07-13T12:38:01Z</time>
|
|---|
| 4441 | </trkpt>
|
|---|
| 4442 | <trkpt lat="43.6074784" lon="1.4284068">
|
|---|
| 4443 | <time>2012-07-13T12:38:02Z</time>
|
|---|
| 4444 | </trkpt>
|
|---|
| 4445 | <trkpt lat="43.6074816" lon="1.4284105">
|
|---|
| 4446 | <time>2012-07-13T12:38:04Z</time>
|
|---|
| 4447 | </trkpt>
|
|---|
| 4448 | <trkpt lat="43.6074808" lon="1.4284135">
|
|---|
| 4449 | <time>2012-07-13T12:38:05Z</time>
|
|---|
| 4450 | </trkpt>
|
|---|
| 4451 | <trkpt lat="43.6074804" lon="1.4284138">
|
|---|
| 4452 | <time>2012-07-13T12:38:07Z</time>
|
|---|
| 4453 | </trkpt>
|
|---|
| 4454 | <trkpt lat="43.6074798" lon="1.4284153">
|
|---|
| 4455 | <time>2012-07-13T12:38:08Z</time>
|
|---|
| 4456 | </trkpt>
|
|---|
| 4457 | <trkpt lat="43.6074794" lon="1.4284148">
|
|---|
| 4458 | <time>2012-07-13T12:38:10Z</time>
|
|---|
| 4459 | </trkpt>
|
|---|
| 4460 | <trkpt lat="43.6074792" lon="1.4284153">
|
|---|
| 4461 | <time>2012-07-13T12:38:11Z</time>
|
|---|
| 4462 | </trkpt>
|
|---|
| 4463 | <trkpt lat="43.6074786" lon="1.428414">
|
|---|
| 4464 | <time>2012-07-13T12:38:13Z</time>
|
|---|
| 4465 | </trkpt>
|
|---|
| 4466 | <trkpt lat="43.6074785" lon="1.4284142">
|
|---|
| 4467 | <time>2012-07-13T12:38:14Z</time>
|
|---|
| 4468 | </trkpt>
|
|---|
| 4469 | <trkpt lat="43.6074782" lon="1.4284137">
|
|---|
| 4470 | <time>2012-07-13T12:38:16Z</time>
|
|---|
| 4471 | </trkpt>
|
|---|
| 4472 | <trkpt lat="43.6074781" lon="1.4284135">
|
|---|
| 4473 | <time>2012-07-13T12:38:17Z</time>
|
|---|
| 4474 | </trkpt>
|
|---|
| 4475 | <trkpt lat="43.607478" lon="1.4284137">
|
|---|
| 4476 | <time>2012-07-13T12:38:19Z</time>
|
|---|
| 4477 | </trkpt>
|
|---|
| 4478 | <trkpt lat="43.607478" lon="1.4284139">
|
|---|
| 4479 | <time>2012-07-13T12:38:20Z</time>
|
|---|
| 4480 | </trkpt>
|
|---|
| 4481 | <trkpt lat="43.6074779" lon="1.428415">
|
|---|
| 4482 | <time>2012-07-13T12:38:22Z</time>
|
|---|
| 4483 | </trkpt>
|
|---|
| 4484 | <trkpt lat="43.6074776" lon="1.4284154">
|
|---|
| 4485 | <time>2012-07-13T12:38:23Z</time>
|
|---|
| 4486 | </trkpt>
|
|---|
| 4487 | <trkpt lat="43.6074778" lon="1.4284147">
|
|---|
| 4488 | <time>2012-07-13T12:38:25Z</time>
|
|---|
| 4489 | </trkpt>
|
|---|
| 4490 | <trkpt lat="43.6074778" lon="1.428415">
|
|---|
| 4491 | <time>2012-07-13T12:38:26Z</time>
|
|---|
| 4492 | </trkpt>
|
|---|
| 4493 | <trkpt lat="43.607478" lon="1.428415">
|
|---|
| 4494 | <time>2012-07-13T12:38:27Z</time>
|
|---|
| 4495 | </trkpt>
|
|---|
| 4496 | <trkpt lat="43.6074783" lon="1.4284137">
|
|---|
| 4497 | <time>2012-07-13T12:38:29Z</time>
|
|---|
| 4498 | </trkpt>
|
|---|
| 4499 | <trkpt lat="43.6074781" lon="1.4284145">
|
|---|
| 4500 | <time>2012-07-13T12:38:30Z</time>
|
|---|
| 4501 | </trkpt>
|
|---|
| 4502 | <trkpt lat="43.6074781" lon="1.4284143">
|
|---|
| 4503 | <time>2012-07-13T12:38:31Z</time>
|
|---|
| 4504 | </trkpt>
|
|---|
| 4505 | <trkpt lat="43.6074783" lon="1.428413">
|
|---|
| 4506 | <time>2012-07-13T12:38:33Z</time>
|
|---|
| 4507 | </trkpt>
|
|---|
| 4508 | <trkpt lat="43.607487" lon="1.4284136">
|
|---|
| 4509 | <time>2012-07-13T12:38:35Z</time>
|
|---|
| 4510 | </trkpt>
|
|---|
| 4511 | <trkpt lat="43.6074928" lon="1.4284247">
|
|---|
| 4512 | <time>2012-07-13T12:38:36Z</time>
|
|---|
| 4513 | </trkpt>
|
|---|
| 4514 | <trkpt lat="43.6075063" lon="1.4284149">
|
|---|
| 4515 | <time>2012-07-13T12:38:37Z</time>
|
|---|
| 4516 | </trkpt>
|
|---|
| 4517 | <trkpt lat="43.6075108" lon="1.4283754">
|
|---|
| 4518 | <time>2012-07-13T12:38:39Z</time>
|
|---|
| 4519 | </trkpt>
|
|---|
| 4520 | <trkpt lat="43.6075149" lon="1.4283728">
|
|---|
| 4521 | <time>2012-07-13T12:38:40Z</time>
|
|---|
| 4522 | </trkpt>
|
|---|
| 4523 | <trkpt lat="43.6075504" lon="1.4283938">
|
|---|
| 4524 | <time>2012-07-13T12:38:42Z</time>
|
|---|
| 4525 | </trkpt>
|
|---|
| 4526 | <trkpt lat="43.6075684" lon="1.4283434">
|
|---|
| 4527 | <time>2012-07-13T12:38:43Z</time>
|
|---|
| 4528 | </trkpt>
|
|---|
| 4529 | <trkpt lat="43.6075904" lon="1.428246">
|
|---|
| 4530 | <time>2012-07-13T12:38:45Z</time>
|
|---|
| 4531 | </trkpt>
|
|---|
| 4532 | <trkpt lat="43.6075654" lon="1.4281988">
|
|---|
| 4533 | <time>2012-07-13T12:38:47Z</time>
|
|---|
| 4534 | </trkpt>
|
|---|
| 4535 | <trkpt lat="43.6075638" lon="1.428164">
|
|---|
| 4536 | <time>2012-07-13T12:38:48Z</time>
|
|---|
| 4537 | </trkpt>
|
|---|
| 4538 | <trkpt lat="43.6075722" lon="1.4281394">
|
|---|
| 4539 | <time>2012-07-13T12:38:49Z</time>
|
|---|
| 4540 | </trkpt>
|
|---|
| 4541 | <trkpt lat="43.6075735" lon="1.4280836">
|
|---|
| 4542 | <time>2012-07-13T12:38:51Z</time>
|
|---|
| 4543 | </trkpt>
|
|---|
| 4544 | <trkpt lat="43.6075752" lon="1.4280223">
|
|---|
| 4545 | <time>2012-07-13T12:38:53Z</time>
|
|---|
| 4546 | </trkpt>
|
|---|
| 4547 | <trkpt lat="43.6075792" lon="1.4279764">
|
|---|
| 4548 | <time>2012-07-13T12:38:55Z</time>
|
|---|
| 4549 | </trkpt>
|
|---|
| 4550 | <trkpt lat="43.607587" lon="1.427958">
|
|---|
| 4551 | <time>2012-07-13T12:38:57Z</time>
|
|---|
| 4552 | </trkpt>
|
|---|
| 4553 | <trkpt lat="43.6075891" lon="1.4279445">
|
|---|
| 4554 | <time>2012-07-13T12:38:58Z</time>
|
|---|
| 4555 | </trkpt>
|
|---|
| 4556 | <trkpt lat="43.6075818" lon="1.4279023">
|
|---|
| 4557 | <time>2012-07-13T12:39:00Z</time>
|
|---|
| 4558 | </trkpt>
|
|---|
| 4559 | <trkpt lat="43.6076073" lon="1.4278781">
|
|---|
| 4560 | <time>2012-07-13T12:39:02Z</time>
|
|---|
| 4561 | </trkpt>
|
|---|
| 4562 | <trkpt lat="43.6076165" lon="1.4278547">
|
|---|
| 4563 | <time>2012-07-13T12:39:03Z</time>
|
|---|
| 4564 | </trkpt>
|
|---|
| 4565 | <trkpt lat="43.6076343" lon="1.4278231">
|
|---|
| 4566 | <time>2012-07-13T12:39:04Z</time>
|
|---|
| 4567 | </trkpt>
|
|---|
| 4568 | <trkpt lat="43.6076425" lon="1.427794">
|
|---|
| 4569 | <time>2012-07-13T12:39:05Z</time>
|
|---|
| 4570 | </trkpt>
|
|---|
| 4571 | <trkpt lat="43.6076828" lon="1.4277542">
|
|---|
| 4572 | <time>2012-07-13T12:39:07Z</time>
|
|---|
| 4573 | </trkpt>
|
|---|
| 4574 | <trkpt lat="43.6077194" lon="1.4277015">
|
|---|
| 4575 | <time>2012-07-13T12:39:09Z</time>
|
|---|
| 4576 | </trkpt>
|
|---|
| 4577 | <trkpt lat="43.6077357" lon="1.4276875">
|
|---|
| 4578 | <time>2012-07-13T12:39:10Z</time>
|
|---|
| 4579 | </trkpt>
|
|---|
| 4580 | <trkpt lat="43.6077518" lon="1.4276398">
|
|---|
| 4581 | <time>2012-07-13T12:39:12Z</time>
|
|---|
| 4582 | </trkpt>
|
|---|
| 4583 | <trkpt lat="43.6077584" lon="1.427626">
|
|---|
| 4584 | <time>2012-07-13T12:39:13Z</time>
|
|---|
| 4585 | </trkpt>
|
|---|
| 4586 | <trkpt lat="43.6077661" lon="1.4276116">
|
|---|
| 4587 | <time>2012-07-13T12:39:15Z</time>
|
|---|
| 4588 | </trkpt>
|
|---|
| 4589 | <trkpt lat="43.6077814" lon="1.4275266">
|
|---|
| 4590 | <time>2012-07-13T12:39:17Z</time>
|
|---|
| 4591 | </trkpt>
|
|---|
| 4592 | <trkpt lat="43.6078084" lon="1.4274984">
|
|---|
| 4593 | <time>2012-07-13T12:39:18Z</time>
|
|---|
| 4594 | </trkpt>
|
|---|
| 4595 | <trkpt lat="43.6078276" lon="1.4274524">
|
|---|
| 4596 | <time>2012-07-13T12:39:20Z</time>
|
|---|
| 4597 | </trkpt>
|
|---|
| 4598 | <trkpt lat="43.6078326" lon="1.4274091">
|
|---|
| 4599 | <time>2012-07-13T12:39:22Z</time>
|
|---|
| 4600 | </trkpt>
|
|---|
| 4601 | <trkpt lat="43.6078416" lon="1.4273694">
|
|---|
| 4602 | <time>2012-07-13T12:39:24Z</time>
|
|---|
| 4603 | </trkpt>
|
|---|
| 4604 | <trkpt lat="43.607862" lon="1.4273689">
|
|---|
| 4605 | <time>2012-07-13T12:39:25Z</time>
|
|---|
| 4606 | </trkpt>
|
|---|
| 4607 | <trkpt lat="43.607872" lon="1.4273222">
|
|---|
| 4608 | <time>2012-07-13T12:39:27Z</time>
|
|---|
| 4609 | </trkpt>
|
|---|
| 4610 | <trkpt lat="43.607888" lon="1.4272939">
|
|---|
| 4611 | <time>2012-07-13T12:39:28Z</time>
|
|---|
| 4612 | </trkpt>
|
|---|
| 4613 | <trkpt lat="43.6078972" lon="1.4272471">
|
|---|
| 4614 | <time>2012-07-13T12:39:30Z</time>
|
|---|
| 4615 | </trkpt>
|
|---|
| 4616 | <trkpt lat="43.6079048" lon="1.4272406">
|
|---|
| 4617 | <time>2012-07-13T12:39:31Z</time>
|
|---|
| 4618 | </trkpt>
|
|---|
| 4619 | <trkpt lat="43.6079161" lon="1.427239">
|
|---|
| 4620 | <time>2012-07-13T12:39:32Z</time>
|
|---|
| 4621 | </trkpt>
|
|---|
| 4622 | <trkpt lat="43.6079109" lon="1.4272308">
|
|---|
| 4623 | <time>2012-07-13T12:39:33Z</time>
|
|---|
| 4624 | </trkpt>
|
|---|
| 4625 | <trkpt lat="43.6079156" lon="1.4272522">
|
|---|
| 4626 | <time>2012-07-13T12:39:34Z</time>
|
|---|
| 4627 | </trkpt>
|
|---|
| 4628 | <trkpt lat="43.6079153" lon="1.4272272">
|
|---|
| 4629 | <time>2012-07-13T12:39:36Z</time>
|
|---|
| 4630 | </trkpt>
|
|---|
| 4631 | <trkpt lat="43.6079166" lon="1.4272105">
|
|---|
| 4632 | <time>2012-07-13T12:39:38Z</time>
|
|---|
| 4633 | </trkpt>
|
|---|
| 4634 | <trkpt lat="43.6079305" lon="1.4271878">
|
|---|
| 4635 | <time>2012-07-13T12:39:39Z</time>
|
|---|
| 4636 | </trkpt>
|
|---|
| 4637 | <trkpt lat="43.6079262" lon="1.4271489">
|
|---|
| 4638 | <time>2012-07-13T12:39:40Z</time>
|
|---|
| 4639 | </trkpt>
|
|---|
| 4640 | <trkpt lat="43.6079511" lon="1.4271174">
|
|---|
| 4641 | <time>2012-07-13T12:39:42Z</time>
|
|---|
| 4642 | </trkpt>
|
|---|
| 4643 | <trkpt lat="43.6079427" lon="1.4270576">
|
|---|
| 4644 | <time>2012-07-13T12:39:44Z</time>
|
|---|
| 4645 | </trkpt>
|
|---|
| 4646 | <trkpt lat="43.6079586" lon="1.4270329">
|
|---|
| 4647 | <time>2012-07-13T12:39:45Z</time>
|
|---|
| 4648 | </trkpt>
|
|---|
| 4649 | <trkpt lat="43.6079712" lon="1.4269744">
|
|---|
| 4650 | <time>2012-07-13T12:39:47Z</time>
|
|---|
| 4651 | </trkpt>
|
|---|
| 4652 | <trkpt lat="43.6079862" lon="1.4269383">
|
|---|
| 4653 | <time>2012-07-13T12:39:48Z</time>
|
|---|
| 4654 | </trkpt>
|
|---|
| 4655 | <trkpt lat="43.6079905" lon="1.4268519">
|
|---|
| 4656 | <time>2012-07-13T12:39:50Z</time>
|
|---|
| 4657 | </trkpt>
|
|---|
| 4658 | <trkpt lat="43.6079988" lon="1.4267787">
|
|---|
| 4659 | <time>2012-07-13T12:39:52Z</time>
|
|---|
| 4660 | </trkpt>
|
|---|
| 4661 | <trkpt lat="43.608025" lon="1.4267416">
|
|---|
| 4662 | <time>2012-07-13T12:39:53Z</time>
|
|---|
| 4663 | </trkpt>
|
|---|
| 4664 | <trkpt lat="43.6080822" lon="1.4267139">
|
|---|
| 4665 | <time>2012-07-13T12:39:55Z</time>
|
|---|
| 4666 | </trkpt>
|
|---|
| 4667 | <trkpt lat="43.6081297" lon="1.4266237">
|
|---|
| 4668 | <time>2012-07-13T12:39:57Z</time>
|
|---|
| 4669 | </trkpt>
|
|---|
| 4670 | <trkpt lat="43.6081585" lon="1.4265298">
|
|---|
| 4671 | <time>2012-07-13T12:39:59Z</time>
|
|---|
| 4672 | </trkpt>
|
|---|
| 4673 | <trkpt lat="43.6081666" lon="1.4265007">
|
|---|
| 4674 | <time>2012-07-13T12:40:00Z</time>
|
|---|
| 4675 | </trkpt>
|
|---|
| 4676 | <trkpt lat="43.6082077" lon="1.4264273">
|
|---|
| 4677 | <time>2012-07-13T12:40:02Z</time>
|
|---|
| 4678 | </trkpt>
|
|---|
| 4679 | <trkpt lat="43.6082234" lon="1.4263624">
|
|---|
| 4680 | <time>2012-07-13T12:40:03Z</time>
|
|---|
| 4681 | </trkpt>
|
|---|
| 4682 | <trkpt lat="43.608251" lon="1.4262909">
|
|---|
| 4683 | <time>2012-07-13T12:40:05Z</time>
|
|---|
| 4684 | </trkpt>
|
|---|
| 4685 | <trkpt lat="43.6082685" lon="1.4262046">
|
|---|
| 4686 | <time>2012-07-13T12:40:07Z</time>
|
|---|
| 4687 | </trkpt>
|
|---|
| 4688 | <trkpt lat="43.6082813" lon="1.4261084">
|
|---|
| 4689 | <time>2012-07-13T12:40:09Z</time>
|
|---|
| 4690 | </trkpt>
|
|---|
| 4691 | <trkpt lat="43.6083307" lon="1.4259785">
|
|---|
| 4692 | <time>2012-07-13T12:40:11Z</time>
|
|---|
| 4693 | </trkpt>
|
|---|
| 4694 | <trkpt lat="43.6083599" lon="1.4259363">
|
|---|
| 4695 | <time>2012-07-13T12:40:12Z</time>
|
|---|
| 4696 | </trkpt>
|
|---|
| 4697 | <trkpt lat="43.6083864" lon="1.425858">
|
|---|
| 4698 | <time>2012-07-13T12:40:14Z</time>
|
|---|
| 4699 | </trkpt>
|
|---|
| 4700 | <trkpt lat="43.6083991" lon="1.4258063">
|
|---|
| 4701 | <time>2012-07-13T12:40:15Z</time>
|
|---|
| 4702 | </trkpt>
|
|---|
| 4703 | <trkpt lat="43.6084326" lon="1.4257184">
|
|---|
| 4704 | <time>2012-07-13T12:40:17Z</time>
|
|---|
| 4705 | </trkpt>
|
|---|
| 4706 | <trkpt lat="43.6084544" lon="1.425693">
|
|---|
| 4707 | <time>2012-07-13T12:40:18Z</time>
|
|---|
| 4708 | </trkpt>
|
|---|
| 4709 | <trkpt lat="43.6084889" lon="1.4256193">
|
|---|
| 4710 | <time>2012-07-13T12:40:20Z</time>
|
|---|
| 4711 | </trkpt>
|
|---|
| 4712 | <trkpt lat="43.6085125" lon="1.4255773">
|
|---|
| 4713 | <time>2012-07-13T12:40:21Z</time>
|
|---|
| 4714 | </trkpt>
|
|---|
| 4715 | <trkpt lat="43.6085437" lon="1.425509">
|
|---|
| 4716 | <time>2012-07-13T12:40:23Z</time>
|
|---|
| 4717 | </trkpt>
|
|---|
| 4718 | <trkpt lat="43.6085802" lon="1.4254256">
|
|---|
| 4719 | <time>2012-07-13T12:40:25Z</time>
|
|---|
| 4720 | </trkpt>
|
|---|
| 4721 | </trkseg>
|
|---|
| 4722 | </trk>
|
|---|
| 4723 | <trk>
|
|---|
| 4724 | <trkseg>
|
|---|
| 4725 | <trkpt lat="43.6060626" lon="1.4305092">
|
|---|
| 4726 | <time>2012-07-13T12:35:54Z</time>
|
|---|
| 4727 | </trkpt>
|
|---|
| 4728 | <trkpt lat="43.6060686" lon="1.4304694">
|
|---|
| 4729 | <time>2012-07-13T12:35:55Z</time>
|
|---|
| 4730 | </trkpt>
|
|---|
| 4731 | <trkpt lat="43.6060841" lon="1.4304332">
|
|---|
| 4732 | <time>2012-07-13T12:35:56Z</time>
|
|---|
| 4733 | </trkpt>
|
|---|
| 4734 | <trkpt lat="43.6060903" lon="1.4303967">
|
|---|
| 4735 | <time>2012-07-13T12:35:57Z</time>
|
|---|
| 4736 | </trkpt>
|
|---|
| 4737 | <trkpt lat="43.6061098" lon="1.4303534">
|
|---|
| 4738 | <time>2012-07-13T12:35:58Z</time>
|
|---|
| 4739 | </trkpt>
|
|---|
| 4740 | <trkpt lat="43.6061217" lon="1.4303246">
|
|---|
| 4741 | <time>2012-07-13T12:35:59Z</time>
|
|---|
| 4742 | </trkpt>
|
|---|
| 4743 | <trkpt lat="43.6061374" lon="1.4303135">
|
|---|
| 4744 | <time>2012-07-13T12:36:00Z</time>
|
|---|
| 4745 | </trkpt>
|
|---|
| 4746 | <trkpt lat="43.6061524" lon="1.4303041">
|
|---|
| 4747 | <time>2012-07-13T12:36:01Z</time>
|
|---|
| 4748 | </trkpt>
|
|---|
| 4749 | <trkpt lat="43.6061609" lon="1.4303078">
|
|---|
| 4750 | <time>2012-07-13T12:36:02Z</time>
|
|---|
| 4751 | </trkpt>
|
|---|
| 4752 | <trkpt lat="43.6061697" lon="1.4302966">
|
|---|
| 4753 | <time>2012-07-13T12:36:03Z</time>
|
|---|
| 4754 | </trkpt>
|
|---|
| 4755 | <trkpt lat="43.6061773" lon="1.4302726">
|
|---|
| 4756 | <time>2012-07-13T12:36:04Z</time>
|
|---|
| 4757 | </trkpt>
|
|---|
| 4758 | <trkpt lat="43.6061885" lon="1.430255">
|
|---|
| 4759 | <time>2012-07-13T12:36:05Z</time>
|
|---|
| 4760 | </trkpt>
|
|---|
| 4761 | <trkpt lat="43.6062015" lon="1.4302388">
|
|---|
| 4762 | <time>2012-07-13T12:36:06Z</time>
|
|---|
| 4763 | </trkpt>
|
|---|
| 4764 | <trkpt lat="43.606212" lon="1.4302154">
|
|---|
| 4765 | <time>2012-07-13T12:36:07Z</time>
|
|---|
| 4766 | </trkpt>
|
|---|
| 4767 | <trkpt lat="43.6062252" lon="1.4301844">
|
|---|
| 4768 | <time>2012-07-13T12:36:08Z</time>
|
|---|
| 4769 | </trkpt>
|
|---|
| 4770 | <trkpt lat="43.6062413" lon="1.4301465">
|
|---|
| 4771 | <time>2012-07-13T12:36:09Z</time>
|
|---|
| 4772 | </trkpt>
|
|---|
| 4773 | <trkpt lat="43.6062577" lon="1.4301242">
|
|---|
| 4774 | <time>2012-07-13T12:36:10Z</time>
|
|---|
| 4775 | </trkpt>
|
|---|
| 4776 | <trkpt lat="43.6062791" lon="1.4300937">
|
|---|
| 4777 | <time>2012-07-13T12:36:11Z</time>
|
|---|
| 4778 | </trkpt>
|
|---|
| 4779 | <trkpt lat="43.6062884" lon="1.4300458">
|
|---|
| 4780 | <time>2012-07-13T12:36:12Z</time>
|
|---|
| 4781 | </trkpt>
|
|---|
| 4782 | <trkpt lat="43.6063149" lon="1.4300163">
|
|---|
| 4783 | <time>2012-07-13T12:36:13Z</time>
|
|---|
| 4784 | </trkpt>
|
|---|
| 4785 | <trkpt lat="43.606314" lon="1.4299631">
|
|---|
| 4786 | <time>2012-07-13T12:36:14Z</time>
|
|---|
| 4787 | </trkpt>
|
|---|
| 4788 | <trkpt lat="43.6063246" lon="1.4299195">
|
|---|
| 4789 | <time>2012-07-13T12:36:15Z</time>
|
|---|
| 4790 | </trkpt>
|
|---|
| 4791 | <trkpt lat="43.6063453" lon="1.4298735">
|
|---|
| 4792 | <time>2012-07-13T12:36:16Z</time>
|
|---|
| 4793 | </trkpt>
|
|---|
| 4794 | <trkpt lat="43.6063538" lon="1.4298312">
|
|---|
| 4795 | <time>2012-07-13T12:36:17Z</time>
|
|---|
| 4796 | </trkpt>
|
|---|
| 4797 | <trkpt lat="43.6063297" lon="1.429767">
|
|---|
| 4798 | <time>2012-07-13T12:36:18Z</time>
|
|---|
| 4799 | </trkpt>
|
|---|
| 4800 | <trkpt lat="43.6063339" lon="1.4297394">
|
|---|
| 4801 | <time>2012-07-13T12:36:19Z</time>
|
|---|
| 4802 | </trkpt>
|
|---|
| 4803 | <trkpt lat="43.606352" lon="1.4296854">
|
|---|
| 4804 | <time>2012-07-13T12:36:20Z</time>
|
|---|
| 4805 | </trkpt>
|
|---|
| 4806 | <trkpt lat="43.6063768" lon="1.4296269">
|
|---|
| 4807 | <time>2012-07-13T12:36:21Z</time>
|
|---|
| 4808 | </trkpt>
|
|---|
| 4809 | <trkpt lat="43.6063929" lon="1.4295738">
|
|---|
| 4810 | <time>2012-07-13T12:36:22Z</time>
|
|---|
| 4811 | </trkpt>
|
|---|
| 4812 | <trkpt lat="43.6064098" lon="1.4295415">
|
|---|
| 4813 | <time>2012-07-13T12:36:23Z</time>
|
|---|
| 4814 | </trkpt>
|
|---|
| 4815 | <trkpt lat="43.606428" lon="1.4295104">
|
|---|
| 4816 | <time>2012-07-13T12:36:24Z</time>
|
|---|
| 4817 | </trkpt>
|
|---|
| 4818 | <trkpt lat="43.6064307" lon="1.429481">
|
|---|
| 4819 | <time>2012-07-13T12:36:25Z</time>
|
|---|
| 4820 | </trkpt>
|
|---|
| 4821 | <trkpt lat="43.6064434" lon="1.4294629">
|
|---|
| 4822 | <time>2012-07-13T12:36:26Z</time>
|
|---|
| 4823 | </trkpt>
|
|---|
| 4824 | <trkpt lat="43.6064518" lon="1.4294403">
|
|---|
| 4825 | <time>2012-07-13T12:36:27Z</time>
|
|---|
| 4826 | </trkpt>
|
|---|
| 4827 | <trkpt lat="43.6064778" lon="1.4294206">
|
|---|
| 4828 | <time>2012-07-13T12:36:28Z</time>
|
|---|
| 4829 | </trkpt>
|
|---|
| 4830 | <trkpt lat="43.6065075" lon="1.4293767">
|
|---|
| 4831 | <time>2012-07-13T12:36:29Z</time>
|
|---|
| 4832 | </trkpt>
|
|---|
| 4833 | <trkpt lat="43.6065188" lon="1.4293324">
|
|---|
| 4834 | <time>2012-07-13T12:36:30Z</time>
|
|---|
| 4835 | </trkpt>
|
|---|
| 4836 | <trkpt lat="43.6065362" lon="1.4293047">
|
|---|
| 4837 | <time>2012-07-13T12:36:31Z</time>
|
|---|
| 4838 | </trkpt>
|
|---|
| 4839 | <trkpt lat="43.6065483" lon="1.4292668">
|
|---|
| 4840 | <time>2012-07-13T12:36:32Z</time>
|
|---|
| 4841 | </trkpt>
|
|---|
| 4842 | <trkpt lat="43.6065654" lon="1.4292251">
|
|---|
| 4843 | <time>2012-07-13T12:36:33Z</time>
|
|---|
| 4844 | </trkpt>
|
|---|
| 4845 | <trkpt lat="43.6065816" lon="1.4291821">
|
|---|
| 4846 | <time>2012-07-13T12:36:34Z</time>
|
|---|
| 4847 | </trkpt>
|
|---|
| 4848 | <trkpt lat="43.6066083" lon="1.4291499">
|
|---|
| 4849 | <time>2012-07-13T12:36:35Z</time>
|
|---|
| 4850 | </trkpt>
|
|---|
| 4851 | <trkpt lat="43.6066321" lon="1.429135">
|
|---|
| 4852 | <time>2012-07-13T12:36:36Z</time>
|
|---|
| 4853 | </trkpt>
|
|---|
| 4854 | <trkpt lat="43.6066576" lon="1.4290532">
|
|---|
| 4855 | <time>2012-07-13T12:36:39Z</time>
|
|---|
| 4856 | </trkpt>
|
|---|
| 4857 | <trkpt lat="43.6066734" lon="1.4289527">
|
|---|
| 4858 | <time>2012-07-13T12:36:41Z</time>
|
|---|
| 4859 | </trkpt>
|
|---|
| 4860 | <trkpt lat="43.6066666" lon="1.4289023">
|
|---|
| 4861 | <time>2012-07-13T12:36:42Z</time>
|
|---|
| 4862 | </trkpt>
|
|---|
| 4863 | <trkpt lat="43.6066753" lon="1.4288699">
|
|---|
| 4864 | <time>2012-07-13T12:36:43Z</time>
|
|---|
| 4865 | </trkpt>
|
|---|
| 4866 | <trkpt lat="43.6066736" lon="1.4288144">
|
|---|
| 4867 | <time>2012-07-13T12:36:44Z</time>
|
|---|
| 4868 | </trkpt>
|
|---|
| 4869 | <trkpt lat="43.6066868" lon="1.4287731">
|
|---|
| 4870 | <time>2012-07-13T12:36:45Z</time>
|
|---|
| 4871 | </trkpt>
|
|---|
| 4872 | <trkpt lat="43.606711" lon="1.4287491">
|
|---|
| 4873 | <time>2012-07-13T12:36:46Z</time>
|
|---|
| 4874 | </trkpt>
|
|---|
| 4875 | <trkpt lat="43.606723" lon="1.4287169">
|
|---|
| 4876 | <time>2012-07-13T12:36:47Z</time>
|
|---|
| 4877 | </trkpt>
|
|---|
| 4878 | <trkpt lat="43.6067263" lon="1.4286852">
|
|---|
| 4879 | <time>2012-07-13T12:36:48Z</time>
|
|---|
| 4880 | </trkpt>
|
|---|
| 4881 | <trkpt lat="43.6067314" lon="1.4286679">
|
|---|
| 4882 | <time>2012-07-13T12:36:49Z</time>
|
|---|
| 4883 | </trkpt>
|
|---|
| 4884 | <trkpt lat="43.6067308" lon="1.4286397">
|
|---|
| 4885 | <time>2012-07-13T12:36:50Z</time>
|
|---|
| 4886 | </trkpt>
|
|---|
| 4887 | <trkpt lat="43.606766" lon="1.4286276">
|
|---|
| 4888 | <time>2012-07-13T12:36:51Z</time>
|
|---|
| 4889 | </trkpt>
|
|---|
| 4890 | <trkpt lat="43.6067937" lon="1.4285904">
|
|---|
| 4891 | <time>2012-07-13T12:36:52Z</time>
|
|---|
| 4892 | </trkpt>
|
|---|
| 4893 | <trkpt lat="43.6068123" lon="1.4285737">
|
|---|
| 4894 | <time>2012-07-13T12:36:53Z</time>
|
|---|
| 4895 | </trkpt>
|
|---|
| 4896 | <trkpt lat="43.606819" lon="1.4285592">
|
|---|
| 4897 | <time>2012-07-13T12:36:54Z</time>
|
|---|
| 4898 | </trkpt>
|
|---|
| 4899 | <trkpt lat="43.6068151" lon="1.4285383">
|
|---|
| 4900 | <time>2012-07-13T12:36:55Z</time>
|
|---|
| 4901 | </trkpt>
|
|---|
| 4902 | <trkpt lat="43.6068185" lon="1.4285165">
|
|---|
| 4903 | <time>2012-07-13T12:36:56Z</time>
|
|---|
| 4904 | </trkpt>
|
|---|
| 4905 | <trkpt lat="43.606846" lon="1.4285165">
|
|---|
| 4906 | <time>2012-07-13T12:36:57Z</time>
|
|---|
| 4907 | </trkpt>
|
|---|
| 4908 | <trkpt lat="43.6068526" lon="1.4284953">
|
|---|
| 4909 | <time>2012-07-13T12:36:58Z</time>
|
|---|
| 4910 | </trkpt>
|
|---|
| 4911 | <trkpt lat="43.6068556" lon="1.4284704">
|
|---|
| 4912 | <time>2012-07-13T12:36:59Z</time>
|
|---|
| 4913 | </trkpt>
|
|---|
| 4914 | <trkpt lat="43.6068729" lon="1.4284671">
|
|---|
| 4915 | <time>2012-07-13T12:37:00Z</time>
|
|---|
| 4916 | </trkpt>
|
|---|
| 4917 | <trkpt lat="43.6068741" lon="1.4284522">
|
|---|
| 4918 | <time>2012-07-13T12:37:01Z</time>
|
|---|
| 4919 | </trkpt>
|
|---|
| 4920 | <trkpt lat="43.6068943" lon="1.4284455">
|
|---|
| 4921 | <time>2012-07-13T12:37:02Z</time>
|
|---|
| 4922 | </trkpt>
|
|---|
| 4923 | <trkpt lat="43.606871" lon="1.4283976">
|
|---|
| 4924 | <time>2012-07-13T12:37:03Z</time>
|
|---|
| 4925 | </trkpt>
|
|---|
| 4926 | <trkpt lat="43.6068892" lon="1.4283914">
|
|---|
| 4927 | <time>2012-07-13T12:37:04Z</time>
|
|---|
| 4928 | </trkpt>
|
|---|
| 4929 | <trkpt lat="43.606907" lon="1.4283887">
|
|---|
| 4930 | <time>2012-07-13T12:37:05Z</time>
|
|---|
| 4931 | </trkpt>
|
|---|
| 4932 | <trkpt lat="43.6069021" lon="1.4283718">
|
|---|
| 4933 | <time>2012-07-13T12:37:06Z</time>
|
|---|
| 4934 | </trkpt>
|
|---|
| 4935 | <trkpt lat="43.6069181" lon="1.4283694">
|
|---|
| 4936 | <time>2012-07-13T12:37:07Z</time>
|
|---|
| 4937 | </trkpt>
|
|---|
| 4938 | <trkpt lat="43.6069303" lon="1.4283645">
|
|---|
| 4939 | <time>2012-07-13T12:37:08Z</time>
|
|---|
| 4940 | </trkpt>
|
|---|
| 4941 | <trkpt lat="43.6069462" lon="1.428354">
|
|---|
| 4942 | <time>2012-07-13T12:37:09Z</time>
|
|---|
| 4943 | </trkpt>
|
|---|
| 4944 | <trkpt lat="43.6069493" lon="1.4283537">
|
|---|
| 4945 | <time>2012-07-13T12:37:10Z</time>
|
|---|
| 4946 | </trkpt>
|
|---|
| 4947 | <trkpt lat="43.6069646" lon="1.4283503">
|
|---|
| 4948 | <time>2012-07-13T12:37:11Z</time>
|
|---|
| 4949 | </trkpt>
|
|---|
| 4950 | <trkpt lat="43.6069768" lon="1.4283528">
|
|---|
| 4951 | <time>2012-07-13T12:37:12Z</time>
|
|---|
| 4952 | </trkpt>
|
|---|
| 4953 | <trkpt lat="43.6070015" lon="1.428351">
|
|---|
| 4954 | <time>2012-07-13T12:37:13Z</time>
|
|---|
| 4955 | </trkpt>
|
|---|
| 4956 | <trkpt lat="43.6070295" lon="1.4283462">
|
|---|
| 4957 | <time>2012-07-13T12:37:14Z</time>
|
|---|
| 4958 | </trkpt>
|
|---|
| 4959 | <trkpt lat="43.6070419" lon="1.4283438">
|
|---|
| 4960 | <time>2012-07-13T12:37:15Z</time>
|
|---|
| 4961 | </trkpt>
|
|---|
| 4962 | <trkpt lat="43.6070448" lon="1.4283549">
|
|---|
| 4963 | <time>2012-07-13T12:37:16Z</time>
|
|---|
| 4964 | </trkpt>
|
|---|
| 4965 | <trkpt lat="43.6070604" lon="1.428357">
|
|---|
| 4966 | <time>2012-07-13T12:37:17Z</time>
|
|---|
| 4967 | </trkpt>
|
|---|
| 4968 | <trkpt lat="43.607066" lon="1.4283484">
|
|---|
| 4969 | <time>2012-07-13T12:37:18Z</time>
|
|---|
| 4970 | </trkpt>
|
|---|
| 4971 | <trkpt lat="43.6070798" lon="1.4283511">
|
|---|
| 4972 | <time>2012-07-13T12:37:19Z</time>
|
|---|
| 4973 | </trkpt>
|
|---|
| 4974 | <trkpt lat="43.607105" lon="1.4283623">
|
|---|
| 4975 | <time>2012-07-13T12:37:20Z</time>
|
|---|
| 4976 | </trkpt>
|
|---|
| 4977 | <trkpt lat="43.6071333" lon="1.4283693">
|
|---|
| 4978 | <time>2012-07-13T12:37:21Z</time>
|
|---|
| 4979 | </trkpt>
|
|---|
| 4980 | <trkpt lat="43.6071586" lon="1.4283651">
|
|---|
| 4981 | <time>2012-07-13T12:37:22Z</time>
|
|---|
| 4982 | </trkpt>
|
|---|
| 4983 | <trkpt lat="43.6071702" lon="1.4283771">
|
|---|
| 4984 | <time>2012-07-13T12:37:23Z</time>
|
|---|
| 4985 | </trkpt>
|
|---|
| 4986 | <trkpt lat="43.6071844" lon="1.4283793">
|
|---|
| 4987 | <time>2012-07-13T12:37:24Z</time>
|
|---|
| 4988 | </trkpt>
|
|---|
| 4989 | <trkpt lat="43.6072068" lon="1.4283838">
|
|---|
| 4990 | <time>2012-07-13T12:37:25Z</time>
|
|---|
| 4991 | </trkpt>
|
|---|
| 4992 | <trkpt lat="43.607192" lon="1.428378">
|
|---|
| 4993 | <time>2012-07-13T12:37:26Z</time>
|
|---|
| 4994 | </trkpt>
|
|---|
| 4995 | <trkpt lat="43.6072003" lon="1.4283849">
|
|---|
| 4996 | <time>2012-07-13T12:37:27Z</time>
|
|---|
| 4997 | </trkpt>
|
|---|
| 4998 | <trkpt lat="43.6072109" lon="1.4283967">
|
|---|
| 4999 | <time>2012-07-13T12:37:28Z</time>
|
|---|
| 5000 | </trkpt>
|
|---|
| 5001 | <trkpt lat="43.6072194" lon="1.4284011">
|
|---|
| 5002 | <time>2012-07-13T12:37:29Z</time>
|
|---|
| 5003 | </trkpt>
|
|---|
| 5004 | <trkpt lat="43.6072215" lon="1.4284015">
|
|---|
| 5005 | <time>2012-07-13T12:37:30Z</time>
|
|---|
| 5006 | </trkpt>
|
|---|
| 5007 | <trkpt lat="43.6072205" lon="1.4284016">
|
|---|
| 5008 | <time>2012-07-13T12:37:31Z</time>
|
|---|
| 5009 | </trkpt>
|
|---|
| 5010 | <trkpt lat="43.6072214" lon="1.4284046">
|
|---|
| 5011 | <time>2012-07-13T12:37:32Z</time>
|
|---|
| 5012 | </trkpt>
|
|---|
| 5013 | <trkpt lat="43.6072209" lon="1.4284059">
|
|---|
| 5014 | <time>2012-07-13T12:37:33Z</time>
|
|---|
| 5015 | </trkpt>
|
|---|
| 5016 | <trkpt lat="43.6072216" lon="1.4284075">
|
|---|
| 5017 | <time>2012-07-13T12:37:34Z</time>
|
|---|
| 5018 | </trkpt>
|
|---|
| 5019 | <trkpt lat="43.6072214" lon="1.4284105">
|
|---|
| 5020 | <time>2012-07-13T12:37:35Z</time>
|
|---|
| 5021 | </trkpt>
|
|---|
| 5022 | <trkpt lat="43.6072172" lon="1.4284108">
|
|---|
| 5023 | <time>2012-07-13T12:37:36Z</time>
|
|---|
| 5024 | </trkpt>
|
|---|
| 5025 | <trkpt lat="43.6072128" lon="1.4284111">
|
|---|
| 5026 | <time>2012-07-13T12:37:37Z</time>
|
|---|
| 5027 | </trkpt>
|
|---|
| 5028 | <trkpt lat="43.6072187" lon="1.42841">
|
|---|
| 5029 | <time>2012-07-13T12:37:38Z</time>
|
|---|
| 5030 | </trkpt>
|
|---|
| 5031 | <trkpt lat="43.6072371" lon="1.4284032">
|
|---|
| 5032 | <time>2012-07-13T12:37:39Z</time>
|
|---|
| 5033 | </trkpt>
|
|---|
| 5034 | <trkpt lat="43.6072509" lon="1.4283997">
|
|---|
| 5035 | <time>2012-07-13T12:37:40Z</time>
|
|---|
| 5036 | </trkpt>
|
|---|
| 5037 | <trkpt lat="43.6072683" lon="1.4283947">
|
|---|
| 5038 | <time>2012-07-13T12:37:41Z</time>
|
|---|
| 5039 | </trkpt>
|
|---|
| 5040 | <trkpt lat="43.6072879" lon="1.428396">
|
|---|
| 5041 | <time>2012-07-13T12:37:42Z</time>
|
|---|
| 5042 | </trkpt>
|
|---|
| 5043 | <trkpt lat="43.6073083" lon="1.4283935">
|
|---|
| 5044 | <time>2012-07-13T12:37:43Z</time>
|
|---|
| 5045 | </trkpt>
|
|---|
| 5046 | <trkpt lat="43.6073375" lon="1.4284102">
|
|---|
| 5047 | <time>2012-07-13T12:37:44Z</time>
|
|---|
| 5048 | </trkpt>
|
|---|
| 5049 | <trkpt lat="43.6073525" lon="1.4284116">
|
|---|
| 5050 | <time>2012-07-13T12:37:45Z</time>
|
|---|
| 5051 | </trkpt>
|
|---|
| 5052 | <trkpt lat="43.607365" lon="1.4284198">
|
|---|
| 5053 | <time>2012-07-13T12:37:46Z</time>
|
|---|
| 5054 | </trkpt>
|
|---|
| 5055 | <trkpt lat="43.6073761" lon="1.42843">
|
|---|
| 5056 | <time>2012-07-13T12:37:47Z</time>
|
|---|
| 5057 | </trkpt>
|
|---|
| 5058 | <trkpt lat="43.6073994" lon="1.4284367">
|
|---|
| 5059 | <time>2012-07-13T12:37:48Z</time>
|
|---|
| 5060 | </trkpt>
|
|---|
| 5061 | <trkpt lat="43.6074192" lon="1.4284293">
|
|---|
| 5062 | <time>2012-07-13T12:37:49Z</time>
|
|---|
| 5063 | </trkpt>
|
|---|
| 5064 | <trkpt lat="43.607436" lon="1.4284331">
|
|---|
| 5065 | <time>2012-07-13T12:37:50Z</time>
|
|---|
| 5066 | </trkpt>
|
|---|
| 5067 | <trkpt lat="43.6074454" lon="1.4284224">
|
|---|
| 5068 | <time>2012-07-13T12:37:51Z</time>
|
|---|
| 5069 | </trkpt>
|
|---|
| 5070 | <trkpt lat="43.6074455" lon="1.4284222">
|
|---|
| 5071 | <time>2012-07-13T12:37:52Z</time>
|
|---|
| 5072 | </trkpt>
|
|---|
| 5073 | <trkpt lat="43.607453" lon="1.4284213">
|
|---|
| 5074 | <time>2012-07-13T12:37:53Z</time>
|
|---|
| 5075 | </trkpt>
|
|---|
| 5076 | <trkpt lat="43.6074538" lon="1.4284187">
|
|---|
| 5077 | <time>2012-07-13T12:37:54Z</time>
|
|---|
| 5078 | </trkpt>
|
|---|
| 5079 | <trkpt lat="43.6074532" lon="1.4284108">
|
|---|
| 5080 | <time>2012-07-13T12:37:55Z</time>
|
|---|
| 5081 | </trkpt>
|
|---|
| 5082 | <trkpt lat="43.6074659" lon="1.4284079">
|
|---|
| 5083 | <time>2012-07-13T12:37:56Z</time>
|
|---|
| 5084 | </trkpt>
|
|---|
| 5085 | <trkpt lat="43.6074742" lon="1.4284033">
|
|---|
| 5086 | <time>2012-07-13T12:37:57Z</time>
|
|---|
| 5087 | </trkpt>
|
|---|
| 5088 | <trkpt lat="43.6074729" lon="1.4283995">
|
|---|
| 5089 | <time>2012-07-13T12:37:58Z</time>
|
|---|
| 5090 | </trkpt>
|
|---|
| 5091 | <trkpt lat="43.6074741" lon="1.4283983">
|
|---|
| 5092 | <time>2012-07-13T12:37:59Z</time>
|
|---|
| 5093 | </trkpt>
|
|---|
| 5094 | <trkpt lat="43.6074758" lon="1.4284009">
|
|---|
| 5095 | <time>2012-07-13T12:38:00Z</time>
|
|---|
| 5096 | </trkpt>
|
|---|
| 5097 | <trkpt lat="43.607477" lon="1.4284046">
|
|---|
| 5098 | <time>2012-07-13T12:38:01Z</time>
|
|---|
| 5099 | </trkpt>
|
|---|
| 5100 | <trkpt lat="43.6074764" lon="1.4284084">
|
|---|
| 5101 | <time>2012-07-13T12:38:02Z</time>
|
|---|
| 5102 | </trkpt>
|
|---|
| 5103 | <trkpt lat="43.6074764" lon="1.4284082">
|
|---|
| 5104 | <time>2012-07-13T12:38:03Z</time>
|
|---|
| 5105 | </trkpt>
|
|---|
| 5106 | <trkpt lat="43.6074784" lon="1.4284068">
|
|---|
| 5107 | <time>2012-07-13T12:38:04Z</time>
|
|---|
| 5108 | </trkpt>
|
|---|
| 5109 | <trkpt lat="43.6074795" lon="1.4284093">
|
|---|
| 5110 | <time>2012-07-13T12:38:05Z</time>
|
|---|
| 5111 | </trkpt>
|
|---|
| 5112 | <trkpt lat="43.6074815" lon="1.4284104">
|
|---|
| 5113 | <time>2012-07-13T12:38:06Z</time>
|
|---|
| 5114 | </trkpt>
|
|---|
| 5115 | <trkpt lat="43.6074808" lon="1.4284134">
|
|---|
| 5116 | <time>2012-07-13T12:38:07Z</time>
|
|---|
| 5117 | </trkpt>
|
|---|
| 5118 | <trkpt lat="43.6074808" lon="1.4284143">
|
|---|
| 5119 | <time>2012-07-13T12:38:08Z</time>
|
|---|
| 5120 | </trkpt>
|
|---|
| 5121 | <trkpt lat="43.6074804" lon="1.4284137">
|
|---|
| 5122 | <time>2012-07-13T12:38:09Z</time>
|
|---|
| 5123 | </trkpt>
|
|---|
| 5124 | <trkpt lat="43.6074797" lon="1.4284153">
|
|---|
| 5125 | <time>2012-07-13T12:38:10Z</time>
|
|---|
| 5126 | </trkpt>
|
|---|
| 5127 | <trkpt lat="43.6074795" lon="1.4284154">
|
|---|
| 5128 | <time>2012-07-13T12:38:11Z</time>
|
|---|
| 5129 | </trkpt>
|
|---|
| 5130 | <trkpt lat="43.6074793" lon="1.4284147">
|
|---|
| 5131 | <time>2012-07-13T12:38:12Z</time>
|
|---|
| 5132 | </trkpt>
|
|---|
| 5133 | <trkpt lat="43.6074791" lon="1.4284153">
|
|---|
| 5134 | <time>2012-07-13T12:38:13Z</time>
|
|---|
| 5135 | </trkpt>
|
|---|
| 5136 | <trkpt lat="43.6074789" lon="1.4284146">
|
|---|
| 5137 | <time>2012-07-13T12:38:14Z</time>
|
|---|
| 5138 | </trkpt>
|
|---|
| 5139 | <trkpt lat="43.6074786" lon="1.4284139">
|
|---|
| 5140 | <time>2012-07-13T12:38:15Z</time>
|
|---|
| 5141 | </trkpt>
|
|---|
| 5142 | <trkpt lat="43.6074784" lon="1.4284142">
|
|---|
| 5143 | <time>2012-07-13T12:38:16Z</time>
|
|---|
| 5144 | </trkpt>
|
|---|
| 5145 | <trkpt lat="43.6074783" lon="1.428414">
|
|---|
| 5146 | <time>2012-07-13T12:38:17Z</time>
|
|---|
| 5147 | </trkpt>
|
|---|
| 5148 | <trkpt lat="43.6074782" lon="1.4284137">
|
|---|
| 5149 | <time>2012-07-13T12:38:18Z</time>
|
|---|
| 5150 | </trkpt>
|
|---|
| 5151 | <trkpt lat="43.6074781" lon="1.4284134">
|
|---|
| 5152 | <time>2012-07-13T12:38:19Z</time>
|
|---|
| 5153 | </trkpt>
|
|---|
| 5154 | <trkpt lat="43.6074781" lon="1.4284138">
|
|---|
| 5155 | <time>2012-07-13T12:38:20Z</time>
|
|---|
| 5156 | </trkpt>
|
|---|
| 5157 | <trkpt lat="43.607478" lon="1.4284136">
|
|---|
| 5158 | <time>2012-07-13T12:38:21Z</time>
|
|---|
| 5159 | </trkpt>
|
|---|
| 5160 | <trkpt lat="43.607478" lon="1.4284139">
|
|---|
| 5161 | <time>2012-07-13T12:38:22Z</time>
|
|---|
| 5162 | </trkpt>
|
|---|
| 5163 | <trkpt lat="43.6074777" lon="1.4284153">
|
|---|
| 5164 | <time>2012-07-13T12:38:23Z</time>
|
|---|
| 5165 | </trkpt>
|
|---|
| 5166 | <trkpt lat="43.6074778" lon="1.4284149">
|
|---|
| 5167 | <time>2012-07-13T12:38:24Z</time>
|
|---|
| 5168 | </trkpt>
|
|---|
| 5169 | <trkpt lat="43.6074775" lon="1.4284154">
|
|---|
| 5170 | <time>2012-07-13T12:38:25Z</time>
|
|---|
| 5171 | </trkpt>
|
|---|
| 5172 | <trkpt lat="43.6074775" lon="1.4284149">
|
|---|
| 5173 | <time>2012-07-13T12:38:26Z</time>
|
|---|
| 5174 | </trkpt>
|
|---|
| 5175 | <trkpt lat="43.6074777" lon="1.4284147">
|
|---|
| 5176 | <time>2012-07-13T12:38:27Z</time>
|
|---|
| 5177 | </trkpt>
|
|---|
| 5178 | <trkpt lat="43.6074777" lon="1.4284149">
|
|---|
| 5179 | <time>2012-07-13T12:38:28Z</time>
|
|---|
| 5180 | </trkpt>
|
|---|
| 5181 | <trkpt lat="43.6074779" lon="1.4284149">
|
|---|
| 5182 | <time>2012-07-13T12:38:29Z</time>
|
|---|
| 5183 | </trkpt>
|
|---|
| 5184 | <trkpt lat="43.6074782" lon="1.4284137">
|
|---|
| 5185 | <time>2012-07-13T12:38:30Z</time>
|
|---|
| 5186 | </trkpt>
|
|---|
| 5187 | <trkpt lat="43.6074782" lon="1.4284137">
|
|---|
| 5188 | <time>2012-07-13T12:38:31Z</time>
|
|---|
| 5189 | </trkpt>
|
|---|
| 5190 | <trkpt lat="43.6074781" lon="1.4284144">
|
|---|
| 5191 | <time>2012-07-13T12:38:32Z</time>
|
|---|
| 5192 | </trkpt>
|
|---|
| 5193 | <trkpt lat="43.607478" lon="1.4284143">
|
|---|
| 5194 | <time>2012-07-13T12:38:33Z</time>
|
|---|
| 5195 | </trkpt>
|
|---|
| 5196 | <trkpt lat="43.607478" lon="1.4284142">
|
|---|
| 5197 | <time>2012-07-13T12:38:34Z</time>
|
|---|
| 5198 | </trkpt>
|
|---|
| 5199 | <trkpt lat="43.6074782" lon="1.4284129">
|
|---|
| 5200 | <time>2012-07-13T12:38:35Z</time>
|
|---|
| 5201 | </trkpt>
|
|---|
| 5202 | <trkpt lat="43.6074835" lon="1.4284196">
|
|---|
| 5203 | <time>2012-07-13T12:38:36Z</time>
|
|---|
| 5204 | </trkpt>
|
|---|
| 5205 | <trkpt lat="43.6074869" lon="1.4284135">
|
|---|
| 5206 | <time>2012-07-13T12:38:37Z</time>
|
|---|
| 5207 | </trkpt>
|
|---|
| 5208 | <trkpt lat="43.6074928" lon="1.4284246">
|
|---|
| 5209 | <time>2012-07-13T12:38:38Z</time>
|
|---|
| 5210 | </trkpt>
|
|---|
| 5211 | <trkpt lat="43.6075062" lon="1.4284148">
|
|---|
| 5212 | <time>2012-07-13T12:38:39Z</time>
|
|---|
| 5213 | </trkpt>
|
|---|
| 5214 | <trkpt lat="43.6075114" lon="1.4283999">
|
|---|
| 5215 | <time>2012-07-13T12:38:40Z</time>
|
|---|
| 5216 | </trkpt>
|
|---|
| 5217 | <trkpt lat="43.6075108" lon="1.4283753">
|
|---|
| 5218 | <time>2012-07-13T12:38:41Z</time>
|
|---|
| 5219 | </trkpt>
|
|---|
| 5220 | <trkpt lat="43.6075148" lon="1.4283728">
|
|---|
| 5221 | <time>2012-07-13T12:38:42Z</time>
|
|---|
| 5222 | </trkpt>
|
|---|
| 5223 | <trkpt lat="43.6075316" lon="1.4283597">
|
|---|
| 5224 | <time>2012-07-13T12:38:43Z</time>
|
|---|
| 5225 | </trkpt>
|
|---|
| 5226 | <trkpt lat="43.6075504" lon="1.4283938">
|
|---|
| 5227 | <time>2012-07-13T12:38:44Z</time>
|
|---|
| 5228 | </trkpt>
|
|---|
| 5229 | <trkpt lat="43.6075683" lon="1.4283433">
|
|---|
| 5230 | <time>2012-07-13T12:38:45Z</time>
|
|---|
| 5231 | </trkpt>
|
|---|
| 5232 | <trkpt lat="43.6075723" lon="1.4282961">
|
|---|
| 5233 | <time>2012-07-13T12:38:46Z</time>
|
|---|
| 5234 | </trkpt>
|
|---|
| 5235 | <trkpt lat="43.6075904" lon="1.428246">
|
|---|
| 5236 | <time>2012-07-13T12:38:47Z</time>
|
|---|
| 5237 | </trkpt>
|
|---|
| 5238 | <trkpt lat="43.6075701" lon="1.4282319">
|
|---|
| 5239 | <time>2012-07-13T12:38:48Z</time>
|
|---|
| 5240 | </trkpt>
|
|---|
| 5241 | <trkpt lat="43.6075653" lon="1.4281987">
|
|---|
| 5242 | <time>2012-07-13T12:38:49Z</time>
|
|---|
| 5243 | </trkpt>
|
|---|
| 5244 | <trkpt lat="43.6075638" lon="1.428164">
|
|---|
| 5245 | <time>2012-07-13T12:38:50Z</time>
|
|---|
| 5246 | </trkpt>
|
|---|
| 5247 | <trkpt lat="43.6075722" lon="1.4281393">
|
|---|
| 5248 | <time>2012-07-13T12:38:51Z</time>
|
|---|
| 5249 | </trkpt>
|
|---|
| 5250 | <trkpt lat="43.6075681" lon="1.4281155">
|
|---|
| 5251 | <time>2012-07-13T12:38:52Z</time>
|
|---|
| 5252 | </trkpt>
|
|---|
| 5253 | <trkpt lat="43.6075735" lon="1.4280836">
|
|---|
| 5254 | <time>2012-07-13T12:38:53Z</time>
|
|---|
| 5255 | </trkpt>
|
|---|
| 5256 | <trkpt lat="43.6075734" lon="1.4280466">
|
|---|
| 5257 | <time>2012-07-13T12:38:54Z</time>
|
|---|
| 5258 | </trkpt>
|
|---|
| 5259 | <trkpt lat="43.6075752" lon="1.4280223">
|
|---|
| 5260 | <time>2012-07-13T12:38:55Z</time>
|
|---|
| 5261 | </trkpt>
|
|---|
| 5262 | <trkpt lat="43.6075759" lon="1.4280036">
|
|---|
| 5263 | <time>2012-07-13T12:38:56Z</time>
|
|---|
| 5264 | </trkpt>
|
|---|
| 5265 | <trkpt lat="43.6075792" lon="1.4279763">
|
|---|
| 5266 | <time>2012-07-13T12:38:57Z</time>
|
|---|
| 5267 | </trkpt>
|
|---|
| 5268 | <trkpt lat="43.6075827" lon="1.4279572">
|
|---|
| 5269 | <time>2012-07-13T12:38:58Z</time>
|
|---|
| 5270 | </trkpt>
|
|---|
| 5271 | <trkpt lat="43.6075869" lon="1.4279579">
|
|---|
| 5272 | <time>2012-07-13T12:38:59Z</time>
|
|---|
| 5273 | </trkpt>
|
|---|
| 5274 | <trkpt lat="43.6075891" lon="1.4279445">
|
|---|
| 5275 | <time>2012-07-13T12:39:00Z</time>
|
|---|
| 5276 | </trkpt>
|
|---|
| 5277 | <trkpt lat="43.6075925" lon="1.4279264">
|
|---|
| 5278 | <time>2012-07-13T12:39:01Z</time>
|
|---|
| 5279 | </trkpt>
|
|---|
| 5280 | <trkpt lat="43.6075818" lon="1.4279023">
|
|---|
| 5281 | <time>2012-07-13T12:39:02Z</time>
|
|---|
| 5282 | </trkpt>
|
|---|
| 5283 | <trkpt lat="43.6075874" lon="1.4278892">
|
|---|
| 5284 | <time>2012-07-13T12:39:03Z</time>
|
|---|
| 5285 | </trkpt>
|
|---|
| 5286 | <trkpt lat="43.6076072" lon="1.427878">
|
|---|
| 5287 | <time>2012-07-13T12:39:04Z</time>
|
|---|
| 5288 | </trkpt>
|
|---|
| 5289 | <trkpt lat="43.6076165" lon="1.4278547">
|
|---|
| 5290 | <time>2012-07-13T12:39:05Z</time>
|
|---|
| 5291 | </trkpt>
|
|---|
| 5292 | <trkpt lat="43.6076343" lon="1.4278231">
|
|---|
| 5293 | <time>2012-07-13T12:39:06Z</time>
|
|---|
| 5294 | </trkpt>
|
|---|
| 5295 | <trkpt lat="43.6076425" lon="1.427794">
|
|---|
| 5296 | <time>2012-07-13T12:39:07Z</time>
|
|---|
| 5297 | </trkpt>
|
|---|
| 5298 | <trkpt lat="43.6076638" lon="1.4277716">
|
|---|
| 5299 | <time>2012-07-13T12:39:08Z</time>
|
|---|
| 5300 | </trkpt>
|
|---|
| 5301 | <trkpt lat="43.6076828" lon="1.4277542">
|
|---|
| 5302 | <time>2012-07-13T12:39:09Z</time>
|
|---|
| 5303 | </trkpt>
|
|---|
| 5304 | <trkpt lat="43.6076982" lon="1.4277375">
|
|---|
| 5305 | <time>2012-07-13T12:39:10Z</time>
|
|---|
| 5306 | </trkpt>
|
|---|
| 5307 | <trkpt lat="43.6077193" lon="1.4277014">
|
|---|
| 5308 | <time>2012-07-13T12:39:11Z</time>
|
|---|
| 5309 | </trkpt>
|
|---|
| 5310 | <trkpt lat="43.6077357" lon="1.4276875">
|
|---|
| 5311 | <time>2012-07-13T12:39:12Z</time>
|
|---|
| 5312 | </trkpt>
|
|---|
| 5313 | <trkpt lat="43.6077436" lon="1.4276518">
|
|---|
| 5314 | <time>2012-07-13T12:39:13Z</time>
|
|---|
| 5315 | </trkpt>
|
|---|
| 5316 | <trkpt lat="43.6077517" lon="1.4276397">
|
|---|
| 5317 | <time>2012-07-13T12:39:14Z</time>
|
|---|
| 5318 | </trkpt>
|
|---|
| 5319 | <trkpt lat="43.6077584" lon="1.427626">
|
|---|
| 5320 | <time>2012-07-13T12:39:15Z</time>
|
|---|
| 5321 | </trkpt>
|
|---|
| 5322 | <trkpt lat="43.6077661" lon="1.4276116">
|
|---|
| 5323 | <time>2012-07-13T12:39:16Z</time>
|
|---|
| 5324 | </trkpt>
|
|---|
| 5325 | <trkpt lat="43.6077831" lon="1.4275704">
|
|---|
| 5326 | <time>2012-07-13T12:39:18Z</time>
|
|---|
| 5327 | </trkpt>
|
|---|
| 5328 | <trkpt lat="43.6077814" lon="1.4275266">
|
|---|
| 5329 | <time>2012-07-13T12:39:19Z</time>
|
|---|
| 5330 | </trkpt>
|
|---|
| 5331 | <trkpt lat="43.6078084" lon="1.4274984">
|
|---|
| 5332 | <time>2012-07-13T12:39:20Z</time>
|
|---|
| 5333 | </trkpt>
|
|---|
| 5334 | <trkpt lat="43.6078236" lon="1.4274714">
|
|---|
| 5335 | <time>2012-07-13T12:39:21Z</time>
|
|---|
| 5336 | </trkpt>
|
|---|
| 5337 | <trkpt lat="43.6078276" lon="1.4274523">
|
|---|
| 5338 | <time>2012-07-13T12:39:22Z</time>
|
|---|
| 5339 | </trkpt>
|
|---|
| 5340 | <trkpt lat="43.6078343" lon="1.4274341">
|
|---|
| 5341 | <time>2012-07-13T12:39:23Z</time>
|
|---|
| 5342 | </trkpt>
|
|---|
| 5343 | <trkpt lat="43.6078326" lon="1.4274091">
|
|---|
| 5344 | <time>2012-07-13T12:39:24Z</time>
|
|---|
| 5345 | </trkpt>
|
|---|
| 5346 | <trkpt lat="43.6078357" lon="1.4273903">
|
|---|
| 5347 | <time>2012-07-13T12:39:25Z</time>
|
|---|
| 5348 | </trkpt>
|
|---|
| 5349 | <trkpt lat="43.6078415" lon="1.4273694">
|
|---|
| 5350 | <time>2012-07-13T12:39:26Z</time>
|
|---|
| 5351 | </trkpt>
|
|---|
| 5352 | <trkpt lat="43.607862" lon="1.4273688">
|
|---|
| 5353 | <time>2012-07-13T12:39:27Z</time>
|
|---|
| 5354 | </trkpt>
|
|---|
| 5355 | <trkpt lat="43.6078639" lon="1.4273594">
|
|---|
| 5356 | <time>2012-07-13T12:39:28Z</time>
|
|---|
| 5357 | </trkpt>
|
|---|
| 5358 | <trkpt lat="43.607872" lon="1.4273221">
|
|---|
| 5359 | <time>2012-07-13T12:39:29Z</time>
|
|---|
| 5360 | </trkpt>
|
|---|
| 5361 | <trkpt lat="43.607888" lon="1.4272938">
|
|---|
| 5362 | <time>2012-07-13T12:39:30Z</time>
|
|---|
| 5363 | </trkpt>
|
|---|
| 5364 | <trkpt lat="43.6078924" lon="1.4272649">
|
|---|
| 5365 | <time>2012-07-13T12:39:31Z</time>
|
|---|
| 5366 | </trkpt>
|
|---|
| 5367 | <trkpt lat="43.6078971" lon="1.427247">
|
|---|
| 5368 | <time>2012-07-13T12:39:32Z</time>
|
|---|
| 5369 | </trkpt>
|
|---|
| 5370 | <trkpt lat="43.6079048" lon="1.4272406">
|
|---|
| 5371 | <time>2012-07-13T12:39:33Z</time>
|
|---|
| 5372 | </trkpt>
|
|---|
| 5373 | <trkpt lat="43.6079161" lon="1.4272389">
|
|---|
| 5374 | <time>2012-07-13T12:39:34Z</time>
|
|---|
| 5375 | </trkpt>
|
|---|
| 5376 | <trkpt lat="43.6079108" lon="1.4272307">
|
|---|
| 5377 | <time>2012-07-13T12:39:35Z</time>
|
|---|
| 5378 | </trkpt>
|
|---|
| 5379 | <trkpt lat="43.6079156" lon="1.4272521">
|
|---|
| 5380 | <time>2012-07-13T12:39:36Z</time>
|
|---|
| 5381 | </trkpt>
|
|---|
| 5382 | <trkpt lat="43.6079152" lon="1.4272391">
|
|---|
| 5383 | <time>2012-07-13T12:39:37Z</time>
|
|---|
| 5384 | </trkpt>
|
|---|
| 5385 | <trkpt lat="43.6079153" lon="1.4272272">
|
|---|
| 5386 | <time>2012-07-13T12:39:38Z</time>
|
|---|
| 5387 | </trkpt>
|
|---|
| 5388 | <trkpt lat="43.6079156" lon="1.4272175">
|
|---|
| 5389 | <time>2012-07-13T12:39:39Z</time>
|
|---|
| 5390 | </trkpt>
|
|---|
| 5391 | <trkpt lat="43.6079166" lon="1.4272105">
|
|---|
| 5392 | <time>2012-07-13T12:39:40Z</time>
|
|---|
| 5393 | </trkpt>
|
|---|
| 5394 | <trkpt lat="43.6079304" lon="1.4271878">
|
|---|
| 5395 | <time>2012-07-13T12:39:41Z</time>
|
|---|
| 5396 | </trkpt>
|
|---|
| 5397 | <trkpt lat="43.6079261" lon="1.4271488">
|
|---|
| 5398 | <time>2012-07-13T12:39:42Z</time>
|
|---|
| 5399 | </trkpt>
|
|---|
| 5400 | <trkpt lat="43.607935" lon="1.4271307">
|
|---|
| 5401 | <time>2012-07-13T12:39:43Z</time>
|
|---|
| 5402 | </trkpt>
|
|---|
| 5403 | <trkpt lat="43.607951" lon="1.4271173">
|
|---|
| 5404 | <time>2012-07-13T12:39:44Z</time>
|
|---|
| 5405 | </trkpt>
|
|---|
| 5406 | <trkpt lat="43.6079489" lon="1.4270794">
|
|---|
| 5407 | <time>2012-07-13T12:39:45Z</time>
|
|---|
| 5408 | </trkpt>
|
|---|
| 5409 | <trkpt lat="43.6079427" lon="1.4270576">
|
|---|
| 5410 | <time>2012-07-13T12:39:46Z</time>
|
|---|
| 5411 | </trkpt>
|
|---|
| 5412 | <trkpt lat="43.6079585" lon="1.4270328">
|
|---|
| 5413 | <time>2012-07-13T12:39:47Z</time>
|
|---|
| 5414 | </trkpt>
|
|---|
| 5415 | <trkpt lat="43.6079569" lon="1.4270052">
|
|---|
| 5416 | <time>2012-07-13T12:39:48Z</time>
|
|---|
| 5417 | </trkpt>
|
|---|
| 5418 | <trkpt lat="43.6079711" lon="1.4269743">
|
|---|
| 5419 | <time>2012-07-13T12:39:49Z</time>
|
|---|
| 5420 | </trkpt>
|
|---|
| 5421 | <trkpt lat="43.6079862" lon="1.4269382">
|
|---|
| 5422 | <time>2012-07-13T12:39:50Z</time>
|
|---|
| 5423 | </trkpt>
|
|---|
| 5424 | <trkpt lat="43.607981" lon="1.4268872">
|
|---|
| 5425 | <time>2012-07-13T12:39:51Z</time>
|
|---|
| 5426 | </trkpt>
|
|---|
| 5427 | <trkpt lat="43.6079904" lon="1.4268518">
|
|---|
| 5428 | <time>2012-07-13T12:39:52Z</time>
|
|---|
| 5429 | </trkpt>
|
|---|
| 5430 | <trkpt lat="43.6080084" lon="1.4268214">
|
|---|
| 5431 | <time>2012-07-13T12:39:53Z</time>
|
|---|
| 5432 | </trkpt>
|
|---|
| 5433 | <trkpt lat="43.6079987" lon="1.4267786">
|
|---|
| 5434 | <time>2012-07-13T12:39:54Z</time>
|
|---|
| 5435 | </trkpt>
|
|---|
| 5436 | <trkpt lat="43.608025" lon="1.4267415">
|
|---|
| 5437 | <time>2012-07-13T12:39:55Z</time>
|
|---|
| 5438 | </trkpt>
|
|---|
| 5439 | <trkpt lat="43.6080442" lon="1.4267195">
|
|---|
| 5440 | <time>2012-07-13T12:39:56Z</time>
|
|---|
| 5441 | </trkpt>
|
|---|
| 5442 | <trkpt lat="43.6080821" lon="1.4267138">
|
|---|
| 5443 | <time>2012-07-13T12:39:57Z</time>
|
|---|
| 5444 | </trkpt>
|
|---|
| 5445 | <trkpt lat="43.6080916" lon="1.4266724">
|
|---|
| 5446 | <time>2012-07-13T12:39:58Z</time>
|
|---|
| 5447 | </trkpt>
|
|---|
| 5448 | <trkpt lat="43.6081297" lon="1.4266237">
|
|---|
| 5449 | <time>2012-07-13T12:39:59Z</time>
|
|---|
| 5450 | </trkpt>
|
|---|
| 5451 | <trkpt lat="43.6081494" lon="1.4265756">
|
|---|
| 5452 | <time>2012-07-13T12:40:00Z</time>
|
|---|
| 5453 | </trkpt>
|
|---|
| 5454 | <trkpt lat="43.6081584" lon="1.4265298">
|
|---|
| 5455 | <time>2012-07-13T12:40:01Z</time>
|
|---|
| 5456 | </trkpt>
|
|---|
| 5457 | <trkpt lat="43.6081665" lon="1.4265007">
|
|---|
| 5458 | <time>2012-07-13T12:40:02Z</time>
|
|---|
| 5459 | </trkpt>
|
|---|
| 5460 | <trkpt lat="43.6081819" lon="1.4264754">
|
|---|
| 5461 | <time>2012-07-13T12:40:03Z</time>
|
|---|
| 5462 | </trkpt>
|
|---|
| 5463 | <trkpt lat="43.6082077" lon="1.4264273">
|
|---|
| 5464 | <time>2012-07-13T12:40:04Z</time>
|
|---|
| 5465 | </trkpt>
|
|---|
| 5466 | <trkpt lat="43.6082234" lon="1.4263624">
|
|---|
| 5467 | <time>2012-07-13T12:40:05Z</time>
|
|---|
| 5468 | </trkpt>
|
|---|
| 5469 | <trkpt lat="43.6082415" lon="1.4263198">
|
|---|
| 5470 | <time>2012-07-13T12:40:06Z</time>
|
|---|
| 5471 | </trkpt>
|
|---|
| 5472 | <trkpt lat="43.608251" lon="1.4262909">
|
|---|
| 5473 | <time>2012-07-13T12:40:07Z</time>
|
|---|
| 5474 | </trkpt>
|
|---|
| 5475 | <trkpt lat="43.6082613" lon="1.4262402">
|
|---|
| 5476 | <time>2012-07-13T12:40:08Z</time>
|
|---|
| 5477 | </trkpt>
|
|---|
| 5478 | <trkpt lat="43.6082684" lon="1.4262046">
|
|---|
| 5479 | <time>2012-07-13T12:40:09Z</time>
|
|---|
| 5480 | </trkpt>
|
|---|
| 5481 | <trkpt lat="43.60827" lon="1.4261584">
|
|---|
| 5482 | <time>2012-07-13T12:40:10Z</time>
|
|---|
| 5483 | </trkpt>
|
|---|
| 5484 | <trkpt lat="43.6082813" lon="1.4261084">
|
|---|
| 5485 | <time>2012-07-13T12:40:11Z</time>
|
|---|
| 5486 | </trkpt>
|
|---|
| 5487 | <trkpt lat="43.6082986" lon="1.4260391">
|
|---|
| 5488 | <time>2012-07-13T12:40:12Z</time>
|
|---|
| 5489 | </trkpt>
|
|---|
| 5490 | <trkpt lat="43.6083306" lon="1.4259784">
|
|---|
| 5491 | <time>2012-07-13T12:40:13Z</time>
|
|---|
| 5492 | </trkpt>
|
|---|
| 5493 | <trkpt lat="43.6083599" lon="1.4259363">
|
|---|
| 5494 | <time>2012-07-13T12:40:14Z</time>
|
|---|
| 5495 | </trkpt>
|
|---|
| 5496 | <trkpt lat="43.6083662" lon="1.4258982">
|
|---|
| 5497 | <time>2012-07-13T12:40:15Z</time>
|
|---|
| 5498 | </trkpt>
|
|---|
| 5499 | <trkpt lat="43.6083864" lon="1.4258579">
|
|---|
| 5500 | <time>2012-07-13T12:40:16Z</time>
|
|---|
| 5501 | </trkpt>
|
|---|
| 5502 | <trkpt lat="43.6083991" lon="1.4258062">
|
|---|
| 5503 | <time>2012-07-13T12:40:17Z</time>
|
|---|
| 5504 | </trkpt>
|
|---|
| 5505 | <trkpt lat="43.6084192" lon="1.4257639">
|
|---|
| 5506 | <time>2012-07-13T12:40:18Z</time>
|
|---|
| 5507 | </trkpt>
|
|---|
| 5508 | <trkpt lat="43.6084326" lon="1.4257184">
|
|---|
| 5509 | <time>2012-07-13T12:40:19Z</time>
|
|---|
| 5510 | </trkpt>
|
|---|
| 5511 | <trkpt lat="43.6084543" lon="1.425693">
|
|---|
| 5512 | <time>2012-07-13T12:40:20Z</time>
|
|---|
| 5513 | </trkpt>
|
|---|
| 5514 | <trkpt lat="43.6084796" lon="1.4256565">
|
|---|
| 5515 | <time>2012-07-13T12:40:21Z</time>
|
|---|
| 5516 | </trkpt>
|
|---|
| 5517 | <trkpt lat="43.6084889" lon="1.4256193">
|
|---|
| 5518 | <time>2012-07-13T12:40:22Z</time>
|
|---|
| 5519 | </trkpt>
|
|---|
| 5520 | <trkpt lat="43.6085125" lon="1.4255773">
|
|---|
| 5521 | <time>2012-07-13T12:40:23Z</time>
|
|---|
| 5522 | </trkpt>
|
|---|
| 5523 | <trkpt lat="43.6085271" lon="1.4255372">
|
|---|
| 5524 | <time>2012-07-13T12:40:24Z</time>
|
|---|
| 5525 | </trkpt>
|
|---|
| 5526 | <trkpt lat="43.6085436" lon="1.425509">
|
|---|
| 5527 | <time>2012-07-13T12:40:25Z</time>
|
|---|
| 5528 | </trkpt>
|
|---|
| 5529 | <trkpt lat="43.6085636" lon="1.4254719">
|
|---|
| 5530 | <time>2012-07-13T12:40:26Z</time>
|
|---|
| 5531 | </trkpt>
|
|---|
| 5532 | <trkpt lat="43.6085801" lon="1.4254256">
|
|---|
| 5533 | <time>2012-07-13T12:40:27Z</time>
|
|---|
| 5534 | </trkpt>
|
|---|
| 5535 | <trkpt lat="43.6085942" lon="1.4253481">
|
|---|
| 5536 | <time>2012-07-13T12:40:28Z</time>
|
|---|
| 5537 | </trkpt>
|
|---|
| 5538 | </trkseg>
|
|---|
| 5539 | </trk>
|
|---|
| 5540 | <trk>
|
|---|
| 5541 | <name>20120419_132539.gpx</name>
|
|---|
| 5542 | <desc>sortie velo Toulouse</desc>
|
|---|
| 5543 | <link href="https://api.openstreetmap.org/user/astazou/traces/1216782">
|
|---|
| 5544 | </link>
|
|---|
| 5545 | <trkseg>
|
|---|
| 5546 | <trkpt lat="43.608059" lon="1.425416">
|
|---|
| 5547 | <time>2012-04-19T09:12:37Z</time>
|
|---|
| 5548 | </trkpt>
|
|---|
| 5549 | <trkpt lat="43.608032" lon="1.425687">
|
|---|
| 5550 | <time>2012-04-19T09:12:40Z</time>
|
|---|
| 5551 | </trkpt>
|
|---|
| 5552 | <trkpt lat="43.607983" lon="1.425923">
|
|---|
| 5553 | <time>2012-04-19T09:12:43Z</time>
|
|---|
| 5554 | </trkpt>
|
|---|
| 5555 | <trkpt lat="43.607925" lon="1.426169">
|
|---|
| 5556 | <time>2012-04-19T09:12:46Z</time>
|
|---|
| 5557 | </trkpt>
|
|---|
| 5558 | <trkpt lat="43.607841" lon="1.426389">
|
|---|
| 5559 | <time>2012-04-19T09:12:50Z</time>
|
|---|
| 5560 | </trkpt>
|
|---|
| 5561 | <trkpt lat="43.607758" lon="1.426467">
|
|---|
| 5562 | <time>2012-04-19T09:12:53Z</time>
|
|---|
| 5563 | </trkpt>
|
|---|
| 5564 | <trkpt lat="43.60762" lon="1.426578">
|
|---|
| 5565 | <time>2012-04-19T09:12:56Z</time>
|
|---|
| 5566 | </trkpt>
|
|---|
| 5567 | <trkpt lat="43.607536" lon="1.426769">
|
|---|
| 5568 | <time>2012-04-19T09:12:58Z</time>
|
|---|
| 5569 | </trkpt>
|
|---|
| 5570 | <trkpt lat="43.607357" lon="1.427093">
|
|---|
| 5571 | <time>2012-04-19T09:13:02Z</time>
|
|---|
| 5572 | </trkpt>
|
|---|
| 5573 | <trkpt lat="43.607372" lon="1.427299">
|
|---|
| 5574 | <time>2012-04-19T09:13:05Z</time>
|
|---|
| 5575 | </trkpt>
|
|---|
| 5576 | <trkpt lat="43.607399" lon="1.427267">
|
|---|
| 5577 | <time>2012-04-19T09:13:08Z</time>
|
|---|
| 5578 | </trkpt>
|
|---|
| 5579 | <trkpt lat="43.607399" lon="1.42731">
|
|---|
| 5580 | <time>2012-04-19T09:13:13Z</time>
|
|---|
| 5581 | </trkpt>
|
|---|
| 5582 | <trkpt lat="43.607273" lon="1.427474">
|
|---|
| 5583 | <time>2012-04-19T09:13:18Z</time>
|
|---|
| 5584 | </trkpt>
|
|---|
| 5585 | <trkpt lat="43.607193" lon="1.427598">
|
|---|
| 5586 | <time>2012-04-19T09:13:21Z</time>
|
|---|
| 5587 | </trkpt>
|
|---|
| 5588 | <trkpt lat="43.607143" lon="1.427732">
|
|---|
| 5589 | <time>2012-04-19T09:13:27Z</time>
|
|---|
| 5590 | </trkpt>
|
|---|
| 5591 | <trkpt lat="43.607033" lon="1.427997">
|
|---|
| 5592 | <time>2012-04-19T09:13:32Z</time>
|
|---|
| 5593 | </trkpt>
|
|---|
| 5594 | <trkpt lat="43.606941" lon="1.428181">
|
|---|
| 5595 | <time>2012-04-19T09:13:35Z</time>
|
|---|
| 5596 | </trkpt>
|
|---|
| 5597 | <trkpt lat="43.606743" lon="1.428235">
|
|---|
| 5598 | <time>2012-04-19T09:13:38Z</time>
|
|---|
| 5599 | </trkpt>
|
|---|
| 5600 | <trkpt lat="43.606552" lon="1.428228">
|
|---|
| 5601 | <time>2012-04-19T09:13:41Z</time>
|
|---|
| 5602 | </trkpt>
|
|---|
| 5603 | <trkpt lat="43.606441" lon="1.428263">
|
|---|
| 5604 | <time>2012-04-19T09:13:44Z</time>
|
|---|
| 5605 | </trkpt>
|
|---|
| 5606 | <trkpt lat="43.606388" lon="1.428279">
|
|---|
| 5607 | <time>2012-04-19T09:13:47Z</time>
|
|---|
| 5608 | </trkpt>
|
|---|
| 5609 | <trkpt lat="43.606201" lon="1.428347">
|
|---|
| 5610 | <time>2012-04-19T09:13:52Z</time>
|
|---|
| 5611 | </trkpt>
|
|---|
| 5612 | <trkpt lat="43.606106" lon="1.428375">
|
|---|
| 5613 | <time>2012-04-19T09:13:55Z</time>
|
|---|
| 5614 | </trkpt>
|
|---|
| 5615 | <trkpt lat="43.606052" lon="1.428366">
|
|---|
| 5616 | <time>2012-04-19T09:13:58Z</time>
|
|---|
| 5617 | </trkpt>
|
|---|
| 5618 | <trkpt lat="43.605904" lon="1.42831">
|
|---|
| 5619 | <time>2012-04-19T09:14:03Z</time>
|
|---|
| 5620 | </trkpt>
|
|---|
| 5621 | <trkpt lat="43.605785" lon="1.428262">
|
|---|
| 5622 | <time>2012-04-19T09:14:08Z</time>
|
|---|
| 5623 | </trkpt>
|
|---|
| 5624 | <trkpt lat="43.605656" lon="1.428239">
|
|---|
| 5625 | <time>2012-04-19T09:14:11Z</time>
|
|---|
| 5626 | </trkpt>
|
|---|
| 5627 | <trkpt lat="43.605537" lon="1.428257">
|
|---|
| 5628 | <time>2012-04-19T09:14:14Z</time>
|
|---|
| 5629 | </trkpt>
|
|---|
| 5630 | <trkpt lat="43.605404" lon="1.428253">
|
|---|
| 5631 | <time>2012-04-19T09:14:17Z</time>
|
|---|
| 5632 | </trkpt>
|
|---|
| 5633 | <trkpt lat="43.605293" lon="1.42818">
|
|---|
| 5634 | <time>2012-04-19T09:14:22Z</time>
|
|---|
| 5635 | </trkpt>
|
|---|
| 5636 | <trkpt lat="43.605171" lon="1.428127">
|
|---|
| 5637 | <time>2012-04-19T09:14:27Z</time>
|
|---|
| 5638 | </trkpt>
|
|---|
| 5639 | <trkpt lat="43.604954" lon="1.428104">
|
|---|
| 5640 | <time>2012-04-19T09:14:32Z</time>
|
|---|
| 5641 | </trkpt>
|
|---|
| 5642 | <trkpt lat="43.604805" lon="1.4281">
|
|---|
| 5643 | <time>2012-04-19T09:14:35Z</time>
|
|---|
| 5644 | </trkpt>
|
|---|
| 5645 | <trkpt lat="43.604626" lon="1.428082">
|
|---|
| 5646 | <time>2012-04-19T09:14:38Z</time>
|
|---|
| 5647 | </trkpt>
|
|---|
| 5648 | <trkpt lat="43.604462" lon="1.42805">
|
|---|
| 5649 | <time>2012-04-19T09:14:41Z</time>
|
|---|
| 5650 | </trkpt>
|
|---|
| 5651 | <trkpt lat="43.60429" lon="1.428056">
|
|---|
| 5652 | <time>2012-04-19T09:14:44Z</time>
|
|---|
| 5653 | </trkpt>
|
|---|
| 5654 | <trkpt lat="43.604111" lon="1.428074">
|
|---|
| 5655 | <time>2012-04-19T09:14:48Z</time>
|
|---|
| 5656 | </trkpt>
|
|---|
| 5657 | <trkpt lat="43.603962" lon="1.428065">
|
|---|
| 5658 | <time>2012-04-19T09:14:51Z</time>
|
|---|
| 5659 | </trkpt>
|
|---|
| 5660 | <trkpt lat="43.603828" lon="1.428047">
|
|---|
| 5661 | <time>2012-04-19T09:14:54Z</time>
|
|---|
| 5662 | </trkpt>
|
|---|
| 5663 | <trkpt lat="43.603722" lon="1.428031">
|
|---|
| 5664 | <time>2012-04-19T09:14:57Z</time>
|
|---|
| 5665 | </trkpt>
|
|---|
| 5666 | <trkpt lat="43.603546" lon="1.428041">
|
|---|
| 5667 | <time>2012-04-19T09:15:00Z</time>
|
|---|
| 5668 | </trkpt>
|
|---|
| 5669 | <trkpt lat="43.603344" lon="1.428053">
|
|---|
| 5670 | <time>2012-04-19T09:15:03Z</time>
|
|---|
| 5671 | </trkpt>
|
|---|
| 5672 | <trkpt lat="43.603165" lon="1.428056">
|
|---|
| 5673 | <time>2012-04-19T09:15:06Z</time>
|
|---|
| 5674 | </trkpt>
|
|---|
| 5675 | <trkpt lat="43.603001" lon="1.428048">
|
|---|
| 5676 | <time>2012-04-19T09:15:09Z</time>
|
|---|
| 5677 | </trkpt>
|
|---|
| 5678 | <trkpt lat="43.60284" lon="1.428038">
|
|---|
| 5679 | <time>2012-04-19T09:15:12Z</time>
|
|---|
| 5680 | </trkpt>
|
|---|
| 5681 | <trkpt lat="43.602657" lon="1.428031">
|
|---|
| 5682 | <time>2012-04-19T09:15:15Z</time>
|
|---|
| 5683 | </trkpt>
|
|---|
| 5684 | <trkpt lat="43.602409" lon="1.428025">
|
|---|
| 5685 | <time>2012-04-19T09:15:19Z</time>
|
|---|
| 5686 | </trkpt>
|
|---|
| 5687 | <trkpt lat="43.60223" lon="1.428006">
|
|---|
| 5688 | <time>2012-04-19T09:15:22Z</time>
|
|---|
| 5689 | </trkpt>
|
|---|
| 5690 | <trkpt lat="43.602058" lon="1.428004">
|
|---|
| 5691 | <time>2012-04-19T09:15:25Z</time>
|
|---|
| 5692 | </trkpt>
|
|---|
| 5693 | <trkpt lat="43.601898" lon="1.427994">
|
|---|
| 5694 | <time>2012-04-19T09:15:28Z</time>
|
|---|
| 5695 | </trkpt>
|
|---|
| 5696 | <trkpt lat="43.60173" lon="1.428046">
|
|---|
| 5697 | <time>2012-04-19T09:15:31Z</time>
|
|---|
| 5698 | </trkpt>
|
|---|
| 5699 | <trkpt lat="43.601578" lon="1.428102">
|
|---|
| 5700 | <time>2012-04-19T09:15:34Z</time>
|
|---|
| 5701 | </trkpt>
|
|---|
| 5702 | <trkpt lat="43.601501" lon="1.428163">
|
|---|
| 5703 | <time>2012-04-19T09:15:37Z</time>
|
|---|
| 5704 | </trkpt>
|
|---|
| 5705 | <trkpt lat="43.60144" lon="1.428247">
|
|---|
| 5706 | <time>2012-04-19T09:15:40Z</time>
|
|---|
| 5707 | </trkpt>
|
|---|
| 5708 | <trkpt lat="43.601418" lon="1.428319">
|
|---|
| 5709 | <time>2012-04-19T09:15:43Z</time>
|
|---|
| 5710 | </trkpt>
|
|---|
| 5711 | <trkpt lat="43.601318" lon="1.428367">
|
|---|
| 5712 | <time>2012-04-19T09:15:46Z</time>
|
|---|
| 5713 | </trkpt>
|
|---|
| 5714 | <trkpt lat="43.601124" lon="1.428409">
|
|---|
| 5715 | <time>2012-04-19T09:15:52Z</time>
|
|---|
| 5716 | </trkpt>
|
|---|
| 5717 | </trkseg>
|
|---|
| 5718 | </trk>
|
|---|
| 5719 | <trk>
|
|---|
| 5720 | <name>20111222.gpx</name>
|
|---|
| 5721 | <desc>20111222, Garmin etrex Vista HCx </desc>
|
|---|
| 5722 | <link href="https://api.openstreetmap.org/user/sev_osm/traces/1156064">
|
|---|
| 5723 | </link>
|
|---|
| 5724 | <trkseg>
|
|---|
| 5725 | <trkpt lat="43.607916" lon="1.425515">
|
|---|
| 5726 | <time>2011-12-22T13:56:16Z</time>
|
|---|
| 5727 | </trkpt>
|
|---|
| 5728 | <trkpt lat="43.607886" lon="1.42561">
|
|---|
| 5729 | <time>2011-12-22T13:56:17Z</time>
|
|---|
| 5730 | </trkpt>
|
|---|
| 5731 | <trkpt lat="43.607855" lon="1.425686">
|
|---|
| 5732 | <time>2011-12-22T13:56:18Z</time>
|
|---|
| 5733 | </trkpt>
|
|---|
| 5734 | <trkpt lat="43.607829" lon="1.425754">
|
|---|
| 5735 | <time>2011-12-22T13:56:19Z</time>
|
|---|
| 5736 | </trkpt>
|
|---|
| 5737 | <trkpt lat="43.607797" lon="1.42582">
|
|---|
| 5738 | <time>2011-12-22T13:56:20Z</time>
|
|---|
| 5739 | </trkpt>
|
|---|
| 5740 | <trkpt lat="43.607758" lon="1.425903">
|
|---|
| 5741 | <time>2011-12-22T13:56:21Z</time>
|
|---|
| 5742 | </trkpt>
|
|---|
| 5743 | <trkpt lat="43.607727" lon="1.425964">
|
|---|
| 5744 | <time>2011-12-22T13:56:22Z</time>
|
|---|
| 5745 | </trkpt>
|
|---|
| 5746 | <trkpt lat="43.607679" lon="1.426074">
|
|---|
| 5747 | <time>2011-12-22T13:56:23Z</time>
|
|---|
| 5748 | </trkpt>
|
|---|
| 5749 | <trkpt lat="43.607638" lon="1.426183">
|
|---|
| 5750 | <time>2011-12-22T13:56:24Z</time>
|
|---|
| 5751 | </trkpt>
|
|---|
| 5752 | <trkpt lat="43.607567" lon="1.42632">
|
|---|
| 5753 | <time>2011-12-22T13:56:25Z</time>
|
|---|
| 5754 | </trkpt>
|
|---|
| 5755 | <trkpt lat="43.607512" lon="1.426423">
|
|---|
| 5756 | <time>2011-12-22T13:56:26Z</time>
|
|---|
| 5757 | </trkpt>
|
|---|
| 5758 | <trkpt lat="43.607416" lon="1.426675">
|
|---|
| 5759 | <time>2011-12-22T13:56:28Z</time>
|
|---|
| 5760 | </trkpt>
|
|---|
| 5761 | <trkpt lat="43.607399" lon="1.42679">
|
|---|
| 5762 | <time>2011-12-22T13:56:29Z</time>
|
|---|
| 5763 | </trkpt>
|
|---|
| 5764 | <trkpt lat="43.607366" lon="1.426881">
|
|---|
| 5765 | <time>2011-12-22T13:56:30Z</time>
|
|---|
| 5766 | </trkpt>
|
|---|
| 5767 | <trkpt lat="43.607319" lon="1.426993">
|
|---|
| 5768 | <time>2011-12-22T13:56:31Z</time>
|
|---|
| 5769 | </trkpt>
|
|---|
| 5770 | <trkpt lat="43.607276" lon="1.427129">
|
|---|
| 5771 | <time>2011-12-22T13:56:32Z</time>
|
|---|
| 5772 | </trkpt>
|
|---|
| 5773 | <trkpt lat="43.607113" lon="1.427569">
|
|---|
| 5774 | <time>2011-12-22T13:56:34Z</time>
|
|---|
| 5775 | </trkpt>
|
|---|
| 5776 | <trkpt lat="43.607056" lon="1.4277">
|
|---|
| 5777 | <time>2011-12-22T13:56:35Z</time>
|
|---|
| 5778 | </trkpt>
|
|---|
| 5779 | <trkpt lat="43.606987" lon="1.427823">
|
|---|
| 5780 | <time>2011-12-22T13:56:36Z</time>
|
|---|
| 5781 | </trkpt>
|
|---|
| 5782 | <trkpt lat="43.606945" lon="1.427961">
|
|---|
| 5783 | <time>2011-12-22T13:56:37Z</time>
|
|---|
| 5784 | </trkpt>
|
|---|
| 5785 | <trkpt lat="43.606851" lon="1.428179">
|
|---|
| 5786 | <time>2011-12-22T13:56:39Z</time>
|
|---|
| 5787 | </trkpt>
|
|---|
| 5788 | <trkpt lat="43.606778" lon="1.428352">
|
|---|
| 5789 | <time>2011-12-22T13:56:40Z</time>
|
|---|
| 5790 | </trkpt>
|
|---|
| 5791 | <trkpt lat="43.606694" lon="1.428545">
|
|---|
| 5792 | <time>2011-12-22T13:56:41Z</time>
|
|---|
| 5793 | </trkpt>
|
|---|
| 5794 | <trkpt lat="43.606627" lon="1.428718">
|
|---|
| 5795 | <time>2011-12-22T13:56:42Z</time>
|
|---|
| 5796 | </trkpt>
|
|---|
| 5797 | <trkpt lat="43.606583" lon="1.428897">
|
|---|
| 5798 | <time>2011-12-22T13:56:43Z</time>
|
|---|
| 5799 | </trkpt>
|
|---|
| 5800 | <trkpt lat="43.606571" lon="1.429071">
|
|---|
| 5801 | <time>2011-12-22T13:56:44Z</time>
|
|---|
| 5802 | </trkpt>
|
|---|
| 5803 | <trkpt lat="43.606514" lon="1.429222">
|
|---|
| 5804 | <time>2011-12-22T13:56:45Z</time>
|
|---|
| 5805 | </trkpt>
|
|---|
| 5806 | <trkpt lat="43.606409" lon="1.429489">
|
|---|
| 5807 | <time>2011-12-22T13:56:47Z</time>
|
|---|
| 5808 | </trkpt>
|
|---|
| 5809 | <trkpt lat="43.606383" lon="1.429649">
|
|---|
| 5810 | <time>2011-12-22T13:56:48Z</time>
|
|---|
| 5811 | </trkpt>
|
|---|
| 5812 | <trkpt lat="43.606331" lon="1.42973">
|
|---|
| 5813 | <time>2011-12-22T13:56:49Z</time>
|
|---|
| 5814 | </trkpt>
|
|---|
| 5815 | <trkpt lat="43.606309" lon="1.42984">
|
|---|
| 5816 | <time>2011-12-22T13:56:50Z</time>
|
|---|
| 5817 | </trkpt>
|
|---|
| 5818 | <trkpt lat="43.606274" lon="1.430041">
|
|---|
| 5819 | <time>2011-12-22T13:56:52Z</time>
|
|---|
| 5820 | </trkpt>
|
|---|
| 5821 | <trkpt lat="43.60623" lon="1.430225">
|
|---|
| 5822 | <time>2011-12-22T13:56:54Z</time>
|
|---|
| 5823 | </trkpt>
|
|---|
| 5824 | <trkpt lat="43.606205" lon="1.430305">
|
|---|
| 5825 | <time>2011-12-22T13:56:55Z</time>
|
|---|
| 5826 | </trkpt>
|
|---|
| 5827 | <trkpt lat="43.606171" lon="1.430379">
|
|---|
| 5828 | <time>2011-12-22T13:56:56Z</time>
|
|---|
| 5829 | </trkpt>
|
|---|
| 5830 | <trkpt lat="43.606144" lon="1.430462">
|
|---|
| 5831 | <time>2011-12-22T13:56:57Z</time>
|
|---|
| 5832 | </trkpt>
|
|---|
| 5833 | </trkseg>
|
|---|
| 5834 | </trk>
|
|---|
| 5835 | <trk>
|
|---|
| 5836 | <trkseg>
|
|---|
| 5837 | <trkpt lat="43.607709" lon="1.425693">
|
|---|
| 5838 | <time>2011-08-14T09:23:13Z</time>
|
|---|
| 5839 | </trkpt>
|
|---|
| 5840 | <trkpt lat="43.607594" lon="1.426327">
|
|---|
| 5841 | <time>2011-08-14T09:23:18Z</time>
|
|---|
| 5842 | </trkpt>
|
|---|
| 5843 | <trkpt lat="43.607568" lon="1.426795">
|
|---|
| 5844 | <time>2011-08-14T09:23:22Z</time>
|
|---|
| 5845 | </trkpt>
|
|---|
| 5846 | <trkpt lat="43.607382" lon="1.427353">
|
|---|
| 5847 | <time>2011-08-14T09:23:27Z</time>
|
|---|
| 5848 | </trkpt>
|
|---|
| 5849 | <trkpt lat="43.607152" lon="1.427972">
|
|---|
| 5850 | <time>2011-08-14T09:23:32Z</time>
|
|---|
| 5851 | </trkpt>
|
|---|
| 5852 | <trkpt lat="43.607002" lon="1.428137">
|
|---|
| 5853 | <time>2011-08-14T09:23:34Z</time>
|
|---|
| 5854 | </trkpt>
|
|---|
| 5855 | <trkpt lat="43.606598" lon="1.428872">
|
|---|
| 5856 | <time>2011-08-14T09:23:39Z</time>
|
|---|
| 5857 | </trkpt>
|
|---|
| 5858 | <trkpt lat="43.606576" lon="1.429032">
|
|---|
| 5859 | <time>2011-08-14T09:23:41Z</time>
|
|---|
| 5860 | </trkpt>
|
|---|
| 5861 | <trkpt lat="43.606579" lon="1.429093">
|
|---|
| 5862 | <time>2011-08-14T09:23:42Z</time>
|
|---|
| 5863 | </trkpt>
|
|---|
| 5864 | <trkpt lat="43.606541" lon="1.429177">
|
|---|
| 5865 | <time>2011-08-14T09:23:44Z</time>
|
|---|
| 5866 | </trkpt>
|
|---|
| 5867 | <trkpt lat="43.606544" lon="1.429302">
|
|---|
| 5868 | <time>2011-08-14T09:23:46Z</time>
|
|---|
| 5869 | </trkpt>
|
|---|
| 5870 | <trkpt lat="43.606483" lon="1.429715">
|
|---|
| 5871 | <time>2011-08-14T09:23:53Z</time>
|
|---|
| 5872 | </trkpt>
|
|---|
| 5873 | <trkpt lat="43.606483" lon="1.429762">
|
|---|
| 5874 | <time>2011-08-14T09:23:54Z</time>
|
|---|
| 5875 | </trkpt>
|
|---|
| 5876 | <trkpt lat="43.606662" lon="1.430087">
|
|---|
| 5877 | <time>2011-08-14T09:23:59Z</time>
|
|---|
| 5878 | </trkpt>
|
|---|
| 5879 | <trkpt lat="43.606954" lon="1.430427">
|
|---|
| 5880 | <time>2011-08-14T09:24:04Z</time>
|
|---|
| 5881 | </trkpt>
|
|---|
| 5882 | </trkseg>
|
|---|
| 5883 | </trk>
|
|---|
| 5884 | <trk>
|
|---|
| 5885 | <trkseg>
|
|---|
| 5886 | <trkpt lat="43.6077779" lon="1.4256799">
|
|---|
| 5887 | <time>2011-08-14T09:23:05Z</time>
|
|---|
| 5888 | </trkpt>
|
|---|
| 5889 | <trkpt lat="43.6075687" lon="1.4262002">
|
|---|
| 5890 | <time>2011-08-14T09:23:12Z</time>
|
|---|
| 5891 | </trkpt>
|
|---|
| 5892 | <trkpt lat="43.6072468" lon="1.4270854">
|
|---|
| 5893 | <time>2011-08-14T09:23:18Z</time>
|
|---|
| 5894 | </trkpt>
|
|---|
| 5895 | <trkpt lat="43.6069196" lon="1.4278632">
|
|---|
| 5896 | <time>2011-08-14T09:23:23Z</time>
|
|---|
| 5897 | </trkpt>
|
|---|
| 5898 | <trkpt lat="43.6063832" lon="1.429553">
|
|---|
| 5899 | <time>2011-08-14T09:23:34Z</time>
|
|---|
| 5900 | </trkpt>
|
|---|
| 5901 | <trkpt lat="43.6063456" lon="1.4300894">
|
|---|
| 5902 | <time>2011-08-14T09:23:40Z</time>
|
|---|
| 5903 | </trkpt>
|
|---|
| 5904 | <trkpt lat="43.6064261" lon="1.4301538">
|
|---|
| 5905 | <time>2011-08-14T09:23:47Z</time>
|
|---|
| 5906 | </trkpt>
|
|---|
| 5907 | <trkpt lat="43.6065119" lon="1.4300841">
|
|---|
| 5908 | <time>2011-08-14T09:23:54Z</time>
|
|---|
| 5909 | </trkpt>
|
|---|
| 5910 | <trkpt lat="43.6066782" lon="1.4302396">
|
|---|
| 5911 | <time>2011-08-14T09:23:59Z</time>
|
|---|
| 5912 | </trkpt>
|
|---|
| 5913 | <trkpt lat="43.6070644" lon="1.4304757">
|
|---|
| 5914 | <time>2011-08-14T09:24:05Z</time>
|
|---|
| 5915 | </trkpt>
|
|---|
| 5916 | </trkseg>
|
|---|
| 5917 | </trk>
|
|---|
| 5918 | <trk>
|
|---|
| 5919 | <name>Autour_De_Chez_Moi.gpx</name>
|
|---|
| 5920 | <desc>Toulouse: Bazacle - Amidonniers</desc>
|
|---|
| 5921 | <link href="https://api.openstreetmap.org/user/don-vip/traces/1066234">
|
|---|
| 5922 | </link>
|
|---|
| 5923 | <trkseg>
|
|---|
| 5924 | <trkpt lat="43.60437" lon="1.42834">
|
|---|
| 5925 | <time>2011-07-29T15:21:18Z</time>
|
|---|
| 5926 | </trkpt>
|
|---|
| 5927 | <trkpt lat="43.6043" lon="1.42833">
|
|---|
| 5928 | <time>2011-07-29T15:21:52Z</time>
|
|---|
| 5929 | </trkpt>
|
|---|
| 5930 | <trkpt lat="43.60427" lon="1.42828">
|
|---|
| 5931 | <time>2011-07-29T15:23:04Z</time>
|
|---|
| 5932 | </trkpt>
|
|---|
| 5933 | <trkpt lat="43.60421" lon="1.42823">
|
|---|
| 5934 | <time>2011-07-29T15:23:52Z</time>
|
|---|
| 5935 | </trkpt>
|
|---|
| 5936 | <trkpt lat="43.60417" lon="1.42821">
|
|---|
| 5937 | <time>2011-07-29T15:23:54Z</time>
|
|---|
| 5938 | </trkpt>
|
|---|
| 5939 | <trkpt lat="43.6041" lon="1.42818">
|
|---|
| 5940 | <time>2011-07-29T15:24:25Z</time>
|
|---|
| 5941 | </trkpt>
|
|---|
| 5942 | <trkpt lat="43.60404" lon="1.42818">
|
|---|
| 5943 | <time>2011-07-29T15:24:28Z</time>
|
|---|
| 5944 | </trkpt>
|
|---|
| 5945 | <trkpt lat="43.60399" lon="1.42815">
|
|---|
| 5946 | <time>2011-07-29T15:24:31Z</time>
|
|---|
| 5947 | </trkpt>
|
|---|
| 5948 | <trkpt lat="43.60394" lon="1.42812">
|
|---|
| 5949 | <time>2011-07-29T15:24:35Z</time>
|
|---|
| 5950 | </trkpt>
|
|---|
| 5951 | <trkpt lat="43.6039" lon="1.42811">
|
|---|
| 5952 | <time>2011-07-29T15:24:41Z</time>
|
|---|
| 5953 | </trkpt>
|
|---|
| 5954 | <trkpt lat="43.60384" lon="1.42811">
|
|---|
| 5955 | <time>2011-07-29T15:24:44Z</time>
|
|---|
| 5956 | </trkpt>
|
|---|
| 5957 | <trkpt lat="43.60379" lon="1.42809">
|
|---|
| 5958 | <time>2011-07-29T15:24:49Z</time>
|
|---|
| 5959 | </trkpt>
|
|---|
| 5960 | <trkpt lat="43.60375" lon="1.42808">
|
|---|
| 5961 | <time>2011-07-29T15:24:57Z</time>
|
|---|
| 5962 | </trkpt>
|
|---|
| 5963 | <trkpt lat="43.6037" lon="1.42808">
|
|---|
| 5964 | <time>2011-07-29T15:25:33Z</time>
|
|---|
| 5965 | </trkpt>
|
|---|
| 5966 | <trkpt lat="43.60365" lon="1.42807">
|
|---|
| 5967 | <time>2011-07-29T15:25:36Z</time>
|
|---|
| 5968 | </trkpt>
|
|---|
| 5969 | <trkpt lat="43.6036" lon="1.42806">
|
|---|
| 5970 | <time>2011-07-29T15:25:40Z</time>
|
|---|
| 5971 | </trkpt>
|
|---|
| 5972 | <trkpt lat="43.60355" lon="1.42807">
|
|---|
| 5973 | <time>2011-07-29T15:25:43Z</time>
|
|---|
| 5974 | </trkpt>
|
|---|
| 5975 | <trkpt lat="43.6035" lon="1.42804">
|
|---|
| 5976 | <time>2011-07-29T15:25:46Z</time>
|
|---|
| 5977 | </trkpt>
|
|---|
| 5978 | <trkpt lat="43.60345" lon="1.42802">
|
|---|
| 5979 | <time>2011-07-29T15:25:49Z</time>
|
|---|
| 5980 | </trkpt>
|
|---|
| 5981 | <trkpt lat="43.6034" lon="1.428">
|
|---|
| 5982 | <time>2011-07-29T15:25:54Z</time>
|
|---|
| 5983 | </trkpt>
|
|---|
| 5984 | <trkpt lat="43.60335" lon="1.428">
|
|---|
| 5985 | <time>2011-07-29T15:26:00Z</time>
|
|---|
| 5986 | </trkpt>
|
|---|
| 5987 | <trkpt lat="43.6033" lon="1.428">
|
|---|
| 5988 | <time>2011-07-29T15:26:04Z</time>
|
|---|
| 5989 | </trkpt>
|
|---|
| 5990 | <trkpt lat="43.60325" lon="1.42801">
|
|---|
| 5991 | <time>2011-07-29T15:26:08Z</time>
|
|---|
| 5992 | </trkpt>
|
|---|
| 5993 | <trkpt lat="43.6032" lon="1.42803">
|
|---|
| 5994 | <time>2011-07-29T15:26:12Z</time>
|
|---|
| 5995 | </trkpt>
|
|---|
| 5996 | <trkpt lat="43.60315" lon="1.42802">
|
|---|
| 5997 | <time>2011-07-29T15:26:17Z</time>
|
|---|
| 5998 | </trkpt>
|
|---|
| 5999 | <trkpt lat="43.6031" lon="1.42801">
|
|---|
| 6000 | <time>2011-07-29T15:26:21Z</time>
|
|---|
| 6001 | </trkpt>
|
|---|
| 6002 | <trkpt lat="43.60304" lon="1.42802">
|
|---|
| 6003 | <time>2011-07-29T15:26:25Z</time>
|
|---|
| 6004 | </trkpt>
|
|---|
| 6005 | <trkpt lat="43.603" lon="1.42803">
|
|---|
| 6006 | <time>2011-07-29T15:26:31Z</time>
|
|---|
| 6007 | </trkpt>
|
|---|
| 6008 | <trkpt lat="43.60294" lon="1.42801">
|
|---|
| 6009 | <time>2011-07-29T15:26:45Z</time>
|
|---|
| 6010 | </trkpt>
|
|---|
| 6011 | <trkpt lat="43.60289" lon="1.428">
|
|---|
| 6012 | <time>2011-07-29T15:26:48Z</time>
|
|---|
| 6013 | </trkpt>
|
|---|
| 6014 | <trkpt lat="43.60282" lon="1.42801">
|
|---|
| 6015 | <time>2011-07-29T15:26:52Z</time>
|
|---|
| 6016 | </trkpt>
|
|---|
| 6017 | <trkpt lat="43.60276" lon="1.428">
|
|---|
| 6018 | <time>2011-07-29T15:26:57Z</time>
|
|---|
| 6019 | </trkpt>
|
|---|
| 6020 | <trkpt lat="43.60269" lon="1.42796">
|
|---|
| 6021 | <time>2011-07-29T15:27:03Z</time>
|
|---|
| 6022 | </trkpt>
|
|---|
| 6023 | <trkpt lat="43.60267" lon="1.42791">
|
|---|
| 6024 | <time>2011-07-29T15:27:14Z</time>
|
|---|
| 6025 | </trkpt>
|
|---|
| 6026 | <trkpt lat="43.60265" lon="1.42798">
|
|---|
| 6027 | <time>2011-07-29T15:27:35Z</time>
|
|---|
| 6028 | </trkpt>
|
|---|
| 6029 | <trkpt lat="43.6026" lon="1.42799">
|
|---|
| 6030 | <time>2011-07-29T15:27:38Z</time>
|
|---|
| 6031 | </trkpt>
|
|---|
| 6032 | <trkpt lat="43.60253" lon="1.42801">
|
|---|
| 6033 | <time>2011-07-29T15:27:42Z</time>
|
|---|
| 6034 | </trkpt>
|
|---|
| 6035 | <trkpt lat="43.60248" lon="1.428">
|
|---|
| 6036 | <time>2011-07-29T15:27:45Z</time>
|
|---|
| 6037 | </trkpt>
|
|---|
| 6038 | <trkpt lat="43.60243" lon="1.428">
|
|---|
| 6039 | <time>2011-07-29T15:27:49Z</time>
|
|---|
| 6040 | </trkpt>
|
|---|
| 6041 | <trkpt lat="43.60238" lon="1.42794">
|
|---|
| 6042 | <time>2011-07-29T15:27:53Z</time>
|
|---|
| 6043 | </trkpt>
|
|---|
| 6044 | <trkpt lat="43.60233" lon="1.42797">
|
|---|
| 6045 | <time>2011-07-29T15:27:56Z</time>
|
|---|
| 6046 | </trkpt>
|
|---|
| 6047 | <trkpt lat="43.60228" lon="1.42797">
|
|---|
| 6048 | <time>2011-07-29T15:27:59Z</time>
|
|---|
| 6049 | </trkpt>
|
|---|
| 6050 | <trkpt lat="43.60224" lon="1.42794">
|
|---|
| 6051 | <time>2011-07-29T15:28:03Z</time>
|
|---|
| 6052 | </trkpt>
|
|---|
| 6053 | <trkpt lat="43.60218" lon="1.42793">
|
|---|
| 6054 | <time>2011-07-29T15:28:07Z</time>
|
|---|
| 6055 | </trkpt>
|
|---|
| 6056 | <trkpt lat="43.60212" lon="1.42795">
|
|---|
| 6057 | <time>2011-07-29T15:28:14Z</time>
|
|---|
| 6058 | </trkpt>
|
|---|
| 6059 | <trkpt lat="43.60207" lon="1.42793">
|
|---|
| 6060 | <time>2011-07-29T15:28:18Z</time>
|
|---|
| 6061 | </trkpt>
|
|---|
| 6062 | <trkpt lat="43.60202" lon="1.42795">
|
|---|
| 6063 | <time>2011-07-29T15:28:23Z</time>
|
|---|
| 6064 | </trkpt>
|
|---|
| 6065 | <trkpt lat="43.60201" lon="1.42802">
|
|---|
| 6066 | <time>2011-07-29T15:28:27Z</time>
|
|---|
| 6067 | </trkpt>
|
|---|
| 6068 | <trkpt lat="43.60205" lon="1.42805">
|
|---|
| 6069 | <time>2011-07-29T15:28:30Z</time>
|
|---|
| 6070 | </trkpt>
|
|---|
| 6071 | <trkpt lat="43.60199" lon="1.42806">
|
|---|
| 6072 | <time>2011-07-29T15:29:13Z</time>
|
|---|
| 6073 | </trkpt>
|
|---|
| 6074 | <trkpt lat="43.60193" lon="1.42813">
|
|---|
| 6075 | <time>2011-07-29T15:29:17Z</time>
|
|---|
| 6076 | </trkpt>
|
|---|
| 6077 | <trkpt lat="43.60196" lon="1.42819">
|
|---|
| 6078 | <time>2011-07-29T15:29:22Z</time>
|
|---|
| 6079 | </trkpt>
|
|---|
| 6080 | <trkpt lat="43.60199" lon="1.42825">
|
|---|
| 6081 | <time>2011-07-29T15:29:26Z</time>
|
|---|
| 6082 | </trkpt>
|
|---|
| 6083 | <trkpt lat="43.60203" lon="1.4283">
|
|---|
| 6084 | <time>2011-07-29T15:29:35Z</time>
|
|---|
| 6085 | </trkpt>
|
|---|
| 6086 | <trkpt lat="43.60203" lon="1.42838">
|
|---|
| 6087 | <time>2011-07-29T15:30:37Z</time>
|
|---|
| 6088 | </trkpt>
|
|---|
| 6089 | <trkpt lat="43.60203" lon="1.42845">
|
|---|
| 6090 | <time>2011-07-29T15:30:41Z</time>
|
|---|
| 6091 | </trkpt>
|
|---|
| 6092 | <trkpt lat="43.60201" lon="1.42851">
|
|---|
| 6093 | <time>2011-07-29T15:30:45Z</time>
|
|---|
| 6094 | </trkpt>
|
|---|
| 6095 | <trkpt lat="43.60202" lon="1.42858">
|
|---|
| 6096 | <time>2011-07-29T15:30:48Z</time>
|
|---|
| 6097 | </trkpt>
|
|---|
| 6098 | <trkpt lat="43.60199" lon="1.42864">
|
|---|
| 6099 | <time>2011-07-29T15:30:51Z</time>
|
|---|
| 6100 | </trkpt>
|
|---|
| 6101 | <trkpt lat="43.60195" lon="1.42868">
|
|---|
| 6102 | <time>2011-07-29T15:30:55Z</time>
|
|---|
| 6103 | </trkpt>
|
|---|
| 6104 | <trkpt lat="43.60192" lon="1.42875">
|
|---|
| 6105 | <time>2011-07-29T15:30:58Z</time>
|
|---|
| 6106 | </trkpt>
|
|---|
| 6107 | <trkpt lat="43.60192" lon="1.42886">
|
|---|
| 6108 | <time>2011-07-29T15:31:09Z</time>
|
|---|
| 6109 | </trkpt>
|
|---|
| 6110 | <trkpt lat="43.60192" lon="1.42892">
|
|---|
| 6111 | <time>2011-07-29T15:31:12Z</time>
|
|---|
| 6112 | </trkpt>
|
|---|
| 6113 | <trkpt lat="43.60187" lon="1.42898">
|
|---|
| 6114 | <time>2011-07-29T15:31:16Z</time>
|
|---|
| 6115 | </trkpt>
|
|---|
| 6116 | <trkpt lat="43.60182" lon="1.42903">
|
|---|
| 6117 | <time>2011-07-29T15:31:22Z</time>
|
|---|
| 6118 | </trkpt>
|
|---|
| 6119 | <trkpt lat="43.60182" lon="1.4291">
|
|---|
| 6120 | <time>2011-07-29T15:31:28Z</time>
|
|---|
| 6121 | </trkpt>
|
|---|
| 6122 | <trkpt lat="43.60187" lon="1.42914">
|
|---|
| 6123 | <time>2011-07-29T15:31:30Z</time>
|
|---|
| 6124 | </trkpt>
|
|---|
| 6125 | <trkpt lat="43.60187" lon="1.4292">
|
|---|
| 6126 | <time>2011-07-29T15:31:34Z</time>
|
|---|
| 6127 | </trkpt>
|
|---|
| 6128 | <trkpt lat="43.60185" lon="1.42927">
|
|---|
| 6129 | <time>2011-07-29T15:31:38Z</time>
|
|---|
| 6130 | </trkpt>
|
|---|
| 6131 | <trkpt lat="43.60186" lon="1.42934">
|
|---|
| 6132 | <time>2011-07-29T15:31:43Z</time>
|
|---|
| 6133 | </trkpt>
|
|---|
| 6134 | <trkpt lat="43.60184" lon="1.42941">
|
|---|
| 6135 | <time>2011-07-29T15:32:17Z</time>
|
|---|
| 6136 | </trkpt>
|
|---|
| 6137 | <trkpt lat="43.60181" lon="1.42947">
|
|---|
| 6138 | <time>2011-07-29T15:32:19Z</time>
|
|---|
| 6139 | </trkpt>
|
|---|
| 6140 | <trkpt lat="43.60182" lon="1.42953">
|
|---|
| 6141 | <time>2011-07-29T15:32:23Z</time>
|
|---|
| 6142 | </trkpt>
|
|---|
| 6143 | <trkpt lat="43.60181" lon="1.42959">
|
|---|
| 6144 | <time>2011-07-29T15:32:27Z</time>
|
|---|
| 6145 | </trkpt>
|
|---|
| 6146 | <trkpt lat="43.60181" lon="1.42967">
|
|---|
| 6147 | <time>2011-07-29T15:32:31Z</time>
|
|---|
| 6148 | </trkpt>
|
|---|
| 6149 | <trkpt lat="43.6018" lon="1.42973">
|
|---|
| 6150 | <time>2011-07-29T15:32:35Z</time>
|
|---|
| 6151 | </trkpt>
|
|---|
| 6152 | <trkpt lat="43.60178" lon="1.42979">
|
|---|
| 6153 | <time>2011-07-29T15:32:39Z</time>
|
|---|
| 6154 | </trkpt>
|
|---|
| 6155 | <trkpt lat="43.60177" lon="1.42987">
|
|---|
| 6156 | <time>2011-07-29T15:32:43Z</time>
|
|---|
| 6157 | </trkpt>
|
|---|
| 6158 | <trkpt lat="43.60175" lon="1.42994">
|
|---|
| 6159 | <time>2011-07-29T15:32:47Z</time>
|
|---|
| 6160 | </trkpt>
|
|---|
| 6161 | <trkpt lat="43.60173" lon="1.43">
|
|---|
| 6162 | <time>2011-07-29T15:32:51Z</time>
|
|---|
| 6163 | </trkpt>
|
|---|
| 6164 | <trkpt lat="43.60172" lon="1.43006">
|
|---|
| 6165 | <time>2011-07-29T15:33:18Z</time>
|
|---|
| 6166 | </trkpt>
|
|---|
| 6167 | <trkpt lat="43.60171" lon="1.43013">
|
|---|
| 6168 | <time>2011-07-29T15:33:21Z</time>
|
|---|
| 6169 | </trkpt>
|
|---|
| 6170 | <trkpt lat="43.60169" lon="1.43019">
|
|---|
| 6171 | <time>2011-07-29T15:33:24Z</time>
|
|---|
| 6172 | </trkpt>
|
|---|
| 6173 | <trkpt lat="43.60168" lon="1.43026">
|
|---|
| 6174 | <time>2011-07-29T15:33:28Z</time>
|
|---|
| 6175 | </trkpt>
|
|---|
| 6176 | <trkpt lat="43.60167" lon="1.43032">
|
|---|
| 6177 | <time>2011-07-29T15:33:33Z</time>
|
|---|
| 6178 | </trkpt>
|
|---|
| 6179 | <trkpt lat="43.60167" lon="1.4304">
|
|---|
| 6180 | <time>2011-07-29T15:33:36Z</time>
|
|---|
| 6181 | </trkpt>
|
|---|
| 6182 | <trkpt lat="43.60166" lon="1.43046">
|
|---|
| 6183 | <time>2011-07-29T15:33:41Z</time>
|
|---|
| 6184 | </trkpt>
|
|---|
| 6185 | <trkpt lat="43.60165" lon="1.43053">
|
|---|
| 6186 | <time>2011-07-29T15:33:43Z</time>
|
|---|
| 6187 | </trkpt>
|
|---|
| 6188 | <trkpt lat="43.60399" lon="1.43051">
|
|---|
| 6189 | <time>2011-07-29T16:09:28Z</time>
|
|---|
| 6190 | </trkpt>
|
|---|
| 6191 | <trkpt lat="43.60398" lon="1.43044">
|
|---|
| 6192 | <time>2011-07-29T16:09:33Z</time>
|
|---|
| 6193 | </trkpt>
|
|---|
| 6194 | <trkpt lat="43.60396" lon="1.43037">
|
|---|
| 6195 | <time>2011-07-29T16:09:58Z</time>
|
|---|
| 6196 | </trkpt>
|
|---|
| 6197 | <trkpt lat="43.60396" lon="1.4303">
|
|---|
| 6198 | <time>2011-07-29T16:10:06Z</time>
|
|---|
| 6199 | </trkpt>
|
|---|
| 6200 | <trkpt lat="43.60391" lon="1.43027">
|
|---|
| 6201 | <time>2011-07-29T16:10:12Z</time>
|
|---|
| 6202 | </trkpt>
|
|---|
| 6203 | <trkpt lat="43.60387" lon="1.43032">
|
|---|
| 6204 | <time>2011-07-29T16:10:24Z</time>
|
|---|
| 6205 | </trkpt>
|
|---|
| 6206 | <trkpt lat="43.60386" lon="1.43024">
|
|---|
| 6207 | <time>2011-07-29T16:10:48Z</time>
|
|---|
| 6208 | </trkpt>
|
|---|
| 6209 | <trkpt lat="43.60386" lon="1.43018">
|
|---|
| 6210 | <time>2011-07-29T16:10:52Z</time>
|
|---|
| 6211 | </trkpt>
|
|---|
| 6212 | <trkpt lat="43.60387" lon="1.43011">
|
|---|
| 6213 | <time>2011-07-29T16:10:56Z</time>
|
|---|
| 6214 | </trkpt>
|
|---|
| 6215 | <trkpt lat="43.60389" lon="1.43005">
|
|---|
| 6216 | <time>2011-07-29T16:11:05Z</time>
|
|---|
| 6217 | </trkpt>
|
|---|
| 6218 | <trkpt lat="43.60391" lon="1.42999">
|
|---|
| 6219 | <time>2011-07-29T16:11:09Z</time>
|
|---|
| 6220 | </trkpt>
|
|---|
| 6221 | <trkpt lat="43.60391" lon="1.42992">
|
|---|
| 6222 | <time>2011-07-29T16:11:14Z</time>
|
|---|
| 6223 | </trkpt>
|
|---|
| 6224 | <trkpt lat="43.60393" lon="1.42985">
|
|---|
| 6225 | <time>2011-07-29T16:11:18Z</time>
|
|---|
| 6226 | </trkpt>
|
|---|
| 6227 | <trkpt lat="43.60393" lon="1.42977">
|
|---|
| 6228 | <time>2011-07-29T16:11:21Z</time>
|
|---|
| 6229 | </trkpt>
|
|---|
| 6230 | <trkpt lat="43.60396" lon="1.42971">
|
|---|
| 6231 | <time>2011-07-29T16:11:25Z</time>
|
|---|
| 6232 | </trkpt>
|
|---|
| 6233 | <trkpt lat="43.60398" lon="1.42965">
|
|---|
| 6234 | <time>2011-07-29T16:11:29Z</time>
|
|---|
| 6235 | </trkpt>
|
|---|
| 6236 | <trkpt lat="43.604" lon="1.42959">
|
|---|
| 6237 | <time>2011-07-29T16:11:34Z</time>
|
|---|
| 6238 | </trkpt>
|
|---|
| 6239 | <trkpt lat="43.60401" lon="1.42952">
|
|---|
| 6240 | <time>2011-07-29T16:11:45Z</time>
|
|---|
| 6241 | </trkpt>
|
|---|
| 6242 | <trkpt lat="43.60401" lon="1.42943">
|
|---|
| 6243 | <time>2011-07-29T16:11:50Z</time>
|
|---|
| 6244 | </trkpt>
|
|---|
| 6245 | <trkpt lat="43.60404" lon="1.42938">
|
|---|
| 6246 | <time>2011-07-29T16:11:53Z</time>
|
|---|
| 6247 | </trkpt>
|
|---|
| 6248 | <trkpt lat="43.60408" lon="1.42934">
|
|---|
| 6249 | <time>2011-07-29T16:11:57Z</time>
|
|---|
| 6250 | </trkpt>
|
|---|
| 6251 | <trkpt lat="43.60416" lon="1.42935">
|
|---|
| 6252 | <time>2011-07-29T16:13:14Z</time>
|
|---|
| 6253 | </trkpt>
|
|---|
| 6254 | <trkpt lat="43.60422" lon="1.42937">
|
|---|
| 6255 | <time>2011-07-29T16:13:15Z</time>
|
|---|
| 6256 | </trkpt>
|
|---|
| 6257 | <trkpt lat="43.60427" lon="1.42937">
|
|---|
| 6258 | <time>2011-07-29T16:13:16Z</time>
|
|---|
| 6259 | </trkpt>
|
|---|
| 6260 | <trkpt lat="43.60433" lon="1.42941">
|
|---|
| 6261 | <time>2011-07-29T16:13:18Z</time>
|
|---|
| 6262 | </trkpt>
|
|---|
| 6263 | <trkpt lat="43.60437" lon="1.42945">
|
|---|
| 6264 | <time>2011-07-29T16:13:21Z</time>
|
|---|
| 6265 | </trkpt>
|
|---|
| 6266 | <trkpt lat="43.60442" lon="1.42945">
|
|---|
| 6267 | <time>2011-07-29T16:13:24Z</time>
|
|---|
| 6268 | </trkpt>
|
|---|
| 6269 | <trkpt lat="43.60445" lon="1.42938">
|
|---|
| 6270 | <time>2011-07-29T16:13:30Z</time>
|
|---|
| 6271 | </trkpt>
|
|---|
| 6272 | <trkpt lat="43.60446" lon="1.42932">
|
|---|
| 6273 | <time>2011-07-29T16:13:39Z</time>
|
|---|
| 6274 | </trkpt>
|
|---|
| 6275 | <trkpt lat="43.6045" lon="1.42942">
|
|---|
| 6276 | <time>2011-07-29T16:14:36Z</time>
|
|---|
| 6277 | </trkpt>
|
|---|
| 6278 | <trkpt lat="43.60455" lon="1.42946">
|
|---|
| 6279 | <time>2011-07-29T16:14:37Z</time>
|
|---|
| 6280 | </trkpt>
|
|---|
| 6281 | <trkpt lat="43.60463" lon="1.42954">
|
|---|
| 6282 | <time>2011-07-29T16:14:40Z</time>
|
|---|
| 6283 | </trkpt>
|
|---|
| 6284 | <trkpt lat="43.60467" lon="1.42957">
|
|---|
| 6285 | <time>2011-07-29T16:14:45Z</time>
|
|---|
| 6286 | </trkpt>
|
|---|
| 6287 | <trkpt lat="43.60472" lon="1.42952">
|
|---|
| 6288 | <time>2011-07-29T16:14:48Z</time>
|
|---|
| 6289 | </trkpt>
|
|---|
| 6290 | <trkpt lat="43.60479" lon="1.42948">
|
|---|
| 6291 | <time>2011-07-29T16:14:51Z</time>
|
|---|
| 6292 | </trkpt>
|
|---|
| 6293 | <trkpt lat="43.60486" lon="1.4294">
|
|---|
| 6294 | <time>2011-07-29T16:14:54Z</time>
|
|---|
| 6295 | </trkpt>
|
|---|
| 6296 | <trkpt lat="43.60488" lon="1.42933">
|
|---|
| 6297 | <time>2011-07-29T16:14:58Z</time>
|
|---|
| 6298 | </trkpt>
|
|---|
| 6299 | <trkpt lat="43.6049" lon="1.42923">
|
|---|
| 6300 | <time>2011-07-29T16:15:01Z</time>
|
|---|
| 6301 | </trkpt>
|
|---|
| 6302 | <trkpt lat="43.60491" lon="1.42915">
|
|---|
| 6303 | <time>2011-07-29T16:15:02Z</time>
|
|---|
| 6304 | </trkpt>
|
|---|
| 6305 | <trkpt lat="43.60486" lon="1.42918">
|
|---|
| 6306 | <time>2011-07-29T16:15:03Z</time>
|
|---|
| 6307 | </trkpt>
|
|---|
| 6308 | <trkpt lat="43.60481" lon="1.42914">
|
|---|
| 6309 | <time>2011-07-29T16:15:06Z</time>
|
|---|
| 6310 | </trkpt>
|
|---|
| 6311 | <trkpt lat="43.60486" lon="1.42909">
|
|---|
| 6312 | <time>2011-07-29T16:15:12Z</time>
|
|---|
| 6313 | </trkpt>
|
|---|
| 6314 | <trkpt lat="43.60494" lon="1.42919">
|
|---|
| 6315 | <time>2011-07-29T16:15:13Z</time>
|
|---|
| 6316 | </trkpt>
|
|---|
| 6317 | <trkpt lat="43.60499" lon="1.42918">
|
|---|
| 6318 | <time>2011-07-29T16:15:16Z</time>
|
|---|
| 6319 | </trkpt>
|
|---|
| 6320 | <trkpt lat="43.60501" lon="1.42911">
|
|---|
| 6321 | <time>2011-07-29T16:15:20Z</time>
|
|---|
| 6322 | </trkpt>
|
|---|
| 6323 | <trkpt lat="43.60496" lon="1.42906">
|
|---|
| 6324 | <time>2011-07-29T16:15:22Z</time>
|
|---|
| 6325 | </trkpt>
|
|---|
| 6326 | <trkpt lat="43.60494" lon="1.429">
|
|---|
| 6327 | <time>2011-07-29T16:15:27Z</time>
|
|---|
| 6328 | </trkpt>
|
|---|
| 6329 | <trkpt lat="43.60494" lon="1.42891">
|
|---|
| 6330 | <time>2011-07-29T16:15:32Z</time>
|
|---|
| 6331 | </trkpt>
|
|---|
| 6332 | <trkpt lat="43.60495" lon="1.42882">
|
|---|
| 6333 | <time>2011-07-29T16:15:33Z</time>
|
|---|
| 6334 | </trkpt>
|
|---|
| 6335 | <trkpt lat="43.60489" lon="1.42879">
|
|---|
| 6336 | <time>2011-07-29T16:15:36Z</time>
|
|---|
| 6337 | </trkpt>
|
|---|
| 6338 | <trkpt lat="43.60493" lon="1.42873">
|
|---|
| 6339 | <time>2011-07-29T16:15:38Z</time>
|
|---|
| 6340 | </trkpt>
|
|---|
| 6341 | <trkpt lat="43.60498" lon="1.42868">
|
|---|
| 6342 | <time>2011-07-29T16:15:43Z</time>
|
|---|
| 6343 | </trkpt>
|
|---|
| 6344 | <trkpt lat="43.60502" lon="1.4286">
|
|---|
| 6345 | <time>2011-07-29T16:15:47Z</time>
|
|---|
| 6346 | </trkpt>
|
|---|
| 6347 | <trkpt lat="43.60501" lon="1.42852">
|
|---|
| 6348 | <time>2011-07-29T16:15:49Z</time>
|
|---|
| 6349 | </trkpt>
|
|---|
| 6350 | <trkpt lat="43.60503" lon="1.42843">
|
|---|
| 6351 | <time>2011-07-29T16:15:53Z</time>
|
|---|
| 6352 | </trkpt>
|
|---|
| 6353 | <trkpt lat="43.60501" lon="1.42837">
|
|---|
| 6354 | <time>2011-07-29T16:16:11Z</time>
|
|---|
| 6355 | </trkpt>
|
|---|
| 6356 | <trkpt lat="43.60507" lon="1.42837">
|
|---|
| 6357 | <time>2011-07-29T16:16:15Z</time>
|
|---|
| 6358 | </trkpt>
|
|---|
| 6359 | <trkpt lat="43.60512" lon="1.42838">
|
|---|
| 6360 | <time>2011-07-29T16:16:17Z</time>
|
|---|
| 6361 | </trkpt>
|
|---|
| 6362 | <trkpt lat="43.60518" lon="1.42842">
|
|---|
| 6363 | <time>2011-07-29T16:16:19Z</time>
|
|---|
| 6364 | </trkpt>
|
|---|
| 6365 | <trkpt lat="43.60522" lon="1.42841">
|
|---|
| 6366 | <time>2011-07-29T16:16:21Z</time>
|
|---|
| 6367 | </trkpt>
|
|---|
| 6368 | <trkpt lat="43.60528" lon="1.42839">
|
|---|
| 6369 | <time>2011-07-29T16:16:23Z</time>
|
|---|
| 6370 | </trkpt>
|
|---|
| 6371 | <trkpt lat="43.60533" lon="1.42836">
|
|---|
| 6372 | <time>2011-07-29T16:16:26Z</time>
|
|---|
| 6373 | </trkpt>
|
|---|
| 6374 | <trkpt lat="43.60537" lon="1.42832">
|
|---|
| 6375 | <time>2011-07-29T16:16:28Z</time>
|
|---|
| 6376 | </trkpt>
|
|---|
| 6377 | <trkpt lat="43.60542" lon="1.42828">
|
|---|
| 6378 | <time>2011-07-29T16:16:31Z</time>
|
|---|
| 6379 | </trkpt>
|
|---|
| 6380 | <trkpt lat="43.60539" lon="1.42822">
|
|---|
| 6381 | <time>2011-07-29T16:16:36Z</time>
|
|---|
| 6382 | </trkpt>
|
|---|
| 6383 | <trkpt lat="43.60534" lon="1.42819">
|
|---|
| 6384 | <time>2011-07-29T16:16:39Z</time>
|
|---|
| 6385 | </trkpt>
|
|---|
| 6386 | <trkpt lat="43.60527" lon="1.42815">
|
|---|
| 6387 | <time>2011-07-29T16:16:43Z</time>
|
|---|
| 6388 | </trkpt>
|
|---|
| 6389 | <trkpt lat="43.60521" lon="1.42816">
|
|---|
| 6390 | <time>2011-07-29T16:16:48Z</time>
|
|---|
| 6391 | </trkpt>
|
|---|
| 6392 | <trkpt lat="43.60518" lon="1.42811">
|
|---|
| 6393 | <time>2011-07-29T16:17:10Z</time>
|
|---|
| 6394 | </trkpt>
|
|---|
| 6395 | <trkpt lat="43.60513" lon="1.42813">
|
|---|
| 6396 | <time>2011-07-29T16:17:13Z</time>
|
|---|
| 6397 | </trkpt>
|
|---|
| 6398 | <trkpt lat="43.60508" lon="1.42816">
|
|---|
| 6399 | <time>2011-07-29T16:17:16Z</time>
|
|---|
| 6400 | </trkpt>
|
|---|
| 6401 | <trkpt lat="43.60504" lon="1.42813">
|
|---|
| 6402 | <time>2011-07-29T16:17:20Z</time>
|
|---|
| 6403 | </trkpt>
|
|---|
| 6404 | <trkpt lat="43.60497" lon="1.42813">
|
|---|
| 6405 | <time>2011-07-29T16:17:25Z</time>
|
|---|
| 6406 | </trkpt>
|
|---|
| 6407 | <trkpt lat="43.60492" lon="1.42814">
|
|---|
| 6408 | <time>2011-07-29T16:17:29Z</time>
|
|---|
| 6409 | </trkpt>
|
|---|
| 6410 | <trkpt lat="43.60487" lon="1.42811">
|
|---|
| 6411 | <time>2011-07-29T16:17:40Z</time>
|
|---|
| 6412 | </trkpt>
|
|---|
| 6413 | <trkpt lat="43.60482" lon="1.42812">
|
|---|
| 6414 | <time>2011-07-29T16:17:43Z</time>
|
|---|
| 6415 | </trkpt>
|
|---|
| 6416 | <trkpt lat="43.60477" lon="1.42813">
|
|---|
| 6417 | <time>2011-07-29T16:17:45Z</time>
|
|---|
| 6418 | </trkpt>
|
|---|
| 6419 | <trkpt lat="43.60477" lon="1.42813">
|
|---|
| 6420 | <time>2011-07-29T16:17:45Z</time>
|
|---|
| 6421 | </trkpt>
|
|---|
| 6422 | <trkpt lat="43.60477" lon="1.42813">
|
|---|
| 6423 | <time>2011-07-29T16:17:46Z</time>
|
|---|
| 6424 | </trkpt>
|
|---|
| 6425 | <trkpt lat="43.60472" lon="1.4281">
|
|---|
| 6426 | <time>2011-07-29T16:17:49Z</time>
|
|---|
| 6427 | </trkpt>
|
|---|
| 6428 | <trkpt lat="43.60469" lon="1.42815">
|
|---|
| 6429 | <time>2011-07-29T16:17:55Z</time>
|
|---|
| 6430 | </trkpt>
|
|---|
| 6431 | <trkpt lat="43.60463" lon="1.42808">
|
|---|
| 6432 | <time>2011-07-29T16:18:06Z</time>
|
|---|
| 6433 | </trkpt>
|
|---|
| 6434 | <trkpt lat="43.60458" lon="1.42804">
|
|---|
| 6435 | <time>2011-07-29T16:18:08Z</time>
|
|---|
| 6436 | </trkpt>
|
|---|
| 6437 | <trkpt lat="43.60453" lon="1.42811">
|
|---|
| 6438 | <time>2011-07-29T16:18:21Z</time>
|
|---|
| 6439 | </trkpt>
|
|---|
| 6440 | <trkpt lat="43.60448" lon="1.42812">
|
|---|
| 6441 | <time>2011-07-29T16:18:26Z</time>
|
|---|
| 6442 | </trkpt>
|
|---|
| 6443 | <trkpt lat="43.60444" lon="1.42813">
|
|---|
| 6444 | <time>2011-07-29T16:18:29Z</time>
|
|---|
| 6445 | </trkpt>
|
|---|
| 6446 | <trkpt lat="43.60442" lon="1.42819">
|
|---|
| 6447 | <time>2011-07-29T16:18:42Z</time>
|
|---|
| 6448 | </trkpt>
|
|---|
| 6449 | <trkpt lat="43.60438" lon="1.42823">
|
|---|
| 6450 | <time>2011-07-29T16:18:48Z</time>
|
|---|
| 6451 | </trkpt>
|
|---|
| 6452 | <trkpt lat="43.60438" lon="1.42829">
|
|---|
| 6453 | <time>2011-07-29T16:18:57Z</time>
|
|---|
| 6454 | </trkpt>
|
|---|
| 6455 | <trkpt lat="43.60442" lon="1.42833">
|
|---|
| 6456 | <time>2011-07-29T16:19:43Z</time>
|
|---|
| 6457 | </trkpt>
|
|---|
| 6458 | <trkpt lat="43.60446" lon="1.42839">
|
|---|
| 6459 | <time>2011-07-29T16:20:10Z</time>
|
|---|
| 6460 | </trkpt>
|
|---|
| 6461 | <trkpt lat="43.60441" lon="1.42846">
|
|---|
| 6462 | <time>2011-07-29T16:20:13Z</time>
|
|---|
| 6463 | </trkpt>
|
|---|
| 6464 | <trkpt lat="43.60439" lon="1.42852">
|
|---|
| 6465 | <time>2011-07-29T16:20:18Z</time>
|
|---|
| 6466 | </trkpt>
|
|---|
| 6467 | <trkpt lat="43.60436" lon="1.42857">
|
|---|
| 6468 | <time>2011-07-29T16:20:37Z</time>
|
|---|
| 6469 | </trkpt>
|
|---|
| 6470 | <trkpt lat="43.60435" lon="1.42864">
|
|---|
| 6471 | <time>2011-07-29T16:20:41Z</time>
|
|---|
| 6472 | </trkpt>
|
|---|
| 6473 | <trkpt lat="43.60443" lon="1.4287">
|
|---|
| 6474 | <time>2011-07-29T16:20:44Z</time>
|
|---|
| 6475 | </trkpt>
|
|---|
| 6476 | <trkpt lat="43.60448" lon="1.42875">
|
|---|
| 6477 | <time>2011-07-29T16:20:47Z</time>
|
|---|
| 6478 | </trkpt>
|
|---|
| 6479 | <trkpt lat="43.60444" lon="1.42878">
|
|---|
| 6480 | <time>2011-07-29T16:20:55Z</time>
|
|---|
| 6481 | </trkpt>
|
|---|
| 6482 | <trkpt lat="43.60439" lon="1.42881">
|
|---|
| 6483 | <time>2011-07-29T16:21:08Z</time>
|
|---|
| 6484 | </trkpt>
|
|---|
| 6485 | <trkpt lat="43.60436" lon="1.42887">
|
|---|
| 6486 | <time>2011-07-29T16:21:12Z</time>
|
|---|
| 6487 | </trkpt>
|
|---|
| 6488 | <trkpt lat="43.6044" lon="1.42892">
|
|---|
| 6489 | <time>2011-07-29T16:21:15Z</time>
|
|---|
| 6490 | </trkpt>
|
|---|
| 6491 | <trkpt lat="43.60445" lon="1.42898">
|
|---|
| 6492 | <time>2011-07-29T16:21:18Z</time>
|
|---|
| 6493 | </trkpt>
|
|---|
| 6494 | <trkpt lat="43.60441" lon="1.42902">
|
|---|
| 6495 | <time>2011-07-29T16:21:21Z</time>
|
|---|
| 6496 | </trkpt>
|
|---|
| 6497 | <trkpt lat="43.60429" lon="1.42905">
|
|---|
| 6498 | <time>2011-07-29T16:21:33Z</time>
|
|---|
| 6499 | </trkpt>
|
|---|
| 6500 | <trkpt lat="43.60425" lon="1.42908">
|
|---|
| 6501 | <time>2011-07-29T16:21:35Z</time>
|
|---|
| 6502 | </trkpt>
|
|---|
| 6503 | <trkpt lat="43.60425" lon="1.42915">
|
|---|
| 6504 | <time>2011-07-29T16:21:40Z</time>
|
|---|
| 6505 | </trkpt>
|
|---|
| 6506 | <trkpt lat="43.60428" lon="1.42922">
|
|---|
| 6507 | <time>2011-07-29T16:21:44Z</time>
|
|---|
| 6508 | </trkpt>
|
|---|
| 6509 | <trkpt lat="43.60433" lon="1.42926">
|
|---|
| 6510 | <time>2011-07-29T16:21:47Z</time>
|
|---|
| 6511 | </trkpt>
|
|---|
| 6512 | <trkpt lat="43.60435" lon="1.42931">
|
|---|
| 6513 | <time>2011-07-29T16:21:56Z</time>
|
|---|
| 6514 | </trkpt>
|
|---|
| 6515 | <trkpt lat="43.60408" lon="1.42929">
|
|---|
| 6516 | <time>2011-07-29T16:21:57Z</time>
|
|---|
| 6517 | </trkpt>
|
|---|
| 6518 | <trkpt lat="43.60401" lon="1.42932">
|
|---|
| 6519 | <time>2011-07-29T16:21:59Z</time>
|
|---|
| 6520 | </trkpt>
|
|---|
| 6521 | <trkpt lat="43.60396" lon="1.42936">
|
|---|
| 6522 | <time>2011-07-29T16:22:02Z</time>
|
|---|
| 6523 | </trkpt>
|
|---|
| 6524 | <trkpt lat="43.60391" lon="1.42938">
|
|---|
| 6525 | <time>2011-07-29T16:22:04Z</time>
|
|---|
| 6526 | </trkpt>
|
|---|
| 6527 | <trkpt lat="43.60385" lon="1.42942">
|
|---|
| 6528 | <time>2011-07-29T16:22:08Z</time>
|
|---|
| 6529 | </trkpt>
|
|---|
| 6530 | <trkpt lat="43.60392" lon="1.42944">
|
|---|
| 6531 | <time>2011-07-29T16:22:09Z</time>
|
|---|
| 6532 | </trkpt>
|
|---|
| 6533 | <trkpt lat="43.60396" lon="1.42944">
|
|---|
| 6534 | <time>2011-07-29T16:22:15Z</time>
|
|---|
| 6535 | </trkpt>
|
|---|
| 6536 | <trkpt lat="43.60392" lon="1.42951">
|
|---|
| 6537 | <time>2011-07-29T16:22:24Z</time>
|
|---|
| 6538 | </trkpt>
|
|---|
| 6539 | <trkpt lat="43.60394" lon="1.42959">
|
|---|
| 6540 | <time>2011-07-29T16:22:28Z</time>
|
|---|
| 6541 | </trkpt>
|
|---|
| 6542 | <trkpt lat="43.60394" lon="1.42965">
|
|---|
| 6543 | <time>2011-07-29T16:22:32Z</time>
|
|---|
| 6544 | </trkpt>
|
|---|
| 6545 | <trkpt lat="43.60392" lon="1.42971">
|
|---|
| 6546 | <time>2011-07-29T16:22:36Z</time>
|
|---|
| 6547 | </trkpt>
|
|---|
| 6548 | <trkpt lat="43.6039" lon="1.42977">
|
|---|
| 6549 | <time>2011-07-29T16:22:39Z</time>
|
|---|
| 6550 | </trkpt>
|
|---|
| 6551 | <trkpt lat="43.60397" lon="1.42982">
|
|---|
| 6552 | <time>2011-07-29T16:22:42Z</time>
|
|---|
| 6553 | </trkpt>
|
|---|
| 6554 | <trkpt lat="43.604" lon="1.42987">
|
|---|
| 6555 | <time>2011-07-29T16:22:44Z</time>
|
|---|
| 6556 | </trkpt>
|
|---|
| 6557 | <trkpt lat="43.60402" lon="1.42992">
|
|---|
| 6558 | <time>2011-07-29T16:22:49Z</time>
|
|---|
| 6559 | </trkpt>
|
|---|
| 6560 | <trkpt lat="43.60399" lon="1.42998">
|
|---|
| 6561 | <time>2011-07-29T16:23:03Z</time>
|
|---|
| 6562 | </trkpt>
|
|---|
| 6563 | <trkpt lat="43.60397" lon="1.43004">
|
|---|
| 6564 | <time>2011-07-29T16:23:16Z</time>
|
|---|
| 6565 | </trkpt>
|
|---|
| 6566 | <trkpt lat="43.60395" lon="1.4301">
|
|---|
| 6567 | <time>2011-07-29T16:23:20Z</time>
|
|---|
| 6568 | </trkpt>
|
|---|
| 6569 | <trkpt lat="43.60391" lon="1.43013">
|
|---|
| 6570 | <time>2011-07-29T16:23:24Z</time>
|
|---|
| 6571 | </trkpt>
|
|---|
| 6572 | <trkpt lat="43.60393" lon="1.43019">
|
|---|
| 6573 | <time>2011-07-29T16:23:39Z</time>
|
|---|
| 6574 | </trkpt>
|
|---|
| 6575 | <trkpt lat="43.60394" lon="1.43026">
|
|---|
| 6576 | <time>2011-07-29T16:23:43Z</time>
|
|---|
| 6577 | </trkpt>
|
|---|
| 6578 | <trkpt lat="43.60394" lon="1.43032">
|
|---|
| 6579 | <time>2011-07-29T16:23:47Z</time>
|
|---|
| 6580 | </trkpt>
|
|---|
| 6581 | <trkpt lat="43.60391" lon="1.43039">
|
|---|
| 6582 | <time>2011-07-29T16:23:58Z</time>
|
|---|
| 6583 | </trkpt>
|
|---|
| 6584 | <trkpt lat="43.60392" lon="1.43046">
|
|---|
| 6585 | <time>2011-07-29T16:24:02Z</time>
|
|---|
| 6586 | </trkpt>
|
|---|
| 6587 | <trkpt lat="43.60395" lon="1.43051">
|
|---|
| 6588 | <time>2011-07-29T16:24:05Z</time>
|
|---|
| 6589 | </trkpt>
|
|---|
| 6590 | <trkpt lat="43.60462" lon="1.4305">
|
|---|
| 6591 | <time>2011-07-29T16:25:54Z</time>
|
|---|
| 6592 | </trkpt>
|
|---|
| 6593 | <trkpt lat="43.60466" lon="1.43046">
|
|---|
| 6594 | <time>2011-07-29T16:25:57Z</time>
|
|---|
| 6595 | </trkpt>
|
|---|
| 6596 | <trkpt lat="43.60471" lon="1.43042">
|
|---|
| 6597 | <time>2011-07-29T16:26:02Z</time>
|
|---|
| 6598 | </trkpt>
|
|---|
| 6599 | <trkpt lat="43.60476" lon="1.43041">
|
|---|
| 6600 | <time>2011-07-29T16:26:05Z</time>
|
|---|
| 6601 | </trkpt>
|
|---|
| 6602 | <trkpt lat="43.60479" lon="1.43036">
|
|---|
| 6603 | <time>2011-07-29T16:26:11Z</time>
|
|---|
| 6604 | </trkpt>
|
|---|
| 6605 | <trkpt lat="43.60482" lon="1.4303">
|
|---|
| 6606 | <time>2011-07-29T16:26:18Z</time>
|
|---|
| 6607 | </trkpt>
|
|---|
| 6608 | <trkpt lat="43.60486" lon="1.43026">
|
|---|
| 6609 | <time>2011-07-29T16:26:22Z</time>
|
|---|
| 6610 | </trkpt>
|
|---|
| 6611 | <trkpt lat="43.60485" lon="1.43019">
|
|---|
| 6612 | <time>2011-07-29T16:26:25Z</time>
|
|---|
| 6613 | </trkpt>
|
|---|
| 6614 | <trkpt lat="43.60483" lon="1.4301">
|
|---|
| 6615 | <time>2011-07-29T16:26:27Z</time>
|
|---|
| 6616 | </trkpt>
|
|---|
| 6617 | <trkpt lat="43.60484" lon="1.43004">
|
|---|
| 6618 | <time>2011-07-29T16:26:30Z</time>
|
|---|
| 6619 | </trkpt>
|
|---|
| 6620 | <trkpt lat="43.60484" lon="1.42997">
|
|---|
| 6621 | <time>2011-07-29T16:26:34Z</time>
|
|---|
| 6622 | </trkpt>
|
|---|
| 6623 | <trkpt lat="43.60489" lon="1.42991">
|
|---|
| 6624 | <time>2011-07-29T16:26:37Z</time>
|
|---|
| 6625 | </trkpt>
|
|---|
| 6626 | <trkpt lat="43.6049" lon="1.42985">
|
|---|
| 6627 | <time>2011-07-29T16:26:40Z</time>
|
|---|
| 6628 | </trkpt>
|
|---|
| 6629 | <trkpt lat="43.60494" lon="1.42978">
|
|---|
| 6630 | <time>2011-07-29T16:26:44Z</time>
|
|---|
| 6631 | </trkpt>
|
|---|
| 6632 | <trkpt lat="43.6049" lon="1.42975">
|
|---|
| 6633 | <time>2011-07-29T16:26:46Z</time>
|
|---|
| 6634 | </trkpt>
|
|---|
| 6635 | <trkpt lat="43.60492" lon="1.42969">
|
|---|
| 6636 | <time>2011-07-29T16:26:50Z</time>
|
|---|
| 6637 | </trkpt>
|
|---|
| 6638 | <trkpt lat="43.60488" lon="1.42967">
|
|---|
| 6639 | <time>2011-07-29T16:26:53Z</time>
|
|---|
| 6640 | </trkpt>
|
|---|
| 6641 | <trkpt lat="43.60491" lon="1.42961">
|
|---|
| 6642 | <time>2011-07-29T16:27:01Z</time>
|
|---|
| 6643 | </trkpt>
|
|---|
| 6644 | <trkpt lat="43.60492" lon="1.42955">
|
|---|
| 6645 | <time>2011-07-29T16:27:06Z</time>
|
|---|
| 6646 | </trkpt>
|
|---|
| 6647 | <trkpt lat="43.60495" lon="1.42948">
|
|---|
| 6648 | <time>2011-07-29T16:27:10Z</time>
|
|---|
| 6649 | </trkpt>
|
|---|
| 6650 | <trkpt lat="43.60496" lon="1.42941">
|
|---|
| 6651 | <time>2011-07-29T16:27:14Z</time>
|
|---|
| 6652 | </trkpt>
|
|---|
| 6653 | <trkpt lat="43.60499" lon="1.42936">
|
|---|
| 6654 | <time>2011-07-29T16:27:17Z</time>
|
|---|
| 6655 | </trkpt>
|
|---|
| 6656 | <trkpt lat="43.60503" lon="1.42931">
|
|---|
| 6657 | <time>2011-07-29T16:27:20Z</time>
|
|---|
| 6658 | </trkpt>
|
|---|
| 6659 | <trkpt lat="43.60507" lon="1.42927">
|
|---|
| 6660 | <time>2011-07-29T16:27:23Z</time>
|
|---|
| 6661 | </trkpt>
|
|---|
| 6662 | <trkpt lat="43.6051" lon="1.42922">
|
|---|
| 6663 | <time>2011-07-29T16:27:28Z</time>
|
|---|
| 6664 | </trkpt>
|
|---|
| 6665 | <trkpt lat="43.60506" lon="1.42923">
|
|---|
| 6666 | <time>2011-07-29T16:27:30Z</time>
|
|---|
| 6667 | </trkpt>
|
|---|
| 6668 | <trkpt lat="43.60508" lon="1.42917">
|
|---|
| 6669 | <time>2011-07-29T16:27:34Z</time>
|
|---|
| 6670 | </trkpt>
|
|---|
| 6671 | <trkpt lat="43.60506" lon="1.42911">
|
|---|
| 6672 | <time>2011-07-29T16:27:37Z</time>
|
|---|
| 6673 | </trkpt>
|
|---|
| 6674 | <trkpt lat="43.605" lon="1.42906">
|
|---|
| 6675 | <time>2011-07-29T16:27:39Z</time>
|
|---|
| 6676 | </trkpt>
|
|---|
| 6677 | <trkpt lat="43.60495" lon="1.42903">
|
|---|
| 6678 | <time>2011-07-29T16:27:41Z</time>
|
|---|
| 6679 | </trkpt>
|
|---|
| 6680 | <trkpt lat="43.60499" lon="1.42893">
|
|---|
| 6681 | <time>2011-07-29T16:27:46Z</time>
|
|---|
| 6682 | </trkpt>
|
|---|
| 6683 | <trkpt lat="43.605" lon="1.42885">
|
|---|
| 6684 | <time>2011-07-29T16:27:49Z</time>
|
|---|
| 6685 | </trkpt>
|
|---|
| 6686 | <trkpt lat="43.60498" lon="1.42879">
|
|---|
| 6687 | <time>2011-07-29T16:27:53Z</time>
|
|---|
| 6688 | </trkpt>
|
|---|
| 6689 | <trkpt lat="43.60498" lon="1.42879">
|
|---|
| 6690 | <time>2011-07-29T16:27:53Z</time>
|
|---|
| 6691 | </trkpt>
|
|---|
| 6692 | <trkpt lat="43.60498" lon="1.42879">
|
|---|
| 6693 | <time>2011-07-29T16:27:54Z</time>
|
|---|
| 6694 | </trkpt>
|
|---|
| 6695 | <trkpt lat="43.60494" lon="1.42873">
|
|---|
| 6696 | <time>2011-07-29T16:27:58Z</time>
|
|---|
| 6697 | </trkpt>
|
|---|
| 6698 | <trkpt lat="43.60498" lon="1.42866">
|
|---|
| 6699 | <time>2011-07-29T16:28:01Z</time>
|
|---|
| 6700 | </trkpt>
|
|---|
| 6701 | <trkpt lat="43.60495" lon="1.4286">
|
|---|
| 6702 | <time>2011-07-29T16:28:04Z</time>
|
|---|
| 6703 | </trkpt>
|
|---|
| 6704 | <trkpt lat="43.60491" lon="1.42856">
|
|---|
| 6705 | <time>2011-07-29T16:28:07Z</time>
|
|---|
| 6706 | </trkpt>
|
|---|
| 6707 | <trkpt lat="43.60486" lon="1.42853">
|
|---|
| 6708 | <time>2011-07-29T16:28:10Z</time>
|
|---|
| 6709 | </trkpt>
|
|---|
| 6710 | <trkpt lat="43.60482" lon="1.42851">
|
|---|
| 6711 | <time>2011-07-29T16:28:13Z</time>
|
|---|
| 6712 | </trkpt>
|
|---|
| 6713 | <trkpt lat="43.60479" lon="1.42846">
|
|---|
| 6714 | <time>2011-07-29T16:28:15Z</time>
|
|---|
| 6715 | </trkpt>
|
|---|
| 6716 | <trkpt lat="43.60476" lon="1.42842">
|
|---|
| 6717 | <time>2011-07-29T16:28:17Z</time>
|
|---|
| 6718 | </trkpt>
|
|---|
| 6719 | <trkpt lat="43.60472" lon="1.42839">
|
|---|
| 6720 | <time>2011-07-29T16:28:20Z</time>
|
|---|
| 6721 | </trkpt>
|
|---|
| 6722 | <trkpt lat="43.60466" lon="1.42837">
|
|---|
| 6723 | <time>2011-07-29T16:28:24Z</time>
|
|---|
| 6724 | </trkpt>
|
|---|
| 6725 | <trkpt lat="43.60462" lon="1.42841">
|
|---|
| 6726 | <time>2011-07-29T16:28:29Z</time>
|
|---|
| 6727 | </trkpt>
|
|---|
| 6728 | <trkpt lat="43.60457" lon="1.42842">
|
|---|
| 6729 | <time>2011-07-29T16:28:33Z</time>
|
|---|
| 6730 | </trkpt>
|
|---|
| 6731 | </trkseg>
|
|---|
| 6732 | </trk>
|
|---|
| 6733 | <trk>
|
|---|
| 6734 | <name>2010_12_29_17_08_41.gpx</name>
|
|---|
| 6735 | <desc>Toulouse -> Allées Charles de fitte + pont des Catalans</desc>
|
|---|
| 6736 | <link href="https://api.openstreetmap.org/user/don-vip/traces/893061">
|
|---|
| 6737 | </link>
|
|---|
| 6738 | <trkseg>
|
|---|
| 6739 | <trkpt lat="43.601126" lon="1.4287054">
|
|---|
| 6740 | <time>2010-12-29T16:14:26Z</time>
|
|---|
| 6741 | </trkpt>
|
|---|
| 6742 | <trkpt lat="43.601126" lon="1.4286947">
|
|---|
| 6743 | <time>2010-12-29T16:14:27Z</time>
|
|---|
| 6744 | </trkpt>
|
|---|
| 6745 | <trkpt lat="43.601126" lon="1.4286518">
|
|---|
| 6746 | <time>2010-12-29T16:14:29Z</time>
|
|---|
| 6747 | </trkpt>
|
|---|
| 6748 | <trkpt lat="43.601126" lon="1.4285874">
|
|---|
| 6749 | <time>2010-12-29T16:14:34Z</time>
|
|---|
| 6750 | </trkpt>
|
|---|
| 6751 | <trkpt lat="43.6011314" lon="1.4285874">
|
|---|
| 6752 | <time>2010-12-29T16:14:35Z</time>
|
|---|
| 6753 | </trkpt>
|
|---|
| 6754 | <trkpt lat="43.6011421" lon="1.428582">
|
|---|
| 6755 | <time>2010-12-29T16:14:36Z</time>
|
|---|
| 6756 | </trkpt>
|
|---|
| 6757 | <trkpt lat="43.6011528" lon="1.4285713">
|
|---|
| 6758 | <time>2010-12-29T16:14:37Z</time>
|
|---|
| 6759 | </trkpt>
|
|---|
| 6760 | <trkpt lat="43.6011636" lon="1.4285606">
|
|---|
| 6761 | <time>2010-12-29T16:14:38Z</time>
|
|---|
| 6762 | </trkpt>
|
|---|
| 6763 | <trkpt lat="43.6011689" lon="1.4285498">
|
|---|
| 6764 | <time>2010-12-29T16:14:39Z</time>
|
|---|
| 6765 | </trkpt>
|
|---|
| 6766 | <trkpt lat="43.6011797" lon="1.4285445">
|
|---|
| 6767 | <time>2010-12-29T16:14:40Z</time>
|
|---|
| 6768 | </trkpt>
|
|---|
| 6769 | <trkpt lat="43.601185" lon="1.4285337">
|
|---|
| 6770 | <time>2010-12-29T16:14:41Z</time>
|
|---|
| 6771 | </trkpt>
|
|---|
| 6772 | <trkpt lat="43.6011958" lon="1.4285176">
|
|---|
| 6773 | <time>2010-12-29T16:14:42Z</time>
|
|---|
| 6774 | </trkpt>
|
|---|
| 6775 | <trkpt lat="43.6012065" lon="1.4285123">
|
|---|
| 6776 | <time>2010-12-29T16:14:43Z</time>
|
|---|
| 6777 | </trkpt>
|
|---|
| 6778 | <trkpt lat="43.6012172" lon="1.4285016">
|
|---|
| 6779 | <time>2010-12-29T16:14:44Z</time>
|
|---|
| 6780 | </trkpt>
|
|---|
| 6781 | <trkpt lat="43.6012226" lon="1.4284962">
|
|---|
| 6782 | <time>2010-12-29T16:14:45Z</time>
|
|---|
| 6783 | </trkpt>
|
|---|
| 6784 | <trkpt lat="43.6012333" lon="1.4284855">
|
|---|
| 6785 | <time>2010-12-29T16:14:46Z</time>
|
|---|
| 6786 | </trkpt>
|
|---|
| 6787 | <trkpt lat="43.6012333" lon="1.4284747">
|
|---|
| 6788 | <time>2010-12-29T16:14:47Z</time>
|
|---|
| 6789 | </trkpt>
|
|---|
| 6790 | <trkpt lat="43.6012387" lon="1.428464">
|
|---|
| 6791 | <time>2010-12-29T16:14:48Z</time>
|
|---|
| 6792 | </trkpt>
|
|---|
| 6793 | <trkpt lat="43.6012494" lon="1.4284533">
|
|---|
| 6794 | <time>2010-12-29T16:14:49Z</time>
|
|---|
| 6795 | </trkpt>
|
|---|
| 6796 | <trkpt lat="43.6012494" lon="1.4284425">
|
|---|
| 6797 | <time>2010-12-29T16:14:50Z</time>
|
|---|
| 6798 | </trkpt>
|
|---|
| 6799 | <trkpt lat="43.6012548" lon="1.4284372">
|
|---|
| 6800 | <time>2010-12-29T16:14:51Z</time>
|
|---|
| 6801 | </trkpt>
|
|---|
| 6802 | <trkpt lat="43.6012601" lon="1.4284372">
|
|---|
| 6803 | <time>2010-12-29T16:14:52Z</time>
|
|---|
| 6804 | </trkpt>
|
|---|
| 6805 | <trkpt lat="43.6012709" lon="1.4284318">
|
|---|
| 6806 | <time>2010-12-29T16:14:53Z</time>
|
|---|
| 6807 | </trkpt>
|
|---|
| 6808 | <trkpt lat="43.6012816" lon="1.4284265">
|
|---|
| 6809 | <time>2010-12-29T16:14:54Z</time>
|
|---|
| 6810 | </trkpt>
|
|---|
| 6811 | <trkpt lat="43.6012977" lon="1.4284157">
|
|---|
| 6812 | <time>2010-12-29T16:14:55Z</time>
|
|---|
| 6813 | </trkpt>
|
|---|
| 6814 | <trkpt lat="43.6013138" lon="1.4284211">
|
|---|
| 6815 | <time>2010-12-29T16:14:56Z</time>
|
|---|
| 6816 | </trkpt>
|
|---|
| 6817 | <trkpt lat="43.6013299" lon="1.4284104">
|
|---|
| 6818 | <time>2010-12-29T16:14:57Z</time>
|
|---|
| 6819 | </trkpt>
|
|---|
| 6820 | <trkpt lat="43.601346" lon="1.4283943">
|
|---|
| 6821 | <time>2010-12-29T16:14:58Z</time>
|
|---|
| 6822 | </trkpt>
|
|---|
| 6823 | <trkpt lat="43.6013621" lon="1.4283835">
|
|---|
| 6824 | <time>2010-12-29T16:14:59Z</time>
|
|---|
| 6825 | </trkpt>
|
|---|
| 6826 | <trkpt lat="43.6013782" lon="1.4283728">
|
|---|
| 6827 | <time>2010-12-29T16:15:00Z</time>
|
|---|
| 6828 | </trkpt>
|
|---|
| 6829 | <trkpt lat="43.6013942" lon="1.4283674">
|
|---|
| 6830 | <time>2010-12-29T16:15:01Z</time>
|
|---|
| 6831 | </trkpt>
|
|---|
| 6832 | <trkpt lat="43.601405" lon="1.4283621">
|
|---|
| 6833 | <time>2010-12-29T16:15:02Z</time>
|
|---|
| 6834 | </trkpt>
|
|---|
| 6835 | <trkpt lat="43.6014211" lon="1.4283514">
|
|---|
| 6836 | <time>2010-12-29T16:15:03Z</time>
|
|---|
| 6837 | </trkpt>
|
|---|
| 6838 | <trkpt lat="43.6014318" lon="1.4283406">
|
|---|
| 6839 | <time>2010-12-29T16:15:04Z</time>
|
|---|
| 6840 | </trkpt>
|
|---|
| 6841 | <trkpt lat="43.6014425" lon="1.4283299">
|
|---|
| 6842 | <time>2010-12-29T16:15:05Z</time>
|
|---|
| 6843 | </trkpt>
|
|---|
| 6844 | <trkpt lat="43.6014533" lon="1.4283192">
|
|---|
| 6845 | <time>2010-12-29T16:15:06Z</time>
|
|---|
| 6846 | </trkpt>
|
|---|
| 6847 | <trkpt lat="43.601464" lon="1.4283192">
|
|---|
| 6848 | <time>2010-12-29T16:15:07Z</time>
|
|---|
| 6849 | </trkpt>
|
|---|
| 6850 | <trkpt lat="43.6014747" lon="1.4283138">
|
|---|
| 6851 | <time>2010-12-29T16:15:08Z</time>
|
|---|
| 6852 | </trkpt>
|
|---|
| 6853 | <trkpt lat="43.6014854" lon="1.4283084">
|
|---|
| 6854 | <time>2010-12-29T16:15:09Z</time>
|
|---|
| 6855 | </trkpt>
|
|---|
| 6856 | <trkpt lat="43.6015015" lon="1.4282977">
|
|---|
| 6857 | <time>2010-12-29T16:15:10Z</time>
|
|---|
| 6858 | </trkpt>
|
|---|
| 6859 | <trkpt lat="43.6015015" lon="1.4282977">
|
|---|
| 6860 | <time>2010-12-29T16:15:11Z</time>
|
|---|
| 6861 | </trkpt>
|
|---|
| 6862 | <trkpt lat="43.6015015" lon="1.4282977">
|
|---|
| 6863 | <time>2010-12-29T16:15:12Z</time>
|
|---|
| 6864 | </trkpt>
|
|---|
| 6865 | <trkpt lat="43.6015015" lon="1.4282977">
|
|---|
| 6866 | <time>2010-12-29T16:15:13Z</time>
|
|---|
| 6867 | </trkpt>
|
|---|
| 6868 | <trkpt lat="43.6014962" lon="1.4282977">
|
|---|
| 6869 | <time>2010-12-29T16:15:14Z</time>
|
|---|
| 6870 | </trkpt>
|
|---|
| 6871 | <trkpt lat="43.6014962" lon="1.4282977">
|
|---|
| 6872 | <time>2010-12-29T16:15:15Z</time>
|
|---|
| 6873 | </trkpt>
|
|---|
| 6874 | <trkpt lat="43.6014962" lon="1.4282977">
|
|---|
| 6875 | <time>2010-12-29T16:15:16Z</time>
|
|---|
| 6876 | </trkpt>
|
|---|
| 6877 | <trkpt lat="43.6014962" lon="1.4282977">
|
|---|
| 6878 | <time>2010-12-29T16:15:17Z</time>
|
|---|
| 6879 | </trkpt>
|
|---|
| 6880 | <trkpt lat="43.6014962" lon="1.4282977">
|
|---|
| 6881 | <time>2010-12-29T16:15:18Z</time>
|
|---|
| 6882 | </trkpt>
|
|---|
| 6883 | <trkpt lat="43.6014962" lon="1.4282977">
|
|---|
| 6884 | <time>2010-12-29T16:15:19Z</time>
|
|---|
| 6885 | </trkpt>
|
|---|
| 6886 | <trkpt lat="43.6014962" lon="1.4282977">
|
|---|
| 6887 | <time>2010-12-29T16:15:20Z</time>
|
|---|
| 6888 | </trkpt>
|
|---|
| 6889 | <trkpt lat="43.6015176" lon="1.4282923">
|
|---|
| 6890 | <time>2010-12-29T16:15:21Z</time>
|
|---|
| 6891 | </trkpt>
|
|---|
| 6892 | <trkpt lat="43.6015391" lon="1.4282655">
|
|---|
| 6893 | <time>2010-12-29T16:15:22Z</time>
|
|---|
| 6894 | </trkpt>
|
|---|
| 6895 | <trkpt lat="43.6015605" lon="1.4282548">
|
|---|
| 6896 | <time>2010-12-29T16:15:23Z</time>
|
|---|
| 6897 | </trkpt>
|
|---|
| 6898 | <trkpt lat="43.6015766" lon="1.4282494">
|
|---|
| 6899 | <time>2010-12-29T16:15:24Z</time>
|
|---|
| 6900 | </trkpt>
|
|---|
| 6901 | <trkpt lat="43.6015874" lon="1.4282333">
|
|---|
| 6902 | <time>2010-12-29T16:15:25Z</time>
|
|---|
| 6903 | </trkpt>
|
|---|
| 6904 | <trkpt lat="43.6016035" lon="1.428228">
|
|---|
| 6905 | <time>2010-12-29T16:15:26Z</time>
|
|---|
| 6906 | </trkpt>
|
|---|
| 6907 | <trkpt lat="43.6016196" lon="1.4282119">
|
|---|
| 6908 | <time>2010-12-29T16:15:27Z</time>
|
|---|
| 6909 | </trkpt>
|
|---|
| 6910 | <trkpt lat="43.6016356" lon="1.4281958">
|
|---|
| 6911 | <time>2010-12-29T16:15:28Z</time>
|
|---|
| 6912 | </trkpt>
|
|---|
| 6913 | <trkpt lat="43.6016517" lon="1.4281851">
|
|---|
| 6914 | <time>2010-12-29T16:15:29Z</time>
|
|---|
| 6915 | </trkpt>
|
|---|
| 6916 | <trkpt lat="43.6016517" lon="1.4281851">
|
|---|
| 6917 | <time>2010-12-29T16:15:30Z</time>
|
|---|
| 6918 | </trkpt>
|
|---|
| 6919 | <trkpt lat="43.6016678" lon="1.4281743">
|
|---|
| 6920 | <time>2010-12-29T16:15:31Z</time>
|
|---|
| 6921 | </trkpt>
|
|---|
| 6922 | <trkpt lat="43.6016839" lon="1.4281636">
|
|---|
| 6923 | <time>2010-12-29T16:15:32Z</time>
|
|---|
| 6924 | </trkpt>
|
|---|
| 6925 | <trkpt lat="43.6017" lon="1.4281636">
|
|---|
| 6926 | <time>2010-12-29T16:15:33Z</time>
|
|---|
| 6927 | </trkpt>
|
|---|
| 6928 | <trkpt lat="43.6017107" lon="1.4281582">
|
|---|
| 6929 | <time>2010-12-29T16:15:34Z</time>
|
|---|
| 6930 | </trkpt>
|
|---|
| 6931 | <trkpt lat="43.6017215" lon="1.4281529">
|
|---|
| 6932 | <time>2010-12-29T16:15:35Z</time>
|
|---|
| 6933 | </trkpt>
|
|---|
| 6934 | <trkpt lat="43.6017215" lon="1.4281368">
|
|---|
| 6935 | <time>2010-12-29T16:15:36Z</time>
|
|---|
| 6936 | </trkpt>
|
|---|
| 6937 | <trkpt lat="43.6017268" lon="1.4281368">
|
|---|
| 6938 | <time>2010-12-29T16:15:37Z</time>
|
|---|
| 6939 | </trkpt>
|
|---|
| 6940 | <trkpt lat="43.6017376" lon="1.4281368">
|
|---|
| 6941 | <time>2010-12-29T16:15:38Z</time>
|
|---|
| 6942 | </trkpt>
|
|---|
| 6943 | <trkpt lat="43.6017483" lon="1.428126">
|
|---|
| 6944 | <time>2010-12-29T16:15:39Z</time>
|
|---|
| 6945 | </trkpt>
|
|---|
| 6946 | <trkpt lat="43.6017376" lon="1.4281314">
|
|---|
| 6947 | <time>2010-12-29T16:15:40Z</time>
|
|---|
| 6948 | </trkpt>
|
|---|
| 6949 | <trkpt lat="43.6017322" lon="1.428126">
|
|---|
| 6950 | <time>2010-12-29T16:15:41Z</time>
|
|---|
| 6951 | </trkpt>
|
|---|
| 6952 | <trkpt lat="43.6017322" lon="1.428126">
|
|---|
| 6953 | <time>2010-12-29T16:15:42Z</time>
|
|---|
| 6954 | </trkpt>
|
|---|
| 6955 | <trkpt lat="43.6017268" lon="1.428126">
|
|---|
| 6956 | <time>2010-12-29T16:15:43Z</time>
|
|---|
| 6957 | </trkpt>
|
|---|
| 6958 | <trkpt lat="43.6017268" lon="1.428126">
|
|---|
| 6959 | <time>2010-12-29T16:15:44Z</time>
|
|---|
| 6960 | </trkpt>
|
|---|
| 6961 | <trkpt lat="43.6017268" lon="1.4281207">
|
|---|
| 6962 | <time>2010-12-29T16:15:45Z</time>
|
|---|
| 6963 | </trkpt>
|
|---|
| 6964 | <trkpt lat="43.6017268" lon="1.428126">
|
|---|
| 6965 | <time>2010-12-29T16:15:46Z</time>
|
|---|
| 6966 | </trkpt>
|
|---|
| 6967 | <trkpt lat="43.6017268" lon="1.428126">
|
|---|
| 6968 | <time>2010-12-29T16:15:47Z</time>
|
|---|
| 6969 | </trkpt>
|
|---|
| 6970 | <trkpt lat="43.6017268" lon="1.428126">
|
|---|
| 6971 | <time>2010-12-29T16:15:48Z</time>
|
|---|
| 6972 | </trkpt>
|
|---|
| 6973 | <trkpt lat="43.6017268" lon="1.428126">
|
|---|
| 6974 | <time>2010-12-29T16:15:49Z</time>
|
|---|
| 6975 | </trkpt>
|
|---|
| 6976 | <trkpt lat="43.6017429" lon="1.4281207">
|
|---|
| 6977 | <time>2010-12-29T16:15:50Z</time>
|
|---|
| 6978 | </trkpt>
|
|---|
| 6979 | <trkpt lat="43.6017483" lon="1.4281153">
|
|---|
| 6980 | <time>2010-12-29T16:15:51Z</time>
|
|---|
| 6981 | </trkpt>
|
|---|
| 6982 | <trkpt lat="43.601759" lon="1.4281046">
|
|---|
| 6983 | <time>2010-12-29T16:15:52Z</time>
|
|---|
| 6984 | </trkpt>
|
|---|
| 6985 | <trkpt lat="43.6017805" lon="1.4281153">
|
|---|
| 6986 | <time>2010-12-29T16:15:53Z</time>
|
|---|
| 6987 | </trkpt>
|
|---|
| 6988 | <trkpt lat="43.6018073" lon="1.4281046">
|
|---|
| 6989 | <time>2010-12-29T16:15:54Z</time>
|
|---|
| 6990 | </trkpt>
|
|---|
| 6991 | <trkpt lat="43.6018234" lon="1.4280992">
|
|---|
| 6992 | <time>2010-12-29T16:15:55Z</time>
|
|---|
| 6993 | </trkpt>
|
|---|
| 6994 | <trkpt lat="43.6018341" lon="1.4280885">
|
|---|
| 6995 | <time>2010-12-29T16:15:56Z</time>
|
|---|
| 6996 | </trkpt>
|
|---|
| 6997 | <trkpt lat="43.6018502" lon="1.4280831">
|
|---|
| 6998 | <time>2010-12-29T16:15:57Z</time>
|
|---|
| 6999 | </trkpt>
|
|---|
| 7000 | <trkpt lat="43.6018556" lon="1.428067">
|
|---|
| 7001 | <time>2010-12-29T16:15:58Z</time>
|
|---|
| 7002 | </trkpt>
|
|---|
| 7003 | <trkpt lat="43.6018717" lon="1.4280724">
|
|---|
| 7004 | <time>2010-12-29T16:15:59Z</time>
|
|---|
| 7005 | </trkpt>
|
|---|
| 7006 | <trkpt lat="43.6018824" lon="1.4280509">
|
|---|
| 7007 | <time>2010-12-29T16:16:00Z</time>
|
|---|
| 7008 | </trkpt>
|
|---|
| 7009 | <trkpt lat="43.6018985" lon="1.4280402">
|
|---|
| 7010 | <time>2010-12-29T16:16:01Z</time>
|
|---|
| 7011 | </trkpt>
|
|---|
| 7012 | <trkpt lat="43.60192" lon="1.4280456">
|
|---|
| 7013 | <time>2010-12-29T16:16:02Z</time>
|
|---|
| 7014 | </trkpt>
|
|---|
| 7015 | <trkpt lat="43.6019361" lon="1.4280402">
|
|---|
| 7016 | <time>2010-12-29T16:16:03Z</time>
|
|---|
| 7017 | </trkpt>
|
|---|
| 7018 | <trkpt lat="43.6019521" lon="1.4280241">
|
|---|
| 7019 | <time>2010-12-29T16:16:04Z</time>
|
|---|
| 7020 | </trkpt>
|
|---|
| 7021 | <trkpt lat="43.6019629" lon="1.4280188">
|
|---|
| 7022 | <time>2010-12-29T16:16:05Z</time>
|
|---|
| 7023 | </trkpt>
|
|---|
| 7024 | <trkpt lat="43.601979" lon="1.4280241">
|
|---|
| 7025 | <time>2010-12-29T16:16:06Z</time>
|
|---|
| 7026 | </trkpt>
|
|---|
| 7027 | <trkpt lat="43.6019897" lon="1.428008">
|
|---|
| 7028 | <time>2010-12-29T16:16:07Z</time>
|
|---|
| 7029 | </trkpt>
|
|---|
| 7030 | <trkpt lat="43.6019951" lon="1.428008">
|
|---|
| 7031 | <time>2010-12-29T16:16:08Z</time>
|
|---|
| 7032 | </trkpt>
|
|---|
| 7033 | <trkpt lat="43.6019951" lon="1.4279973">
|
|---|
| 7034 | <time>2010-12-29T16:16:09Z</time>
|
|---|
| 7035 | </trkpt>
|
|---|
| 7036 | <trkpt lat="43.6019897" lon="1.4279919">
|
|---|
| 7037 | <time>2010-12-29T16:16:10Z</time>
|
|---|
| 7038 | </trkpt>
|
|---|
| 7039 | <trkpt lat="43.6019951" lon="1.4279866">
|
|---|
| 7040 | <time>2010-12-29T16:16:11Z</time>
|
|---|
| 7041 | </trkpt>
|
|---|
| 7042 | <trkpt lat="43.6019951" lon="1.4279919">
|
|---|
| 7043 | <time>2010-12-29T16:16:12Z</time>
|
|---|
| 7044 | </trkpt>
|
|---|
| 7045 | <trkpt lat="43.6019951" lon="1.4279866">
|
|---|
| 7046 | <time>2010-12-29T16:16:13Z</time>
|
|---|
| 7047 | </trkpt>
|
|---|
| 7048 | <trkpt lat="43.6019951" lon="1.4279866">
|
|---|
| 7049 | <time>2010-12-29T16:16:14Z</time>
|
|---|
| 7050 | </trkpt>
|
|---|
| 7051 | <trkpt lat="43.6020058" lon="1.4279919">
|
|---|
| 7052 | <time>2010-12-29T16:16:15Z</time>
|
|---|
| 7053 | </trkpt>
|
|---|
| 7054 | <trkpt lat="43.6020219" lon="1.4279919">
|
|---|
| 7055 | <time>2010-12-29T16:16:16Z</time>
|
|---|
| 7056 | </trkpt>
|
|---|
| 7057 | <trkpt lat="43.6020272" lon="1.4279919">
|
|---|
| 7058 | <time>2010-12-29T16:16:17Z</time>
|
|---|
| 7059 | </trkpt>
|
|---|
| 7060 | <trkpt lat="43.6020433" lon="1.4279973">
|
|---|
| 7061 | <time>2010-12-29T16:16:18Z</time>
|
|---|
| 7062 | </trkpt>
|
|---|
| 7063 | <trkpt lat="43.6020594" lon="1.4280027">
|
|---|
| 7064 | <time>2010-12-29T16:16:19Z</time>
|
|---|
| 7065 | </trkpt>
|
|---|
| 7066 | <trkpt lat="43.6020702" lon="1.4280027">
|
|---|
| 7067 | <time>2010-12-29T16:16:20Z</time>
|
|---|
| 7068 | </trkpt>
|
|---|
| 7069 | <trkpt lat="43.6020863" lon="1.4280027">
|
|---|
| 7070 | <time>2010-12-29T16:16:21Z</time>
|
|---|
| 7071 | </trkpt>
|
|---|
| 7072 | <trkpt lat="43.602097" lon="1.4280027">
|
|---|
| 7073 | <time>2010-12-29T16:16:22Z</time>
|
|---|
| 7074 | </trkpt>
|
|---|
| 7075 | <trkpt lat="43.6021131" lon="1.4279973">
|
|---|
| 7076 | <time>2010-12-29T16:16:23Z</time>
|
|---|
| 7077 | </trkpt>
|
|---|
| 7078 | <trkpt lat="43.6021292" lon="1.4279919">
|
|---|
| 7079 | <time>2010-12-29T16:16:24Z</time>
|
|---|
| 7080 | </trkpt>
|
|---|
| 7081 | <trkpt lat="43.6021399" lon="1.4279866">
|
|---|
| 7082 | <time>2010-12-29T16:16:25Z</time>
|
|---|
| 7083 | </trkpt>
|
|---|
| 7084 | <trkpt lat="43.602156" lon="1.4279866">
|
|---|
| 7085 | <time>2010-12-29T16:16:26Z</time>
|
|---|
| 7086 | </trkpt>
|
|---|
| 7087 | <trkpt lat="43.6021667" lon="1.4279866">
|
|---|
| 7088 | <time>2010-12-29T16:16:27Z</time>
|
|---|
| 7089 | </trkpt>
|
|---|
| 7090 | <trkpt lat="43.6021775" lon="1.4279812">
|
|---|
| 7091 | <time>2010-12-29T16:16:28Z</time>
|
|---|
| 7092 | </trkpt>
|
|---|
| 7093 | <trkpt lat="43.6021882" lon="1.4279812">
|
|---|
| 7094 | <time>2010-12-29T16:16:29Z</time>
|
|---|
| 7095 | </trkpt>
|
|---|
| 7096 | <trkpt lat="43.6022043" lon="1.4279866">
|
|---|
| 7097 | <time>2010-12-29T16:16:30Z</time>
|
|---|
| 7098 | </trkpt>
|
|---|
| 7099 | <trkpt lat="43.602215" lon="1.4279919">
|
|---|
| 7100 | <time>2010-12-29T16:16:31Z</time>
|
|---|
| 7101 | </trkpt>
|
|---|
| 7102 | <trkpt lat="43.6022204" lon="1.4279973">
|
|---|
| 7103 | <time>2010-12-29T16:16:32Z</time>
|
|---|
| 7104 | </trkpt>
|
|---|
| 7105 | <trkpt lat="43.6022204" lon="1.4280027">
|
|---|
| 7106 | <time>2010-12-29T16:16:33Z</time>
|
|---|
| 7107 | </trkpt>
|
|---|
| 7108 | <trkpt lat="43.6022204" lon="1.428008">
|
|---|
| 7109 | <time>2010-12-29T16:16:34Z</time>
|
|---|
| 7110 | </trkpt>
|
|---|
| 7111 | <trkpt lat="43.6022096" lon="1.428008">
|
|---|
| 7112 | <time>2010-12-29T16:16:35Z</time>
|
|---|
| 7113 | </trkpt>
|
|---|
| 7114 | <trkpt lat="43.6022043" lon="1.4280027">
|
|---|
| 7115 | <time>2010-12-29T16:16:36Z</time>
|
|---|
| 7116 | </trkpt>
|
|---|
| 7117 | <trkpt lat="43.6021989" lon="1.4280027">
|
|---|
| 7118 | <time>2010-12-29T16:16:37Z</time>
|
|---|
| 7119 | </trkpt>
|
|---|
| 7120 | <trkpt lat="43.6021935" lon="1.4279973">
|
|---|
| 7121 | <time>2010-12-29T16:16:38Z</time>
|
|---|
| 7122 | </trkpt>
|
|---|
| 7123 | <trkpt lat="43.6021882" lon="1.4279973">
|
|---|
| 7124 | <time>2010-12-29T16:16:39Z</time>
|
|---|
| 7125 | </trkpt>
|
|---|
| 7126 | <trkpt lat="43.6021935" lon="1.4280027">
|
|---|
| 7127 | <time>2010-12-29T16:16:40Z</time>
|
|---|
| 7128 | </trkpt>
|
|---|
| 7129 | <trkpt lat="43.6021989" lon="1.4280027">
|
|---|
| 7130 | <time>2010-12-29T16:16:41Z</time>
|
|---|
| 7131 | </trkpt>
|
|---|
| 7132 | <trkpt lat="43.6022096" lon="1.4280027">
|
|---|
| 7133 | <time>2010-12-29T16:16:42Z</time>
|
|---|
| 7134 | </trkpt>
|
|---|
| 7135 | <trkpt lat="43.602215" lon="1.4280027">
|
|---|
| 7136 | <time>2010-12-29T16:16:43Z</time>
|
|---|
| 7137 | </trkpt>
|
|---|
| 7138 | <trkpt lat="43.6022204" lon="1.4280027">
|
|---|
| 7139 | <time>2010-12-29T16:16:44Z</time>
|
|---|
| 7140 | </trkpt>
|
|---|
| 7141 | <trkpt lat="43.6022257" lon="1.4280027">
|
|---|
| 7142 | <time>2010-12-29T16:16:45Z</time>
|
|---|
| 7143 | </trkpt>
|
|---|
| 7144 | <trkpt lat="43.6022257" lon="1.428008">
|
|---|
| 7145 | <time>2010-12-29T16:16:46Z</time>
|
|---|
| 7146 | </trkpt>
|
|---|
| 7147 | <trkpt lat="43.6022311" lon="1.4280027">
|
|---|
| 7148 | <time>2010-12-29T16:16:47Z</time>
|
|---|
| 7149 | </trkpt>
|
|---|
| 7150 | <trkpt lat="43.6022311" lon="1.4280027">
|
|---|
| 7151 | <time>2010-12-29T16:16:48Z</time>
|
|---|
| 7152 | </trkpt>
|
|---|
| 7153 | <trkpt lat="43.6022257" lon="1.428008">
|
|---|
| 7154 | <time>2010-12-29T16:16:49Z</time>
|
|---|
| 7155 | </trkpt>
|
|---|
| 7156 | <trkpt lat="43.6022257" lon="1.428008">
|
|---|
| 7157 | <time>2010-12-29T16:16:50Z</time>
|
|---|
| 7158 | </trkpt>
|
|---|
| 7159 | <trkpt lat="43.6022311" lon="1.428008">
|
|---|
| 7160 | <time>2010-12-29T16:16:51Z</time>
|
|---|
| 7161 | </trkpt>
|
|---|
| 7162 | <trkpt lat="43.6022257" lon="1.428008">
|
|---|
| 7163 | <time>2010-12-29T16:16:52Z</time>
|
|---|
| 7164 | </trkpt>
|
|---|
| 7165 | <trkpt lat="43.6022257" lon="1.428008">
|
|---|
| 7166 | <time>2010-12-29T16:16:53Z</time>
|
|---|
| 7167 | </trkpt>
|
|---|
| 7168 | <trkpt lat="43.6022257" lon="1.428008">
|
|---|
| 7169 | <time>2010-12-29T16:16:54Z</time>
|
|---|
| 7170 | </trkpt>
|
|---|
| 7171 | <trkpt lat="43.6022257" lon="1.428008">
|
|---|
| 7172 | <time>2010-12-29T16:16:55Z</time>
|
|---|
| 7173 | </trkpt>
|
|---|
| 7174 | <trkpt lat="43.6022257" lon="1.428008">
|
|---|
| 7175 | <time>2010-12-29T16:16:56Z</time>
|
|---|
| 7176 | </trkpt>
|
|---|
| 7177 | <trkpt lat="43.6022257" lon="1.428008">
|
|---|
| 7178 | <time>2010-12-29T16:16:57Z</time>
|
|---|
| 7179 | </trkpt>
|
|---|
| 7180 | <trkpt lat="43.6022257" lon="1.428008">
|
|---|
| 7181 | <time>2010-12-29T16:16:58Z</time>
|
|---|
| 7182 | </trkpt>
|
|---|
| 7183 | <trkpt lat="43.6022418" lon="1.428008">
|
|---|
| 7184 | <time>2010-12-29T16:16:59Z</time>
|
|---|
| 7185 | </trkpt>
|
|---|
| 7186 | <trkpt lat="43.6022579" lon="1.4279919">
|
|---|
| 7187 | <time>2010-12-29T16:17:00Z</time>
|
|---|
| 7188 | </trkpt>
|
|---|
| 7189 | <trkpt lat="43.6022686" lon="1.4279919">
|
|---|
| 7190 | <time>2010-12-29T16:17:01Z</time>
|
|---|
| 7191 | </trkpt>
|
|---|
| 7192 | <trkpt lat="43.602274" lon="1.4279919">
|
|---|
| 7193 | <time>2010-12-29T16:17:02Z</time>
|
|---|
| 7194 | </trkpt>
|
|---|
| 7195 | <trkpt lat="43.6022847" lon="1.4279973">
|
|---|
| 7196 | <time>2010-12-29T16:17:03Z</time>
|
|---|
| 7197 | </trkpt>
|
|---|
| 7198 | <trkpt lat="43.6022794" lon="1.428008">
|
|---|
| 7199 | <time>2010-12-29T16:17:04Z</time>
|
|---|
| 7200 | </trkpt>
|
|---|
| 7201 | <trkpt lat="43.6022847" lon="1.428008">
|
|---|
| 7202 | <time>2010-12-29T16:17:05Z</time>
|
|---|
| 7203 | </trkpt>
|
|---|
| 7204 | <trkpt lat="43.602274" lon="1.4280027">
|
|---|
| 7205 | <time>2010-12-29T16:17:06Z</time>
|
|---|
| 7206 | </trkpt>
|
|---|
| 7207 | <trkpt lat="43.6022794" lon="1.4279973">
|
|---|
| 7208 | <time>2010-12-29T16:17:07Z</time>
|
|---|
| 7209 | </trkpt>
|
|---|
| 7210 | <trkpt lat="43.602274" lon="1.4280027">
|
|---|
| 7211 | <time>2010-12-29T16:17:08Z</time>
|
|---|
| 7212 | </trkpt>
|
|---|
| 7213 | <trkpt lat="43.602274" lon="1.4280027">
|
|---|
| 7214 | <time>2010-12-29T16:17:09Z</time>
|
|---|
| 7215 | </trkpt>
|
|---|
| 7216 | <trkpt lat="43.602274" lon="1.428008">
|
|---|
| 7217 | <time>2010-12-29T16:17:10Z</time>
|
|---|
| 7218 | </trkpt>
|
|---|
| 7219 | <trkpt lat="43.6022686" lon="1.428008">
|
|---|
| 7220 | <time>2010-12-29T16:17:11Z</time>
|
|---|
| 7221 | </trkpt>
|
|---|
| 7222 | <trkpt lat="43.6022686" lon="1.4280134">
|
|---|
| 7223 | <time>2010-12-29T16:17:12Z</time>
|
|---|
| 7224 | </trkpt>
|
|---|
| 7225 | <trkpt lat="43.602274" lon="1.428008">
|
|---|
| 7226 | <time>2010-12-29T16:17:13Z</time>
|
|---|
| 7227 | </trkpt>
|
|---|
| 7228 | <trkpt lat="43.6022794" lon="1.4279973">
|
|---|
| 7229 | <time>2010-12-29T16:17:14Z</time>
|
|---|
| 7230 | </trkpt>
|
|---|
| 7231 | <trkpt lat="43.6022794" lon="1.4279973">
|
|---|
| 7232 | <time>2010-12-29T16:17:15Z</time>
|
|---|
| 7233 | </trkpt>
|
|---|
| 7234 | <trkpt lat="43.6022794" lon="1.4279973">
|
|---|
| 7235 | <time>2010-12-29T16:17:16Z</time>
|
|---|
| 7236 | </trkpt>
|
|---|
| 7237 | <trkpt lat="43.6022794" lon="1.4279973">
|
|---|
| 7238 | <time>2010-12-29T16:17:17Z</time>
|
|---|
| 7239 | </trkpt>
|
|---|
| 7240 | <trkpt lat="43.6022794" lon="1.4279973">
|
|---|
| 7241 | <time>2010-12-29T16:17:18Z</time>
|
|---|
| 7242 | </trkpt>
|
|---|
| 7243 | <trkpt lat="43.6022794" lon="1.4279973">
|
|---|
| 7244 | <time>2010-12-29T16:17:19Z</time>
|
|---|
| 7245 | </trkpt>
|
|---|
| 7246 | <trkpt lat="43.6022794" lon="1.4279973">
|
|---|
| 7247 | <time>2010-12-29T16:17:20Z</time>
|
|---|
| 7248 | </trkpt>
|
|---|
| 7249 | <trkpt lat="43.6022794" lon="1.4279973">
|
|---|
| 7250 | <time>2010-12-29T16:17:21Z</time>
|
|---|
| 7251 | </trkpt>
|
|---|
| 7252 | <trkpt lat="43.6022794" lon="1.4279973">
|
|---|
| 7253 | <time>2010-12-29T16:17:22Z</time>
|
|---|
| 7254 | </trkpt>
|
|---|
| 7255 | <trkpt lat="43.6022794" lon="1.4279973">
|
|---|
| 7256 | <time>2010-12-29T16:17:23Z</time>
|
|---|
| 7257 | </trkpt>
|
|---|
| 7258 | <trkpt lat="43.6022794" lon="1.4279973">
|
|---|
| 7259 | <time>2010-12-29T16:17:24Z</time>
|
|---|
| 7260 | </trkpt>
|
|---|
| 7261 | <trkpt lat="43.6022901" lon="1.428008">
|
|---|
| 7262 | <time>2010-12-29T16:17:25Z</time>
|
|---|
| 7263 | </trkpt>
|
|---|
| 7264 | <trkpt lat="43.6023116" lon="1.4279973">
|
|---|
| 7265 | <time>2010-12-29T16:17:26Z</time>
|
|---|
| 7266 | </trkpt>
|
|---|
| 7267 | <trkpt lat="43.6023277" lon="1.4279866">
|
|---|
| 7268 | <time>2010-12-29T16:17:27Z</time>
|
|---|
| 7269 | </trkpt>
|
|---|
| 7270 | <trkpt lat="43.6023384" lon="1.4279812">
|
|---|
| 7271 | <time>2010-12-29T16:17:28Z</time>
|
|---|
| 7272 | </trkpt>
|
|---|
| 7273 | <trkpt lat="43.6023598" lon="1.4279866">
|
|---|
| 7274 | <time>2010-12-29T16:17:29Z</time>
|
|---|
| 7275 | </trkpt>
|
|---|
| 7276 | <trkpt lat="43.6023759" lon="1.4279919">
|
|---|
| 7277 | <time>2010-12-29T16:17:30Z</time>
|
|---|
| 7278 | </trkpt>
|
|---|
| 7279 | <trkpt lat="43.6023974" lon="1.428008">
|
|---|
| 7280 | <time>2010-12-29T16:17:31Z</time>
|
|---|
| 7281 | </trkpt>
|
|---|
| 7282 | <trkpt lat="43.6024081" lon="1.428008">
|
|---|
| 7283 | <time>2010-12-29T16:17:32Z</time>
|
|---|
| 7284 | </trkpt>
|
|---|
| 7285 | <trkpt lat="43.6024135" lon="1.4280027">
|
|---|
| 7286 | <time>2010-12-29T16:17:33Z</time>
|
|---|
| 7287 | </trkpt>
|
|---|
| 7288 | <trkpt lat="43.6024242" lon="1.4280027">
|
|---|
| 7289 | <time>2010-12-29T16:17:34Z</time>
|
|---|
| 7290 | </trkpt>
|
|---|
| 7291 | <trkpt lat="43.6024349" lon="1.4280027">
|
|---|
| 7292 | <time>2010-12-29T16:17:35Z</time>
|
|---|
| 7293 | </trkpt>
|
|---|
| 7294 | <trkpt lat="43.6024671" lon="1.428008">
|
|---|
| 7295 | <time>2010-12-29T16:17:37Z</time>
|
|---|
| 7296 | </trkpt>
|
|---|
| 7297 | <trkpt lat="43.6024832" lon="1.4280027">
|
|---|
| 7298 | <time>2010-12-29T16:17:38Z</time>
|
|---|
| 7299 | </trkpt>
|
|---|
| 7300 | <trkpt lat="43.602494" lon="1.428008">
|
|---|
| 7301 | <time>2010-12-29T16:17:39Z</time>
|
|---|
| 7302 | </trkpt>
|
|---|
| 7303 | <trkpt lat="43.60251" lon="1.428008">
|
|---|
| 7304 | <time>2010-12-29T16:17:40Z</time>
|
|---|
| 7305 | </trkpt>
|
|---|
| 7306 | <trkpt lat="43.6025208" lon="1.4280134">
|
|---|
| 7307 | <time>2010-12-29T16:17:41Z</time>
|
|---|
| 7308 | </trkpt>
|
|---|
| 7309 | <trkpt lat="43.6025315" lon="1.4280188">
|
|---|
| 7310 | <time>2010-12-29T16:17:42Z</time>
|
|---|
| 7311 | </trkpt>
|
|---|
| 7312 | <trkpt lat="43.6025476" lon="1.4280241">
|
|---|
| 7313 | <time>2010-12-29T16:17:43Z</time>
|
|---|
| 7314 | </trkpt>
|
|---|
| 7315 | <trkpt lat="43.6025637" lon="1.4280295">
|
|---|
| 7316 | <time>2010-12-29T16:17:44Z</time>
|
|---|
| 7317 | </trkpt>
|
|---|
| 7318 | <trkpt lat="43.6025744" lon="1.4280295">
|
|---|
| 7319 | <time>2010-12-29T16:17:45Z</time>
|
|---|
| 7320 | </trkpt>
|
|---|
| 7321 | <trkpt lat="43.6025851" lon="1.4280295">
|
|---|
| 7322 | <time>2010-12-29T16:17:46Z</time>
|
|---|
| 7323 | </trkpt>
|
|---|
| 7324 | <trkpt lat="43.6026012" lon="1.4280349">
|
|---|
| 7325 | <time>2010-12-29T16:17:47Z</time>
|
|---|
| 7326 | </trkpt>
|
|---|
| 7327 | <trkpt lat="43.602612" lon="1.4280349">
|
|---|
| 7328 | <time>2010-12-29T16:17:48Z</time>
|
|---|
| 7329 | </trkpt>
|
|---|
| 7330 | <trkpt lat="43.6026281" lon="1.4280349">
|
|---|
| 7331 | <time>2010-12-29T16:17:49Z</time>
|
|---|
| 7332 | </trkpt>
|
|---|
| 7333 | <trkpt lat="43.6026388" lon="1.4280349">
|
|---|
| 7334 | <time>2010-12-29T16:17:50Z</time>
|
|---|
| 7335 | </trkpt>
|
|---|
| 7336 | <trkpt lat="43.6026549" lon="1.4280349">
|
|---|
| 7337 | <time>2010-12-29T16:17:51Z</time>
|
|---|
| 7338 | </trkpt>
|
|---|
| 7339 | <trkpt lat="43.6026656" lon="1.4280402">
|
|---|
| 7340 | <time>2010-12-29T16:17:52Z</time>
|
|---|
| 7341 | </trkpt>
|
|---|
| 7342 | <trkpt lat="43.6026817" lon="1.4280349">
|
|---|
| 7343 | <time>2010-12-29T16:17:53Z</time>
|
|---|
| 7344 | </trkpt>
|
|---|
| 7345 | <trkpt lat="43.6026978" lon="1.4280349">
|
|---|
| 7346 | <time>2010-12-29T16:17:54Z</time>
|
|---|
| 7347 | </trkpt>
|
|---|
| 7348 | <trkpt lat="43.6027193" lon="1.4280349">
|
|---|
| 7349 | <time>2010-12-29T16:17:55Z</time>
|
|---|
| 7350 | </trkpt>
|
|---|
| 7351 | <trkpt lat="43.6027354" lon="1.4280295">
|
|---|
| 7352 | <time>2010-12-29T16:17:56Z</time>
|
|---|
| 7353 | </trkpt>
|
|---|
| 7354 | <trkpt lat="43.6027461" lon="1.4280241">
|
|---|
| 7355 | <time>2010-12-29T16:17:57Z</time>
|
|---|
| 7356 | </trkpt>
|
|---|
| 7357 | <trkpt lat="43.6027622" lon="1.4280241">
|
|---|
| 7358 | <time>2010-12-29T16:17:58Z</time>
|
|---|
| 7359 | </trkpt>
|
|---|
| 7360 | <trkpt lat="43.6027783" lon="1.4280188">
|
|---|
| 7361 | <time>2010-12-29T16:17:59Z</time>
|
|---|
| 7362 | </trkpt>
|
|---|
| 7363 | <trkpt lat="43.602789" lon="1.4280134">
|
|---|
| 7364 | <time>2010-12-29T16:18:00Z</time>
|
|---|
| 7365 | </trkpt>
|
|---|
| 7366 | <trkpt lat="43.6028051" lon="1.4280134">
|
|---|
| 7367 | <time>2010-12-29T16:18:01Z</time>
|
|---|
| 7368 | </trkpt>
|
|---|
| 7369 | <trkpt lat="43.6028158" lon="1.4280188">
|
|---|
| 7370 | <time>2010-12-29T16:18:02Z</time>
|
|---|
| 7371 | </trkpt>
|
|---|
| 7372 | <trkpt lat="43.6028265" lon="1.4280241">
|
|---|
| 7373 | <time>2010-12-29T16:18:03Z</time>
|
|---|
| 7374 | </trkpt>
|
|---|
| 7375 | <trkpt lat="43.6028373" lon="1.4280241">
|
|---|
| 7376 | <time>2010-12-29T16:18:04Z</time>
|
|---|
| 7377 | </trkpt>
|
|---|
| 7378 | <trkpt lat="43.6028534" lon="1.428008">
|
|---|
| 7379 | <time>2010-12-29T16:18:05Z</time>
|
|---|
| 7380 | </trkpt>
|
|---|
| 7381 | <trkpt lat="43.6028695" lon="1.428008">
|
|---|
| 7382 | <time>2010-12-29T16:18:06Z</time>
|
|---|
| 7383 | </trkpt>
|
|---|
| 7384 | <trkpt lat="43.6028802" lon="1.4280027">
|
|---|
| 7385 | <time>2010-12-29T16:18:07Z</time>
|
|---|
| 7386 | </trkpt>
|
|---|
| 7387 | <trkpt lat="43.6028963" lon="1.4280027">
|
|---|
| 7388 | <time>2010-12-29T16:18:08Z</time>
|
|---|
| 7389 | </trkpt>
|
|---|
| 7390 | <trkpt lat="43.602907" lon="1.428008">
|
|---|
| 7391 | <time>2010-12-29T16:18:09Z</time>
|
|---|
| 7392 | </trkpt>
|
|---|
| 7393 | <trkpt lat="43.6029231" lon="1.428008">
|
|---|
| 7394 | <time>2010-12-29T16:18:10Z</time>
|
|---|
| 7395 | </trkpt>
|
|---|
| 7396 | <trkpt lat="43.6029392" lon="1.4280134">
|
|---|
| 7397 | <time>2010-12-29T16:18:11Z</time>
|
|---|
| 7398 | </trkpt>
|
|---|
| 7399 | <trkpt lat="43.6029499" lon="1.4280134">
|
|---|
| 7400 | <time>2010-12-29T16:18:12Z</time>
|
|---|
| 7401 | </trkpt>
|
|---|
| 7402 | <trkpt lat="43.602966" lon="1.4280134">
|
|---|
| 7403 | <time>2010-12-29T16:18:13Z</time>
|
|---|
| 7404 | </trkpt>
|
|---|
| 7405 | <trkpt lat="43.6029714" lon="1.4280188">
|
|---|
| 7406 | <time>2010-12-29T16:18:14Z</time>
|
|---|
| 7407 | </trkpt>
|
|---|
| 7408 | <trkpt lat="43.6029821" lon="1.4280188">
|
|---|
| 7409 | <time>2010-12-29T16:18:15Z</time>
|
|---|
| 7410 | </trkpt>
|
|---|
| 7411 | <trkpt lat="43.6029928" lon="1.4280241">
|
|---|
| 7412 | <time>2010-12-29T16:18:16Z</time>
|
|---|
| 7413 | </trkpt>
|
|---|
| 7414 | <trkpt lat="43.6029928" lon="1.4280241">
|
|---|
| 7415 | <time>2010-12-29T16:18:17Z</time>
|
|---|
| 7416 | </trkpt>
|
|---|
| 7417 | <trkpt lat="43.6029982" lon="1.4280295">
|
|---|
| 7418 | <time>2010-12-29T16:18:18Z</time>
|
|---|
| 7419 | </trkpt>
|
|---|
| 7420 | <trkpt lat="43.6029982" lon="1.4280241">
|
|---|
| 7421 | <time>2010-12-29T16:18:19Z</time>
|
|---|
| 7422 | </trkpt>
|
|---|
| 7423 | <trkpt lat="43.6029982" lon="1.4280241">
|
|---|
| 7424 | <time>2010-12-29T16:18:20Z</time>
|
|---|
| 7425 | </trkpt>
|
|---|
| 7426 | <trkpt lat="43.6029982" lon="1.4280188">
|
|---|
| 7427 | <time>2010-12-29T16:18:21Z</time>
|
|---|
| 7428 | </trkpt>
|
|---|
| 7429 | <trkpt lat="43.6029982" lon="1.4280188">
|
|---|
| 7430 | <time>2010-12-29T16:18:22Z</time>
|
|---|
| 7431 | </trkpt>
|
|---|
| 7432 | <trkpt lat="43.6029982" lon="1.4280188">
|
|---|
| 7433 | <time>2010-12-29T16:18:23Z</time>
|
|---|
| 7434 | </trkpt>
|
|---|
| 7435 | <trkpt lat="43.6029982" lon="1.4280188">
|
|---|
| 7436 | <time>2010-12-29T16:18:24Z</time>
|
|---|
| 7437 | </trkpt>
|
|---|
| 7438 | <trkpt lat="43.6029982" lon="1.4280188">
|
|---|
| 7439 | <time>2010-12-29T16:18:25Z</time>
|
|---|
| 7440 | </trkpt>
|
|---|
| 7441 | <trkpt lat="43.6029982" lon="1.4280188">
|
|---|
| 7442 | <time>2010-12-29T16:18:26Z</time>
|
|---|
| 7443 | </trkpt>
|
|---|
| 7444 | <trkpt lat="43.6029982" lon="1.4280188">
|
|---|
| 7445 | <time>2010-12-29T16:18:27Z</time>
|
|---|
| 7446 | </trkpt>
|
|---|
| 7447 | <trkpt lat="43.6029982" lon="1.4280188">
|
|---|
| 7448 | <time>2010-12-29T16:18:28Z</time>
|
|---|
| 7449 | </trkpt>
|
|---|
| 7450 | <trkpt lat="43.6029982" lon="1.4280134">
|
|---|
| 7451 | <time>2010-12-29T16:18:29Z</time>
|
|---|
| 7452 | </trkpt>
|
|---|
| 7453 | <trkpt lat="43.6029982" lon="1.4280134">
|
|---|
| 7454 | <time>2010-12-29T16:18:30Z</time>
|
|---|
| 7455 | </trkpt>
|
|---|
| 7456 | <trkpt lat="43.6029982" lon="1.4280134">
|
|---|
| 7457 | <time>2010-12-29T16:18:31Z</time>
|
|---|
| 7458 | </trkpt>
|
|---|
| 7459 | <trkpt lat="43.6029982" lon="1.4280134">
|
|---|
| 7460 | <time>2010-12-29T16:18:32Z</time>
|
|---|
| 7461 | </trkpt>
|
|---|
| 7462 | <trkpt lat="43.6029982" lon="1.4280134">
|
|---|
| 7463 | <time>2010-12-29T16:18:33Z</time>
|
|---|
| 7464 | </trkpt>
|
|---|
| 7465 | <trkpt lat="43.6029982" lon="1.4280134">
|
|---|
| 7466 | <time>2010-12-29T16:18:34Z</time>
|
|---|
| 7467 | </trkpt>
|
|---|
| 7468 | <trkpt lat="43.6029982" lon="1.4280134">
|
|---|
| 7469 | <time>2010-12-29T16:18:35Z</time>
|
|---|
| 7470 | </trkpt>
|
|---|
| 7471 | <trkpt lat="43.6029982" lon="1.4280134">
|
|---|
| 7472 | <time>2010-12-29T16:18:36Z</time>
|
|---|
| 7473 | </trkpt>
|
|---|
| 7474 | <trkpt lat="43.6029982" lon="1.4280134">
|
|---|
| 7475 | <time>2010-12-29T16:18:37Z</time>
|
|---|
| 7476 | </trkpt>
|
|---|
| 7477 | <trkpt lat="43.6029982" lon="1.4280134">
|
|---|
| 7478 | <time>2010-12-29T16:18:38Z</time>
|
|---|
| 7479 | </trkpt>
|
|---|
| 7480 | <trkpt lat="43.6029982" lon="1.4280134">
|
|---|
| 7481 | <time>2010-12-29T16:18:39Z</time>
|
|---|
| 7482 | </trkpt>
|
|---|
| 7483 | <trkpt lat="43.6029982" lon="1.4280134">
|
|---|
| 7484 | <time>2010-12-29T16:18:40Z</time>
|
|---|
| 7485 | </trkpt>
|
|---|
| 7486 | <trkpt lat="43.6029982" lon="1.4280134">
|
|---|
| 7487 | <time>2010-12-29T16:18:41Z</time>
|
|---|
| 7488 | </trkpt>
|
|---|
| 7489 | <trkpt lat="43.6029982" lon="1.4280134">
|
|---|
| 7490 | <time>2010-12-29T16:18:42Z</time>
|
|---|
| 7491 | </trkpt>
|
|---|
| 7492 | <trkpt lat="43.6029982" lon="1.4280134">
|
|---|
| 7493 | <time>2010-12-29T16:18:43Z</time>
|
|---|
| 7494 | </trkpt>
|
|---|
| 7495 | <trkpt lat="43.6029982" lon="1.4280134">
|
|---|
| 7496 | <time>2010-12-29T16:18:44Z</time>
|
|---|
| 7497 | </trkpt>
|
|---|
| 7498 | <trkpt lat="43.6029982" lon="1.4280134">
|
|---|
| 7499 | <time>2010-12-29T16:18:45Z</time>
|
|---|
| 7500 | </trkpt>
|
|---|
| 7501 | <trkpt lat="43.6030089" lon="1.4280188">
|
|---|
| 7502 | <time>2010-12-29T16:18:46Z</time>
|
|---|
| 7503 | </trkpt>
|
|---|
| 7504 | <trkpt lat="43.6030197" lon="1.4280188">
|
|---|
| 7505 | <time>2010-12-29T16:18:47Z</time>
|
|---|
| 7506 | </trkpt>
|
|---|
| 7507 | <trkpt lat="43.6030358" lon="1.4280241">
|
|---|
| 7508 | <time>2010-12-29T16:18:48Z</time>
|
|---|
| 7509 | </trkpt>
|
|---|
| 7510 | <trkpt lat="43.6030465" lon="1.4280295">
|
|---|
| 7511 | <time>2010-12-29T16:18:49Z</time>
|
|---|
| 7512 | </trkpt>
|
|---|
| 7513 | <trkpt lat="43.6030572" lon="1.4280295">
|
|---|
| 7514 | <time>2010-12-29T16:18:50Z</time>
|
|---|
| 7515 | </trkpt>
|
|---|
| 7516 | <trkpt lat="43.6030733" lon="1.4280295">
|
|---|
| 7517 | <time>2010-12-29T16:18:51Z</time>
|
|---|
| 7518 | </trkpt>
|
|---|
| 7519 | <trkpt lat="43.603084" lon="1.4280349">
|
|---|
| 7520 | <time>2010-12-29T16:18:52Z</time>
|
|---|
| 7521 | </trkpt>
|
|---|
| 7522 | <trkpt lat="43.6030948" lon="1.4280349">
|
|---|
| 7523 | <time>2010-12-29T16:18:53Z</time>
|
|---|
| 7524 | </trkpt>
|
|---|
| 7525 | <trkpt lat="43.6031109" lon="1.4280349">
|
|---|
| 7526 | <time>2010-12-29T16:18:54Z</time>
|
|---|
| 7527 | </trkpt>
|
|---|
| 7528 | <trkpt lat="43.6031216" lon="1.4280402">
|
|---|
| 7529 | <time>2010-12-29T16:18:55Z</time>
|
|---|
| 7530 | </trkpt>
|
|---|
| 7531 | <trkpt lat="43.6031323" lon="1.4280456">
|
|---|
| 7532 | <time>2010-12-29T16:18:56Z</time>
|
|---|
| 7533 | </trkpt>
|
|---|
| 7534 | <trkpt lat="43.603143" lon="1.4280456">
|
|---|
| 7535 | <time>2010-12-29T16:18:57Z</time>
|
|---|
| 7536 | </trkpt>
|
|---|
| 7537 | <trkpt lat="43.6031538" lon="1.4280456">
|
|---|
| 7538 | <time>2010-12-29T16:18:58Z</time>
|
|---|
| 7539 | </trkpt>
|
|---|
| 7540 | <trkpt lat="43.6031699" lon="1.4280509">
|
|---|
| 7541 | <time>2010-12-29T16:18:59Z</time>
|
|---|
| 7542 | </trkpt>
|
|---|
| 7543 | <trkpt lat="43.603186" lon="1.4280509">
|
|---|
| 7544 | <time>2010-12-29T16:19:00Z</time>
|
|---|
| 7545 | </trkpt>
|
|---|
| 7546 | <trkpt lat="43.6032021" lon="1.4280563">
|
|---|
| 7547 | <time>2010-12-29T16:19:01Z</time>
|
|---|
| 7548 | </trkpt>
|
|---|
| 7549 | <trkpt lat="43.6032128" lon="1.4280563">
|
|---|
| 7550 | <time>2010-12-29T16:19:02Z</time>
|
|---|
| 7551 | </trkpt>
|
|---|
| 7552 | <trkpt lat="43.6032235" lon="1.4280563">
|
|---|
| 7553 | <time>2010-12-29T16:19:03Z</time>
|
|---|
| 7554 | </trkpt>
|
|---|
| 7555 | <trkpt lat="43.6032396" lon="1.4280563">
|
|---|
| 7556 | <time>2010-12-29T16:19:04Z</time>
|
|---|
| 7557 | </trkpt>
|
|---|
| 7558 | <trkpt lat="43.6032503" lon="1.4280563">
|
|---|
| 7559 | <time>2010-12-29T16:19:05Z</time>
|
|---|
| 7560 | </trkpt>
|
|---|
| 7561 | <trkpt lat="43.6032664" lon="1.4280563">
|
|---|
| 7562 | <time>2010-12-29T16:19:06Z</time>
|
|---|
| 7563 | </trkpt>
|
|---|
| 7564 | <trkpt lat="43.6032772" lon="1.4280563">
|
|---|
| 7565 | <time>2010-12-29T16:19:07Z</time>
|
|---|
| 7566 | </trkpt>
|
|---|
| 7567 | <trkpt lat="43.6032879" lon="1.4280563">
|
|---|
| 7568 | <time>2010-12-29T16:19:08Z</time>
|
|---|
| 7569 | </trkpt>
|
|---|
| 7570 | <trkpt lat="43.6032986" lon="1.4280563">
|
|---|
| 7571 | <time>2010-12-29T16:19:09Z</time>
|
|---|
| 7572 | </trkpt>
|
|---|
| 7573 | <trkpt lat="43.6033147" lon="1.4280617">
|
|---|
| 7574 | <time>2010-12-29T16:19:10Z</time>
|
|---|
| 7575 | </trkpt>
|
|---|
| 7576 | <trkpt lat="43.6033254" lon="1.4280617">
|
|---|
| 7577 | <time>2010-12-29T16:19:11Z</time>
|
|---|
| 7578 | </trkpt>
|
|---|
| 7579 | <trkpt lat="43.6033415" lon="1.4280617">
|
|---|
| 7580 | <time>2010-12-29T16:19:12Z</time>
|
|---|
| 7581 | </trkpt>
|
|---|
| 7582 | <trkpt lat="43.6033469" lon="1.428067">
|
|---|
| 7583 | <time>2010-12-29T16:19:13Z</time>
|
|---|
| 7584 | </trkpt>
|
|---|
| 7585 | <trkpt lat="43.6033523" lon="1.428067">
|
|---|
| 7586 | <time>2010-12-29T16:19:14Z</time>
|
|---|
| 7587 | </trkpt>
|
|---|
| 7588 | <trkpt lat="43.6033576" lon="1.4280617">
|
|---|
| 7589 | <time>2010-12-29T16:19:15Z</time>
|
|---|
| 7590 | </trkpt>
|
|---|
| 7591 | <trkpt lat="43.6033576" lon="1.4280617">
|
|---|
| 7592 | <time>2010-12-29T16:19:16Z</time>
|
|---|
| 7593 | </trkpt>
|
|---|
| 7594 | <trkpt lat="43.6033523" lon="1.4280617">
|
|---|
| 7595 | <time>2010-12-29T16:19:17Z</time>
|
|---|
| 7596 | </trkpt>
|
|---|
| 7597 | <trkpt lat="43.6033523" lon="1.4280563">
|
|---|
| 7598 | <time>2010-12-29T16:19:18Z</time>
|
|---|
| 7599 | </trkpt>
|
|---|
| 7600 | <trkpt lat="43.6033523" lon="1.4280563">
|
|---|
| 7601 | <time>2010-12-29T16:19:19Z</time>
|
|---|
| 7602 | </trkpt>
|
|---|
| 7603 | <trkpt lat="43.6033523" lon="1.4280563">
|
|---|
| 7604 | <time>2010-12-29T16:19:20Z</time>
|
|---|
| 7605 | </trkpt>
|
|---|
| 7606 | <trkpt lat="43.6033523" lon="1.4280563">
|
|---|
| 7607 | <time>2010-12-29T16:19:21Z</time>
|
|---|
| 7608 | </trkpt>
|
|---|
| 7609 | <trkpt lat="43.6033523" lon="1.4280563">
|
|---|
| 7610 | <time>2010-12-29T16:19:22Z</time>
|
|---|
| 7611 | </trkpt>
|
|---|
| 7612 | <trkpt lat="43.6033576" lon="1.4280563">
|
|---|
| 7613 | <time>2010-12-29T16:19:23Z</time>
|
|---|
| 7614 | </trkpt>
|
|---|
| 7615 | <trkpt lat="43.6033684" lon="1.4280563">
|
|---|
| 7616 | <time>2010-12-29T16:19:24Z</time>
|
|---|
| 7617 | </trkpt>
|
|---|
| 7618 | <trkpt lat="43.6033791" lon="1.4280563">
|
|---|
| 7619 | <time>2010-12-29T16:19:25Z</time>
|
|---|
| 7620 | </trkpt>
|
|---|
| 7621 | <trkpt lat="43.6033898" lon="1.4280509">
|
|---|
| 7622 | <time>2010-12-29T16:19:26Z</time>
|
|---|
| 7623 | </trkpt>
|
|---|
| 7624 | <trkpt lat="43.6034005" lon="1.4280456">
|
|---|
| 7625 | <time>2010-12-29T16:19:27Z</time>
|
|---|
| 7626 | </trkpt>
|
|---|
| 7627 | <trkpt lat="43.6034113" lon="1.4280349">
|
|---|
| 7628 | <time>2010-12-29T16:19:28Z</time>
|
|---|
| 7629 | </trkpt>
|
|---|
| 7630 | <trkpt lat="43.6034274" lon="1.4280295">
|
|---|
| 7631 | <time>2010-12-29T16:19:29Z</time>
|
|---|
| 7632 | </trkpt>
|
|---|
| 7633 | <trkpt lat="43.6034381" lon="1.4280188">
|
|---|
| 7634 | <time>2010-12-29T16:19:30Z</time>
|
|---|
| 7635 | </trkpt>
|
|---|
| 7636 | <trkpt lat="43.6034595" lon="1.4280134">
|
|---|
| 7637 | <time>2010-12-29T16:19:31Z</time>
|
|---|
| 7638 | </trkpt>
|
|---|
| 7639 | <trkpt lat="43.6034756" lon="1.428008">
|
|---|
| 7640 | <time>2010-12-29T16:19:32Z</time>
|
|---|
| 7641 | </trkpt>
|
|---|
| 7642 | <trkpt lat="43.6034971" lon="1.4280134">
|
|---|
| 7643 | <time>2010-12-29T16:19:33Z</time>
|
|---|
| 7644 | </trkpt>
|
|---|
| 7645 | <trkpt lat="43.6035132" lon="1.4280241">
|
|---|
| 7646 | <time>2010-12-29T16:19:34Z</time>
|
|---|
| 7647 | </trkpt>
|
|---|
| 7648 | <trkpt lat="43.6035293" lon="1.4280241">
|
|---|
| 7649 | <time>2010-12-29T16:19:35Z</time>
|
|---|
| 7650 | </trkpt>
|
|---|
| 7651 | <trkpt lat="43.6035454" lon="1.4280295">
|
|---|
| 7652 | <time>2010-12-29T16:19:36Z</time>
|
|---|
| 7653 | </trkpt>
|
|---|
| 7654 | <trkpt lat="43.6035615" lon="1.4280402">
|
|---|
| 7655 | <time>2010-12-29T16:19:37Z</time>
|
|---|
| 7656 | </trkpt>
|
|---|
| 7657 | <trkpt lat="43.6035776" lon="1.4280456">
|
|---|
| 7658 | <time>2010-12-29T16:19:38Z</time>
|
|---|
| 7659 | </trkpt>
|
|---|
| 7660 | <trkpt lat="43.6035883" lon="1.4280456">
|
|---|
| 7661 | <time>2010-12-29T16:19:39Z</time>
|
|---|
| 7662 | </trkpt>
|
|---|
| 7663 | <trkpt lat="43.603599" lon="1.4280509">
|
|---|
| 7664 | <time>2010-12-29T16:19:40Z</time>
|
|---|
| 7665 | </trkpt>
|
|---|
| 7666 | <trkpt lat="43.6036151" lon="1.4280509">
|
|---|
| 7667 | <time>2010-12-29T16:19:41Z</time>
|
|---|
| 7668 | </trkpt>
|
|---|
| 7669 | <trkpt lat="43.6036258" lon="1.4280509">
|
|---|
| 7670 | <time>2010-12-29T16:19:42Z</time>
|
|---|
| 7671 | </trkpt>
|
|---|
| 7672 | <trkpt lat="43.6036473" lon="1.4280456">
|
|---|
| 7673 | <time>2010-12-29T16:19:43Z</time>
|
|---|
| 7674 | </trkpt>
|
|---|
| 7675 | <trkpt lat="43.6036741" lon="1.4280456">
|
|---|
| 7676 | <time>2010-12-29T16:19:44Z</time>
|
|---|
| 7677 | </trkpt>
|
|---|
| 7678 | <trkpt lat="43.6036849" lon="1.4280509">
|
|---|
| 7679 | <time>2010-12-29T16:19:45Z</time>
|
|---|
| 7680 | </trkpt>
|
|---|
| 7681 | <trkpt lat="43.6036956" lon="1.4280509">
|
|---|
| 7682 | <time>2010-12-29T16:19:46Z</time>
|
|---|
| 7683 | </trkpt>
|
|---|
| 7684 | <trkpt lat="43.603717" lon="1.4280456">
|
|---|
| 7685 | <time>2010-12-29T16:19:47Z</time>
|
|---|
| 7686 | </trkpt>
|
|---|
| 7687 | <trkpt lat="43.6037278" lon="1.4280509">
|
|---|
| 7688 | <time>2010-12-29T16:19:48Z</time>
|
|---|
| 7689 | </trkpt>
|
|---|
| 7690 | <trkpt lat="43.6037439" lon="1.4280509">
|
|---|
| 7691 | <time>2010-12-29T16:19:49Z</time>
|
|---|
| 7692 | </trkpt>
|
|---|
| 7693 | <trkpt lat="43.60376" lon="1.4280509">
|
|---|
| 7694 | <time>2010-12-29T16:19:50Z</time>
|
|---|
| 7695 | </trkpt>
|
|---|
| 7696 | <trkpt lat="43.6037707" lon="1.4280456">
|
|---|
| 7697 | <time>2010-12-29T16:19:51Z</time>
|
|---|
| 7698 | </trkpt>
|
|---|
| 7699 | <trkpt lat="43.603776" lon="1.4280563">
|
|---|
| 7700 | <time>2010-12-29T16:19:52Z</time>
|
|---|
| 7701 | </trkpt>
|
|---|
| 7702 | <trkpt lat="43.6037868" lon="1.4280563">
|
|---|
| 7703 | <time>2010-12-29T16:19:53Z</time>
|
|---|
| 7704 | </trkpt>
|
|---|
| 7705 | <trkpt lat="43.6037921" lon="1.4280617">
|
|---|
| 7706 | <time>2010-12-29T16:19:54Z</time>
|
|---|
| 7707 | </trkpt>
|
|---|
| 7708 | <trkpt lat="43.6037975" lon="1.4280617">
|
|---|
| 7709 | <time>2010-12-29T16:19:55Z</time>
|
|---|
| 7710 | </trkpt>
|
|---|
| 7711 | <trkpt lat="43.6038136" lon="1.4280563">
|
|---|
| 7712 | <time>2010-12-29T16:19:56Z</time>
|
|---|
| 7713 | </trkpt>
|
|---|
| 7714 | <trkpt lat="43.6038297" lon="1.4280563">
|
|---|
| 7715 | <time>2010-12-29T16:19:57Z</time>
|
|---|
| 7716 | </trkpt>
|
|---|
| 7717 | <trkpt lat="43.6038351" lon="1.4280456">
|
|---|
| 7718 | <time>2010-12-29T16:19:58Z</time>
|
|---|
| 7719 | </trkpt>
|
|---|
| 7720 | <trkpt lat="43.6038458" lon="1.4280456">
|
|---|
| 7721 | <time>2010-12-29T16:19:59Z</time>
|
|---|
| 7722 | </trkpt>
|
|---|
| 7723 | <trkpt lat="43.6038619" lon="1.4280509">
|
|---|
| 7724 | <time>2010-12-29T16:20:00Z</time>
|
|---|
| 7725 | </trkpt>
|
|---|
| 7726 | <trkpt lat="43.6038726" lon="1.4280563">
|
|---|
| 7727 | <time>2010-12-29T16:20:01Z</time>
|
|---|
| 7728 | </trkpt>
|
|---|
| 7729 | <trkpt lat="43.6038887" lon="1.4280563">
|
|---|
| 7730 | <time>2010-12-29T16:20:02Z</time>
|
|---|
| 7731 | </trkpt>
|
|---|
| 7732 | <trkpt lat="43.6039048" lon="1.4280617">
|
|---|
| 7733 | <time>2010-12-29T16:20:03Z</time>
|
|---|
| 7734 | </trkpt>
|
|---|
| 7735 | <trkpt lat="43.6039155" lon="1.4280617">
|
|---|
| 7736 | <time>2010-12-29T16:20:04Z</time>
|
|---|
| 7737 | </trkpt>
|
|---|
| 7738 | <trkpt lat="43.6039316" lon="1.4280563">
|
|---|
| 7739 | <time>2010-12-29T16:20:05Z</time>
|
|---|
| 7740 | </trkpt>
|
|---|
| 7741 | <trkpt lat="43.6039423" lon="1.4280617">
|
|---|
| 7742 | <time>2010-12-29T16:20:06Z</time>
|
|---|
| 7743 | </trkpt>
|
|---|
| 7744 | <trkpt lat="43.6039638" lon="1.428067">
|
|---|
| 7745 | <time>2010-12-29T16:20:07Z</time>
|
|---|
| 7746 | </trkpt>
|
|---|
| 7747 | <trkpt lat="43.6039745" lon="1.4280778">
|
|---|
| 7748 | <time>2010-12-29T16:20:08Z</time>
|
|---|
| 7749 | </trkpt>
|
|---|
| 7750 | <trkpt lat="43.6039906" lon="1.4280778">
|
|---|
| 7751 | <time>2010-12-29T16:20:09Z</time>
|
|---|
| 7752 | </trkpt>
|
|---|
| 7753 | <trkpt lat="43.6040067" lon="1.4280831">
|
|---|
| 7754 | <time>2010-12-29T16:20:10Z</time>
|
|---|
| 7755 | </trkpt>
|
|---|
| 7756 | <trkpt lat="43.6040121" lon="1.4280778">
|
|---|
| 7757 | <time>2010-12-29T16:20:11Z</time>
|
|---|
| 7758 | </trkpt>
|
|---|
| 7759 | <trkpt lat="43.6040335" lon="1.4280778">
|
|---|
| 7760 | <time>2010-12-29T16:20:12Z</time>
|
|---|
| 7761 | </trkpt>
|
|---|
| 7762 | <trkpt lat="43.6040496" lon="1.4280831">
|
|---|
| 7763 | <time>2010-12-29T16:20:13Z</time>
|
|---|
| 7764 | </trkpt>
|
|---|
| 7765 | <trkpt lat="43.6040657" lon="1.4280831">
|
|---|
| 7766 | <time>2010-12-29T16:20:14Z</time>
|
|---|
| 7767 | </trkpt>
|
|---|
| 7768 | <trkpt lat="43.6040818" lon="1.4280885">
|
|---|
| 7769 | <time>2010-12-29T16:20:15Z</time>
|
|---|
| 7770 | </trkpt>
|
|---|
| 7771 | <trkpt lat="43.6040925" lon="1.4280992">
|
|---|
| 7772 | <time>2010-12-29T16:20:16Z</time>
|
|---|
| 7773 | </trkpt>
|
|---|
| 7774 | <trkpt lat="43.6041086" lon="1.4281046">
|
|---|
| 7775 | <time>2010-12-29T16:20:17Z</time>
|
|---|
| 7776 | </trkpt>
|
|---|
| 7777 | <trkpt lat="43.6041194" lon="1.42811">
|
|---|
| 7778 | <time>2010-12-29T16:20:18Z</time>
|
|---|
| 7779 | </trkpt>
|
|---|
| 7780 | <trkpt lat="43.6041247" lon="1.4280939">
|
|---|
| 7781 | <time>2010-12-29T16:20:19Z</time>
|
|---|
| 7782 | </trkpt>
|
|---|
| 7783 | <trkpt lat="43.6041301" lon="1.4280939">
|
|---|
| 7784 | <time>2010-12-29T16:20:20Z</time>
|
|---|
| 7785 | </trkpt>
|
|---|
| 7786 | <trkpt lat="43.6041462" lon="1.4280992">
|
|---|
| 7787 | <time>2010-12-29T16:20:21Z</time>
|
|---|
| 7788 | </trkpt>
|
|---|
| 7789 | <trkpt lat="43.6041569" lon="1.4280992">
|
|---|
| 7790 | <time>2010-12-29T16:20:22Z</time>
|
|---|
| 7791 | </trkpt>
|
|---|
| 7792 | <trkpt lat="43.604173" lon="1.4280939">
|
|---|
| 7793 | <time>2010-12-29T16:20:23Z</time>
|
|---|
| 7794 | </trkpt>
|
|---|
| 7795 | <trkpt lat="43.6041891" lon="1.4280885">
|
|---|
| 7796 | <time>2010-12-29T16:20:24Z</time>
|
|---|
| 7797 | </trkpt>
|
|---|
| 7798 | <trkpt lat="43.6041998" lon="1.4280939">
|
|---|
| 7799 | <time>2010-12-29T16:20:25Z</time>
|
|---|
| 7800 | </trkpt>
|
|---|
| 7801 | <trkpt lat="43.6042106" lon="1.4280885">
|
|---|
| 7802 | <time>2010-12-29T16:20:26Z</time>
|
|---|
| 7803 | </trkpt>
|
|---|
| 7804 | <trkpt lat="43.6042213" lon="1.4280939">
|
|---|
| 7805 | <time>2010-12-29T16:20:27Z</time>
|
|---|
| 7806 | </trkpt>
|
|---|
| 7807 | <trkpt lat="43.604232" lon="1.4281046">
|
|---|
| 7808 | <time>2010-12-29T16:20:28Z</time>
|
|---|
| 7809 | </trkpt>
|
|---|
| 7810 | <trkpt lat="43.6042481" lon="1.42811">
|
|---|
| 7811 | <time>2010-12-29T16:20:29Z</time>
|
|---|
| 7812 | </trkpt>
|
|---|
| 7813 | <trkpt lat="43.6042588" lon="1.4281153">
|
|---|
| 7814 | <time>2010-12-29T16:20:30Z</time>
|
|---|
| 7815 | </trkpt>
|
|---|
| 7816 | <trkpt lat="43.6042696" lon="1.4281153">
|
|---|
| 7817 | <time>2010-12-29T16:20:31Z</time>
|
|---|
| 7818 | </trkpt>
|
|---|
| 7819 | <trkpt lat="43.6042749" lon="1.42811">
|
|---|
| 7820 | <time>2010-12-29T16:20:32Z</time>
|
|---|
| 7821 | </trkpt>
|
|---|
| 7822 | <trkpt lat="43.604291" lon="1.42811">
|
|---|
| 7823 | <time>2010-12-29T16:20:33Z</time>
|
|---|
| 7824 | </trkpt>
|
|---|
| 7825 | <trkpt lat="43.6043018" lon="1.4281046">
|
|---|
| 7826 | <time>2010-12-29T16:20:34Z</time>
|
|---|
| 7827 | </trkpt>
|
|---|
| 7828 | <trkpt lat="43.6043071" lon="1.4281046">
|
|---|
| 7829 | <time>2010-12-29T16:20:35Z</time>
|
|---|
| 7830 | </trkpt>
|
|---|
| 7831 | <trkpt lat="43.6043179" lon="1.4281046">
|
|---|
| 7832 | <time>2010-12-29T16:20:36Z</time>
|
|---|
| 7833 | </trkpt>
|
|---|
| 7834 | <trkpt lat="43.6043339" lon="1.4281046">
|
|---|
| 7835 | <time>2010-12-29T16:20:37Z</time>
|
|---|
| 7836 | </trkpt>
|
|---|
| 7837 | <trkpt lat="43.6043447" lon="1.4281046">
|
|---|
| 7838 | <time>2010-12-29T16:20:38Z</time>
|
|---|
| 7839 | </trkpt>
|
|---|
| 7840 | <trkpt lat="43.6043554" lon="1.4281153">
|
|---|
| 7841 | <time>2010-12-29T16:20:39Z</time>
|
|---|
| 7842 | </trkpt>
|
|---|
| 7843 | <trkpt lat="43.6043661" lon="1.4281207">
|
|---|
| 7844 | <time>2010-12-29T16:20:40Z</time>
|
|---|
| 7845 | </trkpt>
|
|---|
| 7846 | <trkpt lat="43.6043769" lon="1.428126">
|
|---|
| 7847 | <time>2010-12-29T16:20:41Z</time>
|
|---|
| 7848 | </trkpt>
|
|---|
| 7849 | <trkpt lat="43.6043876" lon="1.4281314">
|
|---|
| 7850 | <time>2010-12-29T16:20:42Z</time>
|
|---|
| 7851 | </trkpt>
|
|---|
| 7852 | <trkpt lat="43.6043983" lon="1.4281314">
|
|---|
| 7853 | <time>2010-12-29T16:20:43Z</time>
|
|---|
| 7854 | </trkpt>
|
|---|
| 7855 | <trkpt lat="43.604409" lon="1.4281368">
|
|---|
| 7856 | <time>2010-12-29T16:20:44Z</time>
|
|---|
| 7857 | </trkpt>
|
|---|
| 7858 | <trkpt lat="43.6044144" lon="1.4281421">
|
|---|
| 7859 | <time>2010-12-29T16:20:45Z</time>
|
|---|
| 7860 | </trkpt>
|
|---|
| 7861 | <trkpt lat="43.6044251" lon="1.4281421">
|
|---|
| 7862 | <time>2010-12-29T16:20:46Z</time>
|
|---|
| 7863 | </trkpt>
|
|---|
| 7864 | <trkpt lat="43.6044305" lon="1.4281421">
|
|---|
| 7865 | <time>2010-12-29T16:20:47Z</time>
|
|---|
| 7866 | </trkpt>
|
|---|
| 7867 | <trkpt lat="43.6044359" lon="1.4281421">
|
|---|
| 7868 | <time>2010-12-29T16:20:48Z</time>
|
|---|
| 7869 | </trkpt>
|
|---|
| 7870 | <trkpt lat="43.6044305" lon="1.4281368">
|
|---|
| 7871 | <time>2010-12-29T16:20:49Z</time>
|
|---|
| 7872 | </trkpt>
|
|---|
| 7873 | <trkpt lat="43.6044359" lon="1.4281314">
|
|---|
| 7874 | <time>2010-12-29T16:20:50Z</time>
|
|---|
| 7875 | </trkpt>
|
|---|
| 7876 | <trkpt lat="43.6044305" lon="1.4281314">
|
|---|
| 7877 | <time>2010-12-29T16:20:51Z</time>
|
|---|
| 7878 | </trkpt>
|
|---|
| 7879 | <trkpt lat="43.6044305" lon="1.4281368">
|
|---|
| 7880 | <time>2010-12-29T16:20:52Z</time>
|
|---|
| 7881 | </trkpt>
|
|---|
| 7882 | <trkpt lat="43.6044305" lon="1.4281368">
|
|---|
| 7883 | <time>2010-12-29T16:20:53Z</time>
|
|---|
| 7884 | </trkpt>
|
|---|
| 7885 | <trkpt lat="43.604409" lon="1.4281529">
|
|---|
| 7886 | <time>2010-12-29T16:20:54Z</time>
|
|---|
| 7887 | </trkpt>
|
|---|
| 7888 | <trkpt lat="43.6043983" lon="1.428169">
|
|---|
| 7889 | <time>2010-12-29T16:20:55Z</time>
|
|---|
| 7890 | </trkpt>
|
|---|
| 7891 | <trkpt lat="43.604393" lon="1.4281797">
|
|---|
| 7892 | <time>2010-12-29T16:20:56Z</time>
|
|---|
| 7893 | </trkpt>
|
|---|
| 7894 | <trkpt lat="43.6043769" lon="1.4282011">
|
|---|
| 7895 | <time>2010-12-29T16:20:57Z</time>
|
|---|
| 7896 | </trkpt>
|
|---|
| 7897 | <trkpt lat="43.6043769" lon="1.4282172">
|
|---|
| 7898 | <time>2010-12-29T16:20:58Z</time>
|
|---|
| 7899 | </trkpt>
|
|---|
| 7900 | <trkpt lat="43.6043822" lon="1.4282172">
|
|---|
| 7901 | <time>2010-12-29T16:20:59Z</time>
|
|---|
| 7902 | </trkpt>
|
|---|
| 7903 | <trkpt lat="43.6043822" lon="1.4282172">
|
|---|
| 7904 | <time>2010-12-29T16:21:00Z</time>
|
|---|
| 7905 | </trkpt>
|
|---|
| 7906 | <trkpt lat="43.6043876" lon="1.4282172">
|
|---|
| 7907 | <time>2010-12-29T16:21:01Z</time>
|
|---|
| 7908 | </trkpt>
|
|---|
| 7909 | <trkpt lat="43.6043822" lon="1.4282119">
|
|---|
| 7910 | <time>2010-12-29T16:21:02Z</time>
|
|---|
| 7911 | </trkpt>
|
|---|
| 7912 | <trkpt lat="43.6043822" lon="1.4282119">
|
|---|
| 7913 | <time>2010-12-29T16:21:03Z</time>
|
|---|
| 7914 | </trkpt>
|
|---|
| 7915 | <trkpt lat="43.6043822" lon="1.4282172">
|
|---|
| 7916 | <time>2010-12-29T16:21:04Z</time>
|
|---|
| 7917 | </trkpt>
|
|---|
| 7918 | <trkpt lat="43.6043822" lon="1.4282172">
|
|---|
| 7919 | <time>2010-12-29T16:21:05Z</time>
|
|---|
| 7920 | </trkpt>
|
|---|
| 7921 | <trkpt lat="43.6043822" lon="1.4282172">
|
|---|
| 7922 | <time>2010-12-29T16:21:06Z</time>
|
|---|
| 7923 | </trkpt>
|
|---|
| 7924 | <trkpt lat="43.6043876" lon="1.4282226">
|
|---|
| 7925 | <time>2010-12-29T16:21:07Z</time>
|
|---|
| 7926 | </trkpt>
|
|---|
| 7927 | <trkpt lat="43.6043876" lon="1.4282226">
|
|---|
| 7928 | <time>2010-12-29T16:21:08Z</time>
|
|---|
| 7929 | </trkpt>
|
|---|
| 7930 | <trkpt lat="43.604393" lon="1.4282226">
|
|---|
| 7931 | <time>2010-12-29T16:21:09Z</time>
|
|---|
| 7932 | </trkpt>
|
|---|
| 7933 | <trkpt lat="43.604393" lon="1.4282226">
|
|---|
| 7934 | <time>2010-12-29T16:21:10Z</time>
|
|---|
| 7935 | </trkpt>
|
|---|
| 7936 | <trkpt lat="43.6043983" lon="1.4282172">
|
|---|
| 7937 | <time>2010-12-29T16:21:11Z</time>
|
|---|
| 7938 | </trkpt>
|
|---|
| 7939 | <trkpt lat="43.6043983" lon="1.4282172">
|
|---|
| 7940 | <time>2010-12-29T16:21:12Z</time>
|
|---|
| 7941 | </trkpt>
|
|---|
| 7942 | <trkpt lat="43.604409" lon="1.4282226">
|
|---|
| 7943 | <time>2010-12-29T16:21:13Z</time>
|
|---|
| 7944 | </trkpt>
|
|---|
| 7945 | <trkpt lat="43.6044198" lon="1.4282333">
|
|---|
| 7946 | <time>2010-12-29T16:21:14Z</time>
|
|---|
| 7947 | </trkpt>
|
|---|
| 7948 | <trkpt lat="43.6044251" lon="1.428228">
|
|---|
| 7949 | <time>2010-12-29T16:21:15Z</time>
|
|---|
| 7950 | </trkpt>
|
|---|
| 7951 | <trkpt lat="43.6044251" lon="1.4282172">
|
|---|
| 7952 | <time>2010-12-29T16:21:16Z</time>
|
|---|
| 7953 | </trkpt>
|
|---|
| 7954 | <trkpt lat="43.6044251" lon="1.4282226">
|
|---|
| 7955 | <time>2010-12-29T16:21:17Z</time>
|
|---|
| 7956 | </trkpt>
|
|---|
| 7957 | <trkpt lat="43.6044412" lon="1.428228">
|
|---|
| 7958 | <time>2010-12-29T16:21:18Z</time>
|
|---|
| 7959 | </trkpt>
|
|---|
| 7960 | <trkpt lat="43.604452" lon="1.4282441">
|
|---|
| 7961 | <time>2010-12-29T16:21:19Z</time>
|
|---|
| 7962 | </trkpt>
|
|---|
| 7963 | <trkpt lat="43.6044466" lon="1.4282387">
|
|---|
| 7964 | <time>2010-12-29T16:21:20Z</time>
|
|---|
| 7965 | </trkpt>
|
|---|
| 7966 | <trkpt lat="43.6044466" lon="1.4282387">
|
|---|
| 7967 | <time>2010-12-29T16:21:21Z</time>
|
|---|
| 7968 | </trkpt>
|
|---|
| 7969 | <trkpt lat="43.6044466" lon="1.4282441">
|
|---|
| 7970 | <time>2010-12-29T16:21:22Z</time>
|
|---|
| 7971 | </trkpt>
|
|---|
| 7972 | <trkpt lat="43.6044466" lon="1.4282441">
|
|---|
| 7973 | <time>2010-12-29T16:21:23Z</time>
|
|---|
| 7974 | </trkpt>
|
|---|
| 7975 | <trkpt lat="43.6044466" lon="1.4282494">
|
|---|
| 7976 | <time>2010-12-29T16:21:24Z</time>
|
|---|
| 7977 | </trkpt>
|
|---|
| 7978 | <trkpt lat="43.604452" lon="1.4282494">
|
|---|
| 7979 | <time>2010-12-29T16:21:25Z</time>
|
|---|
| 7980 | </trkpt>
|
|---|
| 7981 | <trkpt lat="43.604452" lon="1.4282548">
|
|---|
| 7982 | <time>2010-12-29T16:21:26Z</time>
|
|---|
| 7983 | </trkpt>
|
|---|
| 7984 | <trkpt lat="43.6044466" lon="1.4282602">
|
|---|
| 7985 | <time>2010-12-29T16:21:27Z</time>
|
|---|
| 7986 | </trkpt>
|
|---|
| 7987 | <trkpt lat="43.604452" lon="1.4282655">
|
|---|
| 7988 | <time>2010-12-29T16:21:28Z</time>
|
|---|
| 7989 | </trkpt>
|
|---|
| 7990 | <trkpt lat="43.6044573" lon="1.4282709">
|
|---|
| 7991 | <time>2010-12-29T16:21:29Z</time>
|
|---|
| 7992 | </trkpt>
|
|---|
| 7993 | <trkpt lat="43.6044627" lon="1.4282763">
|
|---|
| 7994 | <time>2010-12-29T16:21:30Z</time>
|
|---|
| 7995 | </trkpt>
|
|---|
| 7996 | <trkpt lat="43.6044681" lon="1.4282763">
|
|---|
| 7997 | <time>2010-12-29T16:21:31Z</time>
|
|---|
| 7998 | </trkpt>
|
|---|
| 7999 | <trkpt lat="43.6044681" lon="1.4282816">
|
|---|
| 8000 | <time>2010-12-29T16:21:32Z</time>
|
|---|
| 8001 | </trkpt>
|
|---|
| 8002 | <trkpt lat="43.6044627" lon="1.4282763">
|
|---|
| 8003 | <time>2010-12-29T16:21:33Z</time>
|
|---|
| 8004 | </trkpt>
|
|---|
| 8005 | <trkpt lat="43.6044627" lon="1.4282763">
|
|---|
| 8006 | <time>2010-12-29T16:21:34Z</time>
|
|---|
| 8007 | </trkpt>
|
|---|
| 8008 | <trkpt lat="43.6044627" lon="1.4282709">
|
|---|
| 8009 | <time>2010-12-29T16:21:35Z</time>
|
|---|
| 8010 | </trkpt>
|
|---|
| 8011 | <trkpt lat="43.6044627" lon="1.4282709">
|
|---|
| 8012 | <time>2010-12-29T16:21:36Z</time>
|
|---|
| 8013 | </trkpt>
|
|---|
| 8014 | <trkpt lat="43.6044627" lon="1.4282763">
|
|---|
| 8015 | <time>2010-12-29T16:21:37Z</time>
|
|---|
| 8016 | </trkpt>
|
|---|
| 8017 | <trkpt lat="43.6044627" lon="1.4282763">
|
|---|
| 8018 | <time>2010-12-29T16:21:38Z</time>
|
|---|
| 8019 | </trkpt>
|
|---|
| 8020 | <trkpt lat="43.6044681" lon="1.4282763">
|
|---|
| 8021 | <time>2010-12-29T16:21:39Z</time>
|
|---|
| 8022 | </trkpt>
|
|---|
| 8023 | <trkpt lat="43.6044681" lon="1.4282763">
|
|---|
| 8024 | <time>2010-12-29T16:21:40Z</time>
|
|---|
| 8025 | </trkpt>
|
|---|
| 8026 | <trkpt lat="43.6044681" lon="1.4282763">
|
|---|
| 8027 | <time>2010-12-29T16:21:41Z</time>
|
|---|
| 8028 | </trkpt>
|
|---|
| 8029 | <trkpt lat="43.6044681" lon="1.4282763">
|
|---|
| 8030 | <time>2010-12-29T16:21:42Z</time>
|
|---|
| 8031 | </trkpt>
|
|---|
| 8032 | <trkpt lat="43.6044681" lon="1.4282763">
|
|---|
| 8033 | <time>2010-12-29T16:21:43Z</time>
|
|---|
| 8034 | </trkpt>
|
|---|
| 8035 | <trkpt lat="43.6044681" lon="1.4282763">
|
|---|
| 8036 | <time>2010-12-29T16:21:44Z</time>
|
|---|
| 8037 | </trkpt>
|
|---|
| 8038 | <trkpt lat="43.6044681" lon="1.4282763">
|
|---|
| 8039 | <time>2010-12-29T16:21:45Z</time>
|
|---|
| 8040 | </trkpt>
|
|---|
| 8041 | <trkpt lat="43.6044681" lon="1.4282763">
|
|---|
| 8042 | <time>2010-12-29T16:21:46Z</time>
|
|---|
| 8043 | </trkpt>
|
|---|
| 8044 | <trkpt lat="43.6044681" lon="1.4282763">
|
|---|
| 8045 | <time>2010-12-29T16:21:47Z</time>
|
|---|
| 8046 | </trkpt>
|
|---|
| 8047 | <trkpt lat="43.6044681" lon="1.4282763">
|
|---|
| 8048 | <time>2010-12-29T16:21:48Z</time>
|
|---|
| 8049 | </trkpt>
|
|---|
| 8050 | <trkpt lat="43.6044681" lon="1.4282763">
|
|---|
| 8051 | <time>2010-12-29T16:21:49Z</time>
|
|---|
| 8052 | </trkpt>
|
|---|
| 8053 | <trkpt lat="43.6044627" lon="1.4282763">
|
|---|
| 8054 | <time>2010-12-29T16:21:50Z</time>
|
|---|
| 8055 | </trkpt>
|
|---|
| 8056 | <trkpt lat="43.6044681" lon="1.4282763">
|
|---|
| 8057 | <time>2010-12-29T16:21:51Z</time>
|
|---|
| 8058 | </trkpt>
|
|---|
| 8059 | <trkpt lat="43.6044681" lon="1.4282763">
|
|---|
| 8060 | <time>2010-12-29T16:21:52Z</time>
|
|---|
| 8061 | </trkpt>
|
|---|
| 8062 | <trkpt lat="43.6044681" lon="1.428287">
|
|---|
| 8063 | <time>2010-12-29T16:21:53Z</time>
|
|---|
| 8064 | </trkpt>
|
|---|
| 8065 | <trkpt lat="43.6044734" lon="1.4282816">
|
|---|
| 8066 | <time>2010-12-29T16:21:54Z</time>
|
|---|
| 8067 | </trkpt>
|
|---|
| 8068 | <trkpt lat="43.6044734" lon="1.4282763">
|
|---|
| 8069 | <time>2010-12-29T16:21:55Z</time>
|
|---|
| 8070 | </trkpt>
|
|---|
| 8071 | <trkpt lat="43.6044788" lon="1.4282816">
|
|---|
| 8072 | <time>2010-12-29T16:21:56Z</time>
|
|---|
| 8073 | </trkpt>
|
|---|
| 8074 | <trkpt lat="43.6044734" lon="1.4282816">
|
|---|
| 8075 | <time>2010-12-29T16:21:57Z</time>
|
|---|
| 8076 | </trkpt>
|
|---|
| 8077 | <trkpt lat="43.6044788" lon="1.4282763">
|
|---|
| 8078 | <time>2010-12-29T16:21:58Z</time>
|
|---|
| 8079 | </trkpt>
|
|---|
| 8080 | <trkpt lat="43.6044788" lon="1.4282763">
|
|---|
| 8081 | <time>2010-12-29T16:21:59Z</time>
|
|---|
| 8082 | </trkpt>
|
|---|
| 8083 | <trkpt lat="43.6044788" lon="1.4282763">
|
|---|
| 8084 | <time>2010-12-29T16:22:00Z</time>
|
|---|
| 8085 | </trkpt>
|
|---|
| 8086 | <trkpt lat="43.6044842" lon="1.4283084">
|
|---|
| 8087 | <time>2010-12-29T16:22:01Z</time>
|
|---|
| 8088 | </trkpt>
|
|---|
| 8089 | <trkpt lat="43.6044895" lon="1.4283192">
|
|---|
| 8090 | <time>2010-12-29T16:22:02Z</time>
|
|---|
| 8091 | </trkpt>
|
|---|
| 8092 | <trkpt lat="43.6045002" lon="1.4283245">
|
|---|
| 8093 | <time>2010-12-29T16:22:03Z</time>
|
|---|
| 8094 | </trkpt>
|
|---|
| 8095 | <trkpt lat="43.6044895" lon="1.4283353">
|
|---|
| 8096 | <time>2010-12-29T16:22:04Z</time>
|
|---|
| 8097 | </trkpt>
|
|---|
| 8098 | <trkpt lat="43.6044895" lon="1.428346">
|
|---|
| 8099 | <time>2010-12-29T16:22:05Z</time>
|
|---|
| 8100 | </trkpt>
|
|---|
| 8101 | <trkpt lat="43.6044949" lon="1.4283514">
|
|---|
| 8102 | <time>2010-12-29T16:22:06Z</time>
|
|---|
| 8103 | </trkpt>
|
|---|
| 8104 | <trkpt lat="43.6044949" lon="1.4283567">
|
|---|
| 8105 | <time>2010-12-29T16:22:07Z</time>
|
|---|
| 8106 | </trkpt>
|
|---|
| 8107 | <trkpt lat="43.6044949" lon="1.4283567">
|
|---|
| 8108 | <time>2010-12-29T16:22:08Z</time>
|
|---|
| 8109 | </trkpt>
|
|---|
| 8110 | <trkpt lat="43.6044949" lon="1.4283567">
|
|---|
| 8111 | <time>2010-12-29T16:22:09Z</time>
|
|---|
| 8112 | </trkpt>
|
|---|
| 8113 | <trkpt lat="43.6044949" lon="1.4283567">
|
|---|
| 8114 | <time>2010-12-29T16:22:10Z</time>
|
|---|
| 8115 | </trkpt>
|
|---|
| 8116 | <trkpt lat="43.6044949" lon="1.4283567">
|
|---|
| 8117 | <time>2010-12-29T16:22:11Z</time>
|
|---|
| 8118 | </trkpt>
|
|---|
| 8119 | <trkpt lat="43.6045002" lon="1.4283621">
|
|---|
| 8120 | <time>2010-12-29T16:22:12Z</time>
|
|---|
| 8121 | </trkpt>
|
|---|
| 8122 | <trkpt lat="43.6044949" lon="1.4283567">
|
|---|
| 8123 | <time>2010-12-29T16:22:13Z</time>
|
|---|
| 8124 | </trkpt>
|
|---|
| 8125 | <trkpt lat="43.6045002" lon="1.4283567">
|
|---|
| 8126 | <time>2010-12-29T16:22:14Z</time>
|
|---|
| 8127 | </trkpt>
|
|---|
| 8128 | <trkpt lat="43.6045056" lon="1.4283514">
|
|---|
| 8129 | <time>2010-12-29T16:22:15Z</time>
|
|---|
| 8130 | </trkpt>
|
|---|
| 8131 | <trkpt lat="43.6045056" lon="1.4283514">
|
|---|
| 8132 | <time>2010-12-29T16:22:16Z</time>
|
|---|
| 8133 | </trkpt>
|
|---|
| 8134 | <trkpt lat="43.6045056" lon="1.4283514">
|
|---|
| 8135 | <time>2010-12-29T16:22:17Z</time>
|
|---|
| 8136 | </trkpt>
|
|---|
| 8137 | <trkpt lat="43.6045056" lon="1.4283514">
|
|---|
| 8138 | <time>2010-12-29T16:22:18Z</time>
|
|---|
| 8139 | </trkpt>
|
|---|
| 8140 | <trkpt lat="43.6045056" lon="1.4283514">
|
|---|
| 8141 | <time>2010-12-29T16:22:19Z</time>
|
|---|
| 8142 | </trkpt>
|
|---|
| 8143 | <trkpt lat="43.6045056" lon="1.4283514">
|
|---|
| 8144 | <time>2010-12-29T16:22:20Z</time>
|
|---|
| 8145 | </trkpt>
|
|---|
| 8146 | <trkpt lat="43.6045056" lon="1.428346">
|
|---|
| 8147 | <time>2010-12-29T16:22:21Z</time>
|
|---|
| 8148 | </trkpt>
|
|---|
| 8149 | <trkpt lat="43.6045056" lon="1.428346">
|
|---|
| 8150 | <time>2010-12-29T16:22:22Z</time>
|
|---|
| 8151 | </trkpt>
|
|---|
| 8152 | <trkpt lat="43.6045056" lon="1.4283514">
|
|---|
| 8153 | <time>2010-12-29T16:22:23Z</time>
|
|---|
| 8154 | </trkpt>
|
|---|
| 8155 | <trkpt lat="43.6045056" lon="1.428346">
|
|---|
| 8156 | <time>2010-12-29T16:22:25Z</time>
|
|---|
| 8157 | </trkpt>
|
|---|
| 8158 | <trkpt lat="43.6045056" lon="1.428346">
|
|---|
| 8159 | <time>2010-12-29T16:22:26Z</time>
|
|---|
| 8160 | </trkpt>
|
|---|
| 8161 | <trkpt lat="43.6045056" lon="1.428346">
|
|---|
| 8162 | <time>2010-12-29T16:22:27Z</time>
|
|---|
| 8163 | </trkpt>
|
|---|
| 8164 | <trkpt lat="43.6045056" lon="1.428346">
|
|---|
| 8165 | <time>2010-12-29T16:22:28Z</time>
|
|---|
| 8166 | </trkpt>
|
|---|
| 8167 | <trkpt lat="43.6045056" lon="1.428346">
|
|---|
| 8168 | <time>2010-12-29T16:22:29Z</time>
|
|---|
| 8169 | </trkpt>
|
|---|
| 8170 | <trkpt lat="43.6045056" lon="1.428346">
|
|---|
| 8171 | <time>2010-12-29T16:22:30Z</time>
|
|---|
| 8172 | </trkpt>
|
|---|
| 8173 | <trkpt lat="43.6045056" lon="1.428346">
|
|---|
| 8174 | <time>2010-12-29T16:22:31Z</time>
|
|---|
| 8175 | </trkpt>
|
|---|
| 8176 | <trkpt lat="43.6045056" lon="1.428346">
|
|---|
| 8177 | <time>2010-12-29T16:22:32Z</time>
|
|---|
| 8178 | </trkpt>
|
|---|
| 8179 | <trkpt lat="43.6045056" lon="1.428346">
|
|---|
| 8180 | <time>2010-12-29T16:22:33Z</time>
|
|---|
| 8181 | </trkpt>
|
|---|
| 8182 | <trkpt lat="43.6045056" lon="1.428346">
|
|---|
| 8183 | <time>2010-12-29T16:22:34Z</time>
|
|---|
| 8184 | </trkpt>
|
|---|
| 8185 | <trkpt lat="43.6045056" lon="1.428346">
|
|---|
| 8186 | <time>2010-12-29T16:22:35Z</time>
|
|---|
| 8187 | </trkpt>
|
|---|
| 8188 | <trkpt lat="43.6045056" lon="1.428346">
|
|---|
| 8189 | <time>2010-12-29T16:22:36Z</time>
|
|---|
| 8190 | </trkpt>
|
|---|
| 8191 | <trkpt lat="43.6045056" lon="1.428346">
|
|---|
| 8192 | <time>2010-12-29T16:22:37Z</time>
|
|---|
| 8193 | </trkpt>
|
|---|
| 8194 | <trkpt lat="43.6045056" lon="1.428346">
|
|---|
| 8195 | <time>2010-12-29T16:22:40Z</time>
|
|---|
| 8196 | </trkpt>
|
|---|
| 8197 | <trkpt lat="43.6045056" lon="1.428346">
|
|---|
| 8198 | <time>2010-12-29T16:22:41Z</time>
|
|---|
| 8199 | </trkpt>
|
|---|
| 8200 | <trkpt lat="43.6045056" lon="1.428346">
|
|---|
| 8201 | <time>2010-12-29T16:22:42Z</time>
|
|---|
| 8202 | </trkpt>
|
|---|
| 8203 | <trkpt lat="43.6045056" lon="1.428346">
|
|---|
| 8204 | <time>2010-12-29T16:22:43Z</time>
|
|---|
| 8205 | </trkpt>
|
|---|
| 8206 | <trkpt lat="43.6045056" lon="1.428346">
|
|---|
| 8207 | <time>2010-12-29T16:22:44Z</time>
|
|---|
| 8208 | </trkpt>
|
|---|
| 8209 | <trkpt lat="43.6045056" lon="1.428346">
|
|---|
| 8210 | <time>2010-12-29T16:22:45Z</time>
|
|---|
| 8211 | </trkpt>
|
|---|
| 8212 | <trkpt lat="43.6045056" lon="1.4283406">
|
|---|
| 8213 | <time>2010-12-29T16:22:46Z</time>
|
|---|
| 8214 | </trkpt>
|
|---|
| 8215 | <trkpt lat="43.6045056" lon="1.4283406">
|
|---|
| 8216 | <time>2010-12-29T16:22:47Z</time>
|
|---|
| 8217 | </trkpt>
|
|---|
| 8218 | <trkpt lat="43.6045056" lon="1.4283406">
|
|---|
| 8219 | <time>2010-12-29T16:22:48Z</time>
|
|---|
| 8220 | </trkpt>
|
|---|
| 8221 | <trkpt lat="43.6045056" lon="1.4283406">
|
|---|
| 8222 | <time>2010-12-29T16:22:49Z</time>
|
|---|
| 8223 | </trkpt>
|
|---|
| 8224 | <trkpt lat="43.6045056" lon="1.4283406">
|
|---|
| 8225 | <time>2010-12-29T16:22:50Z</time>
|
|---|
| 8226 | </trkpt>
|
|---|
| 8227 | <trkpt lat="43.6045056" lon="1.4283406">
|
|---|
| 8228 | <time>2010-12-29T16:22:51Z</time>
|
|---|
| 8229 | </trkpt>
|
|---|
| 8230 | <trkpt lat="43.6045056" lon="1.4283406">
|
|---|
| 8231 | <time>2010-12-29T16:22:52Z</time>
|
|---|
| 8232 | </trkpt>
|
|---|
| 8233 | <trkpt lat="43.6045056" lon="1.4283406">
|
|---|
| 8234 | <time>2010-12-29T16:22:53Z</time>
|
|---|
| 8235 | </trkpt>
|
|---|
| 8236 | <trkpt lat="43.6045056" lon="1.4283406">
|
|---|
| 8237 | <time>2010-12-29T16:22:54Z</time>
|
|---|
| 8238 | </trkpt>
|
|---|
| 8239 | <trkpt lat="43.6045056" lon="1.4283406">
|
|---|
| 8240 | <time>2010-12-29T16:22:55Z</time>
|
|---|
| 8241 | </trkpt>
|
|---|
| 8242 | <trkpt lat="43.6045056" lon="1.4283406">
|
|---|
| 8243 | <time>2010-12-29T16:22:56Z</time>
|
|---|
| 8244 | </trkpt>
|
|---|
| 8245 | </trkseg>
|
|---|
| 8246 | </trk>
|
|---|
| 8247 | <trk>
|
|---|
| 8248 | <trkseg>
|
|---|
| 8249 | <trkpt lat="43.608013" lon="1.425463">
|
|---|
| 8250 | <time>2010-08-14T11:05:14Z</time>
|
|---|
| 8251 | </trkpt>
|
|---|
| 8252 | <trkpt lat="43.60797" lon="1.425596">
|
|---|
| 8253 | <time>2010-08-14T11:05:15Z</time>
|
|---|
| 8254 | </trkpt>
|
|---|
| 8255 | <trkpt lat="43.60793" lon="1.425745">
|
|---|
| 8256 | <time>2010-08-14T11:05:16Z</time>
|
|---|
| 8257 | </trkpt>
|
|---|
| 8258 | <trkpt lat="43.607881" lon="1.425873">
|
|---|
| 8259 | <time>2010-08-14T11:05:17Z</time>
|
|---|
| 8260 | </trkpt>
|
|---|
| 8261 | <trkpt lat="43.607836" lon="1.42601">
|
|---|
| 8262 | <time>2010-08-14T11:05:18Z</time>
|
|---|
| 8263 | </trkpt>
|
|---|
| 8264 | <trkpt lat="43.60779" lon="1.426138">
|
|---|
| 8265 | <time>2010-08-14T11:05:19Z</time>
|
|---|
| 8266 | </trkpt>
|
|---|
| 8267 | <trkpt lat="43.607738" lon="1.426274">
|
|---|
| 8268 | <time>2010-08-14T11:05:20Z</time>
|
|---|
| 8269 | </trkpt>
|
|---|
| 8270 | <trkpt lat="43.607588" lon="1.426719">
|
|---|
| 8271 | <time>2010-08-14T11:05:23Z</time>
|
|---|
| 8272 | </trkpt>
|
|---|
| 8273 | <trkpt lat="43.607535" lon="1.426892">
|
|---|
| 8274 | <time>2010-08-14T11:05:25Z</time>
|
|---|
| 8275 | </trkpt>
|
|---|
| 8276 | <trkpt lat="43.607482" lon="1.427002">
|
|---|
| 8277 | <time>2010-08-14T11:05:26Z</time>
|
|---|
| 8278 | </trkpt>
|
|---|
| 8279 | <trkpt lat="43.607431" lon="1.427103">
|
|---|
| 8280 | <time>2010-08-14T11:05:27Z</time>
|
|---|
| 8281 | </trkpt>
|
|---|
| 8282 | <trkpt lat="43.607387" lon="1.427233">
|
|---|
| 8283 | <time>2010-08-14T11:05:28Z</time>
|
|---|
| 8284 | </trkpt>
|
|---|
| 8285 | <trkpt lat="43.607344" lon="1.427354">
|
|---|
| 8286 | <time>2010-08-14T11:05:29Z</time>
|
|---|
| 8287 | </trkpt>
|
|---|
| 8288 | <trkpt lat="43.607317" lon="1.427485">
|
|---|
| 8289 | <time>2010-08-14T11:05:30Z</time>
|
|---|
| 8290 | </trkpt>
|
|---|
| 8291 | <trkpt lat="43.607186" lon="1.427911">
|
|---|
| 8292 | <time>2010-08-14T11:05:33Z</time>
|
|---|
| 8293 | </trkpt>
|
|---|
| 8294 | <trkpt lat="43.606795" lon="1.429091">
|
|---|
| 8295 | <time>2010-08-14T11:05:42Z</time>
|
|---|
| 8296 | </trkpt>
|
|---|
| 8297 | <trkpt lat="43.606583" lon="1.429873">
|
|---|
| 8298 | <time>2010-08-14T11:05:51Z</time>
|
|---|
| 8299 | </trkpt>
|
|---|
| 8300 | <trkpt lat="43.606795" lon="1.430113">
|
|---|
| 8301 | <time>2010-08-14T11:05:57Z</time>
|
|---|
| 8302 | </trkpt>
|
|---|
| 8303 | <trkpt lat="43.60697" lon="1.430528">
|
|---|
| 8304 | <time>2010-08-14T11:06:02Z</time>
|
|---|
| 8305 | </trkpt>
|
|---|
| 8306 | </trkseg>
|
|---|
| 8307 | </trk>
|
|---|
| 8308 | <trk>
|
|---|
| 8309 | <trkseg>
|
|---|
| 8310 | <trkpt lat="43.60815" lon="1.426137"/>
|
|---|
| 8311 | <trkpt lat="43.60801" lon="1.426547"/>
|
|---|
| 8312 | <trkpt lat="43.60795" lon="1.426847"/>
|
|---|
| 8313 | <trkpt lat="43.60804" lon="1.427383"/>
|
|---|
| 8314 | <trkpt lat="43.60812" lon="1.42761"/>
|
|---|
| 8315 | <trkpt lat="43.60822" lon="1.427937"/>
|
|---|
| 8316 | <trkpt lat="43.60824" lon="1.428035"/>
|
|---|
| 8317 | <trkpt lat="43.60826" lon="1.428187"/>
|
|---|
| 8318 | <trkpt lat="43.60813" lon="1.428345"/>
|
|---|
| 8319 | <trkpt lat="43.60798" lon="1.428358"/>
|
|---|
| 8320 | <trkpt lat="43.60782" lon="1.428345"/>
|
|---|
| 8321 | <trkpt lat="43.60765" lon="1.428345"/>
|
|---|
| 8322 | <trkpt lat="43.60749" lon="1.42835"/>
|
|---|
| 8323 | <trkpt lat="43.60735" lon="1.428353"/>
|
|---|
| 8324 | <trkpt lat="43.60722" lon="1.428352"/>
|
|---|
| 8325 | <trkpt lat="43.60711" lon="1.428343"/>
|
|---|
| 8326 | <trkpt lat="43.60701" lon="1.428337"/>
|
|---|
| 8327 | <trkpt lat="43.60685" lon="1.428325"/>
|
|---|
| 8328 | <trkpt lat="43.60672" lon="1.428312"/>
|
|---|
| 8329 | <trkpt lat="43.60661" lon="1.428308"/>
|
|---|
| 8330 | <trkpt lat="43.60654" lon="1.428313"/>
|
|---|
| 8331 | <trkpt lat="43.60648" lon="1.428313"/>
|
|---|
| 8332 | <trkpt lat="43.60641" lon="1.428308"/>
|
|---|
| 8333 | <trkpt lat="43.60865" lon="1.429068"/>
|
|---|
| 8334 | <trkpt lat="43.60865" lon="1.429068"/>
|
|---|
| 8335 | <trkpt lat="43.60882" lon="1.42958"/>
|
|---|
| 8336 | <trkpt lat="43.60882" lon="1.42958"/>
|
|---|
| 8337 | <trkpt lat="43.60894" lon="1.42994"/>
|
|---|
| 8338 | <trkpt lat="43.60839" lon="1.42832"/>
|
|---|
| 8339 | <trkpt lat="43.60846" lon="1.428488"/>
|
|---|
| 8340 | <trkpt lat="43.60854" lon="1.428705"/>
|
|---|
| 8341 | <trkpt lat="43.60807" lon="1.428263"/>
|
|---|
| 8342 | <trkpt lat="43.60746" lon="1.428172"/>
|
|---|
| 8343 | <trkpt lat="43.60729" lon="1.428155"/>
|
|---|
| 8344 | <trkpt lat="43.60712" lon="1.42815"/>
|
|---|
| 8345 | <trkpt lat="43.60686" lon="1.428145"/>
|
|---|
| 8346 | <trkpt lat="43.60668" lon="1.428135"/>
|
|---|
| 8347 | <trkpt lat="43.6065" lon="1.42812"/>
|
|---|
| 8348 | <trkpt lat="43.60632" lon="1.428105"/>
|
|---|
| 8349 | <trkpt lat="43.60613" lon="1.42809"/>
|
|---|
| 8350 | <trkpt lat="43.60595" lon="1.428075"/>
|
|---|
| 8351 | <trkpt lat="43.60575" lon="1.428062"/>
|
|---|
| 8352 | <trkpt lat="43.60554" lon="1.42805"/>
|
|---|
| 8353 | <trkpt lat="43.60533" lon="1.428035"/>
|
|---|
| 8354 | <trkpt lat="43.60511" lon="1.42802"/>
|
|---|
| 8355 | <trkpt lat="43.60475" lon="1.427998"/>
|
|---|
| 8356 | <trkpt lat="43.60449" lon="1.427987"/>
|
|---|
| 8357 | <trkpt lat="43.60421" lon="1.427968"/>
|
|---|
| 8358 | <trkpt lat="43.60421" lon="1.427968"/>
|
|---|
| 8359 | <trkpt lat="43.60408" lon="1.427958"/>
|
|---|
| 8360 | <trkpt lat="43.60344" lon="1.427915"/>
|
|---|
| 8361 | <trkpt lat="43.60295" lon="1.427887"/>
|
|---|
| 8362 | <trkpt lat="43.60762" lon="1.42819"/>
|
|---|
| 8363 | <trkpt lat="43.60827" lon="1.428257"/>
|
|---|
| 8364 | <trkpt lat="43.60796" lon="1.428253"/>
|
|---|
| 8365 | <trkpt lat="43.60789" lon="1.42824"/>
|
|---|
| 8366 | <trkpt lat="43.60785" lon="1.428227"/>
|
|---|
| 8367 | <trkpt lat="43.60784" lon="1.428222"/>
|
|---|
| 8368 | <trkpt lat="43.60774" lon="1.428202"/>
|
|---|
| 8369 | <trkpt lat="43.6032" lon="1.4279"/>
|
|---|
| 8370 | <trkpt lat="43.60271" lon="1.427872"/>
|
|---|
| 8371 | <trkpt lat="43.60246" lon="1.427848"/>
|
|---|
| 8372 | <trkpt lat="43.60199" lon="1.427828"/>
|
|---|
| 8373 | <trkpt lat="43.60188" lon="1.427853"/>
|
|---|
| 8374 | <trkpt lat="43.60167" lon="1.427965"/>
|
|---|
| 8375 | <trkpt lat="43.60146" lon="1.428098"/>
|
|---|
| 8376 | <trkpt lat="43.60125" lon="1.428238"/>
|
|---|
| 8377 | <trkpt lat="43.60116" lon="1.428298"/>
|
|---|
| 8378 | <trkpt lat="43.60123" lon="1.427533"/>
|
|---|
| 8379 | <trkpt lat="43.60136" lon="1.427362"/>
|
|---|
| 8380 | <trkpt lat="43.6015" lon="1.427243"/>
|
|---|
| 8381 | <trkpt lat="43.60161" lon="1.42717"/>
|
|---|
| 8382 | <trkpt lat="43.60166" lon="1.427043"/>
|
|---|
| 8383 | <trkpt lat="43.6017" lon="1.426877"/>
|
|---|
| 8384 | <trkpt lat="43.60178" lon="1.426687"/>
|
|---|
| 8385 | <trkpt lat="43.60193" lon="1.42639"/>
|
|---|
| 8386 | <trkpt lat="43.60205" lon="1.426185"/>
|
|---|
| 8387 | <trkpt lat="43.60218" lon="1.425962"/>
|
|---|
| 8388 | <trkpt lat="43.60233" lon="1.425725"/>
|
|---|
| 8389 | <trkpt lat="43.60233" lon="1.425725"/>
|
|---|
| 8390 | <trkpt lat="43.60254" lon="1.425368"/>
|
|---|
| 8391 | <trkpt lat="43.6089817" lon="1.4301517"/>
|
|---|
| 8392 | <trkpt lat="43.6089433" lon="1.4300283"/>
|
|---|
| 8393 | <trkpt lat="43.608905" lon="1.4299083"/>
|
|---|
| 8394 | <trkpt lat="43.6088683" lon="1.4297917"/>
|
|---|
| 8395 | <trkpt lat="43.60883" lon="1.4296767"/>
|
|---|
| 8396 | <trkpt lat="43.608795" lon="1.4295633"/>
|
|---|
| 8397 | <trkpt lat="43.6087617" lon="1.429455"/>
|
|---|
| 8398 | <trkpt lat="43.6087267" lon="1.4293517"/>
|
|---|
| 8399 | <trkpt lat="43.6087" lon="1.429255"/>
|
|---|
| 8400 | <trkpt lat="43.6086733" lon="1.4291667"/>
|
|---|
| 8401 | <trkpt lat="43.60865" lon="1.4290917"/>
|
|---|
| 8402 | <trkpt lat="43.608635" lon="1.4290333"/>
|
|---|
| 8403 | <trkpt lat="43.6086233" lon="1.4289883"/>
|
|---|
| 8404 | <trkpt lat="43.6086167" lon="1.428955"/>
|
|---|
| 8405 | <trkpt lat="43.6086083" lon="1.4289267"/>
|
|---|
| 8406 | <trkpt lat="43.608605" lon="1.4289033"/>
|
|---|
| 8407 | <trkpt lat="43.608605" lon="1.42889"/>
|
|---|
| 8408 | <trkpt lat="43.6086" lon="1.42888"/>
|
|---|
| 8409 | <trkpt lat="43.6085967" lon="1.4288717"/>
|
|---|
| 8410 | <trkpt lat="43.60859" lon="1.4288633"/>
|
|---|
| 8411 | <trkpt lat="43.608585" lon="1.4288617"/>
|
|---|
| 8412 | <trkpt lat="43.6085817" lon="1.4288617"/>
|
|---|
| 8413 | <trkpt lat="43.6085817" lon="1.42886"/>
|
|---|
| 8414 | <trkpt lat="43.6085783" lon="1.4288583"/>
|
|---|
| 8415 | <trkpt lat="43.6085783" lon="1.4288567"/>
|
|---|
| 8416 | <trkpt lat="43.6085783" lon="1.4288533"/>
|
|---|
| 8417 | <trkpt lat="43.6085783" lon="1.4288517"/>
|
|---|
| 8418 | <trkpt lat="43.6085733" lon="1.4288483"/>
|
|---|
| 8419 | <trkpt lat="43.6085733" lon="1.4288483"/>
|
|---|
| 8420 | <trkpt lat="43.6085733" lon="1.42885"/>
|
|---|
| 8421 | <trkpt lat="43.60857" lon="1.4288517"/>
|
|---|
| 8422 | <trkpt lat="43.6085667" lon="1.428855"/>
|
|---|
| 8423 | <trkpt lat="43.6085667" lon="1.4288583"/>
|
|---|
| 8424 | <trkpt lat="43.6085617" lon="1.4288617"/>
|
|---|
| 8425 | <trkpt lat="43.6085617" lon="1.428865"/>
|
|---|
| 8426 | <trkpt lat="43.6085583" lon="1.4288683"/>
|
|---|
| 8427 | <trkpt lat="43.6085583" lon="1.42887"/>
|
|---|
| 8428 | <trkpt lat="43.6085583" lon="1.4288717"/>
|
|---|
| 8429 | <trkpt lat="43.6085583" lon="1.4288733"/>
|
|---|
| 8430 | <trkpt lat="43.6085583" lon="1.4288733"/>
|
|---|
| 8431 | <trkpt lat="43.6085583" lon="1.428875"/>
|
|---|
| 8432 | <trkpt lat="43.6085583" lon="1.4288767"/>
|
|---|
| 8433 | <trkpt lat="43.608555" lon="1.4288767"/>
|
|---|
| 8434 | <trkpt lat="43.608555" lon="1.4288783"/>
|
|---|
| 8435 | <trkpt lat="43.608555" lon="1.42888"/>
|
|---|
| 8436 | <trkpt lat="43.608555" lon="1.4288817"/>
|
|---|
| 8437 | <trkpt lat="43.608555" lon="1.4288817"/>
|
|---|
| 8438 | <trkpt lat="43.608555" lon="1.4288817"/>
|
|---|
| 8439 | <trkpt lat="43.6085583" lon="1.4288783"/>
|
|---|
| 8440 | <trkpt lat="43.6085583" lon="1.4288767"/>
|
|---|
| 8441 | <trkpt lat="43.6085583" lon="1.4288767"/>
|
|---|
| 8442 | <trkpt lat="43.6085583" lon="1.4288767"/>
|
|---|
| 8443 | <trkpt lat="43.6085617" lon="1.428875"/>
|
|---|
| 8444 | <trkpt lat="43.6085667" lon="1.4288767"/>
|
|---|
| 8445 | <trkpt lat="43.6085667" lon="1.4288767"/>
|
|---|
| 8446 | <trkpt lat="43.6085667" lon="1.4288767"/>
|
|---|
| 8447 | <trkpt lat="43.60857" lon="1.4288783"/>
|
|---|
| 8448 | <trkpt lat="43.60857" lon="1.4288817"/>
|
|---|
| 8449 | <trkpt lat="43.6085733" lon="1.4288817"/>
|
|---|
| 8450 | <trkpt lat="43.6085733" lon="1.4288817"/>
|
|---|
| 8451 | <trkpt lat="43.6085783" lon="1.4288817"/>
|
|---|
| 8452 | <trkpt lat="43.6085783" lon="1.4288817"/>
|
|---|
| 8453 | <trkpt lat="43.6085783" lon="1.4288783"/>
|
|---|
| 8454 | <trkpt lat="43.6085733" lon="1.4288717"/>
|
|---|
| 8455 | <trkpt lat="43.6085733" lon="1.4288617"/>
|
|---|
| 8456 | <trkpt lat="43.6085667" lon="1.4288383"/>
|
|---|
| 8457 | <trkpt lat="43.608555" lon="1.4288033"/>
|
|---|
| 8458 | <trkpt lat="43.6085433" lon="1.4287617"/>
|
|---|
| 8459 | <trkpt lat="43.6085283" lon="1.4287067"/>
|
|---|
| 8460 | <trkpt lat="43.6085083" lon="1.4286417"/>
|
|---|
| 8461 | <trkpt lat="43.6084867" lon="1.428575"/>
|
|---|
| 8462 | <trkpt lat="43.6084633" lon="1.4285117"/>
|
|---|
| 8463 | <trkpt lat="43.60844" lon="1.428445"/>
|
|---|
| 8464 | <trkpt lat="43.6084183" lon="1.4283717"/>
|
|---|
| 8465 | <trkpt lat="43.608395" lon="1.4282967"/>
|
|---|
| 8466 | <trkpt lat="43.6083683" lon="1.4282267"/>
|
|---|
| 8467 | <trkpt lat="43.608345" lon="1.42816"/>
|
|---|
| 8468 | <trkpt lat="43.6083267" lon="1.4280933"/>
|
|---|
| 8469 | <trkpt lat="43.60831" lon="1.428025"/>
|
|---|
| 8470 | <trkpt lat="43.608295" lon="1.4279617"/>
|
|---|
| 8471 | <trkpt lat="43.6082883" lon="1.4278983"/>
|
|---|
| 8472 | <trkpt lat="43.6082767" lon="1.427835"/>
|
|---|
| 8473 | <trkpt lat="43.608265" lon="1.4277833"/>
|
|---|
| 8474 | <trkpt lat="43.6082533" lon="1.4277383"/>
|
|---|
| 8475 | <trkpt lat="43.6082417" lon="1.4276933"/>
|
|---|
| 8476 | <trkpt lat="43.6082267" lon="1.4276483"/>
|
|---|
| 8477 | <trkpt lat="43.6082117" lon="1.4276017"/>
|
|---|
| 8478 | <trkpt lat="43.6081967" lon="1.4275533"/>
|
|---|
| 8479 | <trkpt lat="43.6081817" lon="1.4275033"/>
|
|---|
| 8480 | <trkpt lat="43.608155" lon="1.4274467"/>
|
|---|
| 8481 | <trkpt lat="43.6081283" lon="1.4273833"/>
|
|---|
| 8482 | <trkpt lat="43.608105" lon="1.42732"/>
|
|---|
| 8483 | <trkpt lat="43.608075" lon="1.4272667"/>
|
|---|
| 8484 | <trkpt lat="43.6080517" lon="1.42723"/>
|
|---|
| 8485 | <trkpt lat="43.60804" lon="1.4271883"/>
|
|---|
| 8486 | <trkpt lat="43.608025" lon="1.4271283"/>
|
|---|
| 8487 | <trkpt lat="43.60801" lon="1.4270617"/>
|
|---|
| 8488 | <trkpt lat="43.6080017" lon="1.4269833"/>
|
|---|
| 8489 | <trkpt lat="43.6079933" lon="1.4268967"/>
|
|---|
| 8490 | <trkpt lat="43.60799" lon="1.4268083"/>
|
|---|
| 8491 | <trkpt lat="43.6079983" lon="1.4267117"/>
|
|---|
| 8492 | <trkpt lat="43.60802" lon="1.4266117"/>
|
|---|
| 8493 | <trkpt lat="43.6080467" lon="1.4265033"/>
|
|---|
| 8494 | <trkpt lat="43.608085" lon="1.4263933"/>
|
|---|
| 8495 | <trkpt lat="43.6081283" lon="1.4262867"/>
|
|---|
| 8496 | <trkpt lat="43.60817" lon="1.4261817"/>
|
|---|
| 8497 | <trkpt lat="43.608215" lon="1.4260767"/>
|
|---|
| 8498 | <trkpt lat="43.6082617" lon="1.4259667"/>
|
|---|
| 8499 | <trkpt lat="43.6083033" lon="1.4258567"/>
|
|---|
| 8500 | <trkpt lat="43.6083483" lon="1.42575"/>
|
|---|
| 8501 | <trkpt lat="43.608395" lon="1.42564"/>
|
|---|
| 8502 | <trkpt lat="43.6084367" lon="1.4255233"/>
|
|---|
| 8503 | <trkpt lat="43.6084783" lon="1.4254067"/>
|
|---|
| 8504 | <trkpt lat="43.608999" lon="1.430063"/>
|
|---|
| 8505 | <trkpt lat="43.608952" lon="1.429943"/>
|
|---|
| 8506 | <trkpt lat="43.608922" lon="1.42982"/>
|
|---|
| 8507 | <trkpt lat="43.608891" lon="1.429706"/>
|
|---|
| 8508 | <trkpt lat="43.608857" lon="1.429598"/>
|
|---|
| 8509 | <trkpt lat="43.608825" lon="1.429484"/>
|
|---|
| 8510 | <trkpt lat="43.608794" lon="1.429381"/>
|
|---|
| 8511 | <trkpt lat="43.608757" lon="1.429278"/>
|
|---|
| 8512 | <trkpt lat="43.608721" lon="1.429184"/>
|
|---|
| 8513 | <trkpt lat="43.6087" lon="1.429096"/>
|
|---|
| 8514 | <trkpt lat="43.608682" lon="1.429021"/>
|
|---|
| 8515 | <trkpt lat="43.608669" lon="1.428976"/>
|
|---|
| 8516 | <trkpt lat="43.608653" lon="1.428928"/>
|
|---|
| 8517 | <trkpt lat="43.608641" lon="1.428892"/>
|
|---|
| 8518 | <trkpt lat="43.608633" lon="1.428868"/>
|
|---|
| 8519 | <trkpt lat="43.60863" lon="1.42884"/>
|
|---|
| 8520 | <trkpt lat="43.608627" lon="1.428827"/>
|
|---|
| 8521 | <trkpt lat="43.608616" lon="1.428827"/>
|
|---|
| 8522 | <trkpt lat="43.608615" lon="1.428815"/>
|
|---|
| 8523 | <trkpt lat="43.608608" lon="1.428815"/>
|
|---|
| 8524 | <trkpt lat="43.608596" lon="1.428818"/>
|
|---|
| 8525 | <trkpt lat="43.608596" lon="1.428817"/>
|
|---|
| 8526 | <trkpt lat="43.608596" lon="1.428817"/>
|
|---|
| 8527 | <trkpt lat="43.608596" lon="1.428818"/>
|
|---|
| 8528 | <trkpt lat="43.608596" lon="1.428817"/>
|
|---|
| 8529 | <trkpt lat="43.608596" lon="1.428817"/>
|
|---|
| 8530 | <trkpt lat="43.608595" lon="1.428816"/>
|
|---|
| 8531 | <trkpt lat="43.608595" lon="1.428816"/>
|
|---|
| 8532 | <trkpt lat="43.608595" lon="1.428816"/>
|
|---|
| 8533 | <trkpt lat="43.608595" lon="1.428816"/>
|
|---|
| 8534 | <trkpt lat="43.608596" lon="1.428817"/>
|
|---|
| 8535 | <trkpt lat="43.608595" lon="1.428816"/>
|
|---|
| 8536 | <trkpt lat="43.608595" lon="1.428816"/>
|
|---|
| 8537 | <trkpt lat="43.608595" lon="1.428816"/>
|
|---|
| 8538 | <trkpt lat="43.608595" lon="1.428815"/>
|
|---|
| 8539 | <trkpt lat="43.608595" lon="1.428815"/>
|
|---|
| 8540 | <trkpt lat="43.608595" lon="1.428815"/>
|
|---|
| 8541 | <trkpt lat="43.608595" lon="1.428815"/>
|
|---|
| 8542 | <trkpt lat="43.608595" lon="1.428815"/>
|
|---|
| 8543 | <trkpt lat="43.608595" lon="1.428815"/>
|
|---|
| 8544 | <trkpt lat="43.608595" lon="1.428815"/>
|
|---|
| 8545 | <trkpt lat="43.608595" lon="1.428815"/>
|
|---|
| 8546 | <trkpt lat="43.608595" lon="1.428815"/>
|
|---|
| 8547 | <trkpt lat="43.608595" lon="1.428814"/>
|
|---|
| 8548 | <trkpt lat="43.608595" lon="1.428814"/>
|
|---|
| 8549 | <trkpt lat="43.608595" lon="1.428813"/>
|
|---|
| 8550 | <trkpt lat="43.608595" lon="1.428813"/>
|
|---|
| 8551 | <trkpt lat="43.608595" lon="1.428812"/>
|
|---|
| 8552 | <trkpt lat="43.608595" lon="1.428812"/>
|
|---|
| 8553 | <trkpt lat="43.608595" lon="1.428812"/>
|
|---|
| 8554 | <trkpt lat="43.608595" lon="1.428812"/>
|
|---|
| 8555 | <trkpt lat="43.608595" lon="1.428812"/>
|
|---|
| 8556 | <trkpt lat="43.608595" lon="1.428812"/>
|
|---|
| 8557 | <trkpt lat="43.608595" lon="1.428812"/>
|
|---|
| 8558 | <trkpt lat="43.608595" lon="1.428812"/>
|
|---|
| 8559 | <trkpt lat="43.608595" lon="1.428811"/>
|
|---|
| 8560 | <trkpt lat="43.608595" lon="1.428811"/>
|
|---|
| 8561 | <trkpt lat="43.608595" lon="1.428811"/>
|
|---|
| 8562 | <trkpt lat="43.608595" lon="1.428811"/>
|
|---|
| 8563 | <trkpt lat="43.608595" lon="1.428811"/>
|
|---|
| 8564 | <trkpt lat="43.608595" lon="1.428811"/>
|
|---|
| 8565 | <trkpt lat="43.608595" lon="1.428811"/>
|
|---|
| 8566 | <trkpt lat="43.608595" lon="1.428811"/>
|
|---|
| 8567 | <trkpt lat="43.608595" lon="1.428811"/>
|
|---|
| 8568 | <trkpt lat="43.608595" lon="1.428811"/>
|
|---|
| 8569 | <trkpt lat="43.608594" lon="1.428809"/>
|
|---|
| 8570 | <trkpt lat="43.608593" lon="1.428805"/>
|
|---|
| 8571 | <trkpt lat="43.608588" lon="1.428795"/>
|
|---|
| 8572 | <trkpt lat="43.608566" lon="1.42874"/>
|
|---|
| 8573 | <trkpt lat="43.608546" lon="1.42867"/>
|
|---|
| 8574 | <trkpt lat="43.608523" lon="1.428605"/>
|
|---|
| 8575 | <trkpt lat="43.608504" lon="1.428529"/>
|
|---|
| 8576 | <trkpt lat="43.608479" lon="1.428459"/>
|
|---|
| 8577 | <trkpt lat="43.608455" lon="1.42838"/>
|
|---|
| 8578 | <trkpt lat="43.608427" lon="1.428297"/>
|
|---|
| 8579 | <trkpt lat="43.608402" lon="1.428226"/>
|
|---|
| 8580 | <trkpt lat="43.60838" lon="1.428162"/>
|
|---|
| 8581 | <trkpt lat="43.608358" lon="1.428095"/>
|
|---|
| 8582 | <trkpt lat="43.608339" lon="1.428039"/>
|
|---|
| 8583 | <trkpt lat="43.608322" lon="1.427985"/>
|
|---|
| 8584 | <trkpt lat="43.608308" lon="1.427926"/>
|
|---|
| 8585 | <trkpt lat="43.608296" lon="1.427876"/>
|
|---|
| 8586 | <trkpt lat="43.608281" lon="1.427827"/>
|
|---|
| 8587 | <trkpt lat="43.608266" lon="1.427781"/>
|
|---|
| 8588 | <trkpt lat="43.608248" lon="1.427743"/>
|
|---|
| 8589 | <trkpt lat="43.608234" lon="1.427693"/>
|
|---|
| 8590 | <trkpt lat="43.608221" lon="1.42764"/>
|
|---|
| 8591 | <trkpt lat="43.608203" lon="1.427588"/>
|
|---|
| 8592 | <trkpt lat="43.608184" lon="1.427535"/>
|
|---|
| 8593 | <trkpt lat="43.608155" lon="1.427484"/>
|
|---|
| 8594 | <trkpt lat="43.608123" lon="1.427415"/>
|
|---|
| 8595 | <trkpt lat="43.60809" lon="1.427353"/>
|
|---|
| 8596 | <trkpt lat="43.608058" lon="1.427289"/>
|
|---|
| 8597 | <trkpt lat="43.608032" lon="1.427224"/>
|
|---|
| 8598 | <trkpt lat="43.608008" lon="1.427154"/>
|
|---|
| 8599 | <trkpt lat="43.607984" lon="1.427087"/>
|
|---|
| 8600 | <trkpt lat="43.607957" lon="1.427028"/>
|
|---|
| 8601 | <trkpt lat="43.607967" lon="1.42694"/>
|
|---|
| 8602 | <trkpt lat="43.607985" lon="1.426857"/>
|
|---|
| 8603 | <trkpt lat="43.608009" lon="1.426782"/>
|
|---|
| 8604 | <trkpt lat="43.608041" lon="1.426686"/>
|
|---|
| 8605 | <trkpt lat="43.608072" lon="1.426574"/>
|
|---|
| 8606 | <trkpt lat="43.608108" lon="1.426459"/>
|
|---|
| 8607 | <trkpt lat="43.608152" lon="1.426343"/>
|
|---|
| 8608 | <trkpt lat="43.608211" lon="1.426237"/>
|
|---|
| 8609 | <trkpt lat="43.60825" lon="1.426115"/>
|
|---|
| 8610 | <trkpt lat="43.608297" lon="1.425995"/>
|
|---|
| 8611 | <trkpt lat="43.608335" lon="1.42588"/>
|
|---|
| 8612 | <trkpt lat="43.608373" lon="1.425773"/>
|
|---|
| 8613 | <trkpt lat="43.608415" lon="1.425662"/>
|
|---|
| 8614 | <trkpt lat="43.608456" lon="1.425554"/>
|
|---|
| 8615 | <trkpt lat="43.608472" lon="1.425422"/>
|
|---|
| 8616 | <trkpt lat="43.6079" lon="1.4257"/>
|
|---|
| 8617 | <trkpt lat="43.6068" lon="1.4305"/>
|
|---|
| 8618 | <trkpt lat="43.6064" lon="1.4302"/>
|
|---|
| 8619 | <trkpt lat="43.6072" lon="1.4279"/>
|
|---|
| 8620 | <trkpt lat="43.6074" lon="1.427"/>
|
|---|
| 8621 | <trkpt lat="43.60795" lon="1.425483"/>
|
|---|
| 8622 | <trkpt lat="43.607916" lon="1.4256"/>
|
|---|
| 8623 | <trkpt lat="43.607883" lon="1.425716"/>
|
|---|
| 8624 | <trkpt lat="43.6078" lon="1.425916"/>
|
|---|
| 8625 | <trkpt lat="43.607733" lon="1.426116"/>
|
|---|
| 8626 | <trkpt lat="43.607666" lon="1.4263"/>
|
|---|
| 8627 | <trkpt lat="43.6076" lon="1.42645"/>
|
|---|
| 8628 | <trkpt lat="43.607533" lon="1.426566"/>
|
|---|
| 8629 | <trkpt lat="43.60745" lon="1.426716"/>
|
|---|
| 8630 | <trkpt lat="43.607366" lon="1.4269"/>
|
|---|
| 8631 | <trkpt lat="43.607316" lon="1.42705"/>
|
|---|
| 8632 | <trkpt lat="43.607316" lon="1.427233"/>
|
|---|
| 8633 | <trkpt lat="43.607283" lon="1.427366"/>
|
|---|
| 8634 | <trkpt lat="43.607233" lon="1.427516"/>
|
|---|
| 8635 | <trkpt lat="43.607183" lon="1.427666"/>
|
|---|
| 8636 | <trkpt lat="43.607116" lon="1.427816"/>
|
|---|
| 8637 | <trkpt lat="43.60705" lon="1.427966"/>
|
|---|
| 8638 | <trkpt lat="43.606966" lon="1.428083"/>
|
|---|
| 8639 | <trkpt lat="43.606816" lon="1.428083"/>
|
|---|
| 8640 | <trkpt lat="43.606733" lon="1.428066"/>
|
|---|
| 8641 | <trkpt lat="43.606616" lon="1.428066"/>
|
|---|
| 8642 | <trkpt lat="43.606516" lon="1.428066"/>
|
|---|
| 8643 | <trkpt lat="43.606333" lon="1.42805"/>
|
|---|
| 8644 | <trkpt lat="43.60615" lon="1.428033"/>
|
|---|
| 8645 | <trkpt lat="43.606016" lon="1.428033"/>
|
|---|
| 8646 | <trkpt lat="43.605883" lon="1.428016"/>
|
|---|
| 8647 | <trkpt lat="43.60575" lon="1.428016"/>
|
|---|
| 8648 | <trkpt lat="43.605616" lon="1.428016"/>
|
|---|
| 8649 | <trkpt lat="43.6055" lon="1.428016"/>
|
|---|
| 8650 | <trkpt lat="43.605366" lon="1.428"/>
|
|---|
| 8651 | <trkpt lat="43.605233" lon="1.427983"/>
|
|---|
| 8652 | <trkpt lat="43.6051" lon="1.427983"/>
|
|---|
| 8653 | <trkpt lat="43.60495" lon="1.427983"/>
|
|---|
| 8654 | <trkpt lat="43.604816" lon="1.427966"/>
|
|---|
| 8655 | <trkpt lat="43.604666" lon="1.427966"/>
|
|---|
| 8656 | <trkpt lat="43.604533" lon="1.42795"/>
|
|---|
| 8657 | <trkpt lat="43.604383" lon="1.42795"/>
|
|---|
| 8658 | <trkpt lat="43.604233" lon="1.427933"/>
|
|---|
| 8659 | <trkpt lat="43.604083" lon="1.427933"/>
|
|---|
| 8660 | <trkpt lat="43.60395" lon="1.427916"/>
|
|---|
| 8661 | <trkpt lat="43.6038" lon="1.427916"/>
|
|---|
| 8662 | <trkpt lat="43.60365" lon="1.4279"/>
|
|---|
| 8663 | <trkpt lat="43.6035" lon="1.4279"/>
|
|---|
| 8664 | <trkpt lat="43.60335" lon="1.427883"/>
|
|---|
| 8665 | <trkpt lat="43.6032" lon="1.427883"/>
|
|---|
| 8666 | <trkpt lat="43.60305" lon="1.427866"/>
|
|---|
| 8667 | <trkpt lat="43.602883" lon="1.427866"/>
|
|---|
| 8668 | <trkpt lat="43.602733" lon="1.42785"/>
|
|---|
| 8669 | <trkpt lat="43.602583" lon="1.427833"/>
|
|---|
| 8670 | <trkpt lat="43.602433" lon="1.427833"/>
|
|---|
| 8671 | <trkpt lat="43.6023" lon="1.427833"/>
|
|---|
| 8672 | <trkpt lat="43.60215" lon="1.427833"/>
|
|---|
| 8673 | <trkpt lat="43.602016" lon="1.42785"/>
|
|---|
| 8674 | <trkpt lat="43.601883" lon="1.427883"/>
|
|---|
| 8675 | <trkpt lat="43.601766" lon="1.42795"/>
|
|---|
| 8676 | <trkpt lat="43.60165" lon="1.428033"/>
|
|---|
| 8677 | <trkpt lat="43.601533" lon="1.428116"/>
|
|---|
| 8678 | <trkpt lat="43.601416" lon="1.4282"/>
|
|---|
| 8679 | <trkpt lat="43.601283" lon="1.428283"/>
|
|---|
| 8680 | <trkpt lat="43.601166" lon="1.428366"/>
|
|---|
| 8681 | <trkpt lat="43.608066" lon="1.425366"/>
|
|---|
| 8682 | <trkpt lat="43.607983" lon="1.4256"/>
|
|---|
| 8683 | <trkpt lat="43.607766" lon="1.426183"/>
|
|---|
| 8684 | <trkpt lat="43.607733" lon="1.42635"/>
|
|---|
| 8685 | <trkpt lat="43.60765" lon="1.4266"/>
|
|---|
| 8686 | <trkpt lat="43.60755" lon="1.426766"/>
|
|---|
| 8687 | <trkpt lat="43.607433" lon="1.42715"/>
|
|---|
| 8688 | <trkpt lat="43.607333" lon="1.427383"/>
|
|---|
| 8689 | <trkpt lat="43.607283" lon="1.42755"/>
|
|---|
| 8690 | <trkpt lat="43.607216" lon="1.4277"/>
|
|---|
| 8691 | <trkpt lat="43.60705" lon="1.4281"/>
|
|---|
| 8692 | <trkpt lat="43.606933" lon="1.428166"/>
|
|---|
| 8693 | <trkpt lat="43.606766" lon="1.428183"/>
|
|---|
| 8694 | <trkpt lat="43.606616" lon="1.428183"/>
|
|---|
| 8695 | <trkpt lat="43.606133" lon="1.42815"/>
|
|---|
| 8696 | <trkpt lat="43.60585" lon="1.428133"/>
|
|---|
| 8697 | <trkpt lat="43.605716" lon="1.428133"/>
|
|---|
| 8698 | <trkpt lat="43.60545" lon="1.428116"/>
|
|---|
| 8699 | <trkpt lat="43.6051" lon="1.428083"/>
|
|---|
| 8700 | <trkpt lat="43.6049" lon="1.428066"/>
|
|---|
| 8701 | <trkpt lat="43.604683" lon="1.428066"/>
|
|---|
| 8702 | <trkpt lat="43.604233" lon="1.428033"/>
|
|---|
| 8703 | <trkpt lat="43.603983" lon="1.428016"/>
|
|---|
| 8704 | <trkpt lat="43.60375" lon="1.427983"/>
|
|---|
| 8705 | <trkpt lat="43.6034" lon="1.427966"/>
|
|---|
| 8706 | <trkpt lat="43.603183" lon="1.42795"/>
|
|---|
| 8707 | <trkpt lat="43.60295" lon="1.427933"/>
|
|---|
| 8708 | <trkpt lat="43.6026" lon="1.4279"/>
|
|---|
| 8709 | <trkpt lat="43.602366" lon="1.427883"/>
|
|---|
| 8710 | <trkpt lat="43.60215" lon="1.427866"/>
|
|---|
| 8711 | <trkpt lat="43.60185" lon="1.427933"/>
|
|---|
| 8712 | <trkpt lat="43.601666" lon="1.42805"/>
|
|---|
| 8713 | <trkpt lat="43.6015" lon="1.428166"/>
|
|---|
| 8714 | <trkpt lat="43.601366" lon="1.428283"/>
|
|---|
| 8715 | <trkpt lat="43.60125" lon="1.428366"/>
|
|---|
| 8716 | <trkpt lat="43.608933" lon="1.4301"/>
|
|---|
| 8717 | <trkpt lat="43.60885" lon="1.429833"/>
|
|---|
| 8718 | <trkpt lat="43.608766" lon="1.429566"/>
|
|---|
| 8719 | <trkpt lat="43.60865" lon="1.429266"/>
|
|---|
| 8720 | <trkpt lat="43.60855" lon="1.428933"/>
|
|---|
| 8721 | <trkpt lat="43.608633" lon="1.428733"/>
|
|---|
| 8722 | <trkpt lat="43.608783" lon="1.428566"/>
|
|---|
| 8723 | <trkpt lat="43.6086" lon="1.4283"/>
|
|---|
| 8724 | <trkpt lat="43.6085" lon="1.42805"/>
|
|---|
| 8725 | <trkpt lat="43.608433" lon="1.42785"/>
|
|---|
| 8726 | <trkpt lat="43.608583" lon="1.42705"/>
|
|---|
| 8727 | <trkpt lat="43.608633" lon="1.426866"/>
|
|---|
| 8728 | <trkpt lat="43.608716" lon="1.426633"/>
|
|---|
| 8729 | <trkpt lat="43.608883" lon="1.426266"/>
|
|---|
| 8730 | <trkpt lat="43.60895" lon="1.426116"/>
|
|---|
| 8731 | <trkpt lat="43.607916" lon="1.425383"/>
|
|---|
| 8732 | <trkpt lat="43.607816" lon="1.4258"/>
|
|---|
| 8733 | <trkpt lat="43.607616" lon="1.426116"/>
|
|---|
| 8734 | <trkpt lat="43.607416" lon="1.426383"/>
|
|---|
| 8735 | <trkpt lat="43.607333" lon="1.426566"/>
|
|---|
| 8736 | <trkpt lat="43.607166" lon="1.427166"/>
|
|---|
| 8737 | <trkpt lat="43.607116" lon="1.427383"/>
|
|---|
| 8738 | <trkpt lat="43.607183" lon="1.427616"/>
|
|---|
| 8739 | <trkpt lat="43.607283" lon="1.427816"/>
|
|---|
| 8740 | <trkpt lat="43.607183" lon="1.428016"/>
|
|---|
| 8741 | <trkpt lat="43.606916" lon="1.42805"/>
|
|---|
| 8742 | <trkpt lat="43.6067" lon="1.42805"/>
|
|---|
| 8743 | <trkpt lat="43.606533" lon="1.42805"/>
|
|---|
| 8744 | <trkpt lat="43.6064" lon="1.42805"/>
|
|---|
| 8745 | <trkpt lat="43.606216" lon="1.42805"/>
|
|---|
| 8746 | <trkpt lat="43.606" lon="1.428033"/>
|
|---|
| 8747 | <trkpt lat="43.605866" lon="1.428016"/>
|
|---|
| 8748 | <trkpt lat="43.605733" lon="1.428016"/>
|
|---|
| 8749 | <trkpt lat="43.6056" lon="1.428016"/>
|
|---|
| 8750 | <trkpt lat="43.605333" lon="1.428"/>
|
|---|
| 8751 | <trkpt lat="43.605116" lon="1.428"/>
|
|---|
| 8752 | <trkpt lat="43.604883" lon="1.428"/>
|
|---|
| 8753 | <trkpt lat="43.60475" lon="1.427983"/>
|
|---|
| 8754 | <trkpt lat="43.60435" lon="1.427966"/>
|
|---|
| 8755 | <trkpt lat="43.6042" lon="1.427966"/>
|
|---|
| 8756 | <trkpt lat="43.60405" lon="1.42795"/>
|
|---|
| 8757 | <trkpt lat="43.6039" lon="1.42795"/>
|
|---|
| 8758 | <trkpt lat="43.603466" lon="1.427916"/>
|
|---|
| 8759 | <trkpt lat="43.603316" lon="1.4279"/>
|
|---|
| 8760 | <trkpt lat="43.603166" lon="1.4279"/>
|
|---|
| 8761 | <trkpt lat="43.603033" lon="1.427883"/>
|
|---|
| 8762 | <trkpt lat="43.602633" lon="1.427866"/>
|
|---|
| 8763 | <trkpt lat="43.6025" lon="1.42785"/>
|
|---|
| 8764 | <trkpt lat="43.60225" lon="1.42785"/>
|
|---|
| 8765 | <trkpt lat="43.601916" lon="1.427933"/>
|
|---|
| 8766 | <trkpt lat="43.601733" lon="1.42805"/>
|
|---|
| 8767 | <trkpt lat="43.6015" lon="1.428216"/>
|
|---|
| 8768 | <trkpt lat="43.6013" lon="1.428333"/>
|
|---|
| 8769 | <trkpt lat="43.6012" lon="1.428383"/>
|
|---|
| 8770 | <trkpt lat="43.601583" lon="1.42815"/>
|
|---|
| 8771 | <trkpt lat="43.601766" lon="1.42805"/>
|
|---|
| 8772 | <trkpt lat="43.601966" lon="1.42805"/>
|
|---|
| 8773 | <trkpt lat="43.6021" lon="1.428016"/>
|
|---|
| 8774 | <trkpt lat="43.602366" lon="1.428033"/>
|
|---|
| 8775 | <trkpt lat="43.6025" lon="1.428033"/>
|
|---|
| 8776 | <trkpt lat="43.602633" lon="1.42805"/>
|
|---|
| 8777 | <trkpt lat="43.602783" lon="1.42805"/>
|
|---|
| 8778 | <trkpt lat="43.602916" lon="1.428066"/>
|
|---|
| 8779 | <trkpt lat="43.603066" lon="1.428066"/>
|
|---|
| 8780 | <trkpt lat="43.603366" lon="1.428083"/>
|
|---|
| 8781 | <trkpt lat="43.603516" lon="1.4281"/>
|
|---|
| 8782 | <trkpt lat="43.603683" lon="1.4281"/>
|
|---|
| 8783 | <trkpt lat="43.603833" lon="1.428116"/>
|
|---|
| 8784 | <trkpt lat="43.603983" lon="1.428116"/>
|
|---|
| 8785 | <trkpt lat="43.604133" lon="1.428133"/>
|
|---|
| 8786 | <trkpt lat="43.604283" lon="1.42815"/>
|
|---|
| 8787 | <trkpt lat="43.604416" lon="1.42815"/>
|
|---|
| 8788 | <trkpt lat="43.604566" lon="1.428166"/>
|
|---|
| 8789 | <trkpt lat="43.6047" lon="1.428166"/>
|
|---|
| 8790 | <trkpt lat="43.604833" lon="1.428183"/>
|
|---|
| 8791 | <trkpt lat="43.605116" lon="1.428183"/>
|
|---|
| 8792 | <trkpt lat="43.60525" lon="1.428183"/>
|
|---|
| 8793 | <trkpt lat="43.605433" lon="1.4282"/>
|
|---|
| 8794 | <trkpt lat="43.605666" lon="1.428216"/>
|
|---|
| 8795 | <trkpt lat="43.6059" lon="1.428233"/>
|
|---|
| 8796 | <trkpt lat="43.605916" lon="1.427966"/>
|
|---|
| 8797 | <trkpt lat="43.605933" lon="1.427666"/>
|
|---|
| 8798 | <trkpt lat="43.60595" lon="1.42745"/>
|
|---|
| 8799 | <trkpt lat="43.605983" lon="1.427233"/>
|
|---|
| 8800 | <trkpt lat="43.606" lon="1.427016"/>
|
|---|
| 8801 | <trkpt lat="43.606033" lon="1.426816"/>
|
|---|
| 8802 | <trkpt lat="43.606066" lon="1.426616"/>
|
|---|
| 8803 | <trkpt lat="43.6061" lon="1.426283"/>
|
|---|
| 8804 | <trkpt lat="43.60615" lon="1.426"/>
|
|---|
| 8805 | <trkpt lat="43.606166" lon="1.425816"/>
|
|---|
| 8806 | <trkpt lat="43.606183" lon="1.425616"/>
|
|---|
| 8807 | <trkpt lat="43.606183" lon="1.425383"/>
|
|---|
| 8808 | <trkpt lat="43.608016" lon="1.425483"/>
|
|---|
| 8809 | <trkpt lat="43.607866" lon="1.425883"/>
|
|---|
| 8810 | <trkpt lat="43.6078" lon="1.4261"/>
|
|---|
| 8811 | <trkpt lat="43.6077" lon="1.426383"/>
|
|---|
| 8812 | <trkpt lat="43.607583" lon="1.426666"/>
|
|---|
| 8813 | <trkpt lat="43.6075" lon="1.42685"/>
|
|---|
| 8814 | <trkpt lat="43.607516" lon="1.427033"/>
|
|---|
| 8815 | <trkpt lat="43.6075" lon="1.427233"/>
|
|---|
| 8816 | <trkpt lat="43.607416" lon="1.427433"/>
|
|---|
| 8817 | <trkpt lat="43.6073" lon="1.427683"/>
|
|---|
| 8818 | <trkpt lat="43.60715" lon="1.427916"/>
|
|---|
| 8819 | <trkpt lat="43.60695" lon="1.42785"/>
|
|---|
| 8820 | <trkpt lat="43.606483" lon="1.4278"/>
|
|---|
| 8821 | <trkpt lat="43.606333" lon="1.427816"/>
|
|---|
| 8822 | <trkpt lat="43.60595" lon="1.427816"/>
|
|---|
| 8823 | <trkpt lat="43.605783" lon="1.4278"/>
|
|---|
| 8824 | <trkpt lat="43.6056" lon="1.427816"/>
|
|---|
| 8825 | <trkpt lat="43.605333" lon="1.427816"/>
|
|---|
| 8826 | <trkpt lat="43.60515" lon="1.427816"/>
|
|---|
| 8827 | <trkpt lat="43.604983" lon="1.42785"/>
|
|---|
| 8828 | <trkpt lat="43.604833" lon="1.427866"/>
|
|---|
| 8829 | <trkpt lat="43.604566" lon="1.427866"/>
|
|---|
| 8830 | <trkpt lat="43.604416" lon="1.427866"/>
|
|---|
| 8831 | <trkpt lat="43.604" lon="1.427866"/>
|
|---|
| 8832 | <trkpt lat="43.603833" lon="1.427866"/>
|
|---|
| 8833 | <trkpt lat="43.6037" lon="1.427866"/>
|
|---|
| 8834 | <trkpt lat="43.60355" lon="1.427866"/>
|
|---|
| 8835 | <trkpt lat="43.603416" lon="1.427883"/>
|
|---|
| 8836 | <trkpt lat="43.603166" lon="1.427866"/>
|
|---|
| 8837 | <trkpt lat="43.603033" lon="1.427866"/>
|
|---|
| 8838 | <trkpt lat="43.602783" lon="1.42785"/>
|
|---|
| 8839 | <trkpt lat="43.60265" lon="1.42785"/>
|
|---|
| 8840 | <trkpt lat="43.6022" lon="1.427816"/>
|
|---|
| 8841 | <trkpt lat="43.601966" lon="1.42785"/>
|
|---|
| 8842 | <trkpt lat="43.601766" lon="1.427966"/>
|
|---|
| 8843 | <trkpt lat="43.601566" lon="1.4281"/>
|
|---|
| 8844 | <trkpt lat="43.601366" lon="1.42825"/>
|
|---|
| 8845 | <trkpt lat="43.601183" lon="1.4284"/>
|
|---|
| 8846 | <trkpt lat="43.601133" lon="1.42855"/>
|
|---|
| 8847 | <trkpt lat="43.60125" lon="1.42845"/>
|
|---|
| 8848 | <trkpt lat="43.601383" lon="1.428366"/>
|
|---|
| 8849 | <trkpt lat="43.60175" lon="1.4281"/>
|
|---|
| 8850 | <trkpt lat="43.601866" lon="1.428016"/>
|
|---|
| 8851 | <trkpt lat="43.602" lon="1.427966"/>
|
|---|
| 8852 | <trkpt lat="43.602133" lon="1.42795"/>
|
|---|
| 8853 | <trkpt lat="43.602533" lon="1.42795"/>
|
|---|
| 8854 | <trkpt lat="43.602666" lon="1.427966"/>
|
|---|
| 8855 | <trkpt lat="43.602816" lon="1.427966"/>
|
|---|
| 8856 | <trkpt lat="43.60295" lon="1.427983"/>
|
|---|
| 8857 | <trkpt lat="43.6038" lon="1.428033"/>
|
|---|
| 8858 | <trkpt lat="43.603933" lon="1.42805"/>
|
|---|
| 8859 | <trkpt lat="43.604083" lon="1.42805"/>
|
|---|
| 8860 | <trkpt lat="43.604233" lon="1.428066"/>
|
|---|
| 8861 | <trkpt lat="43.604383" lon="1.428083"/>
|
|---|
| 8862 | <trkpt lat="43.604533" lon="1.428083"/>
|
|---|
| 8863 | <trkpt lat="43.604666" lon="1.4281"/>
|
|---|
| 8864 | <trkpt lat="43.60525" lon="1.42815"/>
|
|---|
| 8865 | <trkpt lat="43.605383" lon="1.42815"/>
|
|---|
| 8866 | <trkpt lat="43.605533" lon="1.428166"/>
|
|---|
| 8867 | <trkpt lat="43.605666" lon="1.428166"/>
|
|---|
| 8868 | <trkpt lat="43.605816" lon="1.428183"/>
|
|---|
| 8869 | <trkpt lat="43.60595" lon="1.428183"/>
|
|---|
| 8870 | <trkpt lat="43.606083" lon="1.4282"/>
|
|---|
| 8871 | <trkpt lat="43.606333" lon="1.4282"/>
|
|---|
| 8872 | <trkpt lat="43.606783" lon="1.428216"/>
|
|---|
| 8873 | <trkpt lat="43.607" lon="1.42825"/>
|
|---|
| 8874 | <trkpt lat="43.607216" lon="1.428266"/>
|
|---|
| 8875 | <trkpt lat="43.607466" lon="1.428216"/>
|
|---|
| 8876 | <trkpt lat="43.607566" lon="1.42805"/>
|
|---|
| 8877 | <trkpt lat="43.60765" lon="1.427816"/>
|
|---|
| 8878 | <trkpt lat="43.607733" lon="1.427633"/>
|
|---|
| 8879 | <trkpt lat="43.607783" lon="1.427433"/>
|
|---|
| 8880 | <trkpt lat="43.607866" lon="1.427233"/>
|
|---|
| 8881 | <trkpt lat="43.607966" lon="1.4269"/>
|
|---|
| 8882 | <trkpt lat="43.60815" lon="1.426"/>
|
|---|
| 8883 | <trkpt lat="43.608366" lon="1.425416"/>
|
|---|
| 8884 | <trkpt lat="43.60835" lon="1.4255"/>
|
|---|
| 8885 | <trkpt lat="43.608216" lon="1.425933"/>
|
|---|
| 8886 | <trkpt lat="43.6081" lon="1.426183"/>
|
|---|
| 8887 | <trkpt lat="43.607983" lon="1.4265"/>
|
|---|
| 8888 | <trkpt lat="43.60775" lon="1.42715"/>
|
|---|
| 8889 | <trkpt lat="43.607633" lon="1.427316"/>
|
|---|
| 8890 | <trkpt lat="43.60755" lon="1.4275"/>
|
|---|
| 8891 | <trkpt lat="43.60745" lon="1.42775"/>
|
|---|
| 8892 | <trkpt lat="43.607283" lon="1.4279"/>
|
|---|
| 8893 | <trkpt lat="43.607183" lon="1.428116"/>
|
|---|
| 8894 | <trkpt lat="43.607033" lon="1.428283"/>
|
|---|
| 8895 | <trkpt lat="43.6069" lon="1.428283"/>
|
|---|
| 8896 | <trkpt lat="43.60675" lon="1.428266"/>
|
|---|
| 8897 | <trkpt lat="43.606416" lon="1.428233"/>
|
|---|
| 8898 | <trkpt lat="43.606266" lon="1.428233"/>
|
|---|
| 8899 | <trkpt lat="43.606133" lon="1.428216"/>
|
|---|
| 8900 | <trkpt lat="43.60595" lon="1.428216"/>
|
|---|
| 8901 | <trkpt lat="43.605566" lon="1.4282"/>
|
|---|
| 8902 | <trkpt lat="43.605333" lon="1.428183"/>
|
|---|
| 8903 | <trkpt lat="43.605116" lon="1.428166"/>
|
|---|
| 8904 | <trkpt lat="43.604633" lon="1.428133"/>
|
|---|
| 8905 | <trkpt lat="43.604383" lon="1.428116"/>
|
|---|
| 8906 | <trkpt lat="43.60425" lon="1.4281"/>
|
|---|
| 8907 | <trkpt lat="43.603883" lon="1.428066"/>
|
|---|
| 8908 | <trkpt lat="43.60375" lon="1.428066"/>
|
|---|
| 8909 | <trkpt lat="43.6036" lon="1.42805"/>
|
|---|
| 8910 | <trkpt lat="43.603466" lon="1.428033"/>
|
|---|
| 8911 | <trkpt lat="43.603083" lon="1.428"/>
|
|---|
| 8912 | <trkpt lat="43.602933" lon="1.427983"/>
|
|---|
| 8913 | <trkpt lat="43.6028" lon="1.427983"/>
|
|---|
| 8914 | <trkpt lat="43.602666" lon="1.427966"/>
|
|---|
| 8915 | <trkpt lat="43.602266" lon="1.427933"/>
|
|---|
| 8916 | <trkpt lat="43.602033" lon="1.427933"/>
|
|---|
| 8917 | <trkpt lat="43.601916" lon="1.427983"/>
|
|---|
| 8918 | <trkpt lat="43.601483" lon="1.428283"/>
|
|---|
| 8919 | <trkpt lat="43.601366" lon="1.428366"/>
|
|---|
| 8920 | <trkpt lat="43.60125" lon="1.42845"/>
|
|---|
| 8921 | <trkpt lat="43.601133" lon="1.428533"/>
|
|---|
| 8922 | </trkseg>
|
|---|
| 8923 | </trk>
|
|---|
| 8924 | </gpx>
|
|---|